<?xml version='1.0' encoding='UTF-8'?><gpx version="1.1" creator="JPX - https://github.com/jenetics/jpx" xmlns="http://www.topografix.com/GPX/1/1"><trk><trkseg><trkpt lat="44.44345091477982" lon="11.47121569933421"><ele>63.0</ele><time>2026-04-24T15:45:31.959Z</time></trkpt><trkpt lat="44.44338081831109" lon="11.471175707834137"><ele>63.0</ele><time>2026-04-24T15:45:34.959Z</time></trkpt><trkpt lat="44.44330834832639" lon="11.47115208224179"><ele>63.0</ele><time>2026-04-24T15:45:36.959Z</time></trkpt><trkpt lat="44.44324491875928" lon="11.471114035979266"><ele>63.0</ele><time>2026-04-24T15:45:38.959Z</time></trkpt><trkpt lat="44.4431889492872" lon="11.471068698690285"><ele>63.0</ele><time>2026-04-24T15:45:40.959Z</time></trkpt><trkpt lat="44.44312602193467" lon="11.471040401173754"><ele>63.0</ele><time>2026-04-24T15:45:42.959Z</time></trkpt><trkpt lat="44.443066151188965" lon="11.47099876695106"><ele>63.0</ele><time>2026-04-24T15:45:44.959Z</time></trkpt><trkpt lat="44.44307317701114" lon="11.470887220320595"><ele>63.0</ele><time>2026-04-24T15:45:46.959Z</time></trkpt><trkpt lat="44.44309191762721" lon="11.470779026710483"><ele>63.0</ele><time>2026-04-24T15:45:48.959Z</time></trkpt><trkpt lat="44.44311404914446" lon="11.47065963686215"><ele>63.0</ele><time>2026-04-24T15:45:50.959Z</time></trkpt><trkpt lat="44.44316074283979" lon="11.470550016415398"><ele>63.0</ele><time>2026-04-24T15:45:52.959Z</time></trkpt><trkpt lat="44.443186677446306" lon="11.470439913519817"><ele>63.0</ele><time>2026-04-24T15:45:54.959Z</time></trkpt><trkpt lat="44.44320810992469" lon="11.470325119244096"><ele>63.0</ele><time>2026-04-24T15:45:56.959Z</time></trkpt><trkpt lat="44.443237813259955" lon="11.470214878268608"><ele>63.166666666666664</ele><time>2026-04-24T15:45:58.959Z</time></trkpt><trkpt lat="44.443276598820944" lon="11.470114638077625"><ele>63.33333333333333</ele><time>2026-04-24T15:46:00.959Z</time></trkpt><trkpt lat="44.443312695666286" lon="11.470001604959151"><ele>63.5</ele><time>2026-04-24T15:46:02.959Z</time></trkpt><trkpt lat="44.443362625961086" lon="11.469912035628267"><ele>63.666666666666664</ele><time>2026-04-24T15:46:04.959Z</time></trkpt><trkpt lat="44.44339688439503" lon="11.469789436760795"><ele>63.83333333333333</ele><time>2026-04-24T15:46:06.959Z</time></trkpt><trkpt lat="44.44342049639616" lon="11.469682867502117"><ele>64.0</ele><time>2026-04-24T15:46:08.959Z</time></trkpt><trkpt lat="44.44343865218046" lon="11.469560982760532"><ele>63.6</ele><time>2026-04-24T15:46:10.959Z</time></trkpt><trkpt lat="44.443465268712174" lon="11.46941947503222"><ele>63.2</ele><time>2026-04-24T15:46:12.959Z</time></trkpt><trkpt lat="44.44348981582346" lon="11.469279249951516"><ele>62.800000000000004</ele><time>2026-04-24T15:46:14.959Z</time></trkpt><trkpt lat="44.44352015948008" lon="11.469133246938693"><ele>62.400000000000006</ele><time>2026-04-24T15:46:16.959Z</time></trkpt><trkpt lat="44.44358426369954" lon="11.469019451332432"><ele>62.0</ele><time>2026-04-24T15:46:18.959Z</time></trkpt><trkpt lat="44.44363520641973" lon="11.468959434508752"><ele>62.00000000000001</ele><time>2026-04-24T15:46:19.959Z</time></trkpt><trkpt lat="44.443733698338335" lon="11.468892723024284"><ele>62.0</ele><time>2026-04-24T15:46:21.959Z</time></trkpt><trkpt lat="44.44379548617536" lon="11.468819670209292"><ele>62.0</ele><time>2026-04-24T15:46:23.959Z</time></trkpt><trkpt lat="44.443846240076006" lon="11.46874250366363"><ele>62.0</ele><time>2026-04-24T15:46:25.959Z</time></trkpt><trkpt lat="44.44389945388159" lon="11.468664592252619"><ele>62.00000000000001</ele><time>2026-04-24T15:46:27.959Z</time></trkpt><trkpt lat="44.44394399437666" lon="11.468562893801668"><ele>62.0</ele><time>2026-04-24T15:46:29.959Z</time></trkpt><trkpt lat="44.44398365497093" lon="11.46845999404126"><ele>62.00000000000001</ele><time>2026-04-24T15:46:31.959Z</time></trkpt><trkpt lat="44.444034405627235" lon="11.468343939172039"><ele>62.0</ele><time>2026-04-24T15:46:33.959Z</time></trkpt><trkpt lat="44.44408460151934" lon="11.468243732969068"><ele>62.0</ele><time>2026-04-24T15:46:35.899Z</time></trkpt><trkpt lat="44.444122567287195" lon="11.468138983902955"><ele>62.0</ele><time>2026-04-24T15:46:37.899Z</time></trkpt><trkpt lat="44.44416770642251" lon="11.468037742585265"><ele>62.00000000000001</ele><time>2026-04-24T15:46:39.899Z</time></trkpt><trkpt lat="44.44421127735793" lon="11.467946992547546"><ele>62.0</ele><time>2026-04-24T15:46:41.899Z</time></trkpt><trkpt lat="44.44424941763248" lon="11.467835642781298"><ele>62.00000000000001</ele><time>2026-04-24T15:46:43.899Z</time></trkpt><trkpt lat="44.444291566379896" lon="11.467720539014463"><ele>62.0</ele><time>2026-04-24T15:46:45.899Z</time></trkpt><trkpt lat="44.444331353682074" lon="11.467618813224224"><ele>62.0</ele><time>2026-04-24T15:46:47.899Z</time></trkpt><trkpt lat="44.44435736309139" lon="11.467513833895868"><ele>62.0</ele><time>2026-04-24T15:46:49.899Z</time></trkpt><trkpt lat="44.44440179756333" lon="11.467417049254038"><ele>62.00000000000001</ele><time>2026-04-24T15:46:51.899Z</time></trkpt><trkpt lat="44.444444110649066" lon="11.46731259058501"><ele>62.0</ele><time>2026-04-24T15:46:53.899Z</time></trkpt><trkpt lat="44.44448137563675" lon="11.467205730523022"><ele>62.0</ele><time>2026-04-24T15:46:55.899Z</time></trkpt><trkpt lat="44.44452832986986" lon="11.46709406224464"><ele>62.0</ele><time>2026-04-24T15:46:57.899Z</time></trkpt><trkpt lat="44.44455690244822" lon="11.4669902012189"><ele>62.0</ele><time>2026-04-24T15:46:59.899Z</time></trkpt><trkpt lat="44.44457078903648" lon="11.466867508238229"><ele>62.0</ele><time>2026-04-24T15:47:01.899Z</time></trkpt><trkpt lat="44.44460168558766" lon="11.466739889491587"><ele>62.0</ele><time>2026-04-24T15:47:03.899Z</time></trkpt><trkpt lat="44.44465907165429" lon="11.466636308464484"><ele>62.00000000000001</ele><time>2026-04-24T15:47:05.899Z</time></trkpt><trkpt lat="44.44469872324225" lon="11.466529084921175"><ele>62.0</ele><time>2026-04-24T15:47:07.899Z</time></trkpt><trkpt lat="44.44473373961139" lon="11.466421780816878"><ele>62.0</ele><time>2026-04-24T15:47:09.899Z</time></trkpt><trkpt lat="44.44477714664895" lon="11.46631270725648"><ele>62.0</ele><time>2026-04-24T15:47:11.9Z</time></trkpt><trkpt lat="44.444815305585394" lon="11.466197921104435"><ele>62.00000000000001</ele><time>2026-04-24T15:47:13.899Z</time></trkpt><trkpt lat="44.44486475889693" lon="11.466097437925049"><ele>62.0</ele><time>2026-04-24T15:47:15.899Z</time></trkpt><trkpt lat="44.444901408597154" lon="11.465995931382372"><ele>62.0</ele><time>2026-04-24T15:47:17.899Z</time></trkpt><trkpt lat="44.444940357649244" lon="11.46588681411416"><ele>62.0</ele><time>2026-04-24T15:47:19.899Z</time></trkpt><trkpt lat="44.44498772219729" lon="11.465761549677527"><ele>62.0</ele><time>2026-04-24T15:47:21.899Z</time></trkpt><trkpt lat="44.44496162470718" lon="11.465625205717643"><ele>62.0</ele><time>2026-04-24T15:47:23.899Z</time></trkpt><trkpt lat="44.44487576431934" lon="11.46554194081673"><ele>62.0</ele><time>2026-04-24T15:47:25.899Z</time></trkpt><trkpt lat="44.44479750285174" lon="11.46547857505343"><ele>62.00000000000001</ele><time>2026-04-24T15:47:27.899Z</time></trkpt><trkpt lat="44.44472878905183" lon="11.46540711134387"><ele>62.0</ele><time>2026-04-24T15:47:29.899Z</time></trkpt><trkpt lat="44.44466155949522" lon="11.465342930624479"><ele>62.0</ele><time>2026-04-24T15:47:31.899Z</time></trkpt><trkpt lat="44.44459597885556" lon="11.46528338126765"><ele>62.0</ele><time>2026-04-24T15:47:33.899Z</time></trkpt><trkpt lat="44.44453960361243" lon="11.465220293902611"><ele>62.00000000000001</ele><time>2026-04-24T15:47:35.899Z</time></trkpt><trkpt lat="44.44447653358" lon="11.465153011617387"><ele>62.0</ele><time>2026-04-24T15:47:37.899Z</time></trkpt><trkpt lat="44.44440638681904" lon="11.465083394360297"><ele>62.142857142857146</ele><time>2026-04-24T15:47:39.899Z</time></trkpt><trkpt lat="44.44434754028302" lon="11.465015764165038"><ele>62.28571428571429</ele><time>2026-04-24T15:47:41.899Z</time></trkpt><trkpt lat="44.44429341000604" lon="11.464934636376661"><ele>62.42857142857143</ele><time>2026-04-24T15:47:43.899Z</time></trkpt><trkpt lat="44.44424746397805" lon="11.464859987868183"><ele>62.57142857142857</ele><time>2026-04-24T15:47:45.899Z</time></trkpt><trkpt lat="44.44420056782773" lon="11.464785395706848"><ele>62.714285714285715</ele><time>2026-04-24T15:47:47.899Z</time></trkpt><trkpt lat="44.44415431034448" lon="11.464715533285938"><ele>62.85714285714286</ele><time>2026-04-24T15:47:49.899Z</time></trkpt><trkpt lat="44.44411105299878" lon="11.464650807257877"><ele>63.0</ele><time>2026-04-24T15:47:51.899Z</time></trkpt><trkpt lat="44.444065358300634" lon="11.464577175434187"><ele>63.166666666666664</ele><time>2026-04-24T15:47:53.899Z</time></trkpt><trkpt lat="44.4440074482622" lon="11.464483721356604"><ele>63.33333333333333</ele><time>2026-04-24T15:47:56.899Z</time></trkpt><trkpt lat="44.4439618090202" lon="11.464413112656748"><ele>63.5</ele><time>2026-04-24T15:47:58.899Z</time></trkpt><trkpt lat="44.44391958539631" lon="11.464335335236065"><ele>63.666666666666664</ele><time>2026-04-24T15:48:00.899Z</time></trkpt><trkpt lat="44.44386979871771" lon="11.46426463057662"><ele>63.83333333333333</ele><time>2026-04-24T15:48:02.899Z</time></trkpt><trkpt lat="44.44380369353572" lon="11.464190319590553"><ele>64.0</ele><time>2026-04-24T15:48:04.899Z</time></trkpt><trkpt lat="44.44373272089514" lon="11.464112768261904"><ele>64.42857142857143</ele><time>2026-04-24T15:48:06.899Z</time></trkpt><trkpt lat="44.44368054740996" lon="11.464040422328658"><ele>64.85714285714285</ele><time>2026-04-24T15:48:08.899Z</time></trkpt><trkpt lat="44.44364446573299" lon="11.463953059794225"><ele>65.28571428571428</ele><time>2026-04-24T15:48:10.899Z</time></trkpt><trkpt lat="44.44360939765159" lon="11.463860224927487"><ele>65.71428571428571</ele><time>2026-04-24T15:48:12.899Z</time></trkpt><trkpt lat="44.44356704075469" lon="11.46377884997566"><ele>66.14285714285714</ele><time>2026-04-24T15:48:14.899Z</time></trkpt><trkpt lat="44.44351790030776" lon="11.463703561003966"><ele>66.57142857142857</ele><time>2026-04-24T15:48:16.899Z</time></trkpt><trkpt lat="44.443475834221424" lon="11.463619091451765"><ele>67.0</ele><time>2026-04-24T15:48:18.899Z</time></trkpt><trkpt lat="44.443423111028146" lon="11.463550980333107"><ele>67.28571428571429</ele><time>2026-04-24T15:48:20.899Z</time></trkpt><trkpt lat="44.44337419279733" lon="11.463478121954063"><ele>67.57142857142857</ele><time>2026-04-24T15:48:22.899Z</time></trkpt><trkpt lat="44.443324308967554" lon="11.463407449427857"><ele>67.85714285714286</ele><time>2026-04-24T15:48:24.899Z</time></trkpt><trkpt lat="44.443277486007105" lon="11.463337250827138"><ele>68.14285714285714</ele><time>2026-04-24T15:48:26.899Z</time></trkpt><trkpt lat="44.44322400558268" lon="11.463268549172275"><ele>68.42857142857143</ele><time>2026-04-24T15:48:28.899Z</time></trkpt><trkpt lat="44.443173426841724" lon="11.4632018378439"><ele>68.71428571428572</ele><time>2026-04-24T15:48:30.899Z</time></trkpt><trkpt lat="44.44311877845158" lon="11.463132587804202"><ele>69.0</ele><time>2026-04-24T15:48:32.899Z</time></trkpt><trkpt lat="44.44306251952766" lon="11.463067069672901"><ele>69.0</ele><time>2026-04-24T15:48:34.899Z</time></trkpt><trkpt lat="44.443014723781545" lon="11.463003378917131"><ele>69.0</ele><time>2026-04-24T15:48:36.899Z</time></trkpt><trkpt lat="44.44296036306794" lon="11.462945572533949"><ele>69.0</ele><time>2026-04-24T15:48:38.899Z</time></trkpt><trkpt lat="44.44289858259916" lon="11.462889247676669"><ele>69.0</ele><time>2026-04-24T15:48:40.899Z</time></trkpt><trkpt lat="44.44283181474842" lon="11.462828125428848"><ele>69.0</ele><time>2026-04-24T15:48:42.899Z</time></trkpt><trkpt lat="44.44277193972372" lon="11.462767525286141"><ele>69.0</ele><time>2026-04-24T15:48:44.899Z</time></trkpt><trkpt lat="44.442716928972274" lon="11.46270776554933"><ele>69.0</ele><time>2026-04-24T15:48:46.899Z</time></trkpt><trkpt lat="44.44265710874698" lon="11.462647348492041"><ele>69.42857142857143</ele><time>2026-04-24T15:48:48.899Z</time></trkpt><trkpt lat="44.44259840832125" lon="11.46258762054404"><ele>69.85714285714286</ele><time>2026-04-24T15:48:50.899Z</time></trkpt><trkpt lat="44.442535873879336" lon="11.462528823289075"><ele>70.28571428571429</ele><time>2026-04-24T15:48:52.899Z</time></trkpt><trkpt lat="44.44248187380498" lon="11.46246827999923"><ele>70.71428571428572</ele><time>2026-04-24T15:48:54.899Z</time></trkpt><trkpt lat="44.44242490584892" lon="11.462404966361438"><ele>71.14285714285714</ele><time>2026-04-24T15:48:56.899Z</time></trkpt><trkpt lat="44.44236722241722" lon="11.462345769685978"><ele>71.57142857142858</ele><time>2026-04-24T15:48:58.899Z</time></trkpt><trkpt lat="44.442310465533815" lon="11.462279158493024"><ele>72.0</ele><time>2026-04-24T15:49:00.899Z</time></trkpt><trkpt lat="44.442252988411376" lon="11.462225920932612"><ele>72.00000000000001</ele><time>2026-04-24T15:49:02.899Z</time></trkpt><trkpt lat="44.44219657783659" lon="11.462165136926398"><ele>72.0</ele><time>2026-04-24T15:49:04.899Z</time></trkpt><trkpt lat="44.44213945269242" lon="11.462106118555495"><ele>72.0</ele><time>2026-04-24T15:49:06.899Z</time></trkpt><trkpt lat="44.44207707203136" lon="11.462044598055463"><ele>72.0</ele><time>2026-04-24T15:49:08.898Z</time></trkpt><trkpt lat="44.44201306958379" lon="11.461982219998038"><ele>72.0</ele><time>2026-04-24T15:49:10.898Z</time></trkpt><trkpt lat="44.44194912959208" lon="11.461924302648077"><ele>72.00000000000001</ele><time>2026-04-24T15:49:12.898Z</time></trkpt><trkpt lat="44.441887654308225" lon="11.461867258992003"><ele>72.0</ele><time>2026-04-24T15:49:14.898Z</time></trkpt><trkpt lat="44.44182970890962" lon="11.46181602787788"><ele>71.57142857142858</ele><time>2026-04-24T15:49:16.898Z</time></trkpt><trkpt lat="44.4417760352189" lon="11.461752078785487"><ele>71.14285714285714</ele><time>2026-04-24T15:49:18.898Z</time></trkpt><trkpt lat="44.44172222205127" lon="11.46169378684947"><ele>70.71428571428572</ele><time>2026-04-24T15:49:20.898Z</time></trkpt><trkpt lat="44.441663721729526" lon="11.461639357152626"><ele>70.28571428571429</ele><time>2026-04-24T15:49:22.898Z</time></trkpt><trkpt lat="44.44160391137747" lon="11.461586842793901"><ele>69.85714285714286</ele><time>2026-04-24T15:49:24.898Z</time></trkpt><trkpt lat="44.441550488756576" lon="11.461528248347056"><ele>69.42857142857143</ele><time>2026-04-24T15:49:26.898Z</time></trkpt><trkpt lat="44.44149000578945" lon="11.461469110547911"><ele>69.0</ele><time>2026-04-24T15:49:28.898Z</time></trkpt><trkpt lat="44.441431229936164" lon="11.461410863572201"><ele>69.0</ele><time>2026-04-24T15:49:30.898Z</time></trkpt><trkpt lat="44.44137547408051" lon="11.461359839805105"><ele>69.0</ele><time>2026-04-24T15:49:32.898Z</time></trkpt><trkpt lat="44.441325468927516" lon="11.461303211790465"><ele>69.0</ele><time>2026-04-24T15:49:34.898Z</time></trkpt><trkpt lat="44.441268077424816" lon="11.46125170680402"><ele>69.0</ele><time>2026-04-24T15:49:36.898Z</time></trkpt><trkpt lat="44.441193383484304" lon="11.461181070248472"><ele>69.0</ele><time>2026-04-24T15:49:39.898Z</time></trkpt><trkpt lat="44.44111324181648" lon="11.461111340990326"><ele>69.0</ele><time>2026-04-24T15:49:42.898Z</time></trkpt><trkpt lat="44.441037429787144" lon="11.461039055119825"><ele>69.71428571428572</ele><time>2026-04-24T15:49:45.898Z</time></trkpt><trkpt lat="44.44097718925245" lon="11.461002776682443"><ele>70.42857142857143</ele><time>2026-04-24T15:49:47.898Z</time></trkpt><trkpt lat="44.44092025523897" lon="11.46095414058679"><ele>71.14285714285714</ele><time>2026-04-24T15:49:49.898Z</time></trkpt><trkpt lat="44.44083631930521" lon="11.460899714825114"><ele>71.85714285714286</ele><time>2026-04-24T15:49:52.898Z</time></trkpt><trkpt lat="44.440776017074484" lon="11.46086543646563"><ele>72.57142857142857</ele><time>2026-04-24T15:49:54.898Z</time></trkpt><trkpt lat="44.44071265546084" lon="11.460826998534397"><ele>73.28571428571429</ele><time>2026-04-24T15:49:56.898Z</time></trkpt><trkpt lat="44.44064980694196" lon="11.460791885940065"><ele>74.0</ele><time>2026-04-24T15:49:58.898Z</time></trkpt><trkpt lat="44.4405640380428" lon="11.460732627491929"><ele>74.0</ele><time>2026-04-24T15:50:01.898Z</time></trkpt><trkpt lat="44.44049991389872" lon="11.460690617895814"><ele>74.0</ele><time>2026-04-24T15:50:03.898Z</time></trkpt><trkpt lat="44.44044168287342" lon="11.46064551606025"><ele>74.0</ele><time>2026-04-24T15:50:05.898Z</time></trkpt><trkpt lat="44.44038828957266" lon="11.460598437723135"><ele>74.0</ele><time>2026-04-24T15:50:07.898Z</time></trkpt><trkpt lat="44.44033058581651" lon="11.460557917966767"><ele>74.0</ele><time>2026-04-24T15:50:09.898Z</time></trkpt><trkpt lat="44.44027581080615" lon="11.460509477873043"><ele>74.0</ele><time>2026-04-24T15:50:11.898Z</time></trkpt><trkpt lat="44.440202980785514" lon="11.460425322792036"><ele>74.0</ele><time>2026-04-24T15:50:14.898Z</time></trkpt><trkpt lat="44.440153643676226" lon="11.460362960156193"><ele>75.0</ele><time>2026-04-24T15:50:16.898Z</time></trkpt><trkpt lat="44.44008613365938" lon="11.460309842440656"><ele>76.0</ele><time>2026-04-24T15:50:18.898Z</time></trkpt><trkpt lat="44.440026727929464" lon="11.46025615809405"><ele>77.0</ele><time>2026-04-24T15:50:20.898Z</time></trkpt><trkpt lat="44.439971241756915" lon="11.460203273954876"><ele>78.0</ele><time>2026-04-24T15:50:22.898Z</time></trkpt><trkpt lat="44.439913692745115" lon="11.460160763630162"><ele>79.0</ele><time>2026-04-24T15:50:24.898Z</time></trkpt><trkpt lat="44.43983799167689" lon="11.460092824424366"><ele>80.0</ele><time>2026-04-24T15:50:27.898Z</time></trkpt><trkpt lat="44.4397831623422" lon="11.460043750242216"><ele>81.0</ele><time>2026-04-24T15:50:29.898Z</time></trkpt><trkpt lat="44.43972278531028" lon="11.460003486228828"><ele>81.0</ele><time>2026-04-24T15:50:31.898Z</time></trkpt><trkpt lat="44.439665349974604" lon="11.459942957169634"><ele>81.0</ele><time>2026-04-24T15:50:33.898Z</time></trkpt><trkpt lat="44.43960487194915" lon="11.459893476802199"><ele>81.0</ele><time>2026-04-24T15:50:35.898Z</time></trkpt><trkpt lat="44.43954515777701" lon="11.459844580282647"><ele>81.0</ele><time>2026-04-24T15:50:37.898Z</time></trkpt><trkpt lat="44.43949181973622" lon="11.459789952998703"><ele>81.0</ele><time>2026-04-24T15:50:39.898Z</time></trkpt><trkpt lat="44.43943209263574" lon="11.459742762958035"><ele>81.0</ele><time>2026-04-24T15:50:41.898Z</time></trkpt><trkpt lat="44.439375854735836" lon="11.459693035922172"><ele>81.0</ele><time>2026-04-24T15:50:43.898Z</time></trkpt><trkpt lat="44.43931335962663" lon="11.45964749139587"><ele>81.71428571428572</ele><time>2026-04-24T15:50:45.898Z</time></trkpt><trkpt lat="44.43926029248497" lon="11.459596080701472"><ele>82.42857142857143</ele><time>2026-04-24T15:50:47.898Z</time></trkpt><trkpt lat="44.43920606424128" lon="11.459535727000459"><ele>83.14285714285714</ele><time>2026-04-24T15:50:49.898Z</time></trkpt><trkpt lat="44.43916704168533" lon="11.459451932185232"><ele>83.85714285714286</ele><time>2026-04-24T15:50:51.898Z</time></trkpt><trkpt lat="44.43914916561189" lon="11.459348136721175"><ele>84.57142857142857</ele><time>2026-04-24T15:50:53.897Z</time></trkpt><trkpt lat="44.43915749202929" lon="11.459249941537957"><ele>85.28571428571429</ele><time>2026-04-24T15:50:55.897Z</time></trkpt><trkpt lat="44.439177454633835" lon="11.459157843956177"><ele>86.0</ele><time>2026-04-24T15:50:57.897Z</time></trkpt><trkpt lat="44.439197121001506" lon="11.459058361707823"><ele>86.0</ele><time>2026-04-24T15:50:59.897Z</time></trkpt><trkpt lat="44.43922309564308" lon="11.458962351324828"><ele>86.0</ele><time>2026-04-24T15:51:01.897Z</time></trkpt><trkpt lat="44.43924793494902" lon="11.458857871862469"><ele>86.0</ele><time>2026-04-24T15:51:03.897Z</time></trkpt><trkpt lat="44.43927546738709" lon="11.458754937486868"><ele>86.0</ele><time>2026-04-24T15:51:05.897Z</time></trkpt><trkpt lat="44.43930277383703" lon="11.458654416614468"><ele>86.0</ele><time>2026-04-24T15:51:07.897Z</time></trkpt><trkpt lat="44.43933351904312" lon="11.458552775008348"><ele>86.0</ele><time>2026-04-24T15:51:09.897Z</time></trkpt><trkpt lat="44.43936234318419" lon="11.458444350441876"><ele>86.0</ele><time>2026-04-24T15:51:11.897Z</time></trkpt><trkpt lat="44.43939138494504" lon="11.458333096857187"><ele>86.0</ele><time>2026-04-24T15:51:13.897Z</time></trkpt><trkpt lat="44.43942182521837" lon="11.458229267939297"><ele>86.0</ele><time>2026-04-24T15:51:15.897Z</time></trkpt><trkpt lat="44.43942030941662" lon="11.458139326253802"><ele>86.0</ele><time>2026-04-24T15:51:17.897Z</time></trkpt><trkpt lat="44.439391458812146" lon="11.458026138011958"><ele>86.0</ele><time>2026-04-24T15:51:19.898Z</time></trkpt><trkpt lat="44.43934473453303" lon="11.457955866265142"><ele>86.0</ele><time>2026-04-24T15:51:21.898Z</time></trkpt><trkpt lat="44.43937462433511" lon="11.457856214101287"><ele>85.5</ele><time>2026-04-24T15:51:23.898Z</time></trkpt><trkpt lat="44.43940721012454" lon="11.457753577988818"><ele>85.0</ele><time>2026-04-24T15:51:25.898Z</time></trkpt><trkpt lat="44.439434381464814" lon="11.457644084378707"><ele>84.5</ele><time>2026-04-24T15:51:27.898Z</time></trkpt><trkpt lat="44.439460587647325" lon="11.457536976995168"><ele>84.0</ele><time>2026-04-24T15:51:29.897Z</time></trkpt><trkpt lat="44.43948926799655" lon="11.457425769238503"><ele>83.5</ele><time>2026-04-24T15:51:31.897Z</time></trkpt><trkpt lat="44.43951632016282" lon="11.457305331338427"><ele>83.0</ele><time>2026-04-24T15:51:33.897Z</time></trkpt><trkpt lat="44.43954526023321" lon="11.457184061969905"><ele>82.80000000000001</ele><time>2026-04-24T15:51:35.897Z</time></trkpt><trkpt lat="44.439571474172254" lon="11.457065236202942"><ele>82.6</ele><time>2026-04-24T15:51:37.897Z</time></trkpt><trkpt lat="44.43959905491883" lon="11.456940679733249"><ele>82.4</ele><time>2026-04-24T15:51:39.897Z</time></trkpt><trkpt lat="44.43962892995487" lon="11.456815413138056"><ele>82.19999999999999</ele><time>2026-04-24T15:51:41.897Z</time></trkpt><trkpt lat="44.439657196615386" lon="11.456691700230296"><ele>82.0</ele><time>2026-04-24T15:51:43.897Z</time></trkpt><trkpt lat="44.43968973292728" lon="11.456562686725244"><ele>82.0</ele><time>2026-04-24T15:51:45.897Z</time></trkpt><trkpt lat="44.43971709859493" lon="11.456433368512892"><ele>82.0</ele><time>2026-04-24T15:51:47.897Z</time></trkpt><trkpt lat="44.43974767392071" lon="11.456299388546569"><ele>82.0</ele><time>2026-04-24T15:51:49.897Z</time></trkpt><trkpt lat="44.439779564110864" lon="11.456166408263867"><ele>82.0</ele><time>2026-04-24T15:51:51.897Z</time></trkpt><trkpt lat="44.43981833525683" lon="11.4560473433713"><ele>82.0</ele><time>2026-04-24T15:51:53.897Z</time></trkpt><trkpt lat="44.43984770603136" lon="11.455909539297537"><ele>81.8</ele><time>2026-04-24T15:51:55.897Z</time></trkpt><trkpt lat="44.439883378561134" lon="11.455771751154"><ele>81.6</ele><time>2026-04-24T15:51:57.897Z</time></trkpt><trkpt lat="44.43997953540241" lon="11.45573673089487"><ele>81.39999999999999</ele><time>2026-04-24T15:51:58.897Z</time></trkpt><trkpt lat="44.44001426888407" lon="11.455591758655265"><ele>81.19999999999999</ele><time>2026-04-24T15:52:00.897Z</time></trkpt><trkpt lat="44.44004806589547" lon="11.455450695104926"><ele>81.0</ele><time>2026-04-24T15:52:02.897Z</time></trkpt><trkpt lat="44.440081926498955" lon="11.455306804074787"><ele>80.8</ele><time>2026-04-24T15:52:04.897Z</time></trkpt><trkpt lat="44.44011559790608" lon="11.455161501617585"><ele>80.6</ele><time>2026-04-24T15:52:06.897Z</time></trkpt><trkpt lat="44.440149404169546" lon="11.455015617211899"><ele>80.4</ele><time>2026-04-24T15:52:08.897Z</time></trkpt><trkpt lat="44.440180532219664" lon="11.454882016961628"><ele>80.2</ele><time>2026-04-24T15:52:10.897Z</time></trkpt><trkpt lat="44.44021200221301" lon="11.45474922049825"><ele>80.0</ele><time>2026-04-24T15:52:12.897Z</time></trkpt><trkpt lat="44.44024461604792" lon="11.454611597283655"><ele>80.4</ele><time>2026-04-24T15:52:14.897Z</time></trkpt><trkpt lat="44.44027378512909" lon="11.454490838911678"><ele>80.8</ele><time>2026-04-24T15:52:16.897Z</time></trkpt><trkpt lat="44.44030481164332" lon="11.454368468213527"><ele>81.19999999999999</ele><time>2026-04-24T15:52:18.897Z</time></trkpt><trkpt lat="44.44033475882054" lon="11.454255697318152"><ele>81.6</ele><time>2026-04-24T15:52:20.897Z</time></trkpt><trkpt lat="44.44036759040162" lon="11.454144970140282"><ele>82.0</ele><time>2026-04-24T15:52:22.897Z</time></trkpt><trkpt lat="44.440313762022264" lon="11.453982739410344"><ele>82.0</ele><time>2026-04-24T15:52:24.897Z</time></trkpt><trkpt lat="44.44035143285913" lon="11.453872100846676"><ele>82.0</ele><time>2026-04-24T15:52:26.897Z</time></trkpt><trkpt lat="44.44039225619487" lon="11.453763672915912"><ele>82.0</ele><time>2026-04-24T15:52:28.897Z</time></trkpt><trkpt lat="44.44042416562266" lon="11.453651357031529"><ele>82.0</ele><time>2026-04-24T15:52:30.897Z</time></trkpt><trkpt lat="44.440459735119184" lon="11.453539753861628"><ele>82.0</ele><time>2026-04-24T15:52:32.897Z</time></trkpt><trkpt lat="44.44049785413239" lon="11.45342910332056"><ele>82.0</ele><time>2026-04-24T15:52:34.897Z</time></trkpt><trkpt lat="44.440536021441964" lon="11.453305984187644"><ele>81.39999999999999</ele><time>2026-04-24T15:52:36.897Z</time></trkpt><trkpt lat="44.44058190877505" lon="11.45318239743168"><ele>80.8</ele><time>2026-04-24T15:52:38.897Z</time></trkpt><trkpt lat="44.44061775716973" lon="11.453051197813704"><ele>80.2</ele><time>2026-04-24T15:52:40.897Z</time></trkpt><trkpt lat="44.440661480330974" lon="11.452921856658257"><ele>79.6</ele><time>2026-04-24T15:52:42.897Z</time></trkpt><trkpt lat="44.44076631877584" lon="11.452909337122954"><ele>79.0</ele><time>2026-04-24T15:52:43.897Z</time></trkpt><trkpt lat="44.44080635964435" lon="11.452786854654565"><ele>78.60000000000001</ele><time>2026-04-24T15:52:45.897Z</time></trkpt><trkpt lat="44.440851167438694" lon="11.452649790466808"><ele>78.2</ele><time>2026-04-24T15:52:47.897Z</time></trkpt><trkpt lat="44.44089623363091" lon="11.452511935849744"><ele>77.80000000000001</ele><time>2026-04-24T15:52:49.897Z</time></trkpt><trkpt lat="44.4409399764975" lon="11.45237812920583"><ele>77.4</ele><time>2026-04-24T15:52:51.897Z</time></trkpt><trkpt lat="44.440984072710755" lon="11.45224324169391"><ele>77.0</ele><time>2026-04-24T15:52:53.897Z</time></trkpt><trkpt lat="44.44102617976501" lon="11.452114438882706"><ele>77.0</ele><time>2026-04-24T15:52:55.897Z</time></trkpt><trkpt lat="44.4410705825931" lon="11.451976827197557"><ele>77.0</ele><time>2026-04-24T15:52:57.897Z</time></trkpt><trkpt lat="44.44111202832457" lon="11.451850896879108"><ele>77.0</ele><time>2026-04-24T15:52:59.897Z</time></trkpt><trkpt lat="44.441156498392" lon="11.451738963521924"><ele>77.0</ele><time>2026-04-24T15:53:01.897Z</time></trkpt><trkpt lat="44.44120825869695" lon="11.451650674426318"><ele>77.0</ele><time>2026-04-24T15:53:03.897Z</time></trkpt><trkpt lat="44.441270715106796" lon="11.451590001359842"><ele>77.16666666666667</ele><time>2026-04-24T15:53:05.897Z</time></trkpt><trkpt lat="44.44133646158911" lon="11.45159597370449"><ele>77.33333333333334</ele><time>2026-04-24T15:53:08.897Z</time></trkpt><trkpt lat="44.44140942633208" lon="11.45161794171794"><ele>77.5</ele><time>2026-04-24T15:53:10.897Z</time></trkpt><trkpt lat="44.44147901855653" lon="11.451672719083382"><ele>77.66666666666667</ele><time>2026-04-24T15:53:12.896Z</time></trkpt><trkpt lat="44.441565033017675" lon="11.451744311872854"><ele>77.83333333333333</ele><time>2026-04-24T15:53:14.896Z</time></trkpt><trkpt lat="44.44165126082048" lon="11.45181915780052"><ele>78.0</ele><time>2026-04-24T15:53:16.896Z</time></trkpt><trkpt lat="44.441736352899895" lon="11.451893028484237"><ele>78.0</ele><time>2026-04-24T15:53:18.896Z</time></trkpt><trkpt lat="44.44182529790755" lon="11.451970244015378"><ele>78.0</ele><time>2026-04-24T15:53:20.896Z</time></trkpt><trkpt lat="44.44191673790225" lon="11.452049625495054"><ele>78.0</ele><time>2026-04-24T15:53:22.896Z</time></trkpt><trkpt lat="44.442006815227344" lon="11.452127824017271"><ele>78.0</ele><time>2026-04-24T15:53:24.896Z</time></trkpt><trkpt lat="44.44210067456274" lon="11.452209305791271"><ele>78.0</ele><time>2026-04-24T15:53:26.898Z</time></trkpt><trkpt lat="44.44219465022935" lon="11.452290888560999"><ele>77.6</ele><time>2026-04-24T15:53:28.898Z</time></trkpt><trkpt lat="44.4422889088786" lon="11.452372716996646"><ele>77.19999999999999</ele><time>2026-04-24T15:53:30.898Z</time></trkpt><trkpt lat="44.44238238228895" lon="11.452453863741653"><ele>76.8</ele><time>2026-04-24T15:53:32.898Z</time></trkpt><trkpt lat="44.442472520856924" lon="11.45253211542623"><ele>76.39999999999999</ele><time>2026-04-24T15:53:34.898Z</time></trkpt><trkpt lat="44.44255721095843" lon="11.452605637148636"><ele>76.0</ele><time>2026-04-24T15:53:36.898Z</time></trkpt><trkpt lat="44.44264690159059" lon="11.452683499949451"><ele>76.0</ele><time>2026-04-24T15:53:38.897Z</time></trkpt><trkpt lat="44.442735130232464" lon="11.452759136488156"><ele>76.0</ele><time>2026-04-24T15:53:40.897Z</time></trkpt><trkpt lat="44.44283403238724" lon="11.452670421066914"><ele>76.0</ele><time>2026-04-24T15:53:41.897Z</time></trkpt><trkpt lat="44.44291346304457" lon="11.452585112195234"><ele>76.0</ele><time>2026-04-24T15:53:43.897Z</time></trkpt><trkpt lat="44.44294456219877" lon="11.452434426504757"><ele>76.0</ele><time>2026-04-24T15:53:45.897Z</time></trkpt><trkpt lat="44.442986373670664" lon="11.452298949964998"><ele>76.0</ele><time>2026-04-24T15:53:47.897Z</time></trkpt><trkpt lat="44.4430823610323" lon="11.452283482277466"><ele>76.0</ele><time>2026-04-24T15:53:48.897Z</time></trkpt><trkpt lat="44.443131057070616" lon="11.45214979339746"><ele>76.0</ele><time>2026-04-24T15:53:50.897Z</time></trkpt><trkpt lat="44.44318027412081" lon="11.452014674138715"><ele>76.0</ele><time>2026-04-24T15:53:52.897Z</time></trkpt><trkpt lat="44.44322709826703" lon="11.451886124299884"><ele>76.0</ele><time>2026-04-24T15:53:54.897Z</time></trkpt><trkpt lat="44.44327449121164" lon="11.451756012898352"><ele>76.0</ele><time>2026-04-24T15:53:56.897Z</time></trkpt><trkpt lat="44.44331903853112" lon="11.451633713803673"><ele>76.0</ele><time>2026-04-24T15:53:58.897Z</time></trkpt><trkpt lat="44.4433663967088" lon="11.451503697845919"><ele>76.0</ele><time>2026-04-24T15:54:00.897Z</time></trkpt><trkpt lat="44.44340908338417" lon="11.451386219638868"><ele>76.0</ele><time>2026-04-24T15:54:02.897Z</time></trkpt><trkpt lat="44.44345170602737" lon="11.451268809984592"><ele>76.0</ele><time>2026-04-24T15:54:04.897Z</time></trkpt><trkpt lat="44.443495473676315" lon="11.451148246267998"><ele>75.6</ele><time>2026-04-24T15:54:06.897Z</time></trkpt><trkpt lat="44.443559448037846" lon="11.450972020508383"><ele>75.19999999999999</ele><time>2026-04-24T15:54:09.897Z</time></trkpt><trkpt lat="44.44360552965969" lon="11.450845082646026"><ele>74.80000000000001</ele><time>2026-04-24T15:54:11.897Z</time></trkpt><trkpt lat="44.44365151011668" lon="11.45071842346035"><ele>74.4</ele><time>2026-04-24T15:54:13.897Z</time></trkpt><trkpt lat="44.44369706852722" lon="11.450592926860784"><ele>74.0</ele><time>2026-04-24T15:54:15.897Z</time></trkpt><trkpt lat="44.443743102175446" lon="11.450466121149812"><ele>73.8</ele><time>2026-04-24T15:54:17.897Z</time></trkpt><trkpt lat="44.443790756394634" lon="11.450334851373267"><ele>73.60000000000001</ele><time>2026-04-24T15:54:19.897Z</time></trkpt><trkpt lat="44.443838099818386" lon="11.450204437708962"><ele>73.4</ele><time>2026-04-24T15:54:21.897Z</time></trkpt><trkpt lat="44.44388406579874" lon="11.450077818400594"><ele>73.2</ele><time>2026-04-24T15:54:23.897Z</time></trkpt><trkpt lat="44.44393021166972" lon="11.449950703555748"><ele>73.0</ele><time>2026-04-24T15:54:25.897Z</time></trkpt><trkpt lat="44.4439756565395" lon="11.449825519720125"><ele>72.8</ele><time>2026-04-24T15:54:27.897Z</time></trkpt><trkpt lat="44.44402254012215" lon="11.449696372752351"><ele>72.6</ele><time>2026-04-24T15:54:29.897Z</time></trkpt><trkpt lat="44.44406786300027" lon="11.449571524948661"><ele>72.4</ele><time>2026-04-24T15:54:31.897Z</time></trkpt><trkpt lat="44.44411501423207" lon="11.44944164071649"><ele>72.2</ele><time>2026-04-24T15:54:33.897Z</time></trkpt><trkpt lat="44.444162912027046" lon="11.449314401714012"><ele>72.0</ele><time>2026-04-24T15:54:35.897Z</time></trkpt><trkpt lat="44.44420964920247" lon="11.449191161545897"><ele>72.0</ele><time>2026-04-24T15:54:37.897Z</time></trkpt><trkpt lat="44.444252335096046" lon="11.449073162203465"><ele>72.0</ele><time>2026-04-24T15:54:39.897Z</time></trkpt><trkpt lat="44.44428605598956" lon="11.448940817249257"><ele>72.0</ele><time>2026-04-24T15:54:41.897Z</time></trkpt><trkpt lat="44.44428872068707" lon="11.448776816420942"><ele>72.0</ele><time>2026-04-24T15:54:43.897Z</time></trkpt><trkpt lat="44.44426969620857" lon="11.448622566668817"><ele>72.0</ele><time>2026-04-24T15:54:45.897Z</time></trkpt><trkpt lat="44.44418864722892" lon="11.448573583201016"><ele>72.5</ele><time>2026-04-24T15:54:46.897Z</time></trkpt><trkpt lat="44.4441454892697" lon="11.448447249365616"><ele>73.0</ele><time>2026-04-24T15:54:48.897Z</time></trkpt><trkpt lat="44.444112913801305" lon="11.448329637452709"><ele>73.5</ele><time>2026-04-24T15:54:50.897Z</time></trkpt><trkpt lat="44.44407891713307" lon="11.44821582045732"><ele>74.0</ele><time>2026-04-24T15:54:52.897Z</time></trkpt><trkpt lat="44.444049252337805" lon="11.44810077105629"><ele>74.5</ele><time>2026-04-24T15:54:54.897Z</time></trkpt><trkpt lat="44.44402509886231" lon="11.447999153040143"><ele>75.0</ele><time>2026-04-24T15:54:56.897Z</time></trkpt><trkpt lat="44.443994343918035" lon="11.44789344842131"><ele>75.0</ele><time>2026-04-24T15:54:58.897Z</time></trkpt><trkpt lat="44.44397319010738" lon="11.447782078376646"><ele>75.0</ele><time>2026-04-24T15:55:00.897Z</time></trkpt><trkpt lat="44.44394036811625" lon="11.447670067367657"><ele>75.0</ele><time>2026-04-24T15:55:02.897Z</time></trkpt><trkpt lat="44.443910787525226" lon="11.44754727434653"><ele>75.0</ele><time>2026-04-24T15:55:04.897Z</time></trkpt><trkpt lat="44.44390347999614" lon="11.447428327045403"><ele>75.0</ele><time>2026-04-24T15:55:06.897Z</time></trkpt><trkpt lat="44.44390798455103" lon="11.447317091296505"><ele>75.0</ele><time>2026-04-24T15:55:08.897Z</time></trkpt><trkpt lat="44.44390554844" lon="11.447196519858077"><ele>75.0</ele><time>2026-04-24T15:55:10.897Z</time></trkpt><trkpt lat="44.443890070138195" lon="11.447092207274649"><ele>75.0</ele><time>2026-04-24T15:55:12.896Z</time></trkpt><trkpt lat="44.443886215324696" lon="11.446985108551633"><ele>75.0</ele><time>2026-04-24T15:55:19.896Z</time></trkpt><trkpt lat="44.44385046030695" lon="11.446856194185434"><ele>75.0</ele><time>2026-04-24T15:55:22.896Z</time></trkpt><trkpt lat="44.44382159780487" lon="11.446739913983047"><ele>75.0</ele><time>2026-04-24T15:55:26.896Z</time></trkpt><trkpt lat="44.443745634825696" lon="11.446729028827205"><ele>75.0</ele><time>2026-04-24T15:55:29.896Z</time></trkpt><trkpt lat="44.443747778606685" lon="11.446603631113375"><ele>74.99999999999999</ele><time>2026-04-24T15:55:32.898Z</time></trkpt><trkpt lat="44.44378333825101" lon="11.446502452895043"><ele>75.0</ele><time>2026-04-24T15:55:34.897Z</time></trkpt><trkpt lat="44.44379880306089" lon="11.446402889189073"><ele>75.0</ele><time>2026-04-24T15:55:36.897Z</time></trkpt><trkpt lat="44.44381218135668" lon="11.446315327785209"><ele>75.0</ele><time>2026-04-24T15:55:38.897Z</time></trkpt><trkpt lat="44.44380419851046" lon="11.446225713568918"><ele>75.0</ele><time>2026-04-24T15:55:40.898Z</time></trkpt><trkpt lat="44.443764004134216" lon="11.446153342855027"><ele>74.99999999999999</ele><time>2026-04-24T15:55:42.897Z</time></trkpt><trkpt lat="44.44369173458332" lon="11.44611811947489"><ele>75.0</ele><time>2026-04-24T15:55:46.897Z</time></trkpt><trkpt lat="44.443613669852525" lon="11.44605753169233"><ele>74.85714285714285</ele><time>2026-04-24T15:55:49.897Z</time></trkpt><trkpt lat="44.44355545739854" lon="11.446008174680781"><ele>74.71428571428571</ele><time>2026-04-24T15:55:51.897Z</time></trkpt><trkpt lat="44.443505609655" lon="11.445948558874196"><ele>74.57142857142857</ele><time>2026-04-24T15:55:53.897Z</time></trkpt><trkpt lat="44.44344654481796" lon="11.445899335171802"><ele>74.42857142857142</ele><time>2026-04-24T15:55:55.897Z</time></trkpt><trkpt lat="44.44344929490011" lon="11.445809865348453"><ele>74.28571428571428</ele><time>2026-04-24T15:55:57.897Z</time></trkpt><trkpt lat="44.443495835254275" lon="11.445718923436047"><ele>74.14285714285714</ele><time>2026-04-24T15:55:59.897Z</time></trkpt><trkpt lat="44.44349821786374" lon="11.445591985582226"><ele>74.0</ele><time>2026-04-24T15:56:01.897Z</time></trkpt><trkpt lat="44.44348210289085" lon="11.445468457254693"><ele>73.8</ele><time>2026-04-24T15:56:03.897Z</time></trkpt><trkpt lat="44.44351416802273" lon="11.445342869216296"><ele>73.60000000000001</ele><time>2026-04-24T15:56:05.897Z</time></trkpt><trkpt lat="44.44359637764513" lon="11.445233335013047"><ele>73.4</ele><time>2026-04-24T15:56:07.897Z</time></trkpt><trkpt lat="44.44365165693228" lon="11.445111314137435"><ele>73.2</ele><time>2026-04-24T15:56:09.897Z</time></trkpt><trkpt lat="44.44370433039571" lon="11.445015268338619"><ele>73.0</ele><time>2026-04-24T15:56:11.897Z</time></trkpt><trkpt lat="44.44368397181968" lon="11.444925695342912"><ele>73.0</ele><time>2026-04-24T15:56:13.897Z</time></trkpt><trkpt lat="44.443628996572464" lon="11.44482690862482"><ele>73.0</ele><time>2026-04-24T15:56:15.897Z</time></trkpt><trkpt lat="44.44368610891018" lon="11.444744268134528"><ele>73.0</ele><time>2026-04-24T15:56:17.896Z</time></trkpt><trkpt lat="44.44376794131745" lon="11.444687973327227"><ele>73.0</ele><time>2026-04-24T15:56:19.896Z</time></trkpt><trkpt lat="44.4438307151494" lon="11.444610407975699"><ele>73.0</ele><time>2026-04-24T15:56:21.896Z</time></trkpt><trkpt lat="44.44389120852254" lon="11.444542824015508"><ele>73.0</ele><time>2026-04-24T15:56:23.896Z</time></trkpt><trkpt lat="44.443952539361085" lon="11.444437067648602"><ele>73.5</ele><time>2026-04-24T15:56:25.896Z</time></trkpt><trkpt lat="44.4440006684057" lon="11.444328847604355"><ele>74.0</ele><time>2026-04-24T15:56:27.896Z</time></trkpt><trkpt lat="44.44401323966472" lon="11.444225474928158"><ele>74.5</ele><time>2026-04-24T15:56:29.896Z</time></trkpt><trkpt lat="44.44396141363828" lon="11.444141771902736"><ele>75.0</ele><time>2026-04-24T15:56:31.896Z</time></trkpt><trkpt lat="44.44389199735198" lon="11.444072397129371"><ele>75.5</ele><time>2026-04-24T15:56:34.896Z</time></trkpt><trkpt lat="44.44384158998394" lon="11.444017943626486"><ele>76.0</ele><time>2026-04-24T15:56:36.896Z</time></trkpt><trkpt lat="44.44379737345829" lon="11.44393640993341"><ele>75.66666666666666</ele><time>2026-04-24T15:56:38.896Z</time></trkpt><trkpt lat="44.44373162482193" lon="11.443874744534059"><ele>75.33333333333333</ele><time>2026-04-24T15:56:40.896Z</time></trkpt><trkpt lat="44.44365688380807" lon="11.443804205880095"><ele>75.0</ele><time>2026-04-24T15:56:43.896Z</time></trkpt><trkpt lat="44.443597893713694" lon="11.443737388965916"><ele>74.66666666666667</ele><time>2026-04-24T15:56:45.896Z</time></trkpt><trkpt lat="44.443532066356056" lon="11.443684589886276"><ele>74.33333333333334</ele><time>2026-04-24T15:56:47.896Z</time></trkpt><trkpt lat="44.44346867153639" lon="11.443632829332174"><ele>74.0</ele><time>2026-04-24T15:56:49.896Z</time></trkpt><trkpt lat="44.44341179275852" lon="11.443569013005304"><ele>73.83333333333334</ele><time>2026-04-24T15:56:51.896Z</time></trkpt><trkpt lat="44.443382246210966" lon="11.443468627739811"><ele>73.66666666666667</ele><time>2026-04-24T15:56:53.896Z</time></trkpt><trkpt lat="44.44339652396085" lon="11.443366486205969"><ele>73.5</ele><time>2026-04-24T15:56:55.896Z</time></trkpt><trkpt lat="44.443430427822186" lon="11.443248758435415"><ele>73.33333333333333</ele><time>2026-04-24T15:56:57.896Z</time></trkpt><trkpt lat="44.44346421064455" lon="11.443116832766634"><ele>73.16666666666666</ele><time>2026-04-24T15:56:59.896Z</time></trkpt><trkpt lat="44.44351176953759" lon="11.44298636230918"><ele>73.0</ele><time>2026-04-24T15:57:01.896Z</time></trkpt><trkpt lat="44.443553296034914" lon="11.442894812288026"><ele>72.4</ele><time>2026-04-24T15:57:03.896Z</time></trkpt><trkpt lat="44.44357819769338" lon="11.442796791802417"><ele>71.8</ele><time>2026-04-24T15:57:05.896Z</time></trkpt><trkpt lat="44.44360784867326" lon="11.442669555693419"><ele>71.2</ele><time>2026-04-24T15:57:07.896Z</time></trkpt><trkpt lat="44.443650160818365" lon="11.44254393778008"><ele>70.6</ele><time>2026-04-24T15:57:09.896Z</time></trkpt><trkpt lat="44.44370690670734" lon="11.442444758706346"><ele>70.0</ele><time>2026-04-24T15:57:11.896Z</time></trkpt><trkpt lat="44.44375898558043" lon="11.442307234878022"><ele>71.0</ele><time>2026-04-24T15:57:13.896Z</time></trkpt><trkpt lat="44.44381712897766" lon="11.442174357883985"><ele>72.0</ele><time>2026-04-24T15:57:15.896Z</time></trkpt><trkpt lat="44.44387663899018" lon="11.442072977468248"><ele>73.0</ele><time>2026-04-24T15:57:17.896Z</time></trkpt><trkpt lat="44.443933283766995" lon="11.441958982443193"><ele>74.0</ele><time>2026-04-24T15:57:19.896Z</time></trkpt><trkpt lat="44.44402415479658" lon="11.441832455641741"><ele>75.0</ele><time>2026-04-24T15:57:21.896Z</time></trkpt><trkpt lat="44.44405291229574" lon="11.441748201471269"><ele>75.0</ele><time>2026-04-24T15:57:22.896Z</time></trkpt><trkpt lat="44.444162550949514" lon="11.441650235012712"><ele>75.0</ele><time>2026-04-24T15:57:24.896Z</time></trkpt><trkpt lat="44.44422593573429" lon="11.441578902266713"><ele>75.0</ele><time>2026-04-24T15:57:25.896Z</time></trkpt><trkpt lat="44.44430534604411" lon="11.441448532680123"><ele>75.0</ele><time>2026-04-24T15:57:27.896Z</time></trkpt><trkpt lat="44.44430770593033" lon="11.441273663780901"><ele>74.14285714285714</ele><time>2026-04-24T15:57:28.896Z</time></trkpt><trkpt lat="44.44434233975683" lon="11.441178881610842"><ele>73.28571428571428</ele><time>2026-04-24T15:57:29.896Z</time></trkpt><trkpt lat="44.44437761708387" lon="11.441088905040962"><ele>72.42857142857143</ele><time>2026-04-24T15:57:30.896Z</time></trkpt><trkpt lat="44.44440836624551" lon="11.441010477769582"><ele>71.57142857142857</ele><time>2026-04-24T15:57:31.896Z</time></trkpt><trkpt lat="44.44444525817233" lon="11.44091053715837"><ele>70.71428571428572</ele><time>2026-04-24T15:57:32.896Z</time></trkpt><trkpt lat="44.44447513518694" lon="11.440829693473939"><ele>69.85714285714286</ele><time>2026-04-24T15:57:33.896Z</time></trkpt><trkpt lat="44.4445028708942" lon="11.440740909493835"><ele>69.0</ele><time>2026-04-24T15:57:35.896Z</time></trkpt><trkpt lat="44.444531658678734" lon="11.44064069388474"><ele>69.0</ele><time>2026-04-24T15:57:37.897Z</time></trkpt><trkpt lat="44.44455954427123" lon="11.44053685026243"><ele>69.0</ele><time>2026-04-24T15:57:41.896Z</time></trkpt><trkpt lat="44.4445874598121" lon="11.44043496345469"><ele>69.0</ele><time>2026-04-24T15:57:44.896Z</time></trkpt><trkpt lat="44.444623690719524" lon="11.440309457226284"><ele>69.0</ele><time>2026-04-24T15:57:47.896Z</time></trkpt><trkpt lat="44.44465194137329" lon="11.44021527052476"><ele>69.0</ele><time>2026-04-24T15:57:50.896Z</time></trkpt><trkpt lat="44.44461306452696" lon="11.440140560629946"><ele>69.0</ele><time>2026-04-24T15:57:51.896Z</time></trkpt><trkpt lat="44.44464378958533" lon="11.440048604008417"><ele>68.83333333333333</ele><time>2026-04-24T15:57:53.896Z</time></trkpt><trkpt lat="44.44467881559224" lon="11.439941203866146"><ele>68.66666666666667</ele><time>2026-04-24T15:57:55.896Z</time></trkpt><trkpt lat="44.44471244881434" lon="11.439859179746183"><ele>68.5</ele><time>2026-04-24T15:57:57.896Z</time></trkpt><trkpt lat="44.444667696192965" lon="11.43977746771401"><ele>68.33333333333334</ele><time>2026-04-24T15:57:59.896Z</time></trkpt><trkpt lat="44.444611324453724" lon="11.439708403186511"><ele>68.16666666666667</ele><time>2026-04-24T15:58:01.896Z</time></trkpt><trkpt lat="44.44454703341942" lon="11.439638404944207"><ele>68.0</ele><time>2026-04-24T15:58:03.896Z</time></trkpt><trkpt lat="44.44449631768221" lon="11.439574885740859"><ele>67.85714285714285</ele><time>2026-04-24T15:58:05.896Z</time></trkpt><trkpt lat="44.444438917037445" lon="11.439500122431257"><ele>67.71428571428571</ele><time>2026-04-24T15:58:07.896Z</time></trkpt><trkpt lat="44.44438596642758" lon="11.43943556291373"><ele>67.57142857142857</ele><time>2026-04-24T15:58:09.896Z</time></trkpt><trkpt lat="44.44433107456421" lon="11.439350027932784"><ele>67.42857142857142</ele><time>2026-04-24T15:58:12.896Z</time></trkpt><trkpt lat="44.444306814975825" lon="11.439266384712473"><ele>67.28571428571428</ele><time>2026-04-24T15:58:14.896Z</time></trkpt><trkpt lat="44.44430870956608" lon="11.439173445064997"><ele>67.14285714285714</ele><time>2026-04-24T15:58:16.896Z</time></trkpt><trkpt lat="44.44426401651392" lon="11.439269412069383"><ele>67.0</ele><time>2026-04-24T15:58:23.896Z</time></trkpt><trkpt lat="44.44427965484632" lon="11.439358488644162"><ele>67.0</ele><time>2026-04-24T15:58:26.896Z</time></trkpt><trkpt lat="44.444287121934856" lon="11.439452801365876"><ele>67.0</ele><time>2026-04-24T15:58:31.896Z</time></trkpt><trkpt lat="44.44427778996307" lon="11.43957557970316"><ele>67.0</ele><time>2026-04-24T15:58:34.896Z</time></trkpt><trkpt lat="44.44421468122903" lon="11.439603812081437"><ele>67.0</ele><time>2026-04-24T15:58:36.896Z</time></trkpt><trkpt lat="44.444149611932644" lon="11.439629707326475"><ele>67.0</ele><time>2026-04-24T15:58:38.896Z</time></trkpt><trkpt lat="44.44407401689848" lon="11.439705232856287"><ele>67.0</ele><time>2026-04-24T15:58:41.896Z</time></trkpt><trkpt lat="44.44400393237056" lon="11.439723583562872"><ele>67.0</ele><time>2026-04-24T15:58:43.896Z</time></trkpt><trkpt lat="44.44390882598255" lon="11.439738028503166"><ele>67.0</ele><time>2026-04-24T15:58:45.896Z</time></trkpt><trkpt lat="44.443829399398766" lon="11.43975551954238"><ele>67.0</ele><time>2026-04-24T15:58:47.896Z</time></trkpt><trkpt lat="44.44376217339513" lon="11.439777676241157"><ele>67.0</ele><time>2026-04-24T15:58:49.896Z</time></trkpt><trkpt lat="44.443696161364244" lon="11.43978672797588"><ele>67.0</ele><time>2026-04-24T15:58:51.896Z</time></trkpt><trkpt lat="44.44362813713689" lon="11.439798482821683"><ele>67.0</ele><time>2026-04-24T15:58:55.896Z</time></trkpt><trkpt lat="44.44356502319106" lon="11.439836952070802"><ele>67.0</ele><time>2026-04-24T15:59:00.896Z</time></trkpt><trkpt lat="44.443487136685306" lon="11.439865943869638"><ele>67.0</ele><time>2026-04-24T15:59:04.896Z</time></trkpt><trkpt lat="44.44339032568813" lon="11.439883131417309"><ele>67.0</ele><time>2026-04-24T15:59:07.896Z</time></trkpt><trkpt lat="44.443286679692925" lon="11.439893526652027"><ele>67.0</ele><time>2026-04-24T15:59:10.896Z</time></trkpt><trkpt lat="44.44321223446013" lon="11.439898347648938"><ele>67.0</ele><time>2026-04-24T15:59:12.896Z</time></trkpt><trkpt lat="44.44313369326427" lon="11.439885117330013"><ele>67.0</ele><time>2026-04-24T15:59:14.896Z</time></trkpt><trkpt lat="44.4430496517527" lon="11.43990471207189"><ele>67.0</ele><time>2026-04-24T15:59:16.896Z</time></trkpt><trkpt lat="44.4429745223078" lon="11.43994336283048"><ele>67.33333333333333</ele><time>2026-04-24T15:59:18.896Z</time></trkpt><trkpt lat="44.442898103588526" lon="11.439984069526357"><ele>67.66666666666666</ele><time>2026-04-24T15:59:20.896Z</time></trkpt><trkpt lat="44.44283073650869" lon="11.440035642702346"><ele>68.0</ele><time>2026-04-24T15:59:22.896Z</time></trkpt><trkpt lat="44.44275471141764" lon="11.44007070636695"><ele>68.33333333333333</ele><time>2026-04-24T15:59:24.896Z</time></trkpt><trkpt lat="44.44267875167826" lon="11.440090159171067"><ele>68.66666666666667</ele><time>2026-04-24T15:59:26.896Z</time></trkpt><trkpt lat="44.44259504263229" lon="11.440104515029756"><ele>69.0</ele><time>2026-04-24T15:59:28.896Z</time></trkpt><trkpt lat="44.44251656663652" lon="11.440143738206924"><ele>69.0</ele><time>2026-04-24T15:59:30.896Z</time></trkpt><trkpt lat="44.44244380725597" lon="11.440188596389204"><ele>69.0</ele><time>2026-04-24T15:59:32.895Z</time></trkpt><trkpt lat="44.44237193356424" lon="11.440232172890173"><ele>69.0</ele><time>2026-04-24T15:59:34.895Z</time></trkpt><trkpt lat="44.4422957656017" lon="11.440298408801244"><ele>69.0</ele><time>2026-04-24T15:59:36.895Z</time></trkpt><trkpt lat="44.44222842761172" lon="11.44036798416573"><ele>69.0</ele><time>2026-04-24T15:59:38.895Z</time></trkpt><trkpt lat="44.44214627933006" lon="11.440405514593705"><ele>69.0</ele><time>2026-04-24T15:59:40.895Z</time></trkpt><trkpt lat="44.4420637549243" lon="11.440439093761565"><ele>68.66666666666667</ele><time>2026-04-24T15:59:42.896Z</time></trkpt><trkpt lat="44.44197664725054" lon="11.440467988009875"><ele>68.33333333333333</ele><time>2026-04-24T15:59:44.895Z</time></trkpt><trkpt lat="44.44188434895848" lon="11.440497152290051"><ele>68.0</ele><time>2026-04-24T15:59:46.896Z</time></trkpt><trkpt lat="44.44180208773012" lon="11.440521804897498"><ele>67.66666666666666</ele><time>2026-04-24T15:59:48.896Z</time></trkpt><trkpt lat="44.44172701255022" lon="11.440537081219825"><ele>67.33333333333333</ele><time>2026-04-24T15:59:50.895Z</time></trkpt><trkpt lat="44.44170056721836" lon="11.440617919918298"><ele>67.0</ele><time>2026-04-24T15:59:53.895Z</time></trkpt><trkpt lat="44.441674546843345" lon="11.440719316403493"><ele>67.0</ele><time>2026-04-24T15:59:56.895Z</time></trkpt><trkpt lat="44.441622191380745" lon="11.44077046296622"><ele>67.0</ele><time>2026-04-24T15:59:59.895Z</time></trkpt><trkpt lat="44.441595773450125" lon="11.440856221944466"><ele>67.0</ele><time>2026-04-24T16:00:01.895Z</time></trkpt><trkpt lat="44.44151470917414" lon="11.440835650363619"><ele>67.0</ele><time>2026-04-24T16:00:03.895Z</time></trkpt><trkpt lat="44.441431711397925" lon="11.440826079678944"><ele>67.0</ele><time>2026-04-24T16:00:05.895Z</time></trkpt><trkpt lat="44.441365970710415" lon="11.440817174618559"><ele>67.0</ele><time>2026-04-24T16:00:07.895Z</time></trkpt><trkpt lat="44.441299050796225" lon="11.44082475917477"><ele>67.0</ele><time>2026-04-24T16:00:09.895Z</time></trkpt><trkpt lat="44.441214453597055" lon="11.440835381605227"><ele>67.83333333333333</ele><time>2026-04-24T16:00:12.895Z</time></trkpt><trkpt lat="44.44115379755335" lon="11.440902904302877"><ele>68.66666666666666</ele><time>2026-04-24T16:00:17.895Z</time></trkpt><trkpt lat="44.441086123810344" lon="11.440950134867894"><ele>69.5</ele><time>2026-04-24T16:00:21.895Z</time></trkpt><trkpt lat="44.44101598941209" lon="11.440915177157413"><ele>70.33333333333333</ele><time>2026-04-24T16:00:25.895Z</time></trkpt><trkpt lat="44.44092989680102" lon="11.440901819949469"><ele>71.16666666666667</ele><time>2026-04-24T16:00:27.895Z</time></trkpt><trkpt lat="44.44085420742416" lon="11.440894298184134"><ele>72.0</ele><time>2026-04-24T16:00:30.895Z</time></trkpt><trkpt lat="44.44079233999901" lon="11.440912720742864"><ele>72.0</ele><time>2026-04-24T16:00:32.895Z</time></trkpt><trkpt lat="44.4407101828705" lon="11.440962079437421"><ele>72.0</ele><time>2026-04-24T16:00:35.895Z</time></trkpt><trkpt lat="44.44064184110102" lon="11.440993625099102"><ele>72.0</ele><time>2026-04-24T16:00:37.895Z</time></trkpt><trkpt lat="44.44055762307682" lon="11.440968556530139"><ele>72.0</ele><time>2026-04-24T16:00:39.895Z</time></trkpt><trkpt lat="44.44050081129201" lon="11.441025151845805"><ele>72.0</ele><time>2026-04-24T16:00:41.895Z</time></trkpt><trkpt lat="44.44042987706336" lon="11.44105057429499"><ele>72.0</ele><time>2026-04-24T16:00:43.895Z</time></trkpt><trkpt lat="44.44035960392368" lon="11.441077370498629"><ele>72.00000000000001</ele><time>2026-04-24T16:00:45.895Z</time></trkpt><trkpt lat="44.44029671213757" lon="11.441072805840475"><ele>72.0</ele><time>2026-04-24T16:00:47.895Z</time></trkpt><trkpt lat="44.440228238833" lon="11.441075715063482"><ele>72.0</ele><time>2026-04-24T16:00:49.895Z</time></trkpt><trkpt lat="44.44015545027401" lon="11.441124315831537"><ele>72.0</ele><time>2026-04-24T16:00:51.895Z</time></trkpt><trkpt lat="44.440071961352324" lon="11.441151149872812"><ele>72.0</ele><time>2026-04-24T16:00:54.895Z</time></trkpt><trkpt lat="44.43998841394726" lon="11.44114482900098"><ele>72.00000000000001</ele><time>2026-04-24T16:00:56.895Z</time></trkpt><trkpt lat="44.43992460526223" lon="11.441136918042096"><ele>72.0</ele><time>2026-04-24T16:00:58.895Z</time></trkpt><trkpt lat="44.43986774691851" lon="11.441194746158736"><ele>72.00000000000001</ele><time>2026-04-24T16:01:00.895Z</time></trkpt><trkpt lat="44.439803149127776" lon="11.441193813800801"><ele>72.0</ele><time>2026-04-24T16:01:02.895Z</time></trkpt><trkpt lat="44.439747722506155" lon="11.44115166470716"><ele>72.0</ele><time>2026-04-24T16:01:04.895Z</time></trkpt><trkpt lat="44.4396514150352" lon="11.441151712845146"><ele>72.0</ele><time>2026-04-24T16:01:07.895Z</time></trkpt><trkpt lat="44.43963021952835" lon="11.441050422985958"><ele>72.0</ele><time>2026-04-24T16:01:10.895Z</time></trkpt><trkpt lat="44.439575730066444" lon="11.44098650235585"><ele>72.00000000000001</ele><time>2026-04-24T16:01:12.895Z</time></trkpt><trkpt lat="44.43952098713206" lon="11.440939486344412"><ele>72.0</ele><time>2026-04-24T16:01:14.895Z</time></trkpt><trkpt lat="44.43946796120519" lon="11.440870521437347"><ele>71.85714285714286</ele><time>2026-04-24T16:01:17.894Z</time></trkpt><trkpt lat="44.439435802826395" lon="11.440784309668137"><ele>71.71428571428572</ele><time>2026-04-24T16:01:22.894Z</time></trkpt><trkpt lat="44.43937391372038" lon="11.4407582420912"><ele>71.57142857142857</ele><time>2026-04-24T16:01:24.894Z</time></trkpt><trkpt lat="44.43929356441451" lon="11.440756229931559"><ele>71.42857142857143</ele><time>2026-04-24T16:01:27.894Z</time></trkpt><trkpt lat="44.43922258299209" lon="11.440767213500372"><ele>71.28571428571428</ele><time>2026-04-24T16:01:29.894Z</time></trkpt><trkpt lat="44.43913307495602" lon="11.440781554151314"><ele>71.14285714285714</ele><time>2026-04-24T16:01:32.894Z</time></trkpt><trkpt lat="44.439077867580465" lon="11.44072027016398"><ele>71.0</ele><time>2026-04-24T16:01:34.894Z</time></trkpt><trkpt lat="44.43900453512866" lon="11.440648290363102"><ele>71.0</ele><time>2026-04-24T16:01:38.894Z</time></trkpt><trkpt lat="44.43896160377827" lon="11.440566205773436"><ele>71.0</ele><time>2026-04-24T16:01:41.894Z</time></trkpt><trkpt lat="44.43891612378986" lon="11.440484012546928"><ele>71.0</ele><time>2026-04-24T16:01:44.894Z</time></trkpt><trkpt lat="44.43886519772704" lon="11.440384424459461"><ele>71.0</ele><time>2026-04-24T16:01:47.894Z</time></trkpt><trkpt lat="44.43882668067971" lon="11.440297390061104"><ele>71.0</ele><time>2026-04-24T16:01:49.895Z</time></trkpt><trkpt lat="44.43877405875532" lon="11.440199158947674"><ele>71.0</ele><time>2026-04-24T16:01:52.895Z</time></trkpt><trkpt lat="44.438704474158556" lon="11.440188946065845"><ele>71.5</ele><time>2026-04-24T16:01:55.894Z</time></trkpt><trkpt lat="44.43863669896143" lon="11.44012681864756"><ele>72.0</ele><time>2026-04-24T16:01:58.894Z</time></trkpt><trkpt lat="44.43857244587543" lon="11.440060731731764"><ele>72.5</ele><time>2026-04-24T16:02:01.894Z</time></trkpt><trkpt lat="44.43850906598005" lon="11.440004672306003"><ele>73.0</ele><time>2026-04-24T16:02:04.894Z</time></trkpt><trkpt lat="44.43849260156311" lon="11.439874333002786"><ele>73.5</ele><time>2026-04-24T16:02:07.894Z</time></trkpt><trkpt lat="44.4384267788483" lon="11.439800399868195"><ele>74.0</ele><time>2026-04-24T16:02:09.894Z</time></trkpt><trkpt lat="44.438389175640424" lon="11.439722658811027"><ele>73.57142857142857</ele><time>2026-04-24T16:02:11.894Z</time></trkpt><trkpt lat="44.43837584075938" lon="11.439607238695814"><ele>73.14285714285714</ele><time>2026-04-24T16:02:14.894Z</time></trkpt><trkpt lat="44.43833981792534" lon="11.439500407643614"><ele>72.71428571428571</ele><time>2026-04-24T16:02:16.894Z</time></trkpt><trkpt lat="44.43831425756634" lon="11.43939435629505"><ele>72.28571428571428</ele><time>2026-04-24T16:02:18.894Z</time></trkpt><trkpt lat="44.43828843750159" lon="11.439311211476452"><ele>71.85714285714285</ele><time>2026-04-24T16:02:21.894Z</time></trkpt><trkpt lat="44.438275553614446" lon="11.439214667163386"><ele>71.42857142857143</ele><time>2026-04-24T16:02:24.894Z</time></trkpt><trkpt lat="44.43825353444107" lon="11.439127969225247"><ele>71.0</ele><time>2026-04-24T16:02:31.894Z</time></trkpt><trkpt lat="44.43823681465217" lon="11.43903552727551"><ele>71.0</ele><time>2026-04-24T16:02:55.873Z</time></trkpt><trkpt lat="44.43822350469164" lon="11.438937227082915"><ele>71.0</ele><time>2026-04-24T16:03:05.869Z</time></trkpt><trkpt lat="44.43823853700168" lon="11.438835540059811"><ele>71.0</ele><time>2026-04-24T16:03:08.868Z</time></trkpt><trkpt lat="44.43819369371967" lon="11.438769628759834"><ele>71.0</ele><time>2026-04-24T16:03:13.867Z</time></trkpt><trkpt lat="44.438154902939964" lon="11.438684422472177"><ele>71.0</ele><time>2026-04-24T16:03:16.866Z</time></trkpt><trkpt lat="44.43814481027706" lon="11.438594853848363"><ele>71.0</ele><time>2026-04-24T16:03:20.866Z</time></trkpt><trkpt lat="44.438140685595464" lon="11.4385039071121"><ele>71.0</ele><time>2026-04-24T16:03:23.865Z</time></trkpt><trkpt lat="44.43814381091034" lon="11.438405438915533"><ele>71.33333333333334</ele><time>2026-04-24T16:03:26.865Z</time></trkpt><trkpt lat="44.438141553312256" lon="11.438299274932872"><ele>71.66666666666667</ele><time>2026-04-24T16:03:29.865Z</time></trkpt><trkpt lat="44.43815761847462" lon="11.438208320308691"><ele>72.0</ele><time>2026-04-24T16:03:31.865Z</time></trkpt><trkpt lat="44.43820954546462" lon="11.438128534722404"><ele>72.33333333333333</ele><time>2026-04-24T16:03:35.865Z</time></trkpt><trkpt lat="44.43827328316551" lon="11.438069475853657"><ele>72.66666666666666</ele><time>2026-04-24T16:03:38.864Z</time></trkpt><trkpt lat="44.4383589689185" lon="11.438066274843154"><ele>73.0</ele><time>2026-04-24T16:03:41.864Z</time></trkpt><trkpt lat="44.438451682343995" lon="11.438095624546861"><ele>73.0</ele><time>2026-04-24T16:03:44.864Z</time></trkpt><trkpt lat="44.43852218745183" lon="11.438119050407554"><ele>73.0</ele><time>2026-04-24T16:03:46.864Z</time></trkpt><trkpt lat="44.43869466938606" lon="11.43811930185432"><ele>73.0</ele><time>2026-04-24T16:03:51.864Z</time></trkpt><trkpt lat="44.43876541953274" lon="11.438133000248525"><ele>73.0</ele><time>2026-04-24T16:03:53.864Z</time></trkpt><trkpt lat="44.438837705791265" lon="11.438150837131673"><ele>73.0</ele><time>2026-04-24T16:03:55.864Z</time></trkpt><trkpt lat="44.43880405787389" lon="11.438161554778587"><ele>73.0</ele><time>2026-04-24T16:05:56.862Z</time></trkpt><trkpt lat="44.43873575118616" lon="11.438152463963828"><ele>73.0</ele><time>2026-04-24T16:05:58.862Z</time></trkpt><trkpt lat="44.43864519343996" lon="11.43815261221077"><ele>73.0</ele><time>2026-04-24T16:06:01.862Z</time></trkpt><trkpt lat="44.43857825987389" lon="11.438152402903347"><ele>73.0</ele><time>2026-04-24T16:06:03.862Z</time></trkpt><trkpt lat="44.43850003793389" lon="11.43812708882892"><ele>73.0</ele><time>2026-04-24T16:06:05.862Z</time></trkpt><trkpt lat="44.43842804722527" lon="11.438121368175048"><ele>73.0</ele><time>2026-04-24T16:06:07.862Z</time></trkpt><trkpt lat="44.438331309599015" lon="11.438096262020066"><ele>73.0</ele><time>2026-04-24T16:06:09.862Z</time></trkpt><trkpt lat="44.43824710406471" lon="11.438068071718474"><ele>73.0</ele><time>2026-04-24T16:06:11.862Z</time></trkpt><trkpt lat="44.438178521927085" lon="11.438043435421239"><ele>73.0</ele><time>2026-04-24T16:06:13.862Z</time></trkpt><trkpt lat="44.438106247260755" lon="11.437999934988275"><ele>73.0</ele><time>2026-04-24T16:06:15.862Z</time></trkpt><trkpt lat="44.4380202281556" lon="11.437908905604592"><ele>73.0</ele><time>2026-04-24T16:06:18.862Z</time></trkpt><trkpt lat="44.43797395689541" lon="11.437825582183569"><ele>73.0</ele><time>2026-04-24T16:06:20.862Z</time></trkpt><trkpt lat="44.43793161721712" lon="11.43774922994805"><ele>73.0</ele><time>2026-04-24T16:06:22.862Z</time></trkpt><trkpt lat="44.43787880452986" lon="11.437658163589967"><ele>73.0</ele><time>2026-04-24T16:06:24.862Z</time></trkpt><trkpt lat="44.437815948418454" lon="11.437567681807227"><ele>73.0</ele><time>2026-04-24T16:06:27.862Z</time></trkpt><trkpt lat="44.43777344749411" lon="11.437500340599996"><ele>73.0</ele><time>2026-04-24T16:06:30.862Z</time></trkpt><trkpt lat="44.43774347705034" lon="11.437385922802196"><ele>73.0</ele><time>2026-04-24T16:06:33.862Z</time></trkpt><trkpt lat="44.437698852935625" lon="11.437285952361155"><ele>73.0</ele><time>2026-04-24T16:06:36.862Z</time></trkpt><trkpt lat="44.437666116271245" lon="11.437188189853016"><ele>73.0</ele><time>2026-04-24T16:06:39.862Z</time></trkpt><trkpt lat="44.43764486654651" lon="11.437086772730613"><ele>72.85714285714286</ele><time>2026-04-24T16:06:42.862Z</time></trkpt><trkpt lat="44.43758320497368" lon="11.437042404978214"><ele>72.71428571428572</ele><time>2026-04-24T16:06:45.862Z</time></trkpt><trkpt lat="44.43751209080794" lon="11.437071161171213"><ele>72.57142857142858</ele><time>2026-04-24T16:06:51.862Z</time></trkpt><trkpt lat="44.43744313399553" lon="11.437072476033345"><ele>72.42857142857143</ele><time>2026-04-24T16:06:55.862Z</time></trkpt><trkpt lat="44.437392794050865" lon="11.436998074798407"><ele>72.28571428571429</ele><time>2026-04-24T16:06:58.862Z</time></trkpt><trkpt lat="44.437344709229365" lon="11.436907538263403"><ele>72.14285714285715</ele><time>2026-04-24T16:07:02.862Z</time></trkpt><trkpt lat="44.43737306841742" lon="11.436823971540898"><ele>72.0</ele><time>2026-04-24T16:07:04.862Z</time></trkpt><trkpt lat="44.43734956915605" lon="11.43673922882803"><ele>72.0</ele><time>2026-04-24T16:07:07.862Z</time></trkpt><trkpt lat="44.43733583640234" lon="11.436651413108775"><ele>72.0</ele><time>2026-04-24T16:07:09.862Z</time></trkpt><trkpt lat="44.43728846274318" lon="11.436552622415524"><ele>72.0</ele><time>2026-04-24T16:07:11.862Z</time></trkpt><trkpt lat="44.43725177172692" lon="11.436438397371145"><ele>72.0</ele><time>2026-04-24T16:07:13.862Z</time></trkpt><trkpt lat="44.43721822269604" lon="11.436361089172923"><ele>72.0</ele><time>2026-04-24T16:07:15.861Z</time></trkpt><trkpt lat="44.437168003652026" lon="11.43626166493684"><ele>72.0</ele><time>2026-04-24T16:07:17.861Z</time></trkpt><trkpt lat="44.43712292152863" lon="11.436181075699166"><ele>72.16666666666667</ele><time>2026-04-24T16:07:19.861Z</time></trkpt><trkpt lat="44.437034891552514" lon="11.436183578474116"><ele>72.33333333333333</ele><time>2026-04-24T16:07:23.861Z</time></trkpt><trkpt lat="44.43696105305855" lon="11.43618882768263"><ele>72.5</ele><time>2026-04-24T16:07:25.861Z</time></trkpt><trkpt lat="44.43688800410245" lon="11.436121587694188"><ele>72.66666666666666</ele><time>2026-04-24T16:07:28.861Z</time></trkpt><trkpt lat="44.43685746197697" lon="11.43603149785355"><ele>72.83333333333333</ele><time>2026-04-24T16:07:31.861Z</time></trkpt><trkpt lat="44.436802491910946" lon="11.435965134230836"><ele>73.0</ele><time>2026-04-24T16:07:33.861Z</time></trkpt><trkpt lat="44.43672138328252" lon="11.435874633366685"><ele>73.0</ele><time>2026-04-24T16:07:35.861Z</time></trkpt><trkpt lat="44.436655070654105" lon="11.435823146895858"><ele>73.0</ele><time>2026-04-24T16:07:38.861Z</time></trkpt><trkpt lat="44.436582479844915" lon="11.435772607301368"><ele>73.0</ele><time>2026-04-24T16:07:40.861Z</time></trkpt><trkpt lat="44.43652214049481" lon="11.435678889122162"><ele>73.0</ele><time>2026-04-24T16:07:44.861Z</time></trkpt><trkpt lat="44.43644957651392" lon="11.435645085392222"><ele>73.0</ele><time>2026-04-24T16:07:46.861Z</time></trkpt><trkpt lat="44.43638398717389" lon="11.435710073607149"><ele>73.0</ele><time>2026-04-24T16:07:49.861Z</time></trkpt><trkpt lat="44.43630207111748" lon="11.43571663853862"><ele>72.66666666666666</ele><time>2026-04-24T16:07:52.861Z</time></trkpt><trkpt lat="44.436235677035015" lon="11.435639286773478"><ele>72.33333333333333</ele><time>2026-04-24T16:07:54.861Z</time></trkpt><trkpt lat="44.43618036366842" lon="11.43558098173917"><ele>72.0</ele><time>2026-04-24T16:07:56.861Z</time></trkpt><trkpt lat="44.436144537387115" lon="11.435489132483234"><ele>71.66666666666667</ele><time>2026-04-24T16:07:58.86Z</time></trkpt><trkpt lat="44.436071408502166" lon="11.435519795636594"><ele>71.33333333333334</ele><time>2026-04-24T16:08:02.86Z</time></trkpt><trkpt lat="44.43600451434624" lon="11.435473348101347"><ele>71.0</ele><time>2026-04-24T16:08:04.86Z</time></trkpt><trkpt lat="44.435957376887266" lon="11.435389247845"><ele>72.0</ele><time>2026-04-24T16:08:06.86Z</time></trkpt><trkpt lat="44.43589816499464" lon="11.435314677585325"><ele>73.0</ele><time>2026-04-24T16:08:08.86Z</time></trkpt><trkpt lat="44.4358151735381" lon="11.43526469108696"><ele>74.0</ele><time>2026-04-24T16:08:10.86Z</time></trkpt><trkpt lat="44.43574066972071" lon="11.435247925357782"><ele>75.0</ele><time>2026-04-24T16:08:12.86Z</time></trkpt><trkpt lat="44.43567442255342" lon="11.435248973477266"><ele>76.0</ele><time>2026-04-24T16:08:14.86Z</time></trkpt><trkpt lat="44.43559530994054" lon="11.435237078891449"><ele>77.0</ele><time>2026-04-24T16:08:17.86Z</time></trkpt><trkpt lat="44.43553216951264" lon="11.435254435983104"><ele>77.0</ele><time>2026-04-24T16:08:21.86Z</time></trkpt><trkpt lat="44.43548657609987" lon="11.435322531774945"><ele>77.0</ele><time>2026-04-24T16:08:25.86Z</time></trkpt><trkpt lat="44.43542422293366" lon="11.435367500150319"><ele>77.0</ele><time>2026-04-24T16:08:28.86Z</time></trkpt><trkpt lat="44.43536519704928" lon="11.435410752458285"><ele>77.0</ele><time>2026-04-24T16:08:31.86Z</time></trkpt><trkpt lat="44.435308513742726" lon="11.435485403500856"><ele>77.0</ele><time>2026-04-24T16:08:36.86Z</time></trkpt><trkpt lat="44.43527415269884" lon="11.435570318048526"><ele>77.0</ele><time>2026-04-24T16:08:37.86Z</time></trkpt><trkpt lat="44.4351894097607" lon="11.435676013120677"><ele>76.66666666666667</ele><time>2026-04-24T16:08:39.86Z</time></trkpt><trkpt lat="44.435167088649635" lon="11.435782458934389"><ele>76.33333333333334</ele><time>2026-04-24T16:08:41.86Z</time></trkpt><trkpt lat="44.43508779397517" lon="11.435773534603207"><ele>76.0</ele><time>2026-04-24T16:08:44.86Z</time></trkpt><trkpt lat="44.43498946419146" lon="11.435741398359502"><ele>75.66666666666667</ele><time>2026-04-24T16:08:47.86Z</time></trkpt><trkpt lat="44.43490744629775" lon="11.435729276359945"><ele>75.33333333333333</ele><time>2026-04-24T16:08:50.86Z</time></trkpt><trkpt lat="44.43482569641474" lon="11.435686399833278"><ele>75.0</ele><time>2026-04-24T16:08:52.86Z</time></trkpt><trkpt lat="44.43475112421351" lon="11.435693892296685"><ele>75.0</ele><time>2026-04-24T16:08:54.86Z</time></trkpt><trkpt lat="44.43465969847381" lon="11.435675417117285"><ele>75.0</ele><time>2026-04-24T16:08:56.86Z</time></trkpt><trkpt lat="44.434598754577024" lon="11.435704157582263"><ele>75.0</ele><time>2026-04-24T16:08:58.86Z</time></trkpt><trkpt lat="44.43453901128407" lon="11.435755066035327"><ele>75.0</ele><time>2026-04-24T16:09:01.86Z</time></trkpt><trkpt lat="44.43445183516824" lon="11.435757638652463"><ele>75.0</ele><time>2026-04-24T16:09:04.86Z</time></trkpt><trkpt lat="44.434374236410584" lon="11.435816239483847"><ele>75.0</ele><time>2026-04-24T16:09:07.86Z</time></trkpt><trkpt lat="44.43431068532497" lon="11.435824961656316"><ele>74.5</ele><time>2026-04-24T16:09:09.86Z</time></trkpt><trkpt lat="44.43424654252923" lon="11.435828175948277"><ele>74.0</ele><time>2026-04-24T16:09:11.86Z</time></trkpt><trkpt lat="44.434176734866774" lon="11.435773662718939"><ele>73.5</ele><time>2026-04-24T16:09:15.86Z</time></trkpt><trkpt lat="44.43410359854567" lon="11.435817930412897"><ele>73.0</ele><time>2026-04-24T16:09:18.859Z</time></trkpt><trkpt lat="44.43401311392237" lon="11.43577004469973"><ele>72.5</ele><time>2026-04-24T16:09:21.86Z</time></trkpt><trkpt lat="44.43393879630479" lon="11.435763947349537"><ele>72.0</ele><time>2026-04-24T16:09:23.86Z</time></trkpt><trkpt lat="44.43385693711188" lon="11.435757262662127"><ele>72.00000000000001</ele><time>2026-04-24T16:09:26.86Z</time></trkpt><trkpt lat="44.43378817517424" lon="11.435768418920905"><ele>72.0</ele><time>2026-04-24T16:09:28.86Z</time></trkpt><trkpt lat="44.43372063412597" lon="11.435744857058573"><ele>72.0</ele><time>2026-04-24T16:09:30.86Z</time></trkpt><trkpt lat="44.43365499907119" lon="11.435700677126212"><ele>72.0</ele><time>2026-04-24T16:09:33.86Z</time></trkpt><trkpt lat="44.43360000502929" lon="11.435654285852785"><ele>72.0</ele><time>2026-04-24T16:09:35.86Z</time></trkpt><trkpt lat="44.433517671322974" lon="11.435591755357269"><ele>72.00000000000001</ele><time>2026-04-24T16:09:38.86Z</time></trkpt><trkpt lat="44.4334495769218" lon="11.435578919705215"><ele>72.0</ele><time>2026-04-24T16:09:40.86Z</time></trkpt><trkpt lat="44.43336510948217" lon="11.435545672518826"><ele>72.0</ele><time>2026-04-24T16:09:43.859Z</time></trkpt><trkpt lat="44.43326963912317" lon="11.435538646109405"><ele>72.0</ele><time>2026-04-24T16:09:46.859Z</time></trkpt><trkpt lat="44.43320840908817" lon="11.435483564951817"><ele>72.0</ele><time>2026-04-24T16:09:48.859Z</time></trkpt><trkpt lat="44.43312058880964" lon="11.435450686822797"><ele>72.0</ele><time>2026-04-24T16:09:51.859Z</time></trkpt><trkpt lat="44.433041418047445" lon="11.43543176942062"><ele>72.0</ele><time>2026-04-24T16:09:53.859Z</time></trkpt><trkpt lat="44.432972763294465" lon="11.435376057759632"><ele>72.0</ele><time>2026-04-24T16:09:56.859Z</time></trkpt><trkpt lat="44.43292888294395" lon="11.435297827468458"><ele>72.57142857142858</ele><time>2026-04-24T16:09:59.859Z</time></trkpt><trkpt lat="44.432869753543066" lon="11.435240785904227"><ele>73.14285714285714</ele><time>2026-04-24T16:10:02.859Z</time></trkpt><trkpt lat="44.43279631223384" lon="11.435202559972995"><ele>73.71428571428572</ele><time>2026-04-24T16:10:05.859Z</time></trkpt><trkpt lat="44.432724249167855" lon="11.435162537370118"><ele>74.28571428571429</ele><time>2026-04-24T16:10:07.859Z</time></trkpt><trkpt lat="44.43266858093249" lon="11.43511656321879"><ele>74.85714285714286</ele><time>2026-04-24T16:10:09.859Z</time></trkpt><trkpt lat="44.43260482077113" lon="11.435114490755279"><ele>75.42857142857143</ele><time>2026-04-24T16:10:11.859Z</time></trkpt><trkpt lat="44.432538055813616" lon="11.435081816245455"><ele>76.0</ele><time>2026-04-24T16:10:13.859Z</time></trkpt><trkpt lat="44.43249712939592" lon="11.435006147845066"><ele>76.0</ele><time>2026-04-24T16:10:15.859Z</time></trkpt><trkpt lat="44.432458187142984" lon="11.434915775524363"><ele>76.0</ele><time>2026-04-24T16:10:20.859Z</time></trkpt><trkpt lat="44.432381109117" lon="11.434913008745374"><ele>76.0</ele><time>2026-04-24T16:10:23.859Z</time></trkpt><trkpt lat="44.43231573132835" lon="11.434942337584907"><ele>76.0</ele><time>2026-04-24T16:10:26.859Z</time></trkpt><trkpt lat="44.43225215208306" lon="11.434906448138525"><ele>76.0</ele><time>2026-04-24T16:10:28.859Z</time></trkpt><trkpt lat="44.432156550719995" lon="11.434926196879703"><ele>76.0</ele><time>2026-04-24T16:10:31.859Z</time></trkpt><trkpt lat="44.43207984376045" lon="11.43489486668425"><ele>75.83333333333333</ele><time>2026-04-24T16:10:34.859Z</time></trkpt><trkpt lat="44.43199998118673" lon="11.434880690090706"><ele>75.66666666666666</ele><time>2026-04-24T16:10:37.859Z</time></trkpt><trkpt lat="44.431932456824356" lon="11.434815267437541"><ele>75.5</ele><time>2026-04-24T16:10:40.859Z</time></trkpt><trkpt lat="44.43185762213765" lon="11.434786104394908"><ele>75.33333333333333</ele><time>2026-04-24T16:10:43.859Z</time></trkpt><trkpt lat="44.431771649675404" lon="11.434735084565924"><ele>75.16666666666667</ele><time>2026-04-24T16:10:46.859Z</time></trkpt><trkpt lat="44.431699287810204" lon="11.434681852600656"><ele>75.0</ele><time>2026-04-24T16:10:49.859Z</time></trkpt><trkpt lat="44.43165147741882" lon="11.434584269074069"><ele>75.0</ele><time>2026-04-24T16:10:52.858Z</time></trkpt><trkpt lat="44.43159218597513" lon="11.434523535686907"><ele>75.0</ele><time>2026-04-24T16:10:55.858Z</time></trkpt><trkpt lat="44.43155825349343" lon="11.43443160497557"><ele>75.0</ele><time>2026-04-24T16:10:58.858Z</time></trkpt><trkpt lat="44.43150127093597" lon="11.434366546565613"><ele>75.0</ele><time>2026-04-24T16:11:02.858Z</time></trkpt><trkpt lat="44.43143574963702" lon="11.434324623287514"><ele>75.0</ele><time>2026-04-24T16:11:04.858Z</time></trkpt><trkpt lat="44.43138998636851" lon="11.434249748384335"><ele>75.0</ele><time>2026-04-24T16:11:07.858Z</time></trkpt><trkpt lat="44.43132530494404" lon="11.434166542405181"><ele>74.66666666666667</ele><time>2026-04-24T16:11:10.858Z</time></trkpt><trkpt lat="44.43128124207661" lon="11.434059067312019"><ele>74.33333333333333</ele><time>2026-04-24T16:11:13.858Z</time></trkpt><trkpt lat="44.43121968917753" lon="11.433982273198604"><ele>74.0</ele><time>2026-04-24T16:11:16.858Z</time></trkpt><trkpt lat="44.43120739544449" lon="11.433873651840774"><ele>73.66666666666666</ele><time>2026-04-24T16:11:20.859Z</time></trkpt><trkpt lat="44.43118186598598" lon="11.433778769402748"><ele>73.33333333333333</ele><time>2026-04-24T16:11:23.858Z</time></trkpt><trkpt lat="44.43113361251206" lon="11.433699938148298"><ele>73.0</ele><time>2026-04-24T16:11:26.858Z</time></trkpt><trkpt lat="44.43107144352024" lon="11.433640872910887"><ele>73.0</ele><time>2026-04-24T16:11:28.858Z</time></trkpt><trkpt lat="44.431003469155044" lon="11.433596768029576"><ele>73.0</ele><time>2026-04-24T16:11:31.858Z</time></trkpt><trkpt lat="44.43094955219127" lon="11.433536581526853"><ele>73.0</ele><time>2026-04-24T16:11:34.858Z</time></trkpt><trkpt lat="44.43088881715781" lon="11.433463215126572"><ele>73.0</ele><time>2026-04-24T16:11:38.858Z</time></trkpt><trkpt lat="44.43082012421906" lon="11.433444702571482"><ele>73.0</ele><time>2026-04-24T16:11:40.858Z</time></trkpt><trkpt lat="44.43075728222309" lon="11.433376046398426"><ele>73.0</ele><time>2026-04-24T16:11:43.858Z</time></trkpt><trkpt lat="44.43072235489651" lon="11.433285208946632"><ele>73.0</ele><time>2026-04-24T16:11:46.858Z</time></trkpt><trkpt lat="44.430692759636" lon="11.4332008635705"><ele>73.0</ele><time>2026-04-24T16:11:48.858Z</time></trkpt><trkpt lat="44.43066906475439" lon="11.433090514809075"><ele>73.0</ele><time>2026-04-24T16:11:51.858Z</time></trkpt><trkpt lat="44.430638256211445" lon="11.432977834434583"><ele>73.0</ele><time>2026-04-24T16:11:54.858Z</time></trkpt><trkpt lat="44.43067705823729" lon="11.43289088642676"><ele>73.0</ele><time>2026-04-24T16:11:56.858Z</time></trkpt><trkpt lat="44.43067608510002" lon="11.432797546098346"><ele>73.0</ele><time>2026-04-24T16:11:59.858Z</time></trkpt><trkpt lat="44.43063135965014" lon="11.432723709365304"><ele>73.0</ele><time>2026-04-24T16:12:02.858Z</time></trkpt><trkpt lat="44.43058047685138" lon="11.432655129796741"><ele>73.0</ele><time>2026-04-24T16:12:05.858Z</time></trkpt><trkpt lat="44.430563336196805" lon="11.43254461598204"><ele>73.28571428571428</ele><time>2026-04-24T16:12:09.857Z</time></trkpt><trkpt lat="44.430533925066946" lon="11.432458815650168"><ele>73.57142857142857</ele><time>2026-04-24T16:12:13.857Z</time></trkpt><trkpt lat="44.43050360908284" lon="11.432379338317437"><ele>73.85714285714286</ele><time>2026-04-24T16:12:16.857Z</time></trkpt><trkpt lat="44.43044274431713" lon="11.432335560175916"><ele>74.14285714285714</ele><time>2026-04-24T16:12:19.857Z</time></trkpt><trkpt lat="44.43043029123339" lon="11.432232809649989"><ele>74.42857142857143</ele><time>2026-04-24T16:12:24.857Z</time></trkpt><trkpt lat="44.430371444087946" lon="11.432165769952364"><ele>74.71428571428571</ele><time>2026-04-24T16:12:27.857Z</time></trkpt><trkpt lat="44.43029537563147" lon="11.432080429499232"><ele>75.0</ele><time>2026-04-24T16:12:31.857Z</time></trkpt><trkpt lat="44.430246884466456" lon="11.431992431688577"><ele>75.0</ele><time>2026-04-24T16:12:33.857Z</time></trkpt><trkpt lat="44.4301801536369" lon="11.431914188720295"><ele>75.0</ele><time>2026-04-24T16:12:35.857Z</time></trkpt><trkpt lat="44.43014096813464" lon="11.431832875836271"><ele>75.0</ele><time>2026-04-24T16:12:37.857Z</time></trkpt><trkpt lat="44.430097155759505" lon="11.431768043919831"><ele>75.0</ele><time>2026-04-24T16:12:39.857Z</time></trkpt><trkpt lat="44.43006058472895" lon="11.43167358478762"><ele>75.0</ele><time>2026-04-24T16:12:42.857Z</time></trkpt><trkpt lat="44.43001350744805" lon="11.431585240333401"><ele>75.0</ele><time>2026-04-24T16:12:45.857Z</time></trkpt><trkpt lat="44.4299726025642" lon="11.431479447066726"><ele>75.0</ele><time>2026-04-24T16:12:49.857Z</time></trkpt><trkpt lat="44.429902074565014" lon="11.431405033816585"><ele>75.0</ele><time>2026-04-24T16:12:52.857Z</time></trkpt><trkpt lat="44.429879788356935" lon="11.431320417824297"><ele>75.0</ele><time>2026-04-24T16:12:54.857Z</time></trkpt><trkpt lat="44.42990717184117" lon="11.431207754972899"><ele>75.0</ele><time>2026-04-24T16:12:57.857Z</time></trkpt><trkpt lat="44.42996541812128" lon="11.431110277688317"><ele>75.0</ele><time>2026-04-24T16:13:01.857Z</time></trkpt><trkpt lat="44.43002380621264" lon="11.431050960613645"><ele>75.0</ele><time>2026-04-24T16:13:04.857Z</time></trkpt><trkpt lat="44.43008824990723" lon="11.431013229714884"><ele>75.5</ele><time>2026-04-24T16:13:10.857Z</time></trkpt><trkpt lat="44.43015403451057" lon="11.431020441151079"><ele>76.0</ele><time>2026-04-24T16:13:24.856Z</time></trkpt><trkpt lat="44.430226211469524" lon="11.43105926810745"><ele>76.5</ele><time>2026-04-24T16:13:29.857Z</time></trkpt><trkpt lat="44.4302981557058" lon="11.431101586104393"><ele>77.0</ele><time>2026-04-24T16:13:32.857Z</time></trkpt><trkpt lat="44.43035941478291" lon="11.431147987888778"><ele>77.5</ele><time>2026-04-24T16:13:34.857Z</time></trkpt><trkpt lat="44.43045935956843" lon="11.431185729104833"><ele>78.0</ele><time>2026-04-24T16:13:37.857Z</time></trkpt><trkpt lat="44.43052268129282" lon="11.431218612110783"><ele>78.0</ele><time>2026-04-24T16:13:39.857Z</time></trkpt><trkpt lat="44.43061258046867" lon="11.43126801155368"><ele>78.0</ele><time>2026-04-24T16:13:42.857Z</time></trkpt><trkpt lat="44.430707149284395" lon="11.431346876767169"><ele>78.0</ele><time>2026-04-24T16:13:44.857Z</time></trkpt><trkpt lat="44.43077711976448" lon="11.43139048892891"><ele>78.0</ele><time>2026-04-24T16:13:46.857Z</time></trkpt><trkpt lat="44.4308472573463" lon="11.431432513695977"><ele>78.0</ele><time>2026-04-24T16:13:48.857Z</time></trkpt><trkpt lat="44.43091862967337" lon="11.431474509868902"><ele>78.0</ele><time>2026-04-24T16:13:50.857Z</time></trkpt><trkpt lat="44.4309887158375" lon="11.431514528354446"><ele>78.0</ele><time>2026-04-24T16:13:52.857Z</time></trkpt><trkpt lat="44.43106858797811" lon="11.431561401892989"><ele>78.0</ele><time>2026-04-24T16:13:54.857Z</time></trkpt><trkpt lat="44.43114616407833" lon="11.431584674324109"><ele>78.0</ele><time>2026-04-24T16:13:56.857Z</time></trkpt><trkpt lat="44.43122482009531" lon="11.431614559137845"><ele>78.0</ele><time>2026-04-24T16:13:58.856Z</time></trkpt><trkpt lat="44.43131148459443" lon="11.431666251518166"><ele>78.0</ele><time>2026-04-24T16:14:00.856Z</time></trkpt><trkpt lat="44.431397779226344" lon="11.431734056965015"><ele>78.0</ele><time>2026-04-24T16:14:02.856Z</time></trkpt><trkpt lat="44.431496337876474" lon="11.431790738133309"><ele>78.2</ele><time>2026-04-24T16:14:04.856Z</time></trkpt><trkpt lat="44.43161535462129" lon="11.43185145403827"><ele>78.4</ele><time>2026-04-24T16:14:06.856Z</time></trkpt><trkpt lat="44.43168173272179" lon="11.431901287310799"><ele>78.60000000000001</ele><time>2026-04-24T16:14:07.856Z</time></trkpt><trkpt lat="44.431743630940794" lon="11.43194486610741"><ele>78.8</ele><time>2026-04-24T16:14:08.856Z</time></trkpt><trkpt lat="44.43181136922448" lon="11.431978948464616"><ele>79.0</ele><time>2026-04-24T16:14:09.856Z</time></trkpt><trkpt lat="44.43191847700393" lon="11.432031376059832"><ele>79.0</ele><time>2026-04-24T16:14:11.856Z</time></trkpt><trkpt lat="44.43202349181763" lon="11.432093546247353"><ele>79.0</ele><time>2026-04-24T16:14:13.856Z</time></trkpt><trkpt lat="44.432144028263316" lon="11.432159032995905"><ele>79.0</ele><time>2026-04-24T16:14:15.856Z</time></trkpt><trkpt lat="44.432262902507766" lon="11.432226698374253"><ele>79.0</ele><time>2026-04-24T16:14:17.856Z</time></trkpt><trkpt lat="44.432370988200326" lon="11.432296539088814"><ele>78.4</ele><time>2026-04-24T16:14:19.856Z</time></trkpt><trkpt lat="44.43243298642899" lon="11.432337382548631"><ele>77.80000000000001</ele><time>2026-04-24T16:14:20.856Z</time></trkpt><trkpt lat="44.43249304410864" lon="11.432371559539343"><ele>77.19999999999999</ele><time>2026-04-24T16:14:21.856Z</time></trkpt><trkpt lat="44.432604685347684" lon="11.432431551900907"><ele>76.6</ele><time>2026-04-24T16:14:23.856Z</time></trkpt><trkpt lat="44.43271147195341" lon="11.432493304928006"><ele>76.0</ele><time>2026-04-24T16:14:25.856Z</time></trkpt><trkpt lat="44.43280118291334" lon="11.432550451571645"><ele>76.0</ele><time>2026-04-24T16:14:27.856Z</time></trkpt><trkpt lat="44.43289307142108" lon="11.43259977716542"><ele>76.0</ele><time>2026-04-24T16:14:29.856Z</time></trkpt><trkpt lat="44.43306967123656" lon="11.432579585638914"><ele>76.0</ele><time>2026-04-24T16:14:33.856Z</time></trkpt><trkpt lat="44.433158304262555" lon="11.432509383295717"><ele>76.0</ele><time>2026-04-24T16:14:35.856Z</time></trkpt><trkpt lat="44.43325808366682" lon="11.432437735934286"><ele>76.0</ele><time>2026-04-24T16:14:37.856Z</time></trkpt><trkpt lat="44.43335758811931" lon="11.43233824145798"><ele>76.0</ele><time>2026-04-24T16:14:39.856Z</time></trkpt><trkpt lat="44.43345604804419" lon="11.432260295840248"><ele>76.0</ele><time>2026-04-24T16:14:41.856Z</time></trkpt><trkpt lat="44.433541372101224" lon="11.43217733410268"><ele>76.0</ele><time>2026-04-24T16:14:43.856Z</time></trkpt><trkpt lat="44.43364586422564" lon="11.432101343791562"><ele>76.0</ele><time>2026-04-24T16:14:45.856Z</time></trkpt><trkpt lat="44.43373358072394" lon="11.432031840509444"><ele>76.0</ele><time>2026-04-24T16:14:47.856Z</time></trkpt><trkpt lat="44.4338224868411" lon="11.431968073937838"><ele>76.0</ele><time>2026-04-24T16:14:49.856Z</time></trkpt><trkpt lat="44.43391826559322" lon="11.431898027140258"><ele>76.0</ele><time>2026-04-24T16:14:51.856Z</time></trkpt><trkpt lat="44.43401054666743" lon="11.4318581017545"><ele>76.0</ele><time>2026-04-24T16:14:53.856Z</time></trkpt><trkpt lat="44.434104674463484" lon="11.431843914207969"><ele>76.66666666666666</ele><time>2026-04-24T16:14:55.856Z</time></trkpt><trkpt lat="44.43420134077751" lon="11.431813355963397"><ele>77.33333333333333</ele><time>2026-04-24T16:14:57.856Z</time></trkpt><trkpt lat="44.434282002410825" lon="11.431786521031185"><ele>78.0</ele><time>2026-04-24T16:14:59.856Z</time></trkpt><trkpt lat="44.43434620970882" lon="11.431772543710203"><ele>78.66666666666667</ele><time>2026-04-24T16:15:01.856Z</time></trkpt><trkpt lat="44.43442425879532" lon="11.431750389761511"><ele>79.33333333333334</ele><time>2026-04-24T16:15:03.856Z</time></trkpt><trkpt lat="44.434498346916286" lon="11.431732317819945"><ele>80.0</ele><time>2026-04-24T16:15:05.856Z</time></trkpt><trkpt lat="44.43457975570223" lon="11.43171139485523"><ele>81.0</ele><time>2026-04-24T16:15:07.856Z</time></trkpt><trkpt lat="44.43465583408548" lon="11.431701565396665"><ele>82.0</ele><time>2026-04-24T16:15:09.855Z</time></trkpt><trkpt lat="44.434729568635376" lon="11.431675934313155"><ele>83.0</ele><time>2026-04-24T16:15:11.855Z</time></trkpt><trkpt lat="44.43479535248316" lon="11.431651710816661"><ele>84.0</ele><time>2026-04-24T16:15:13.855Z</time></trkpt><trkpt lat="44.43487982953117" lon="11.431631114948933"><ele>85.0</ele><time>2026-04-24T16:15:16.855Z</time></trkpt><trkpt lat="44.434956820355005" lon="11.431603597743347"><ele>86.0</ele><time>2026-04-24T16:15:19.855Z</time></trkpt><trkpt lat="44.43502128490876" lon="11.431578788409"><ele>86.0</ele><time>2026-04-24T16:15:21.855Z</time></trkpt><trkpt lat="44.435100086156815" lon="11.431555553020644"><ele>86.0</ele><time>2026-04-24T16:15:24.855Z</time></trkpt><trkpt lat="44.43517487860411" lon="11.431525468323152"><ele>86.0</ele><time>2026-04-24T16:15:27.856Z</time></trkpt><trkpt lat="44.43526149742963" lon="11.43150039213872"><ele>86.0</ele><time>2026-04-24T16:15:30.855Z</time></trkpt><trkpt lat="44.43532922003189" lon="11.431494896356963"><ele>86.0</ele><time>2026-04-24T16:15:32.856Z</time></trkpt><trkpt lat="44.435408682026875" lon="11.431478398329311"><ele>86.0</ele><time>2026-04-24T16:15:34.855Z</time></trkpt><trkpt lat="44.43556806257175" lon="11.43147769605536"><ele>86.8</ele><time>2026-04-24T16:15:39.855Z</time></trkpt><trkpt lat="44.435649252533246" lon="11.431480530893078"><ele>87.6</ele><time>2026-04-24T16:15:41.855Z</time></trkpt><trkpt lat="44.4357258091772" lon="11.431474508330036"><ele>88.4</ele><time>2026-04-24T16:15:43.855Z</time></trkpt><trkpt lat="44.435848250336434" lon="11.431461307755004"><ele>89.2</ele><time>2026-04-24T16:15:47.855Z</time></trkpt><trkpt lat="44.435949354376646" lon="11.431459512799298"><ele>90.0</ele><time>2026-04-24T16:15:50.855Z</time></trkpt><trkpt lat="44.436036540244366" lon="11.431458118174707"><ele>90.0</ele><time>2026-04-24T16:15:53.855Z</time></trkpt><trkpt lat="44.43610250740754" lon="11.431442857622377"><ele>90.0</ele><time>2026-04-24T16:15:55.855Z</time></trkpt><trkpt lat="44.4361790258411" lon="11.431435632302934"><ele>90.0</ele><time>2026-04-24T16:15:57.855Z</time></trkpt><trkpt lat="44.43642913055579" lon="11.43143742790711"><ele>90.0</ele><time>2026-04-24T16:16:04.855Z</time></trkpt><trkpt lat="44.43651469004146" lon="11.431433602138444"><ele>90.57142857142857</ele><time>2026-04-24T16:16:06.855Z</time></trkpt><trkpt lat="44.43658847612221" lon="11.431445843397604"><ele>91.14285714285715</ele><time>2026-04-24T16:16:08.855Z</time></trkpt><trkpt lat="44.43666062948623" lon="11.431432405927104"><ele>91.71428571428572</ele><time>2026-04-24T16:16:11.855Z</time></trkpt><trkpt lat="44.43672804756185" lon="11.431440433086589"><ele>92.28571428571428</ele><time>2026-04-24T16:16:13.855Z</time></trkpt><trkpt lat="44.4367855786416" lon="11.431400523919333"><ele>92.85714285714286</ele><time>2026-04-24T16:16:15.855Z</time></trkpt><trkpt lat="44.43683800438175" lon="11.431317875952635"><ele>93.42857142857143</ele><time>2026-04-24T16:16:17.855Z</time></trkpt><trkpt lat="44.43683799377402" lon="11.431205515480586"><ele>94.0</ele><time>2026-04-24T16:16:20.855Z</time></trkpt><trkpt lat="44.436836224199354" lon="11.431113192169564"><ele>94.66666666666666</ele><time>2026-04-24T16:16:22.855Z</time></trkpt><trkpt lat="44.4368434935471" lon="11.431003957357365"><ele>95.33333333333333</ele><time>2026-04-24T16:16:25.855Z</time></trkpt><trkpt lat="44.436837534998915" lon="11.43089459541429"><ele>96.0</ele><time>2026-04-24T16:16:28.855Z</time></trkpt><trkpt lat="44.43682261452134" lon="11.43078396315845"><ele>96.66666666666666</ele><time>2026-04-24T16:16:31.855Z</time></trkpt><trkpt lat="44.436818855829074" lon="11.430680031836522"><ele>97.33333333333333</ele><time>2026-04-24T16:16:34.854Z</time></trkpt><trkpt lat="44.43682348389437" lon="11.430574351109781"><ele>98.0</ele><time>2026-04-24T16:16:37.854Z</time></trkpt><trkpt lat="44.43682861672677" lon="11.430462959229738"><ele>99.66666666666666</ele><time>2026-04-24T16:16:40.854Z</time></trkpt><trkpt lat="44.43683504517031" lon="11.430338333539524"><ele>101.33333333333333</ele><time>2026-04-24T16:16:43.854Z</time></trkpt><trkpt lat="44.43682785000194" lon="11.430225784983152"><ele>103.0</ele><time>2026-04-24T16:16:46.854Z</time></trkpt><trkpt lat="44.436830704150644" lon="11.430096922700027"><ele>104.66666666666666</ele><time>2026-04-24T16:16:49.854Z</time></trkpt><trkpt lat="44.436834209613124" lon="11.429982266402346"><ele>106.33333333333333</ele><time>2026-04-24T16:16:52.854Z</time></trkpt><trkpt lat="44.436843084038145" lon="11.42988060583177"><ele>108.0</ele><time>2026-04-24T16:16:55.854Z</time></trkpt><trkpt lat="44.43683940264875" lon="11.429773800553342"><ele>108.0</ele><time>2026-04-24T16:16:58.854Z</time></trkpt><trkpt lat="44.43683446967721" lon="11.429659543210693"><ele>108.0</ele><time>2026-04-24T16:17:01.854Z</time></trkpt><trkpt lat="44.436841572383535" lon="11.429550228819092"><ele>108.0</ele><time>2026-04-24T16:17:04.854Z</time></trkpt><trkpt lat="44.436843611622216" lon="11.429450570584782"><ele>108.0</ele><time>2026-04-24T16:17:07.854Z</time></trkpt><trkpt lat="44.43683266204961" lon="11.429350503871367"><ele>108.0</ele><time>2026-04-24T16:17:10.854Z</time></trkpt><trkpt lat="44.436836104146145" lon="11.429231739276107"><ele>108.0</ele><time>2026-04-24T16:17:13.854Z</time></trkpt><trkpt lat="44.43684283768603" lon="11.429116109321372"><ele>108.83333333333333</ele><time>2026-04-24T16:17:16.854Z</time></trkpt><trkpt lat="44.43683184824318" lon="11.429018845239275"><ele>109.66666666666666</ele><time>2026-04-24T16:17:19.854Z</time></trkpt><trkpt lat="44.436815256729844" lon="11.428913538965725"><ele>110.5</ele><time>2026-04-24T16:17:22.854Z</time></trkpt><trkpt lat="44.43681347131822" lon="11.428797017827002"><ele>111.33333333333333</ele><time>2026-04-24T16:17:25.854Z</time></trkpt><trkpt lat="44.436798279991315" lon="11.428673689345782"><ele>112.16666666666666</ele><time>2026-04-24T16:17:28.854Z</time></trkpt><trkpt lat="44.43679675433372" lon="11.42855925856378"><ele>113.0</ele><time>2026-04-24T16:17:31.855Z</time></trkpt><trkpt lat="44.436786631350124" lon="11.428468642444773"><ele>113.33333333333333</ele><time>2026-04-24T16:17:34.854Z</time></trkpt><trkpt lat="44.43678169387075" lon="11.428337080285537"><ele>113.66666666666666</ele><time>2026-04-24T16:17:37.854Z</time></trkpt><trkpt lat="44.43676445507904" lon="11.428210595389237"><ele>114.0</ele><time>2026-04-24T16:17:40.854Z</time></trkpt><trkpt lat="44.43675478065201" lon="11.428087920362223"><ele>114.33333333333334</ele><time>2026-04-24T16:17:43.854Z</time></trkpt><trkpt lat="44.43673930870589" lon="11.427972308299308"><ele>114.66666666666667</ele><time>2026-04-24T16:17:46.854Z</time></trkpt><trkpt lat="44.43674044633566" lon="11.427859065279538"><ele>115.0</ele><time>2026-04-24T16:17:49.853Z</time></trkpt><trkpt lat="44.43673514471027" lon="11.427751337746937"><ele>115.50000000000001</ele><time>2026-04-24T16:17:52.853Z</time></trkpt><trkpt lat="44.43672621033004" lon="11.427635620004258"><ele>116.0</ele><time>2026-04-24T16:17:56.853Z</time></trkpt><trkpt lat="44.43672763090668" lon="11.427532725031519"><ele>116.5</ele><time>2026-04-24T16:17:59.853Z</time></trkpt><trkpt lat="44.43671179076563" lon="11.427426571063286"><ele>117.0</ele><time>2026-04-24T16:18:02.853Z</time></trkpt><trkpt lat="44.436695460992176" lon="11.42732762495978"><ele>117.50000000000001</ele><time>2026-04-24T16:18:05.853Z</time></trkpt><trkpt lat="44.43665927226062" lon="11.427232277263602"><ele>118.0</ele><time>2026-04-24T16:18:08.853Z</time></trkpt><trkpt lat="44.4366142494195" lon="11.427141312891226"><ele>119.14285714285714</ele><time>2026-04-24T16:18:12.853Z</time></trkpt><trkpt lat="44.43657436205417" lon="11.427044431811547"><ele>120.28571428571429</ele><time>2026-04-24T16:18:17.853Z</time></trkpt><trkpt lat="44.436526522560094" lon="11.426965786092229"><ele>121.42857142857143</ele><time>2026-04-24T16:18:21.853Z</time></trkpt><trkpt lat="44.43649259151726" lon="11.4268610102563"><ele>122.57142857142857</ele><time>2026-04-24T16:18:25.853Z</time></trkpt><trkpt lat="44.43646973206983" lon="11.426754496865552"><ele>123.71428571428572</ele><time>2026-04-24T16:18:29.853Z</time></trkpt><trkpt lat="44.43643273136825" lon="11.426669848272136"><ele>124.85714285714286</ele><time>2026-04-24T16:18:33.853Z</time></trkpt><trkpt lat="44.43639539177921" lon="11.426598748216874"><ele>126.0</ele><time>2026-04-24T16:18:36.853Z</time></trkpt><trkpt lat="44.43635473650399" lon="11.426505445622979"><ele>126.0</ele><time>2026-04-24T16:18:40.855Z</time></trkpt><trkpt lat="44.436310469133645" lon="11.426405134562296"><ele>126.0</ele><time>2026-04-24T16:18:44.856Z</time></trkpt><trkpt lat="44.43627729957979" lon="11.426321630712616"><ele>126.0</ele><time>2026-04-24T16:18:48.857Z</time></trkpt><trkpt lat="44.43624081900285" lon="11.426219850426843"><ele>126.0</ele><time>2026-04-24T16:18:52.858Z</time></trkpt><trkpt lat="44.436210446127106" lon="11.42614257816422"><ele>126.0</ele><time>2026-04-24T16:18:55.858Z</time></trkpt><trkpt lat="44.43616542493398" lon="11.426044931878424"><ele>126.0</ele><time>2026-04-24T16:18:59.859Z</time></trkpt><trkpt lat="44.43612051445144" lon="11.425974900857875"><ele>126.0</ele><time>2026-04-24T16:19:03.859Z</time></trkpt><trkpt lat="44.43605866804538" lon="11.425930942638603"><ele>128.14285714285714</ele><time>2026-04-24T16:19:07.859Z</time></trkpt><trkpt lat="44.43599210526958" lon="11.4258911082226"><ele>130.28571428571428</ele><time>2026-04-24T16:19:11.86Z</time></trkpt><trkpt lat="44.43593343048355" lon="11.425852127549899"><ele>132.42857142857144</ele><time>2026-04-24T16:19:14.86Z</time></trkpt><trkpt lat="44.43587520371716" lon="11.425809699718714"><ele>134.57142857142856</ele><time>2026-04-24T16:19:17.86Z</time></trkpt><trkpt lat="44.43581029920855" lon="11.42574979464955"><ele>136.71428571428572</ele><time>2026-04-24T16:19:21.86Z</time></trkpt><trkpt lat="44.43573809938405" lon="11.425699335651984"><ele>138.85714285714286</ele><time>2026-04-24T16:19:25.86Z</time></trkpt><trkpt lat="44.43568014671156" lon="11.425653444163181"><ele>141.0</ele><time>2026-04-24T16:19:29.86Z</time></trkpt><trkpt lat="44.43561193605506" lon="11.425610802958383"><ele>141.0</ele><time>2026-04-24T16:19:33.86Z</time></trkpt><trkpt lat="44.435551410611374" lon="11.425561113070586"><ele>141.0</ele><time>2026-04-24T16:19:37.861Z</time></trkpt><trkpt lat="44.43549400254151" lon="11.42550981222019"><ele>141.0</ele><time>2026-04-24T16:19:41.861Z</time></trkpt><trkpt lat="44.43543539024479" lon="11.425453532876762"><ele>141.0</ele><time>2026-04-24T16:19:44.861Z</time></trkpt><trkpt lat="44.43536617530283" lon="11.425396821299946"><ele>141.0</ele><time>2026-04-24T16:19:48.861Z</time></trkpt><trkpt lat="44.43531102819147" lon="11.425353801066196"><ele>141.0</ele><time>2026-04-24T16:19:51.861Z</time></trkpt><trkpt lat="44.43523546014477" lon="11.425300174695877"><ele>141.0</ele><time>2026-04-24T16:19:55.861Z</time></trkpt><trkpt lat="44.435173575781576" lon="11.425260340057202"><ele>143.85714285714286</ele><time>2026-04-24T16:19:59.861Z</time></trkpt><trkpt lat="44.435106273062814" lon="11.425222564937695"><ele>146.71428571428572</ele><time>2026-04-24T16:20:03.861Z</time></trkpt><trkpt lat="44.43503859947063" lon="11.425191342566883"><ele>149.57142857142856</ele><time>2026-04-24T16:20:07.861Z</time></trkpt><trkpt lat="44.434961314474016" lon="11.425163634364603"><ele>152.42857142857144</ele><time>2026-04-24T16:20:11.861Z</time></trkpt><trkpt lat="44.43489274355663" lon="11.425164584361902"><ele>155.28571428571428</ele><time>2026-04-24T16:20:15.861Z</time></trkpt><trkpt lat="44.43482710504192" lon="11.425153364008526"><ele>158.14285714285714</ele><time>2026-04-24T16:20:19.86Z</time></trkpt><trkpt lat="44.43476719701964" lon="11.425121210993215"><ele>161.0</ele><time>2026-04-24T16:20:22.86Z</time></trkpt><trkpt lat="44.43470807330918" lon="11.425090915138394"><ele>161.0</ele><time>2026-04-24T16:20:25.86Z</time></trkpt><trkpt lat="44.43463853154131" lon="11.425078338871325"><ele>161.0</ele><time>2026-04-24T16:20:29.86Z</time></trkpt><trkpt lat="44.43457793120471" lon="11.425042216113798"><ele>161.0</ele><time>2026-04-24T16:20:33.86Z</time></trkpt><trkpt lat="44.434524290068985" lon="11.4249955343123"><ele>161.0</ele><time>2026-04-24T16:20:37.86Z</time></trkpt><trkpt lat="44.43446278949442" lon="11.424938885549148"><ele>161.0</ele><time>2026-04-24T16:20:41.86Z</time></trkpt><trkpt lat="44.43439723893203" lon="11.424855949451116"><ele>161.0</ele><time>2026-04-24T16:20:45.86Z</time></trkpt><trkpt lat="44.43433789762672" lon="11.424785934055995"><ele>161.0</ele><time>2026-04-24T16:20:49.86Z</time></trkpt><trkpt lat="44.434283599096844" lon="11.424732934024727"><ele>162.5</ele><time>2026-04-24T16:20:53.86Z</time></trkpt><trkpt lat="44.43422072574979" lon="11.424679010008209"><ele>164.0</ele><time>2026-04-24T16:20:57.86Z</time></trkpt><trkpt lat="44.43416988183099" lon="11.424614600357062"><ele>165.5</ele><time>2026-04-24T16:21:00.86Z</time></trkpt><trkpt lat="44.4341072692422" lon="11.424567926416426"><ele>167.0</ele><time>2026-04-24T16:21:04.86Z</time></trkpt><trkpt lat="44.43404099989585" lon="11.424494848889534"><ele>168.5</ele><time>2026-04-24T16:21:09.86Z</time></trkpt><trkpt lat="44.43398308953629" lon="11.424412870484185"><ele>170.0</ele><time>2026-04-24T16:21:13.86Z</time></trkpt><trkpt lat="44.433930972928685" lon="11.424344559213761"><ele>170.2857142857143</ele><time>2026-04-24T16:21:17.86Z</time></trkpt><trkpt lat="44.43387431734304" lon="11.42430532150894"><ele>170.57142857142856</ele><time>2026-04-24T16:21:20.86Z</time></trkpt><trkpt lat="44.433811960451024" lon="11.424275405541811"><ele>170.85714285714286</ele><time>2026-04-24T16:21:23.86Z</time></trkpt><trkpt lat="44.43374514001981" lon="11.424235430060529"><ele>171.14285714285717</ele><time>2026-04-24T16:21:27.86Z</time></trkpt><trkpt lat="44.433686077912554" lon="11.424204534823765"><ele>171.42857142857144</ele><time>2026-04-24T16:21:30.86Z</time></trkpt><trkpt lat="44.433606280462264" lon="11.424170431513259"><ele>171.71428571428572</ele><time>2026-04-24T16:21:34.86Z</time></trkpt><trkpt lat="44.433539274712274" lon="11.424141787103386"><ele>172.0</ele><time>2026-04-24T16:21:38.86Z</time></trkpt><trkpt lat="44.433466098850054" lon="11.424119012155254"><ele>173.71428571428572</ele><time>2026-04-24T16:21:42.859Z</time></trkpt><trkpt lat="44.43338776877032" lon="11.424104592157676"><ele>175.42857142857144</ele><time>2026-04-24T16:21:46.86Z</time></trkpt><trkpt lat="44.43332166784139" lon="11.424089496735844"><ele>177.14285714285717</ele><time>2026-04-24T16:21:49.86Z</time></trkpt><trkpt lat="44.433248281905705" lon="11.424081142046989"><ele>178.85714285714286</ele><time>2026-04-24T16:21:53.86Z</time></trkpt><trkpt lat="44.43317730131226" lon="11.424077990950176"><ele>180.57142857142856</ele><time>2026-04-24T16:21:57.859Z</time></trkpt><trkpt lat="44.43311268594242" lon="11.42406855903567"><ele>182.2857142857143</ele><time>2026-04-24T16:22:00.859Z</time></trkpt><trkpt lat="44.43303455125558" lon="11.4240515670284"><ele>184.0</ele><time>2026-04-24T16:22:04.859Z</time></trkpt><trkpt lat="44.432955086282355" lon="11.424028547256434"><ele>186.42857142857144</ele><time>2026-04-24T16:22:08.859Z</time></trkpt><trkpt lat="44.432885695468535" lon="11.424046644419501"><ele>188.85714285714283</ele><time>2026-04-24T16:22:12.859Z</time></trkpt><trkpt lat="44.43282459781457" lon="11.424077998706478"><ele>191.28571428571428</ele><time>2026-04-24T16:22:15.859Z</time></trkpt><trkpt lat="44.43275071557866" lon="11.424100946029217"><ele>193.71428571428572</ele><time>2026-04-24T16:22:19.859Z</time></trkpt><trkpt lat="44.432683642824784" lon="11.424093242329922"><ele>196.14285714285717</ele><time>2026-04-24T16:22:23.859Z</time></trkpt><trkpt lat="44.43262010440148" lon="11.424075530261424"><ele>198.57142857142856</ele><time>2026-04-24T16:22:26.859Z</time></trkpt><trkpt lat="44.43255370611078" lon="11.424045616710142"><ele>201.0</ele><time>2026-04-24T16:22:29.859Z</time></trkpt><trkpt lat="44.432491025193514" lon="11.424036206252023"><ele>201.0</ele><time>2026-04-24T16:22:32.859Z</time></trkpt><trkpt lat="44.43242759618967" lon="11.424036805199428"><ele>201.0</ele><time>2026-04-24T16:22:35.859Z</time></trkpt><trkpt lat="44.4323515901116" lon="11.424019868184919"><ele>201.0</ele><time>2026-04-24T16:22:39.859Z</time></trkpt><trkpt lat="44.4322812154293" lon="11.42399880960525"><ele>201.0</ele><time>2026-04-24T16:22:44.859Z</time></trkpt><trkpt lat="44.43220790107944" lon="11.423963186866013"><ele>201.0</ele><time>2026-04-24T16:22:48.859Z</time></trkpt><trkpt lat="44.43212798361661" lon="11.42391821439472"><ele>201.0</ele><time>2026-04-24T16:22:52.859Z</time></trkpt><trkpt lat="44.43206750844082" lon="11.42387305885062"><ele>201.0</ele><time>2026-04-24T16:22:56.859Z</time></trkpt><trkpt lat="44.432005033557424" lon="11.423820164834236"><ele>202.57142857142856</ele><time>2026-04-24T16:22:59.859Z</time></trkpt><trkpt lat="44.43195581362254" lon="11.423750697662058"><ele>204.14285714285717</ele><time>2026-04-24T16:23:02.859Z</time></trkpt><trkpt lat="44.43189202457424" lon="11.423698127851027"><ele>205.71428571428572</ele><time>2026-04-24T16:23:06.859Z</time></trkpt><trkpt lat="44.43183380918918" lon="11.423650472627184"><ele>207.28571428571428</ele><time>2026-04-24T16:23:11.858Z</time></trkpt><trkpt lat="44.43177656335073" lon="11.423600805796921"><ele>208.85714285714283</ele><time>2026-04-24T16:23:15.858Z</time></trkpt><trkpt lat="44.43171202216095" lon="11.423545284872983"><ele>210.42857142857144</ele><time>2026-04-24T16:23:19.858Z</time></trkpt><trkpt lat="44.431654240499526" lon="11.423503242501935"><ele>212.0</ele><time>2026-04-24T16:23:23.858Z</time></trkpt><trkpt lat="44.43159233518021" lon="11.4234659421159"><ele>212.0</ele><time>2026-04-24T16:23:27.858Z</time></trkpt><trkpt lat="44.43152592181593" lon="11.423413213979048"><ele>212.0</ele><time>2026-04-24T16:23:31.858Z</time></trkpt><trkpt lat="44.431457430493914" lon="11.423348910981254"><ele>212.0</ele><time>2026-04-24T16:23:35.858Z</time></trkpt><trkpt lat="44.431401894859285" lon="11.423266336155866"><ele>212.0</ele><time>2026-04-24T16:23:39.858Z</time></trkpt><trkpt lat="44.43135848883487" lon="11.423183394805406"><ele>212.0</ele><time>2026-04-24T16:23:43.858Z</time></trkpt><trkpt lat="44.431324527520296" lon="11.4230991885292"><ele>212.0</ele><time>2026-04-24T16:23:47.858Z</time></trkpt><trkpt lat="44.43128154167152" lon="11.423031097273842"><ele>212.0</ele><time>2026-04-24T16:23:50.859Z</time></trkpt><trkpt lat="44.43124226201234" lon="11.422959263894795"><ele>212.14285714285714</ele><time>2026-04-24T16:23:53.858Z</time></trkpt><trkpt lat="44.43119720633374" lon="11.422889120864596"><ele>212.28571428571428</ele><time>2026-04-24T16:23:56.858Z</time></trkpt><trkpt lat="44.431145839577404" lon="11.422821054492124"><ele>212.42857142857142</ele><time>2026-04-24T16:24:00.858Z</time></trkpt><trkpt lat="44.43110379398767" lon="11.422751304286239"><ele>212.57142857142856</ele><time>2026-04-24T16:24:03.858Z</time></trkpt><trkpt lat="44.431058067766024" lon="11.42268519509363"><ele>212.71428571428572</ele><time>2026-04-24T16:24:06.858Z</time></trkpt><trkpt lat="44.431013039022396" lon="11.42261441245583"><ele>212.85714285714283</ele><time>2026-04-24T16:24:09.858Z</time></trkpt><trkpt lat="44.43098321638899" lon="11.422531385591668"><ele>213.0</ele><time>2026-04-24T16:24:12.858Z</time></trkpt><trkpt lat="44.43093383835878" lon="11.422462060132618"><ele>212.99999999999997</ele><time>2026-04-24T16:24:15.858Z</time></trkpt><trkpt lat="44.43090466249424" lon="11.422382758215402"><ele>213.0</ele><time>2026-04-24T16:24:18.857Z</time></trkpt><trkpt lat="44.43087375965015" lon="11.42228985704288"><ele>213.0</ele><time>2026-04-24T16:24:21.857Z</time></trkpt><trkpt lat="44.43082704629002" lon="11.4222005982264"><ele>213.0</ele><time>2026-04-24T16:24:24.857Z</time></trkpt><trkpt lat="44.43079130250262" lon="11.422097637946584"><ele>213.0</ele><time>2026-04-24T16:24:27.857Z</time></trkpt><trkpt lat="44.430773306165825" lon="11.422007049138916"><ele>212.99999999999997</ele><time>2026-04-24T16:24:30.857Z</time></trkpt><trkpt lat="44.43075689457469" lon="11.42189328083554"><ele>213.0</ele><time>2026-04-24T16:24:33.857Z</time></trkpt><trkpt lat="44.43076760530912" lon="11.421797062832608"><ele>213.66666666666666</ele><time>2026-04-24T16:24:36.857Z</time></trkpt><trkpt lat="44.43077437652832" lon="11.421679353628173"><ele>214.33333333333331</ele><time>2026-04-24T16:24:39.857Z</time></trkpt><trkpt lat="44.4307690712062" lon="11.421566718390045"><ele>215.0</ele><time>2026-04-24T16:24:42.857Z</time></trkpt><trkpt lat="44.43077219425455" lon="11.421461063127902"><ele>215.66666666666666</ele><time>2026-04-24T16:24:45.857Z</time></trkpt><trkpt lat="44.43077446920999" lon="11.421340491852115"><ele>216.33333333333331</ele><time>2026-04-24T16:24:48.857Z</time></trkpt><trkpt lat="44.430765613461" lon="11.421234705494005"><ele>217.0</ele><time>2026-04-24T16:24:51.857Z</time></trkpt><trkpt lat="44.43076880859067" lon="11.421127695328508"><ele>217.85714285714286</ele><time>2026-04-24T16:24:54.857Z</time></trkpt><trkpt lat="44.43077710467634" lon="11.421020816113966"><ele>218.71428571428572</ele><time>2026-04-24T16:24:57.857Z</time></trkpt><trkpt lat="44.43078387431786" lon="11.420932967227904"><ele>219.57142857142856</ele><time>2026-04-24T16:25:00.857Z</time></trkpt><trkpt lat="44.43081713358365" lon="11.420849090875775"><ele>220.42857142857144</ele><time>2026-04-24T16:25:03.857Z</time></trkpt><trkpt lat="44.43086312029954" lon="11.420760078600908"><ele>221.28571428571428</ele><time>2026-04-24T16:25:06.857Z</time></trkpt><trkpt lat="44.4308930757311" lon="11.420680142911209"><ele>222.14285714285714</ele><time>2026-04-24T16:25:08.857Z</time></trkpt><trkpt lat="44.43093480053702" lon="11.420587769928494"><ele>223.0</ele><time>2026-04-24T16:25:11.857Z</time></trkpt><trkpt lat="44.430969256902564" lon="11.420509703133902"><ele>224.28571428571428</ele><time>2026-04-24T16:25:14.857Z</time></trkpt><trkpt lat="44.431027874145244" lon="11.420435738695513"><ele>225.57142857142856</ele><time>2026-04-24T16:25:18.857Z</time></trkpt><trkpt lat="44.43105186309721" lon="11.420350322707211"><ele>226.8571428571429</ele><time>2026-04-24T16:25:21.857Z</time></trkpt><trkpt lat="44.43108996522424" lon="11.420275215125553"><ele>228.14285714285717</ele><time>2026-04-24T16:25:24.857Z</time></trkpt><trkpt lat="44.43112789326035" lon="11.420177180292663"><ele>229.42857142857144</ele><time>2026-04-24T16:25:28.857Z</time></trkpt><trkpt lat="44.43116434434462" lon="11.420079279069407"><ele>230.71428571428575</ele><time>2026-04-24T16:25:32.857Z</time></trkpt><trkpt lat="44.43117097089274" lon="11.419989357580583"><ele>232.00000000000003</ele><time>2026-04-24T16:25:35.857Z</time></trkpt><trkpt lat="44.431150609652676" lon="11.419904704623164"><ele>231.99999999999997</ele><time>2026-04-24T16:25:38.857Z</time></trkpt><trkpt lat="44.431117058699165" lon="11.419829727790242"><ele>232.0</ele><time>2026-04-24T16:25:42.856Z</time></trkpt><trkpt lat="44.43106299731455" lon="11.419765707738202"><ele>232.0</ele><time>2026-04-24T16:25:45.856Z</time></trkpt><trkpt lat="44.43099807464739" lon="11.41968241064844"><ele>232.0</ele><time>2026-04-24T16:25:48.856Z</time></trkpt><trkpt lat="44.43092138296143" lon="11.419604184052963"><ele>231.99999999999997</ele><time>2026-04-24T16:25:51.856Z</time></trkpt><trkpt lat="44.43087488730796" lon="11.41951330696605"><ele>232.0</ele><time>2026-04-24T16:25:53.856Z</time></trkpt><trkpt lat="44.430843225445884" lon="11.419387530993895"><ele>231.0</ele><time>2026-04-24T16:25:55.858Z</time></trkpt><trkpt lat="44.430830971438226" lon="11.419228671651458"><ele>230.0</ele><time>2026-04-24T16:25:57.857Z</time></trkpt><trkpt lat="44.430818939544224" lon="11.41914128669071"><ele>229.0</ele><time>2026-04-24T16:25:58.858Z</time></trkpt><trkpt lat="44.43079419317686" lon="11.41896436210718"><ele>228.0</ele><time>2026-04-24T16:26:00.857Z</time></trkpt><trkpt lat="44.43079274055669" lon="11.418863611159598"><ele>227.0</ele><time>2026-04-24T16:26:01.858Z</time></trkpt><trkpt lat="44.43077555897155" lon="11.418750220056925"><ele>225.66666666666669</ele><time>2026-04-24T16:26:02.857Z</time></trkpt><trkpt lat="44.43077198840207" lon="11.418634916384493"><ele>224.33333333333334</ele><time>2026-04-24T16:26:03.857Z</time></trkpt><trkpt lat="44.43075282212095" lon="11.418524313421882"><ele>223.0</ele><time>2026-04-24T16:26:04.857Z</time></trkpt><trkpt lat="44.43073425568208" lon="11.418410516558932"><ele>221.66666666666669</ele><time>2026-04-24T16:26:05.857Z</time></trkpt><trkpt lat="44.430721497251774" lon="11.418297415161668"><ele>220.33333333333334</ele><time>2026-04-24T16:26:06.857Z</time></trkpt><trkpt lat="44.4307115488106" lon="11.418176472600637"><ele>219.0</ele><time>2026-04-24T16:26:07.857Z</time></trkpt><trkpt lat="44.43071864777353" lon="11.418055654257058"><ele>218.5</ele><time>2026-04-24T16:26:08.857Z</time></trkpt><trkpt lat="44.4307611515361" lon="11.4179664501964"><ele>218.0</ele><time>2026-04-24T16:26:09.857Z</time></trkpt><trkpt lat="44.43079135574414" lon="11.417861932572345"><ele>217.5</ele><time>2026-04-24T16:26:10.857Z</time></trkpt><trkpt lat="44.43084233586973" lon="11.417690880422976"><ele>217.0</ele><time>2026-04-24T16:26:12.857Z</time></trkpt><trkpt lat="44.430867808032396" lon="11.417605912399582"><ele>216.5</ele><time>2026-04-24T16:26:13.857Z</time></trkpt><trkpt lat="44.43088653195179" lon="11.417519714189599"><ele>216.0</ele><time>2026-04-24T16:26:14.857Z</time></trkpt><trkpt lat="44.43091040388969" lon="11.417429316864936"><ele>216.0</ele><time>2026-04-24T16:26:15.857Z</time></trkpt><trkpt lat="44.43093755688754" lon="11.417347590097862"><ele>216.0</ele><time>2026-04-24T16:26:16.857Z</time></trkpt><trkpt lat="44.43098577798572" lon="11.417202598158712"><ele>216.0</ele><time>2026-04-24T16:26:18.857Z</time></trkpt><trkpt lat="44.43104985330008" lon="11.417092695939532"><ele>216.0</ele><time>2026-04-24T16:26:20.857Z</time></trkpt><trkpt lat="44.43109834011209" lon="11.416999655486686"><ele>216.0</ele><time>2026-04-24T16:26:22.857Z</time></trkpt><trkpt lat="44.43115164303662" lon="11.416908120722892"><ele>216.0</ele><time>2026-04-24T16:26:25.857Z</time></trkpt><trkpt lat="44.431152835860814" lon="11.416817528998573"><ele>216.42857142857142</ele><time>2026-04-24T16:26:28.857Z</time></trkpt><trkpt lat="44.431120792031294" lon="11.416719931210485"><ele>216.85714285714283</ele><time>2026-04-24T16:26:31.857Z</time></trkpt><trkpt lat="44.43108277385668" lon="11.416612628367023"><ele>217.28571428571428</ele><time>2026-04-24T16:26:35.857Z</time></trkpt><trkpt lat="44.431056096089925" lon="11.416530240098139"><ele>217.71428571428572</ele><time>2026-04-24T16:26:38.857Z</time></trkpt><trkpt lat="44.43102472698674" lon="11.416445393310166"><ele>218.14285714285714</ele><time>2026-04-24T16:26:41.857Z</time></trkpt><trkpt lat="44.43099390245206" lon="11.41636118186677"><ele>218.57142857142858</ele><time>2026-04-24T16:26:44.857Z</time></trkpt><trkpt lat="44.430969818706814" lon="11.41626118287112"><ele>219.0</ele><time>2026-04-24T16:26:48.857Z</time></trkpt><trkpt lat="44.43093945045122" lon="11.416161875385045"><ele>219.85714285714286</ele><time>2026-04-24T16:26:52.856Z</time></trkpt><trkpt lat="44.43092324680809" lon="11.416068851979633"><ele>220.71428571428572</ele><time>2026-04-24T16:26:55.856Z</time></trkpt><trkpt lat="44.430903947674736" lon="11.41597651552888"><ele>221.57142857142858</ele><time>2026-04-24T16:26:58.856Z</time></trkpt><trkpt lat="44.430871928325885" lon="11.415870286319496"><ele>222.42857142857144</ele><time>2026-04-24T16:27:02.856Z</time></trkpt><trkpt lat="44.430845321208395" lon="11.415761681940726"><ele>223.28571428571428</ele><time>2026-04-24T16:27:05.856Z</time></trkpt><trkpt lat="44.43083383834469" lon="11.415672997717873"><ele>224.14285714285717</ele><time>2026-04-24T16:27:08.856Z</time></trkpt><trkpt lat="44.43081251156374" lon="11.415583816257481"><ele>225.00000000000003</ele><time>2026-04-24T16:27:11.856Z</time></trkpt><trkpt lat="44.430787656151075" lon="11.415482839297994"><ele>225.0</ele><time>2026-04-24T16:27:14.856Z</time></trkpt><trkpt lat="44.430710820507166" lon="11.415389137559625"><ele>225.0</ele><time>2026-04-24T16:27:17.856Z</time></trkpt><trkpt lat="44.43064851966439" lon="11.41531714166522"><ele>225.0</ele><time>2026-04-24T16:27:19.856Z</time></trkpt><trkpt lat="44.43053996287226" lon="11.415244014517711"><ele>225.0</ele><time>2026-04-24T16:27:21.856Z</time></trkpt><trkpt lat="44.430476175925016" lon="11.415201928447319"><ele>225.0</ele><time>2026-04-24T16:27:22.856Z</time></trkpt><trkpt lat="44.4304359899803" lon="11.415097082181578"><ele>225.33333333333334</ele><time>2026-04-24T16:27:23.856Z</time></trkpt><trkpt lat="44.43036793590747" lon="11.415046885572295"><ele>225.66666666666669</ele><time>2026-04-24T16:27:24.856Z</time></trkpt><trkpt lat="44.43024761760768" lon="11.414981250945868"><ele>226.0</ele><time>2026-04-24T16:27:26.856Z</time></trkpt><trkpt lat="44.4301847185164" lon="11.414953259939526"><ele>226.33333333333334</ele><time>2026-04-24T16:27:27.856Z</time></trkpt><trkpt lat="44.43011909976783" lon="11.414931768882541"><ele>226.66666666666669</ele><time>2026-04-24T16:27:28.856Z</time></trkpt><trkpt lat="44.43001767097686" lon="11.414911605110747"><ele>227.0</ele><time>2026-04-24T16:27:30.856Z</time></trkpt><trkpt lat="44.42992087074722" lon="11.414911571612341"><ele>227.0</ele><time>2026-04-24T16:27:32.856Z</time></trkpt><trkpt lat="44.42985747168919" lon="11.414915570261824"><ele>227.0</ele><time>2026-04-24T16:27:33.856Z</time></trkpt><trkpt lat="44.429758206632826" lon="11.414924037169863"><ele>227.0</ele><time>2026-04-24T16:27:35.856Z</time></trkpt><trkpt lat="44.42965076570439" lon="11.414939829192768"><ele>227.0</ele><time>2026-04-24T16:27:37.856Z</time></trkpt><trkpt lat="44.42956450057505" lon="11.414923464636013"><ele>227.0</ele><time>2026-04-24T16:27:39.856Z</time></trkpt><trkpt lat="44.42946623527254" lon="11.414940041681449"><ele>226.8</ele><time>2026-04-24T16:27:41.856Z</time></trkpt><trkpt lat="44.429378230753194" lon="11.414922975541817"><ele>226.6</ele><time>2026-04-24T16:27:43.856Z</time></trkpt><trkpt lat="44.429287424575335" lon="11.414862595855208"><ele>226.40000000000003</ele><time>2026-04-24T16:27:45.856Z</time></trkpt><trkpt lat="44.42922587881027" lon="11.414793837794893"><ele>226.20000000000002</ele><time>2026-04-24T16:27:47.856Z</time></trkpt><trkpt lat="44.429144047336244" lon="11.414716097524781"><ele>226.0</ele><time>2026-04-24T16:27:49.856Z</time></trkpt><trkpt lat="44.42911561551408" lon="11.414585846541728"><ele>225.99999999999997</ele><time>2026-04-24T16:27:51.856Z</time></trkpt><trkpt lat="44.42905037120313" lon="11.414484516840252"><ele>226.0</ele><time>2026-04-24T16:27:53.856Z</time></trkpt><trkpt lat="44.42901527730248" lon="11.414409235412153"><ele>226.0</ele><time>2026-04-24T16:27:55.856Z</time></trkpt><trkpt lat="44.429000466802535" lon="11.414319786459652"><ele>226.0</ele><time>2026-04-24T16:27:57.856Z</time></trkpt><trkpt lat="44.42899386091024" lon="11.41421053492398"><ele>225.99999999999997</ele><time>2026-04-24T16:28:00.856Z</time></trkpt><trkpt lat="44.4289770490019" lon="11.414092473770575"><ele>226.0</ele><time>2026-04-24T16:28:02.856Z</time></trkpt><trkpt lat="44.42892273437064" lon="11.413990859850696"><ele>226.0</ele><time>2026-04-24T16:28:04.856Z</time></trkpt><trkpt lat="44.42886634086436" lon="11.413927438366331"><ele>226.0</ele><time>2026-04-24T16:28:06.856Z</time></trkpt><trkpt lat="44.428805797959555" lon="11.413871361301139"><ele>226.0</ele><time>2026-04-24T16:28:09.855Z</time></trkpt><trkpt lat="44.42873369825452" lon="11.41382515680424"><ele>226.0</ele><time>2026-04-24T16:28:12.856Z</time></trkpt><trkpt lat="44.42866775441063" lon="11.41378869812949"><ele>226.0</ele><time>2026-04-24T16:28:15.856Z</time></trkpt><trkpt lat="44.42860408179153" lon="11.413798013788972"><ele>226.0</ele><time>2026-04-24T16:28:18.856Z</time></trkpt><trkpt lat="44.428530669798455" lon="11.413762248447341"><ele>226.0</ele><time>2026-04-24T16:28:21.856Z</time></trkpt><trkpt lat="44.428447647374526" lon="11.413748899029445"><ele>227.42857142857144</ele><time>2026-04-24T16:28:25.856Z</time></trkpt><trkpt lat="44.42838539344047" lon="11.413671201360657"><ele>228.85714285714283</ele><time>2026-04-24T16:28:29.856Z</time></trkpt><trkpt lat="44.42835979685478" lon="11.413582665683528"><ele>230.28571428571428</ele><time>2026-04-24T16:28:36.856Z</time></trkpt><trkpt lat="44.42833878517844" lon="11.413498134027716"><ele>231.71428571428572</ele><time>2026-04-24T16:28:53.856Z</time></trkpt><trkpt lat="44.428304863791304" lon="11.413394390005168"><ele>233.14285714285717</ele><time>2026-04-24T16:28:58.856Z</time></trkpt><trkpt lat="44.42828940788699" lon="11.41329640403637"><ele>234.57142857142856</ele><time>2026-04-24T16:29:02.855Z</time></trkpt><trkpt lat="44.428285406576016" lon="11.413190038400444"><ele>236.0</ele><time>2026-04-24T16:29:06.855Z</time></trkpt><trkpt lat="44.428281408711236" lon="11.413069215350944"><ele>235.66666666666669</ele><time>2026-04-24T16:29:10.855Z</time></trkpt><trkpt lat="44.42827267242243" lon="11.412952819068373"><ele>235.33333333333334</ele><time>2026-04-24T16:29:13.855Z</time></trkpt><trkpt lat="44.42826288861568" lon="11.412853358946839"><ele>235.0</ele><time>2026-04-24T16:29:16.855Z</time></trkpt><trkpt lat="44.428239604083835" lon="11.412752887346121"><ele>234.66666666666669</ele><time>2026-04-24T16:29:20.855Z</time></trkpt><trkpt lat="44.42821566044193" lon="11.412663234975536"><ele>234.33333333333334</ele><time>2026-04-24T16:29:23.855Z</time></trkpt><trkpt lat="44.42819658798602" lon="11.412564351468314"><ele>234.0</ele><time>2026-04-24T16:29:26.855Z</time></trkpt><trkpt lat="44.42813198310666" lon="11.412448385796809"><ele>234.0</ele><time>2026-04-24T16:29:30.855Z</time></trkpt><trkpt lat="44.42809532245621" lon="11.412349652515571"><ele>234.0</ele><time>2026-04-24T16:29:33.855Z</time></trkpt><trkpt lat="44.42805850162627" lon="11.412258554140227"><ele>234.0</ele><time>2026-04-24T16:29:36.855Z</time></trkpt><trkpt lat="44.42799757577704" lon="11.412158097028913"><ele>234.0</ele><time>2026-04-24T16:29:39.855Z</time></trkpt><trkpt lat="44.42794193369892" lon="11.412053301913522"><ele>234.0</ele><time>2026-04-24T16:29:42.855Z</time></trkpt><trkpt lat="44.427878808175144" lon="11.411946201398377"><ele>234.0</ele><time>2026-04-24T16:29:45.855Z</time></trkpt><trkpt lat="44.427828551311485" lon="11.41188558314194"><ele>236.33333333333334</ele><time>2026-04-24T16:29:47.855Z</time></trkpt><trkpt lat="44.42775675561477" lon="11.411829756657346"><ele>238.66666666666669</ele><time>2026-04-24T16:29:50.855Z</time></trkpt><trkpt lat="44.427694999314326" lon="11.411778971265528"><ele>241.0</ele><time>2026-04-24T16:29:52.855Z</time></trkpt><trkpt lat="44.42762715366674" lon="11.411745490077887"><ele>243.33333333333334</ele><time>2026-04-24T16:29:54.855Z</time></trkpt><trkpt lat="44.42756116651269" lon="11.411684008842204"><ele>245.66666666666669</ele><time>2026-04-24T16:29:56.855Z</time></trkpt><trkpt lat="44.42750193925613" lon="11.41158697725762"><ele>248.0</ele><time>2026-04-24T16:29:58.855Z</time></trkpt><trkpt lat="44.427445356909416" lon="11.41148186316924"><ele>248.00000000000003</ele><time>2026-04-24T16:30:01.855Z</time></trkpt><trkpt lat="44.42741530682412" lon="11.41134618973931"><ele>248.0</ele><time>2026-04-24T16:30:04.855Z</time></trkpt><trkpt lat="44.42738890173908" lon="11.411248737732215"><ele>248.0</ele><time>2026-04-24T16:30:06.855Z</time></trkpt><trkpt lat="44.42734611019712" lon="11.41114316312364"><ele>248.0</ele><time>2026-04-24T16:30:09.855Z</time></trkpt><trkpt lat="44.42728552200414" lon="11.411046728801907"><ele>248.00000000000003</ele><time>2026-04-24T16:30:12.855Z</time></trkpt><trkpt lat="44.42722561663769" lon="11.410994787867287"><ele>248.0</ele><time>2026-04-24T16:30:16.855Z</time></trkpt><trkpt lat="44.42716085301201" lon="11.411041586025368"><ele>249.0</ele><time>2026-04-24T16:30:20.855Z</time></trkpt><trkpt lat="44.427092100720486" lon="11.411057513785233"><ele>250.00000000000003</ele><time>2026-04-24T16:30:23.855Z</time></trkpt><trkpt lat="44.42702584490408" lon="11.4110702359551"><ele>251.0</ele><time>2026-04-24T16:30:26.855Z</time></trkpt><trkpt lat="44.42696114249487" lon="11.4110692043582"><ele>252.0</ele><time>2026-04-24T16:30:29.855Z</time></trkpt><trkpt lat="44.426892296123455" lon="11.411041266344023"><ele>253.00000000000003</ele><time>2026-04-24T16:30:32.855Z</time></trkpt><trkpt lat="44.42683383296564" lon="11.411008478383147"><ele>254.0</ele><time>2026-04-24T16:30:34.855Z</time></trkpt><trkpt lat="44.42676316583597" lon="11.410942640902974"><ele>255.0</ele><time>2026-04-24T16:30:38.855Z</time></trkpt><trkpt lat="44.426718492576356" lon="11.410862864001368"><ele>255.0</ele><time>2026-04-24T16:30:41.855Z</time></trkpt><trkpt lat="44.42669155718936" lon="11.410745823794423"><ele>255.0</ele><time>2026-04-24T16:30:45.855Z</time></trkpt><trkpt lat="44.4266559143746" lon="11.410645627455953"><ele>255.0</ele><time>2026-04-24T16:30:48.855Z</time></trkpt><trkpt lat="44.426608877155566" lon="11.410581995516893"><ele>255.0</ele><time>2026-04-24T16:30:50.855Z</time></trkpt><trkpt lat="44.42653019415377" lon="11.410488229977089"><ele>255.0</ele><time>2026-04-24T16:30:53.855Z</time></trkpt><trkpt lat="44.42646430330046" lon="11.410425523849133"><ele>255.0</ele><time>2026-04-24T16:30:55.855Z</time></trkpt><trkpt lat="44.42645994884466" lon="11.410306454393682"><ele>254.42857142857144</ele><time>2026-04-24T16:30:58.855Z</time></trkpt><trkpt lat="44.426473908068424" lon="11.410213546010315"><ele>253.8571428571429</ele><time>2026-04-24T16:31:00.855Z</time></trkpt><trkpt lat="44.42649841753151" lon="11.410129734737318"><ele>253.28571428571428</ele><time>2026-04-24T16:31:02.855Z</time></trkpt><trkpt lat="44.426530361131086" lon="11.410036869198777"><ele>252.71428571428572</ele><time>2026-04-24T16:31:04.855Z</time></trkpt><trkpt lat="44.42655088234117" lon="11.409949196364257"><ele>252.14285714285714</ele><time>2026-04-24T16:31:06.854Z</time></trkpt><trkpt lat="44.42658371430116" lon="11.409862264153249"><ele>251.57142857142856</ele><time>2026-04-24T16:31:08.854Z</time></trkpt><trkpt lat="44.426630832307474" lon="11.409770386852559"><ele>250.99999999999997</ele><time>2026-04-24T16:31:10.854Z</time></trkpt><trkpt lat="44.42669235707574" lon="11.409725388671582"><ele>252.4</ele><time>2026-04-24T16:31:11.854Z</time></trkpt><trkpt lat="44.42675134895601" lon="11.409639222823502"><ele>253.8</ele><time>2026-04-24T16:31:12.854Z</time></trkpt><trkpt lat="44.426791271448764" lon="11.409569025156738"><ele>255.20000000000002</ele><time>2026-04-24T16:31:13.854Z</time></trkpt><trkpt lat="44.42689034587612" lon="11.409450239980572"><ele>256.6</ele><time>2026-04-24T16:31:15.854Z</time></trkpt><trkpt lat="44.42695156026521" lon="11.40932304948088"><ele>258.0</ele><time>2026-04-24T16:31:17.854Z</time></trkpt><trkpt lat="44.426990426911644" lon="11.409236313122937"><ele>258.0</ele><time>2026-04-24T16:31:19.854Z</time></trkpt><trkpt lat="44.427029321249925" lon="11.409127153472385"><ele>258.0</ele><time>2026-04-24T16:31:22.854Z</time></trkpt><trkpt lat="44.4270708828505" lon="11.409019037080421"><ele>258.0</ele><time>2026-04-24T16:31:25.854Z</time></trkpt><trkpt lat="44.42711970769897" lon="11.408925780590943"><ele>258.0</ele><time>2026-04-24T16:31:28.854Z</time></trkpt><trkpt lat="44.42715510480831" lon="11.40883359312819"><ele>258.0</ele><time>2026-04-24T16:31:31.854Z</time></trkpt><trkpt lat="44.42718828304124" lon="11.408736395751214"><ele>258.0</ele><time>2026-04-24T16:31:34.854Z</time></trkpt><trkpt lat="44.427212916543084" lon="11.40863786507523"><ele>255.8</ele><time>2026-04-24T16:31:36.854Z</time></trkpt><trkpt lat="44.42720864938432" lon="11.408525611951344"><ele>253.60000000000002</ele><time>2026-04-24T16:31:38.854Z</time></trkpt><trkpt lat="44.4271492318031" lon="11.408417411943363"><ele>251.39999999999998</ele><time>2026-04-24T16:31:40.854Z</time></trkpt><trkpt lat="44.427041053576296" lon="11.408365537462842"><ele>249.2</ele><time>2026-04-24T16:31:42.854Z</time></trkpt><trkpt lat="44.42695307456771" lon="11.408321427463955"><ele>247.0</ele><time>2026-04-24T16:31:44.854Z</time></trkpt><trkpt lat="44.426831132197385" lon="11.408282890138686"><ele>247.0</ele><time>2026-04-24T16:31:46.854Z</time></trkpt><trkpt lat="44.42669757340831" lon="11.408269630711168"><ele>247.0</ele><time>2026-04-24T16:31:48.854Z</time></trkpt><trkpt lat="44.42661934673898" lon="11.408267881922322"><ele>247.0</ele><time>2026-04-24T16:31:49.854Z</time></trkpt><trkpt lat="44.42654086024058" lon="11.408243719224595"><ele>247.0</ele><time>2026-04-24T16:31:50.854Z</time></trkpt><trkpt lat="44.42645788928817" lon="11.40821592221893"><ele>247.0</ele><time>2026-04-24T16:31:51.854Z</time></trkpt><trkpt lat="44.42639052186028" lon="11.408146275037355"><ele>247.2</ele><time>2026-04-24T16:31:52.854Z</time></trkpt><trkpt lat="44.42627246783415" lon="11.40814093598913"><ele>247.39999999999998</ele><time>2026-04-24T16:31:54.854Z</time></trkpt><trkpt lat="44.426204214231696" lon="11.408131567843716"><ele>247.60000000000002</ele><time>2026-04-24T16:31:55.854Z</time></trkpt><trkpt lat="44.42608742880319" lon="11.408116450539493"><ele>247.8</ele><time>2026-04-24T16:31:57.854Z</time></trkpt><trkpt lat="44.425981026623" lon="11.408107809284585"><ele>248.0</ele><time>2026-04-24T16:31:59.854Z</time></trkpt><trkpt lat="44.42589340096993" lon="11.408109328308514"><ele>248.0</ele><time>2026-04-24T16:32:01.854Z</time></trkpt><trkpt lat="44.42582086791811" lon="11.40812112751936"><ele>248.00000000000003</ele><time>2026-04-24T16:32:03.854Z</time></trkpt><trkpt lat="44.425757550332136" lon="11.408148889678776"><ele>248.0</ele><time>2026-04-24T16:32:05.854Z</time></trkpt><trkpt lat="44.4256955949092" lon="11.408193771177046"><ele>248.0</ele><time>2026-04-24T16:32:07.854Z</time></trkpt><trkpt lat="44.4256327144675" lon="11.40825512794821"><ele>248.00000000000003</ele><time>2026-04-24T16:32:10.854Z</time></trkpt><trkpt lat="44.425568361277314" lon="11.408315962927716"><ele>248.0</ele><time>2026-04-24T16:32:13.854Z</time></trkpt><trkpt lat="44.42551131726851" lon="11.408393762175416"><ele>248.0</ele><time>2026-04-24T16:32:16.854Z</time></trkpt><trkpt lat="44.425449131392554" lon="11.408440871790905"><ele>247.16666666666669</ele><time>2026-04-24T16:32:19.855Z</time></trkpt><trkpt lat="44.42538281223678" lon="11.408510912643816"><ele>246.33333333333334</ele><time>2026-04-24T16:32:23.854Z</time></trkpt><trkpt lat="44.42531368736824" lon="11.408565461458362"><ele>245.5</ele><time>2026-04-24T16:32:26.854Z</time></trkpt><trkpt lat="44.4252488101666" lon="11.408629328631392"><ele>244.66666666666669</ele><time>2026-04-24T16:32:30.854Z</time></trkpt><trkpt lat="44.425183935416605" lon="11.408683126823123"><ele>243.83333333333334</ele><time>2026-04-24T16:32:34.854Z</time></trkpt><trkpt lat="44.42512061170043" lon="11.40870915203678"><ele>243.0</ele><time>2026-04-24T16:32:40.854Z</time></trkpt><trkpt lat="44.425051123411905" lon="11.408778791448048"><ele>243.0</ele><time>2026-04-24T16:32:50.853Z</time></trkpt><trkpt lat="44.424990130312686" lon="11.408804602941167"><ele>243.0</ele><time>2026-04-24T16:32:52.853Z</time></trkpt><trkpt lat="44.42488266226914" lon="11.408795340480346"><ele>243.0</ele><time>2026-04-24T16:32:54.853Z</time></trkpt><trkpt lat="44.4248154777991" lon="11.408808772060155"><ele>243.0</ele><time>2026-04-24T16:32:55.853Z</time></trkpt><trkpt lat="44.42474498292585" lon="11.40884301948295"><ele>243.0</ele><time>2026-04-24T16:32:56.853Z</time></trkpt><trkpt lat="44.424676371589136" lon="11.408741721424173"><ele>243.0</ele><time>2026-04-24T16:32:57.853Z</time></trkpt><trkpt lat="44.42460782173938" lon="11.408730474413977"><ele>243.28571428571428</ele><time>2026-04-24T16:32:58.853Z</time></trkpt><trkpt lat="44.42453717711284" lon="11.40869370347854"><ele>243.57142857142858</ele><time>2026-04-24T16:32:59.853Z</time></trkpt><trkpt lat="44.42447516587121" lon="11.408628394197205"><ele>243.85714285714286</ele><time>2026-04-24T16:33:00.853Z</time></trkpt><trkpt lat="44.42441541434922" lon="11.408562010017228"><ele>244.14285714285714</ele><time>2026-04-24T16:33:01.853Z</time></trkpt><trkpt lat="44.42437441340281" lon="11.408485402063508"><ele>244.42857142857144</ele><time>2026-04-24T16:33:02.853Z</time></trkpt><trkpt lat="44.42432870237252" lon="11.408405815263619"><ele>244.71428571428572</ele><time>2026-04-24T16:33:03.853Z</time></trkpt><trkpt lat="44.424293067836395" lon="11.408330286006661"><ele>245.0</ele><time>2026-04-24T16:33:04.853Z</time></trkpt><trkpt lat="44.42421344852778" lon="11.408220222622276"><ele>245.00000000000003</ele><time>2026-04-24T16:33:06.853Z</time></trkpt><trkpt lat="44.424139216597816" lon="11.408159752398218"><ele>245.0</ele><time>2026-04-24T16:33:08.853Z</time></trkpt><trkpt lat="44.424096443848114" lon="11.408086226252772"><ele>245.0</ele><time>2026-04-24T16:33:10.853Z</time></trkpt><trkpt lat="44.42400607304145" lon="11.408032720025588"><ele>245.0</ele><time>2026-04-24T16:33:13.853Z</time></trkpt><trkpt lat="44.42393320404336" lon="11.408007909837234"><ele>245.00000000000003</ele><time>2026-04-24T16:33:15.853Z</time></trkpt><trkpt lat="44.42386536670664" lon="11.407993740470307"><ele>245.0</ele><time>2026-04-24T16:33:17.853Z</time></trkpt><trkpt lat="44.42379488618965" lon="11.407981275428808"><ele>244.71428571428572</ele><time>2026-04-24T16:33:19.853Z</time></trkpt><trkpt lat="44.42370132783165" lon="11.407985403131319"><ele>244.42857142857144</ele><time>2026-04-24T16:33:22.853Z</time></trkpt><trkpt lat="44.42363798712916" lon="11.407975256771058"><ele>244.14285714285714</ele><time>2026-04-24T16:33:24.853Z</time></trkpt><trkpt lat="44.42357510711247" lon="11.407953252293371"><ele>243.85714285714286</ele><time>2026-04-24T16:33:26.853Z</time></trkpt><trkpt lat="44.42351258002644" lon="11.407940036979678"><ele>243.57142857142858</ele><time>2026-04-24T16:33:28.853Z</time></trkpt><trkpt lat="44.42342316828341" lon="11.407949875764068"><ele>243.28571428571428</ele><time>2026-04-24T16:33:31.853Z</time></trkpt><trkpt lat="44.423359700277594" lon="11.407946728081534"><ele>243.0</ele><time>2026-04-24T16:33:33.853Z</time></trkpt><trkpt lat="44.42327810272541" lon="11.407926741843188"><ele>243.0</ele><time>2026-04-24T16:33:36.853Z</time></trkpt><trkpt lat="44.42319031740363" lon="11.407915680471328"><ele>243.0</ele><time>2026-04-24T16:33:39.853Z</time></trkpt><trkpt lat="44.42310119868284" lon="11.407905134820485"><ele>243.0</ele><time>2026-04-24T16:33:42.853Z</time></trkpt><trkpt lat="44.42301949380745" lon="11.40791243427858"><ele>243.0</ele><time>2026-04-24T16:33:45.853Z</time></trkpt><trkpt lat="44.42295487586414" lon="11.40789747863369"><ele>243.0</ele><time>2026-04-24T16:33:47.853Z</time></trkpt><trkpt lat="44.42287386604271" lon="11.407889656464597"><ele>243.0</ele><time>2026-04-24T16:33:50.853Z</time></trkpt><trkpt lat="44.422786928052744" lon="11.4079119854201"><ele>243.33333333333334</ele><time>2026-04-24T16:33:53.853Z</time></trkpt><trkpt lat="44.42270418978664" lon="11.407933882477689"><ele>243.66666666666669</ele><time>2026-04-24T16:33:56.853Z</time></trkpt><trkpt lat="44.42262170489929" lon="11.407963051564865"><ele>244.0</ele><time>2026-04-24T16:33:59.853Z</time></trkpt><trkpt lat="44.42253333930064" lon="11.407959123642454"><ele>244.33333333333334</ele><time>2026-04-24T16:34:02.853Z</time></trkpt><trkpt lat="44.42245048319101" lon="11.407946669034564"><ele>244.66666666666669</ele><time>2026-04-24T16:34:05.852Z</time></trkpt><trkpt lat="44.42238110207629" lon="11.407963132368831"><ele>245.0</ele><time>2026-04-24T16:34:08.852Z</time></trkpt><trkpt lat="44.422319352663465" lon="11.407997459061004"><ele>245.85714285714286</ele><time>2026-04-24T16:34:11.852Z</time></trkpt><trkpt lat="44.422247550397465" lon="11.408022999190326"><ele>246.71428571428572</ele><time>2026-04-24T16:34:14.852Z</time></trkpt><trkpt lat="44.422182466441924" lon="11.408064787739423"><ele>247.57142857142856</ele><time>2026-04-24T16:34:17.852Z</time></trkpt><trkpt lat="44.42212190154238" lon="11.408098442730276"><ele>248.42857142857142</ele><time>2026-04-24T16:34:20.853Z</time></trkpt><trkpt lat="44.42205280789852" lon="11.408142751709706"><ele>249.28571428571428</ele><time>2026-04-24T16:34:23.853Z</time></trkpt><trkpt lat="44.421994834626986" lon="11.408181981592538"><ele>250.1428571428571</ele><time>2026-04-24T16:34:26.853Z</time></trkpt><trkpt lat="44.42193088247824" lon="11.408217821923515"><ele>250.99999999999997</ele><time>2026-04-24T16:34:29.853Z</time></trkpt><trkpt lat="44.421870192516266" lon="11.40825724139311"><ele>252.57142857142856</ele><time>2026-04-24T16:34:32.852Z</time></trkpt><trkpt lat="44.42181182304327" lon="11.408307570050665"><ele>254.14285714285714</ele><time>2026-04-24T16:34:35.852Z</time></trkpt><trkpt lat="44.42175032978851" lon="11.40835151017708"><ele>255.71428571428572</ele><time>2026-04-24T16:34:38.852Z</time></trkpt><trkpt lat="44.42169817252284" lon="11.408402912822984"><ele>257.2857142857143</ele><time>2026-04-24T16:34:41.852Z</time></trkpt><trkpt lat="44.42163356476672" lon="11.408447655392514"><ele>258.8571428571429</ele><time>2026-04-24T16:34:44.852Z</time></trkpt><trkpt lat="44.4215690935695" lon="11.40849561591583"><ele>260.42857142857144</ele><time>2026-04-24T16:34:47.852Z</time></trkpt><trkpt lat="44.421500555630246" lon="11.408544510975974"><ele>262.0</ele><time>2026-04-24T16:34:50.851Z</time></trkpt><trkpt lat="44.421440113353384" lon="11.4085875304322"><ele>262.0</ele><time>2026-04-24T16:34:53.851Z</time></trkpt><trkpt lat="44.421375303756" lon="11.408638063004773"><ele>262.0</ele><time>2026-04-24T16:34:56.851Z</time></trkpt><trkpt lat="44.421316644277915" lon="11.408693060808046"><ele>262.0</ele><time>2026-04-24T16:34:59.851Z</time></trkpt><trkpt lat="44.42124939989079" lon="11.408742874249398"><ele>262.0</ele><time>2026-04-24T16:35:02.851Z</time></trkpt><trkpt lat="44.421189278199364" lon="11.408793029996769"><ele>262.0</ele><time>2026-04-24T16:35:05.851Z</time></trkpt><trkpt lat="44.42112705981618" lon="11.408839728583786"><ele>262.0</ele><time>2026-04-24T16:35:08.851Z</time></trkpt><trkpt lat="44.42106506989909" lon="11.408896688344305"><ele>262.0</ele><time>2026-04-24T16:35:11.851Z</time></trkpt><trkpt lat="44.42100733548139" lon="11.408948230525281"><ele>263.14285714285717</ele><time>2026-04-24T16:35:14.851Z</time></trkpt><trkpt lat="44.42094520527142" lon="11.408990223141297"><ele>264.28571428571433</ele><time>2026-04-24T16:35:17.851Z</time></trkpt><trkpt lat="44.42088233662772" lon="11.409028334668491"><ele>265.42857142857144</ele><time>2026-04-24T16:35:20.851Z</time></trkpt><trkpt lat="44.420815337892236" lon="11.409074714577958"><ele>266.57142857142856</ele><time>2026-04-24T16:35:23.85Z</time></trkpt><trkpt lat="44.42074346128165" lon="11.409116051986953"><ele>267.71428571428567</ele><time>2026-04-24T16:35:26.85Z</time></trkpt><trkpt lat="44.420681298782775" lon="11.409171235592115"><ele>268.85714285714283</ele><time>2026-04-24T16:35:29.85Z</time></trkpt><trkpt lat="44.42061507140974" lon="11.409226002910065"><ele>270.0</ele><time>2026-04-24T16:35:32.85Z</time></trkpt><trkpt lat="44.4205498730702" lon="11.409275698127573"><ele>270.0</ele><time>2026-04-24T16:35:35.85Z</time></trkpt><trkpt lat="44.42048635399218" lon="11.409321886002296"><ele>270.0</ele><time>2026-04-24T16:35:38.85Z</time></trkpt><trkpt lat="44.42042910679774" lon="11.409371204909768"><ele>270.0</ele><time>2026-04-24T16:35:41.85Z</time></trkpt><trkpt lat="44.4203708805513" lon="11.409416759464214"><ele>270.0</ele><time>2026-04-24T16:35:44.85Z</time></trkpt><trkpt lat="44.42030690654785" lon="11.409475137373228"><ele>270.0</ele><time>2026-04-24T16:35:47.85Z</time></trkpt><trkpt lat="44.420239327112476" lon="11.409543190049133"><ele>270.0</ele><time>2026-04-24T16:35:50.85Z</time></trkpt><trkpt lat="44.420162622110176" lon="11.409584045732926"><ele>270.0</ele><time>2026-04-24T16:35:53.85Z</time></trkpt><trkpt lat="44.420086035033925" lon="11.409586788405692"><ele>270.85714285714283</ele><time>2026-04-24T16:35:56.85Z</time></trkpt><trkpt lat="44.420019387658726" lon="11.409594983112132"><ele>271.71428571428567</ele><time>2026-04-24T16:35:59.85Z</time></trkpt><trkpt lat="44.41993482355813" lon="11.409588485486104"><ele>272.57142857142856</ele><time>2026-04-24T16:36:02.85Z</time></trkpt><trkpt lat="44.41986632302653" lon="11.409604902676138"><ele>273.42857142857144</ele><time>2026-04-24T16:36:05.85Z</time></trkpt><trkpt lat="44.4197979439137" lon="11.40959633450214"><ele>274.28571428571433</ele><time>2026-04-24T16:36:08.85Z</time></trkpt><trkpt lat="44.41971388143493" lon="11.40961774976134"><ele>275.14285714285717</ele><time>2026-04-24T16:36:11.85Z</time></trkpt><trkpt lat="44.41964750981411" lon="11.409614189990013"><ele>276.0</ele><time>2026-04-24T16:36:14.85Z</time></trkpt><trkpt lat="44.41957554224539" lon="11.40959883478691"><ele>277.3333333333333</ele><time>2026-04-24T16:36:17.85Z</time></trkpt><trkpt lat="44.419498176121515" lon="11.40958307815693"><ele>278.6666666666667</ele><time>2026-04-24T16:36:20.85Z</time></trkpt><trkpt lat="44.4194270570261" lon="11.409543986016347"><ele>280.0</ele><time>2026-04-24T16:36:23.85Z</time></trkpt><trkpt lat="44.419353579641346" lon="11.409518122030128"><ele>281.33333333333337</ele><time>2026-04-24T16:36:26.851Z</time></trkpt><trkpt lat="44.4192647693025" lon="11.409519602634001"><ele>282.6666666666667</ele><time>2026-04-24T16:36:29.851Z</time></trkpt><trkpt lat="44.41918562767993" lon="11.409512894866127"><ele>284.0</ele><time>2026-04-24T16:36:32.851Z</time></trkpt><trkpt lat="44.41911922458838" lon="11.409517870247864"><ele>284.0</ele><time>2026-04-24T16:36:35.851Z</time></trkpt><trkpt lat="44.419054544508626" lon="11.409502620372447"><ele>284.0</ele><time>2026-04-24T16:36:38.851Z</time></trkpt><trkpt lat="44.418991398956834" lon="11.409503821618427"><ele>284.0</ele><time>2026-04-24T16:36:41.85Z</time></trkpt><trkpt lat="44.418927488229116" lon="11.409486913787592"><ele>284.0</ele><time>2026-04-24T16:36:44.85Z</time></trkpt><trkpt lat="44.418855982312365" lon="11.409467227110495"><ele>284.0</ele><time>2026-04-24T16:36:47.85Z</time></trkpt><trkpt lat="44.41878456657686" lon="11.409460853858196"><ele>284.0</ele><time>2026-04-24T16:36:50.85Z</time></trkpt><trkpt lat="44.41872097685443" lon="11.409452431309061"><ele>284.0</ele><time>2026-04-24T16:36:54.85Z</time></trkpt><trkpt lat="44.4186471282732" lon="11.409442390079656"><ele>284.6666666666667</ele><time>2026-04-24T16:36:58.85Z</time></trkpt><trkpt lat="44.418576639538" lon="11.409431410166693"><ele>285.33333333333337</ele><time>2026-04-24T16:37:01.85Z</time></trkpt><trkpt lat="44.418511671685266" lon="11.40939672587551"><ele>286.0</ele><time>2026-04-24T16:37:04.85Z</time></trkpt><trkpt lat="44.418455720807486" lon="11.409326470856834"><ele>286.6666666666667</ele><time>2026-04-24T16:37:07.85Z</time></trkpt><trkpt lat="44.41841157029454" lon="11.409239320863925"><ele>287.3333333333333</ele><time>2026-04-24T16:37:10.85Z</time></trkpt><trkpt lat="44.41837101660691" lon="11.409126542250956"><ele>288.0</ele><time>2026-04-24T16:37:13.85Z</time></trkpt><trkpt lat="44.41832779080836" lon="11.40900406227591"><ele>288.0</ele><time>2026-04-24T16:37:16.85Z</time></trkpt><trkpt lat="44.41828572601598" lon="11.408907555311492"><ele>288.0</ele><time>2026-04-24T16:37:18.85Z</time></trkpt><trkpt lat="44.41823467828974" lon="11.408815448044265"><ele>288.0</ele><time>2026-04-24T16:37:20.85Z</time></trkpt><trkpt lat="44.41817776044861" lon="11.40873040975462"><ele>288.0</ele><time>2026-04-24T16:37:22.85Z</time></trkpt><trkpt lat="44.41807564659144" lon="11.408730627276993"><ele>288.0</ele><time>2026-04-24T16:37:24.85Z</time></trkpt><trkpt lat="44.41805585942271" lon="11.408634616974027"><ele>288.0</ele><time>2026-04-24T16:40:07.849Z</time></trkpt><trkpt lat="44.41802761128226" lon="11.408554262333368"><ele>287.0</ele><time>2026-04-24T16:40:10.849Z</time></trkpt><trkpt lat="44.417971936099214" lon="11.408508722046195"><ele>286.0</ele><time>2026-04-24T16:40:12.849Z</time></trkpt><trkpt lat="44.4179160467469" lon="11.408451763184756"><ele>285.0</ele><time>2026-04-24T16:40:14.849Z</time></trkpt><trkpt lat="44.41784275265019" lon="11.408399044663083"><ele>284.0</ele><time>2026-04-24T16:40:16.849Z</time></trkpt><trkpt lat="44.4177681793479" lon="11.408342816678223"><ele>283.0</ele><time>2026-04-24T16:40:18.849Z</time></trkpt><trkpt lat="44.417676719856345" lon="11.40829106074952"><ele>282.0</ele><time>2026-04-24T16:40:20.849Z</time></trkpt><trkpt lat="44.41757565285956" lon="11.408263625810141"><ele>282.0</ele><time>2026-04-24T16:40:22.849Z</time></trkpt><trkpt lat="44.4174676604432" lon="11.408196002130367"><ele>282.0</ele><time>2026-04-24T16:40:24.849Z</time></trkpt><trkpt lat="44.417399423918376" lon="11.408144710569463"><ele>282.0</ele><time>2026-04-24T16:40:25.849Z</time></trkpt><trkpt lat="44.41734585851465" lon="11.408072589669372"><ele>282.0</ele><time>2026-04-24T16:40:26.849Z</time></trkpt><trkpt lat="44.417299082068645" lon="11.40796338434026"><ele>282.0</ele><time>2026-04-24T16:40:27.849Z</time></trkpt><trkpt lat="44.417240385520856" lon="11.407841160577988"><ele>283.5</ele><time>2026-04-24T16:40:28.849Z</time></trkpt><trkpt lat="44.417182688374545" lon="11.407717061202284"><ele>285.0</ele><time>2026-04-24T16:40:29.849Z</time></trkpt><trkpt lat="44.41710783369452" lon="11.407598741720095"><ele>286.5</ele><time>2026-04-24T16:40:30.849Z</time></trkpt><trkpt lat="44.417050791950345" lon="11.407438691887767"><ele>288.0</ele><time>2026-04-24T16:40:31.849Z</time></trkpt><trkpt lat="44.416978854164654" lon="11.407299490810974"><ele>283.75</ele><time>2026-04-24T16:40:32.849Z</time></trkpt><trkpt lat="44.41690059840506" lon="11.407161202573946"><ele>279.5</ele><time>2026-04-24T16:40:33.849Z</time></trkpt><trkpt lat="44.416802773752" lon="11.40702530236337"><ele>275.25</ele><time>2026-04-24T16:40:34.849Z</time></trkpt><trkpt lat="44.41671697452699" lon="11.406881936014809"><ele>271.0</ele><time>2026-04-24T16:40:35.849Z</time></trkpt><trkpt lat="44.416632314175686" lon="11.406734944825677"><ele>271.0</ele><time>2026-04-24T16:40:36.849Z</time></trkpt><trkpt lat="44.41655785923393" lon="11.406586580883163"><ele>271.0</ele><time>2026-04-24T16:40:37.849Z</time></trkpt><trkpt lat="44.41648148517239" lon="11.406434377172161"><ele>271.0</ele><time>2026-04-24T16:40:38.849Z</time></trkpt><trkpt lat="44.41641199312145" lon="11.40629818698594"><ele>271.0</ele><time>2026-04-24T16:40:39.849Z</time></trkpt><trkpt lat="44.416339361064615" lon="11.406152378906729"><ele>266.75</ele><time>2026-04-24T16:40:40.849Z</time></trkpt><trkpt lat="44.416269351581086" lon="11.406009922980573"><ele>262.5</ele><time>2026-04-24T16:40:41.849Z</time></trkpt><trkpt lat="44.41619775949506" lon="11.405882416584461"><ele>258.25</ele><time>2026-04-24T16:40:42.849Z</time></trkpt><trkpt lat="44.4161294207785" lon="11.405744000290156"><ele>254.0</ele><time>2026-04-24T16:40:43.849Z</time></trkpt><trkpt lat="44.41607117235515" lon="11.405608053675264"><ele>255.6</ele><time>2026-04-24T16:40:44.849Z</time></trkpt><trkpt lat="44.41602969733214" lon="11.40547083447501"><ele>257.2</ele><time>2026-04-24T16:40:45.849Z</time></trkpt><trkpt lat="44.41599641211476" lon="11.405336197954076"><ele>258.79999999999995</ele><time>2026-04-24T16:40:46.849Z</time></trkpt><trkpt lat="44.415959281435136" lon="11.405214931578344"><ele>260.4</ele><time>2026-04-24T16:40:47.849Z</time></trkpt><trkpt lat="44.41592408625169" lon="11.405110324930051"><ele>262.0</ele><time>2026-04-24T16:40:48.849Z</time></trkpt><trkpt lat="44.41589071534223" lon="11.405006108207756"><ele>262.0</ele><time>2026-04-24T16:40:49.849Z</time></trkpt><trkpt lat="44.41585289544869" lon="11.404920358771975"><ele>262.0</ele><time>2026-04-24T16:40:50.849Z</time></trkpt><trkpt lat="44.41577629188272" lon="11.404803779407313"><ele>262.0</ele><time>2026-04-24T16:40:52.849Z</time></trkpt><trkpt lat="44.41571402538595" lon="11.40470591151619"><ele>262.0</ele><time>2026-04-24T16:40:54.849Z</time></trkpt><trkpt lat="44.41566915349258" lon="11.404617922494598"><ele>262.0</ele><time>2026-04-24T16:40:56.849Z</time></trkpt><trkpt lat="44.41562599643217" lon="11.4045474757141"><ele>262.0</ele><time>2026-04-24T16:40:58.849Z</time></trkpt><trkpt lat="44.41557182281073" lon="11.404468729791821"><ele>262.3333333333333</ele><time>2026-04-24T16:41:00.849Z</time></trkpt><trkpt lat="44.41551828209865" lon="11.404381628824947"><ele>262.66666666666663</ele><time>2026-04-24T16:41:02.849Z</time></trkpt><trkpt lat="44.41546832136627" lon="11.404300231144433"><ele>263.0</ele><time>2026-04-24T16:41:04.848Z</time></trkpt><trkpt lat="44.415410664253585" lon="11.404215014967676"><ele>263.3333333333333</ele><time>2026-04-24T16:41:07.848Z</time></trkpt><trkpt lat="44.41536001890949" lon="11.404103283277427"><ele>263.6666666666667</ele><time>2026-04-24T16:41:10.848Z</time></trkpt><trkpt lat="44.415322767594596" lon="11.404019111245407"><ele>264.0</ele><time>2026-04-24T16:41:12.848Z</time></trkpt><trkpt lat="44.41528825182139" lon="11.403912133512469"><ele>268.3333333333333</ele><time>2026-04-24T16:41:15.848Z</time></trkpt><trkpt lat="44.415284308634455" lon="11.403764710073856"><ele>272.6666666666667</ele><time>2026-04-24T16:41:18.849Z</time></trkpt><trkpt lat="44.415306611601615" lon="11.403645750907105"><ele>277.0</ele><time>2026-04-24T16:41:21.849Z</time></trkpt><trkpt lat="44.41536136630939" lon="11.40355631087409"><ele>281.33333333333337</ele><time>2026-04-24T16:41:23.849Z</time></trkpt><trkpt lat="44.415392361768916" lon="11.403459911928843"><ele>285.6666666666667</ele><time>2026-04-24T16:41:25.848Z</time></trkpt><trkpt lat="44.41542731455134" lon="11.40337060717109"><ele>290.0</ele><time>2026-04-24T16:41:27.849Z</time></trkpt><trkpt lat="44.41545320661309" lon="11.4032681348582"><ele>290.0</ele><time>2026-04-24T16:41:30.849Z</time></trkpt><trkpt lat="44.415475991195606" lon="11.403179535825478"><ele>290.0</ele><time>2026-04-24T16:41:32.849Z</time></trkpt><trkpt lat="44.4154822221376" lon="11.403067000859012"><ele>290.0</ele><time>2026-04-24T16:41:35.849Z</time></trkpt><trkpt lat="44.41549627497752" lon="11.402976972774594"><ele>290.0</ele><time>2026-04-24T16:41:37.848Z</time></trkpt><trkpt lat="44.41549945282388" lon="11.402885007254358"><ele>290.0</ele><time>2026-04-24T16:41:39.848Z</time></trkpt><trkpt lat="44.41549841339771" lon="11.40279102816797"><ele>290.0</ele><time>2026-04-24T16:41:41.848Z</time></trkpt><trkpt lat="44.41549924210079" lon="11.402697961056303"><ele>290.0</ele><time>2026-04-24T16:41:43.848Z</time></trkpt><trkpt lat="44.41550715334877" lon="11.402601472122093"><ele>291.0</ele><time>2026-04-24T16:41:45.848Z</time></trkpt><trkpt lat="44.415496821518836" lon="11.40251316449721"><ele>292.0</ele><time>2026-04-24T16:41:47.848Z</time></trkpt><trkpt lat="44.415464850163595" lon="11.402406451347396"><ele>293.0</ele><time>2026-04-24T16:41:50.848Z</time></trkpt><trkpt lat="44.415404916501025" lon="11.402299072226956"><ele>294.0</ele><time>2026-04-24T16:41:53.848Z</time></trkpt><trkpt lat="44.415382439867194" lon="11.402212810746223"><ele>295.0</ele><time>2026-04-24T16:41:55.848Z</time></trkpt><trkpt lat="44.41532968850808" lon="11.402134828801776"><ele>296.0</ele><time>2026-04-24T16:41:57.848Z</time></trkpt><trkpt lat="44.41526811108915" lon="11.402045797756742"><ele>293.6</ele><time>2026-04-24T16:41:59.848Z</time></trkpt><trkpt lat="44.415199086316676" lon="11.401970216335757"><ele>291.20000000000005</ele><time>2026-04-24T16:42:01.848Z</time></trkpt><trkpt lat="44.41511467009412" lon="11.401878575289471"><ele>288.79999999999995</ele><time>2026-04-24T16:42:03.848Z</time></trkpt><trkpt lat="44.415024008775504" lon="11.401806658308136"><ele>286.4</ele><time>2026-04-24T16:42:05.848Z</time></trkpt><trkpt lat="44.41495658708003" lon="11.401744839064596"><ele>284.0</ele><time>2026-04-24T16:42:07.848Z</time></trkpt><trkpt lat="44.41489009253512" lon="11.401682416800892"><ele>284.0</ele><time>2026-04-24T16:42:09.848Z</time></trkpt><trkpt lat="44.41486767484318" lon="11.401546738597187"><ele>284.0</ele><time>2026-04-24T16:42:11.848Z</time></trkpt><trkpt lat="44.41480151954198" lon="11.401497417332564"><ele>284.0</ele><time>2026-04-24T16:42:13.848Z</time></trkpt><trkpt lat="44.41473219113184" lon="11.401460972470169"><ele>284.0</ele><time>2026-04-24T16:42:15.848Z</time></trkpt><trkpt lat="44.414664897994186" lon="11.401432283652131"><ele>284.0</ele><time>2026-04-24T16:42:17.848Z</time></trkpt><trkpt lat="44.41459313798184" lon="11.40140222894761"><ele>284.0</ele><time>2026-04-24T16:42:19.848Z</time></trkpt><trkpt lat="44.41452000447855" lon="11.401371598997914"><ele>283.83333333333337</ele><time>2026-04-24T16:42:21.848Z</time></trkpt><trkpt lat="44.41443987678899" lon="11.401339356069649"><ele>283.6666666666667</ele><time>2026-04-24T16:42:23.848Z</time></trkpt><trkpt lat="44.41434330448889" lon="11.40130095985636"><ele>283.5</ele><time>2026-04-24T16:42:26.848Z</time></trkpt><trkpt lat="44.41426617476173" lon="11.401268991888752"><ele>283.3333333333333</ele><time>2026-04-24T16:42:28.848Z</time></trkpt><trkpt lat="44.41417647593906" lon="11.40122612146888"><ele>283.16666666666663</ele><time>2026-04-24T16:42:31.848Z</time></trkpt><trkpt lat="44.41411097973656" lon="11.401212263652088"><ele>283.0</ele><time>2026-04-24T16:42:33.848Z</time></trkpt><trkpt lat="44.41404233609262" lon="11.40116820162124"><ele>283.0</ele><time>2026-04-24T16:42:35.848Z</time></trkpt><trkpt lat="44.413973003739216" lon="11.401126193274202"><ele>283.0</ele><time>2026-04-24T16:42:37.848Z</time></trkpt><trkpt lat="44.41390608206958" lon="11.401086864446269"><ele>283.0</ele><time>2026-04-24T16:42:39.848Z</time></trkpt><trkpt lat="44.41384743929976" lon="11.401044411675443"><ele>283.0</ele><time>2026-04-24T16:42:41.848Z</time></trkpt><trkpt lat="44.41378485983188" lon="11.400982091063778"><ele>283.0</ele><time>2026-04-24T16:42:43.848Z</time></trkpt><trkpt lat="44.41371764947869" lon="11.400946136363366"><ele>283.0</ele><time>2026-04-24T16:42:45.848Z</time></trkpt><trkpt lat="44.4136561511809" lon="11.400897581893895"><ele>283.0</ele><time>2026-04-24T16:42:47.848Z</time></trkpt><trkpt lat="44.41358343621959" lon="11.400859745367475"><ele>285.0</ele><time>2026-04-24T16:42:50.848Z</time></trkpt><trkpt lat="44.41352760063768" lon="11.400805312174505"><ele>287.0</ele><time>2026-04-24T16:42:55.847Z</time></trkpt><trkpt lat="44.41347290161401" lon="11.400760069234572"><ele>289.0</ele><time>2026-04-24T16:42:58.847Z</time></trkpt><trkpt lat="44.41340309531366" lon="11.400700942627013"><ele>291.0</ele><time>2026-04-24T16:43:01.847Z</time></trkpt><trkpt lat="44.413319471515806" lon="11.400650981197611"><ele>293.0</ele><time>2026-04-24T16:43:04.847Z</time></trkpt><trkpt lat="44.41323119584149" lon="11.400613415684372"><ele>295.0</ele><time>2026-04-24T16:43:07.847Z</time></trkpt><trkpt lat="44.413138792125736" lon="11.400571799420758"><ele>295.0</ele><time>2026-04-24T16:43:10.847Z</time></trkpt><trkpt lat="44.413044088279186" lon="11.400574544023401"><ele>295.0</ele><time>2026-04-24T16:43:13.847Z</time></trkpt><trkpt lat="44.41296882269923" lon="11.400644411527056"><ele>295.0</ele><time>2026-04-24T16:43:16.847Z</time></trkpt><trkpt lat="44.4129290343434" lon="11.40075755234383"><ele>295.0</ele><time>2026-04-24T16:43:19.847Z</time></trkpt><trkpt lat="44.4128773370873" lon="11.400864362076922"><ele>295.0</ele><time>2026-04-24T16:43:22.847Z</time></trkpt><trkpt lat="44.41285528034316" lon="11.40094702970008"><ele>295.0</ele><time>2026-04-24T16:43:24.847Z</time></trkpt><trkpt lat="44.412839168945624" lon="11.401039179467805"><ele>295.0</ele><time>2026-04-24T16:43:26.848Z</time></trkpt><trkpt lat="44.4128276749841" lon="11.401128264888802"><ele>295.0</ele><time>2026-04-24T16:43:28.848Z</time></trkpt><trkpt lat="44.41280465209852" lon="11.401242117388868"><ele>295.0</ele><time>2026-04-24T16:43:31.848Z</time></trkpt><trkpt lat="44.412790620882866" lon="11.401334128565233"><ele>295.0</ele><time>2026-04-24T16:43:33.848Z</time></trkpt><trkpt lat="44.412767069335445" lon="11.401418026605608"><ele>295.0</ele><time>2026-04-24T16:43:35.848Z</time></trkpt><trkpt lat="44.41274254620578" lon="11.401519895570187"><ele>295.0</ele><time>2026-04-24T16:43:37.848Z</time></trkpt><trkpt lat="44.412685485495636" lon="11.401622127215235"><ele>295.0</ele><time>2026-04-24T16:43:39.848Z</time></trkpt><trkpt lat="44.41260849107225" lon="11.401716463454848"><ele>295.0</ele><time>2026-04-24T16:43:41.848Z</time></trkpt><trkpt lat="44.41252639791441" lon="11.401798815366076"><ele>295.0</ele><time>2026-04-24T16:43:43.848Z</time></trkpt><trkpt lat="44.412449963071886" lon="11.401884497113574"><ele>295.0</ele><time>2026-04-24T16:43:45.848Z</time></trkpt><trkpt lat="44.41238406196657" lon="11.401968905200095"><ele>295.0</ele><time>2026-04-24T16:43:47.848Z</time></trkpt><trkpt lat="44.412302886227245" lon="11.40205844976969"><ele>295.0</ele><time>2026-04-24T16:43:49.848Z</time></trkpt><trkpt lat="44.41221197514178" lon="11.402132122679886"><ele>295.0</ele><time>2026-04-24T16:43:51.848Z</time></trkpt><trkpt lat="44.41214171898704" lon="11.402188399705004"><ele>295.0</ele><time>2026-04-24T16:43:53.848Z</time></trkpt><trkpt lat="44.41207957678938" lon="11.402247016274824"><ele>295.0</ele><time>2026-04-24T16:43:55.848Z</time></trkpt><trkpt lat="44.41201609316159" lon="11.402307162739781"><ele>295.0</ele><time>2026-04-24T16:43:57.848Z</time></trkpt><trkpt lat="44.41195929868253" lon="11.40238685718011"><ele>295.0</ele><time>2026-04-24T16:43:59.848Z</time></trkpt><trkpt lat="44.41190057195702" lon="11.402469062560385"><ele>295.3333333333333</ele><time>2026-04-24T16:44:01.848Z</time></trkpt><trkpt lat="44.41186355702332" lon="11.40256455335982"><ele>295.66666666666663</ele><time>2026-04-24T16:44:03.848Z</time></trkpt><trkpt lat="44.411827577920135" lon="11.402664172438397"><ele>296.0</ele><time>2026-04-24T16:44:05.848Z</time></trkpt><trkpt lat="44.411780373432876" lon="11.402783001070489"><ele>296.3333333333333</ele><time>2026-04-24T16:44:07.848Z</time></trkpt><trkpt lat="44.41172334435376" lon="11.402917472888625"><ele>296.6666666666667</ele><time>2026-04-24T16:44:09.848Z</time></trkpt><trkpt lat="44.41169390215651" lon="11.402997421035572"><ele>297.0</ele><time>2026-04-24T16:44:10.848Z</time></trkpt><trkpt lat="44.4116590698919" lon="11.40307154995854"><ele>297.0</ele><time>2026-04-24T16:44:11.848Z</time></trkpt><trkpt lat="44.411622922119314" lon="11.403145056590672"><ele>297.0</ele><time>2026-04-24T16:44:12.848Z</time></trkpt><trkpt lat="44.41155452577791" lon="11.403181933130096"><ele>297.0</ele><time>2026-04-24T16:44:13.848Z</time></trkpt><trkpt lat="44.41151142718661" lon="11.4032580498034"><ele>297.0</ele><time>2026-04-24T16:44:14.848Z</time></trkpt><trkpt lat="44.4114675331455" lon="11.403335571361984"><ele>297.0</ele><time>2026-04-24T16:44:15.848Z</time></trkpt><trkpt lat="44.411417652372066" lon="11.403422547600293"><ele>297.0</ele><time>2026-04-24T16:44:16.848Z</time></trkpt><trkpt lat="44.4113707202746" lon="11.403501956421968"><ele>297.0</ele><time>2026-04-24T16:44:17.848Z</time></trkpt><trkpt lat="44.4113196499353" lon="11.40358280249645"><ele>294.6666666666667</ele><time>2026-04-24T16:44:18.848Z</time></trkpt><trkpt lat="44.411265084360664" lon="11.403664344856363"><ele>292.3333333333333</ele><time>2026-04-24T16:44:19.848Z</time></trkpt><trkpt lat="44.41120575427012" lon="11.403748748360739"><ele>290.0</ele><time>2026-04-24T16:44:20.848Z</time></trkpt><trkpt lat="44.41114461094122" lon="11.403831093067124"><ele>287.66666666666663</ele><time>2026-04-24T16:44:21.848Z</time></trkpt><trkpt lat="44.41107692338468" lon="11.403902580189904"><ele>285.3333333333333</ele><time>2026-04-24T16:44:22.848Z</time></trkpt><trkpt lat="44.41099726092446" lon="11.403973428351055"><ele>283.0</ele><time>2026-04-24T16:44:23.848Z</time></trkpt><trkpt lat="44.41089754590008" lon="11.404021511463737"><ele>283.0</ele><time>2026-04-24T16:44:24.848Z</time></trkpt><trkpt lat="44.410795070816924" lon="11.40409130540366"><ele>283.0</ele><time>2026-04-24T16:44:25.848Z</time></trkpt><trkpt lat="44.410689757554294" lon="11.404175396165948"><ele>283.0</ele><time>2026-04-24T16:44:26.848Z</time></trkpt><trkpt lat="44.41059750021161" lon="11.404271881538447"><ele>283.0</ele><time>2026-04-24T16:44:27.848Z</time></trkpt><trkpt lat="44.41050211466569" lon="11.404360668877857"><ele>281.6</ele><time>2026-04-24T16:44:28.848Z</time></trkpt><trkpt lat="44.41040817621223" lon="11.40444694826725"><ele>280.20000000000005</ele><time>2026-04-24T16:44:29.848Z</time></trkpt><trkpt lat="44.410315397437564" lon="11.404531649292949"><ele>278.8</ele><time>2026-04-24T16:44:30.848Z</time></trkpt><trkpt lat="44.41023072988748" lon="11.404606451828442"><ele>277.40000000000003</ele><time>2026-04-24T16:44:31.848Z</time></trkpt><trkpt lat="44.41015199432504" lon="11.404675790956814"><ele>276.0</ele><time>2026-04-24T16:44:32.848Z</time></trkpt><trkpt lat="44.41007819594352" lon="11.404741559876717"><ele>276.0</ele><time>2026-04-24T16:44:33.847Z</time></trkpt><trkpt lat="44.41000493093673" lon="11.404809063172811"><ele>276.0</ele><time>2026-04-24T16:44:34.847Z</time></trkpt><trkpt lat="44.409941030310904" lon="11.40487119803734"><ele>276.0</ele><time>2026-04-24T16:44:35.847Z</time></trkpt><trkpt lat="44.40989673884079" lon="11.404949501983086"><ele>276.0</ele><time>2026-04-24T16:44:36.847Z</time></trkpt><trkpt lat="44.40983248650046" lon="11.405076316866747"><ele>276.0</ele><time>2026-04-24T16:44:38.847Z</time></trkpt><trkpt lat="44.40976792933562" lon="11.405199411740636"><ele>276.0</ele><time>2026-04-24T16:44:40.847Z</time></trkpt><trkpt lat="44.409710063748726" lon="11.405332878916898"><ele>276.0</ele><time>2026-04-24T16:44:42.847Z</time></trkpt><trkpt lat="44.40965478411006" lon="11.405463384510863"><ele>276.0</ele><time>2026-04-24T16:44:44.847Z</time></trkpt><trkpt lat="44.409618987655996" lon="11.405554365551593"><ele>276.0</ele><time>2026-04-24T16:44:45.847Z</time></trkpt><trkpt lat="44.40957521276774" lon="11.405638588004487"><ele>276.0</ele><time>2026-04-24T16:44:46.847Z</time></trkpt><trkpt lat="44.40953485266367" lon="11.40574091558003"><ele>274.0</ele><time>2026-04-24T16:44:47.847Z</time></trkpt><trkpt lat="44.40949733098912" lon="11.405843306400616"><ele>272.0</ele><time>2026-04-24T16:44:48.847Z</time></trkpt><trkpt lat="44.409454778481475" lon="11.40594676811561"><ele>270.0</ele><time>2026-04-24T16:44:49.847Z</time></trkpt><trkpt lat="44.409412366870164" lon="11.406057787413157"><ele>268.0</ele><time>2026-04-24T16:44:50.847Z</time></trkpt><trkpt lat="44.4093706931048" lon="11.406179544889826"><ele>266.0</ele><time>2026-04-24T16:44:51.847Z</time></trkpt><trkpt lat="44.40933423940408" lon="11.406299406925077"><ele>264.0</ele><time>2026-04-24T16:44:52.847Z</time></trkpt><trkpt lat="44.40930866750801" lon="11.40639440930236"><ele>264.0</ele><time>2026-04-24T16:44:53.847Z</time></trkpt><trkpt lat="44.40927126009045" lon="11.4065205903999"><ele>264.0</ele><time>2026-04-24T16:44:55.847Z</time></trkpt><trkpt lat="44.40923096889917" lon="11.406603859423928"><ele>264.0</ele><time>2026-04-24T16:44:56.847Z</time></trkpt><trkpt lat="44.40920550647109" lon="11.406687791661183"><ele>264.0</ele><time>2026-04-24T16:44:57.847Z</time></trkpt><trkpt lat="44.40917404363075" lon="11.406770503257151"><ele>264.0</ele><time>2026-04-24T16:44:58.847Z</time></trkpt><trkpt lat="44.40913366605463" lon="11.406848405092687"><ele>264.0</ele><time>2026-04-24T16:44:59.847Z</time></trkpt><trkpt lat="44.40908169571012" lon="11.406922887336481"><ele>264.0</ele><time>2026-04-24T16:45:00.847Z</time></trkpt><trkpt lat="44.40902685281979" lon="11.40698906657021"><ele>264.0</ele><time>2026-04-24T16:45:01.847Z</time></trkpt><trkpt lat="44.408969111731594" lon="11.407055277068796"><ele>264.0</ele><time>2026-04-24T16:45:02.847Z</time></trkpt><trkpt lat="44.40890711448461" lon="11.407119870351446"><ele>264.0</ele><time>2026-04-24T16:45:03.847Z</time></trkpt><trkpt lat="44.40884707510467" lon="11.407183207792563"><ele>264.0</ele><time>2026-04-24T16:45:04.847Z</time></trkpt><trkpt lat="44.40878536590899" lon="11.407248306758833"><ele>264.0</ele><time>2026-04-24T16:45:05.847Z</time></trkpt><trkpt lat="44.40872106778422" lon="11.407316136920597"><ele>264.0</ele><time>2026-04-24T16:45:06.847Z</time></trkpt><trkpt lat="44.40865545215999" lon="11.40738535685636"><ele>260.59999999999997</ele><time>2026-04-24T16:45:07.847Z</time></trkpt><trkpt lat="44.40857361088588" lon="11.407471778023462"><ele>257.2</ele><time>2026-04-24T16:45:08.847Z</time></trkpt><trkpt lat="44.40849978887908" lon="11.407550925674599"><ele>253.79999999999998</ele><time>2026-04-24T16:45:09.847Z</time></trkpt><trkpt lat="44.40843926868258" lon="11.407628398011507"><ele>250.39999999999998</ele><time>2026-04-24T16:45:10.847Z</time></trkpt><trkpt lat="44.40836145999635" lon="11.407712669978235"><ele>247.0</ele><time>2026-04-24T16:45:11.847Z</time></trkpt><trkpt lat="44.40829129947598" lon="11.407787100228969"><ele>247.0</ele><time>2026-04-24T16:45:12.847Z</time></trkpt><trkpt lat="44.40821875002135" lon="11.407862973732499"><ele>247.0</ele><time>2026-04-24T16:45:13.847Z</time></trkpt><trkpt lat="44.40813610329811" lon="11.407946760386986"><ele>247.0</ele><time>2026-04-24T16:45:14.847Z</time></trkpt><trkpt lat="44.40805748013885" lon="11.408036553423651"><ele>247.0</ele><time>2026-04-24T16:45:15.847Z</time></trkpt><trkpt lat="44.40798929156928" lon="11.408115195515437"><ele>247.0</ele><time>2026-04-24T16:45:16.847Z</time></trkpt><trkpt lat="44.407919449154285" lon="11.408197816408059"><ele>245.83333333333331</ele><time>2026-04-24T16:45:17.847Z</time></trkpt><trkpt lat="44.4078448099218" lon="11.408274751078096"><ele>244.66666666666666</ele><time>2026-04-24T16:45:18.847Z</time></trkpt><trkpt lat="44.40777311360739" lon="11.408351170022874"><ele>243.5</ele><time>2026-04-24T16:45:19.847Z</time></trkpt><trkpt lat="44.407692761693916" lon="11.408420712191624"><ele>242.33333333333331</ele><time>2026-04-24T16:45:20.847Z</time></trkpt><trkpt lat="44.40762525927038" lon="11.408495179534732"><ele>241.16666666666666</ele><time>2026-04-24T16:45:21.847Z</time></trkpt><trkpt lat="44.40756617084881" lon="11.408560835871812"><ele>240.0</ele><time>2026-04-24T16:45:22.847Z</time></trkpt><trkpt lat="44.40747345311466" lon="11.408657398337054"><ele>240.0</ele><time>2026-04-24T16:45:24.847Z</time></trkpt><trkpt lat="44.407369276402584" lon="11.408759290168428"><ele>240.0</ele><time>2026-04-24T16:45:26.847Z</time></trkpt><trkpt lat="44.40727663034958" lon="11.408885946222618"><ele>240.0</ele><time>2026-04-24T16:45:28.847Z</time></trkpt><trkpt lat="44.40722938004799" lon="11.408952014804544"><ele>240.0</ele><time>2026-04-24T16:45:29.847Z</time></trkpt><trkpt lat="44.407182217422566" lon="11.409021849046363"><ele>240.0</ele><time>2026-04-24T16:45:30.847Z</time></trkpt><trkpt lat="44.40712763671384" lon="11.409090614279785"><ele>238.33333333333334</ele><time>2026-04-24T16:45:31.847Z</time></trkpt><trkpt lat="44.407077698012806" lon="11.409169029518306"><ele>236.66666666666669</ele><time>2026-04-24T16:45:32.847Z</time></trkpt><trkpt lat="44.40702041436005" lon="11.409251539958232"><ele>235.0</ele><time>2026-04-24T16:45:33.847Z</time></trkpt><trkpt lat="44.40695953912546" lon="11.409321548964254"><ele>233.33333333333334</ele><time>2026-04-24T16:45:34.847Z</time></trkpt><trkpt lat="44.40690546645099" lon="11.409400963348169"><ele>231.66666666666669</ele><time>2026-04-24T16:45:35.847Z</time></trkpt><trkpt lat="44.40684588185492" lon="11.4094767747141"><ele>230.0</ele><time>2026-04-24T16:45:36.847Z</time></trkpt><trkpt lat="44.40679118394414" lon="11.409554650135519"><ele>230.00000000000003</ele><time>2026-04-24T16:45:37.847Z</time></trkpt><trkpt lat="44.406742837180815" lon="11.409624303118042"><ele>230.0</ele><time>2026-04-24T16:45:38.847Z</time></trkpt><trkpt lat="44.406699991778495" lon="11.409691203832274"><ele>230.0</ele><time>2026-04-24T16:45:39.847Z</time></trkpt><trkpt lat="44.40666558697267" lon="11.409767042127566"><ele>230.0</ele><time>2026-04-24T16:45:40.847Z</time></trkpt><trkpt lat="44.40660328331716" lon="11.40989512896145"><ele>230.00000000000003</ele><time>2026-04-24T16:45:42.846Z</time></trkpt><trkpt lat="44.40655626730883" lon="11.410004293845915"><ele>230.0</ele><time>2026-04-24T16:45:44.847Z</time></trkpt><trkpt lat="44.406515065198946" lon="11.41008680004233"><ele>231.16666666666669</ele><time>2026-04-24T16:45:46.847Z</time></trkpt><trkpt lat="44.40647467272846" lon="11.410154629660292"><ele>232.33333333333334</ele><time>2026-04-24T16:45:48.847Z</time></trkpt><trkpt lat="44.406427399620505" lon="11.410219950679835"><ele>233.5</ele><time>2026-04-24T16:45:51.847Z</time></trkpt><trkpt lat="44.406382340103214" lon="11.410307963361666"><ele>234.66666666666669</ele><time>2026-04-24T16:45:54.847Z</time></trkpt><trkpt lat="44.40632928538129" lon="11.410405928405636"><ele>235.83333333333334</ele><time>2026-04-24T16:45:57.847Z</time></trkpt><trkpt lat="44.406276182901216" lon="11.41050370368056"><ele>237.0</ele><time>2026-04-24T16:46:00.847Z</time></trkpt><trkpt lat="44.406219291989224" lon="11.410604303549235"><ele>237.83333333333334</ele><time>2026-04-24T16:46:03.847Z</time></trkpt><trkpt lat="44.40616578869028" lon="11.410710727923325"><ele>238.66666666666669</ele><time>2026-04-24T16:46:06.847Z</time></trkpt><trkpt lat="44.406115328490145" lon="11.41081619030168"><ele>239.5</ele><time>2026-04-24T16:46:09.847Z</time></trkpt><trkpt lat="44.4060546534388" lon="11.41091158435113"><ele>240.33333333333334</ele><time>2026-04-24T16:46:12.847Z</time></trkpt><trkpt lat="44.406025590436016" lon="11.41099299012081"><ele>241.16666666666669</ele><time>2026-04-24T16:46:14.847Z</time></trkpt><trkpt lat="44.405975419318125" lon="11.411067285504249"><ele>242.0</ele><time>2026-04-24T16:46:16.847Z</time></trkpt><trkpt lat="44.40589080944298" lon="11.411113367520592"><ele>242.00000000000003</ele><time>2026-04-24T16:46:19.847Z</time></trkpt><trkpt lat="44.40581546664906" lon="11.411073159853036"><ele>242.0</ele><time>2026-04-24T16:46:22.847Z</time></trkpt><trkpt lat="44.40570149118708" lon="11.411037257307857"><ele>242.0</ele><time>2026-04-24T16:48:00.845Z</time></trkpt><trkpt lat="44.40562790762586" lon="11.411031521236076"><ele>242.0</ele><time>2026-04-24T16:48:01.845Z</time></trkpt><trkpt lat="44.405551072685846" lon="11.410993295799246"><ele>242.00000000000003</ele><time>2026-04-24T16:48:03.845Z</time></trkpt><trkpt lat="44.40548448865659" lon="11.410945521224015"><ele>242.0</ele><time>2026-04-24T16:48:06.845Z</time></trkpt><trkpt lat="44.40541196815876" lon="11.410966685892738"><ele>241.83333333333334</ele><time>2026-04-24T16:48:09.845Z</time></trkpt><trkpt lat="44.40533043618001" lon="11.410981402353068"><ele>241.66666666666669</ele><time>2026-04-24T16:48:12.845Z</time></trkpt><trkpt lat="44.40525143185654" lon="11.411026370598089"><ele>241.5</ele><time>2026-04-24T16:48:15.845Z</time></trkpt><trkpt lat="44.40517227715161" lon="11.411066498685338"><ele>241.33333333333331</ele><time>2026-04-24T16:48:18.845Z</time></trkpt><trkpt lat="44.40508860573111" lon="11.411094064415098"><ele>241.16666666666666</ele><time>2026-04-24T16:48:21.845Z</time></trkpt><trkpt lat="44.40500442064302" lon="11.411118746314258"><ele>241.0</ele><time>2026-04-24T16:48:23.845Z</time></trkpt><trkpt lat="44.40492378073082" lon="11.411136410852661"><ele>241.0</ele><time>2026-04-24T16:48:25.845Z</time></trkpt><trkpt lat="44.404848687222845" lon="11.411130496438812"><ele>241.00000000000003</ele><time>2026-04-24T16:48:27.845Z</time></trkpt><trkpt lat="44.40477123777805" lon="11.411125540218801"><ele>241.0</ele><time>2026-04-24T16:48:29.844Z</time></trkpt><trkpt lat="44.4047080687578" lon="11.411212450812798"><ele>241.0</ele><time>2026-04-24T16:48:40.844Z</time></trkpt><trkpt lat="44.40464460453978" lon="11.411253598333346"><ele>241.00000000000003</ele><time>2026-04-24T16:48:42.844Z</time></trkpt><trkpt lat="44.404577838210365" lon="11.411259389134798"><ele>241.0</ele><time>2026-04-24T16:48:45.844Z</time></trkpt><trkpt lat="44.404514012430155" lon="11.411220464680682"><ele>241.0</ele><time>2026-04-24T16:48:58.844Z</time></trkpt><trkpt lat="44.40447165124386" lon="11.411147417569024"><ele>241.85714285714286</ele><time>2026-04-24T16:49:04.844Z</time></trkpt><trkpt lat="44.404405879901404" lon="11.411114789164143"><ele>242.71428571428572</ele><time>2026-04-24T16:49:10.844Z</time></trkpt><trkpt lat="44.404352768809446" lon="11.411060463051106"><ele>243.57142857142858</ele><time>2026-04-24T16:49:27.844Z</time></trkpt><trkpt lat="44.404299805596" lon="11.41100615594227"><ele>244.42857142857144</ele><time>2026-04-24T16:49:34.844Z</time></trkpt><trkpt lat="44.40421848277764" lon="11.410998527007848"><ele>245.28571428571428</ele><time>2026-04-24T16:49:48.844Z</time></trkpt><trkpt lat="44.40414775955793" lon="11.411034815975071"><ele>246.14285714285717</ele><time>2026-04-24T16:49:51.844Z</time></trkpt><trkpt lat="44.404090328982704" lon="11.411087839874918"><ele>247.0</ele><time>2026-04-24T16:49:54.843Z</time></trkpt><trkpt lat="44.4040294609314" lon="11.411135214158024"><ele>247.0</ele><time>2026-04-24T16:49:57.844Z</time></trkpt><trkpt lat="44.40397004627559" lon="11.411187421796583"><ele>247.0</ele><time>2026-04-24T16:50:01.844Z</time></trkpt><trkpt lat="44.40392286683569" lon="11.41124588372649"><ele>247.0</ele><time>2026-04-24T16:50:17.844Z</time></trkpt><trkpt lat="44.40384775853798" lon="11.41127474527673"><ele>247.0</ele><time>2026-04-24T16:50:34.843Z</time></trkpt><trkpt lat="44.40378577365805" lon="11.411293330608835"><ele>247.0</ele><time>2026-04-24T16:50:37.846Z</time></trkpt><trkpt lat="44.403712657369155" lon="11.411285957006417"><ele>247.0</ele><time>2026-04-24T16:50:41.852Z</time></trkpt><trkpt lat="44.4036360368756" lon="11.41131433861648"><ele>247.0</ele><time>2026-04-24T16:50:45.857Z</time></trkpt><trkpt lat="44.403574926021335" lon="11.411349326142297"><ele>250.57142857142858</ele><time>2026-04-24T16:50:48.86Z</time></trkpt><trkpt lat="44.40352146305793" lon="11.411420463425923"><ele>254.1428571428571</ele><time>2026-04-24T16:50:51.863Z</time></trkpt><trkpt lat="44.40346800380316" lon="11.411504874452124"><ele>257.71428571428567</ele><time>2026-04-24T16:50:54.865Z</time></trkpt><trkpt lat="44.403439083670285" lon="11.411597830963872"><ele>261.2857142857143</ele><time>2026-04-24T16:50:57.867Z</time></trkpt><trkpt lat="44.40340312775954" lon="11.411682489006159"><ele>264.85714285714283</ele><time>2026-04-24T16:51:00.868Z</time></trkpt><trkpt lat="44.403373447862364" lon="11.411763563000257"><ele>268.4285714285714</ele><time>2026-04-24T16:51:03.869Z</time></trkpt><trkpt lat="44.40333021748653" lon="11.411843047031136"><ele>272.0</ele><time>2026-04-24T16:51:07.87Z</time></trkpt><trkpt lat="44.40325977370067" lon="11.411845148155265"><ele>271.99999999999994</ele><time>2026-04-24T16:51:11.871Z</time></trkpt><trkpt lat="44.403193908468424" lon="11.411852407665194"><ele>272.0</ele><time>2026-04-24T16:51:14.872Z</time></trkpt><trkpt lat="44.40312187985152" lon="11.411804647123423"><ele>272.0</ele><time>2026-04-24T16:51:17.872Z</time></trkpt><trkpt lat="44.40304918673525" lon="11.411777279610881"><ele>272.0</ele><time>2026-04-24T16:51:21.873Z</time></trkpt><trkpt lat="44.402996448288256" lon="11.411846005755601"><ele>272.0</ele><time>2026-04-24T16:51:25.873Z</time></trkpt><trkpt lat="44.40291843854473" lon="11.411832664779237"><ele>271.99999999999994</ele><time>2026-04-24T16:51:29.873Z</time></trkpt><trkpt lat="44.40285776381145" lon="11.41180375864172"><ele>272.0</ele><time>2026-04-24T16:51:31.873Z</time></trkpt><trkpt lat="44.402785616949785" lon="11.411777046768325"><ele>272.4285714285714</ele><time>2026-04-24T16:51:34.874Z</time></trkpt><trkpt lat="44.40272070086036" lon="11.411747941003465"><ele>272.85714285714283</ele><time>2026-04-24T16:51:40.874Z</time></trkpt><trkpt lat="44.40266111516204" lon="11.411719496367299"><ele>273.2857142857143</ele><time>2026-04-24T16:51:47.874Z</time></trkpt><trkpt lat="44.40257262207918" lon="11.41170030418625"><ele>273.71428571428567</ele><time>2026-04-24T16:52:02.874Z</time></trkpt><trkpt lat="44.40250086153516" lon="11.41168989715945"><ele>274.1428571428571</ele><time>2026-04-24T16:52:06.874Z</time></trkpt><trkpt lat="44.4024356288474" lon="11.411686893872716"><ele>274.57142857142856</ele><time>2026-04-24T16:52:10.874Z</time></trkpt><trkpt lat="44.40234723423912" lon="11.411689066097251"><ele>275.0</ele><time>2026-04-24T16:52:14.874Z</time></trkpt><trkpt lat="44.40228743569096" lon="11.411749037524325"><ele>275.0</ele><time>2026-04-24T16:52:18.874Z</time></trkpt><trkpt lat="44.402269171874615" lon="11.411846893563187"><ele>275.0</ele><time>2026-04-24T16:52:21.874Z</time></trkpt><trkpt lat="44.40227878395921" lon="11.41193648905426"><ele>275.0</ele><time>2026-04-24T16:52:24.874Z</time></trkpt><trkpt lat="44.402327216545345" lon="11.412004960784977"><ele>275.0</ele><time>2026-04-24T16:52:29.874Z</time></trkpt><trkpt lat="44.4023426917576" lon="11.412091806512413"><ele>275.0</ele><time>2026-04-24T16:52:36.874Z</time></trkpt><trkpt lat="44.4022597834505" lon="11.412113816254257"><ele>275.0</ele><time>2026-04-24T16:52:42.874Z</time></trkpt><trkpt lat="44.40215785816234" lon="11.412089868979352"><ele>274.83333333333337</ele><time>2026-04-24T16:52:44.874Z</time></trkpt><trkpt lat="44.40204621952696" lon="11.41204138344863"><ele>274.6666666666667</ele><time>2026-04-24T16:52:46.874Z</time></trkpt><trkpt lat="44.401982545975045" lon="11.41199293323744"><ele>274.5</ele><time>2026-04-24T16:52:47.874Z</time></trkpt><trkpt lat="44.40191464383613" lon="11.411955289297339"><ele>274.3333333333333</ele><time>2026-04-24T16:52:48.874Z</time></trkpt><trkpt lat="44.40184648087027" lon="11.411921507435373"><ele>274.16666666666663</ele><time>2026-04-24T16:52:49.874Z</time></trkpt><trkpt lat="44.40177692009146" lon="11.411897055333561"><ele>274.0</ele><time>2026-04-24T16:52:50.874Z</time></trkpt><trkpt lat="44.40170816935076" lon="11.411855817813008"><ele>274.0</ele><time>2026-04-24T16:52:51.874Z</time></trkpt><trkpt lat="44.4016339615366" lon="11.41179922944114"><ele>274.0</ele><time>2026-04-24T16:52:52.874Z</time></trkpt><trkpt lat="44.401554410112624" lon="11.411743814780342"><ele>274.0</ele><time>2026-04-24T16:52:53.874Z</time></trkpt><trkpt lat="44.40147716607307" lon="11.411682910186396"><ele>274.0</ele><time>2026-04-24T16:52:54.874Z</time></trkpt><trkpt lat="44.40139296494391" lon="11.41163163733681"><ele>274.0</ele><time>2026-04-24T16:52:55.874Z</time></trkpt><trkpt lat="44.401311469652235" lon="11.41158289571347"><ele>274.0</ele><time>2026-04-24T16:52:56.874Z</time></trkpt><trkpt lat="44.401228202570834" lon="11.411534302234514"><ele>272.8333333333333</ele><time>2026-04-24T16:52:57.874Z</time></trkpt><trkpt lat="44.40114651212443" lon="11.411485501834614"><ele>271.66666666666663</ele><time>2026-04-24T16:52:58.874Z</time></trkpt><trkpt lat="44.401063560541665" lon="11.411433491915918"><ele>270.5</ele><time>2026-04-24T16:52:59.874Z</time></trkpt><trkpt lat="44.40098213405006" lon="11.41138957581431"><ele>269.3333333333333</ele><time>2026-04-24T16:53:00.874Z</time></trkpt><trkpt lat="44.400900051761845" lon="11.411338447729504"><ele>268.1666666666667</ele><time>2026-04-24T16:53:01.874Z</time></trkpt><trkpt lat="44.400821112301195" lon="11.411286284882014"><ele>267.0</ele><time>2026-04-24T16:53:02.874Z</time></trkpt><trkpt lat="44.40073604322613" lon="11.411244925352563"><ele>266.3333333333333</ele><time>2026-04-24T16:53:03.874Z</time></trkpt><trkpt lat="44.4006544953702" lon="11.411202547110603"><ele>265.6666666666667</ele><time>2026-04-24T16:53:04.874Z</time></trkpt><trkpt lat="44.40057041127188" lon="11.411163138056942"><ele>265.0</ele><time>2026-04-24T16:53:05.874Z</time></trkpt><trkpt lat="44.40049182586767" lon="11.411105071665427"><ele>264.33333333333337</ele><time>2026-04-24T16:53:06.874Z</time></trkpt><trkpt lat="44.400409169574445" lon="11.411056257408587"><ele>263.6666666666667</ele><time>2026-04-24T16:53:07.874Z</time></trkpt><trkpt lat="44.400325741500794" lon="11.411004067708454"><ele>263.0</ele><time>2026-04-24T16:53:08.874Z</time></trkpt><trkpt lat="44.40024923238229" lon="11.410943393849498"><ele>263.0</ele><time>2026-04-24T16:53:09.874Z</time></trkpt><trkpt lat="44.40017345763962" lon="11.410875962320967"><ele>263.0</ele><time>2026-04-24T16:53:10.874Z</time></trkpt><trkpt lat="44.400086543122534" lon="11.410824561203814"><ele>263.0</ele><time>2026-04-24T16:53:11.874Z</time></trkpt><trkpt lat="44.40001094167721" lon="11.41073923203084"><ele>263.0</ele><time>2026-04-24T16:53:12.874Z</time></trkpt><trkpt lat="44.39993827856584" lon="11.410640228927075"><ele>263.0</ele><time>2026-04-24T16:53:13.874Z</time></trkpt><trkpt lat="44.39985679461424" lon="11.410537040477674"><ele>261.25</ele><time>2026-04-24T16:53:14.874Z</time></trkpt><trkpt lat="44.39977235647643" lon="11.410425404823645"><ele>259.5</ele><time>2026-04-24T16:53:15.874Z</time></trkpt><trkpt lat="44.39967775490595" lon="11.41032407705326"><ele>257.75</ele><time>2026-04-24T16:53:16.874Z</time></trkpt><trkpt lat="44.3995801145371" lon="11.410225027654212"><ele>256.0</ele><time>2026-04-24T16:53:17.874Z</time></trkpt><trkpt lat="44.39948437861138" lon="11.41012565949921"><ele>256.0</ele><time>2026-04-24T16:53:18.874Z</time></trkpt><trkpt lat="44.39939087452513" lon="11.4100267380087"><ele>256.0</ele><time>2026-04-24T16:53:19.874Z</time></trkpt><trkpt lat="44.399308682420305" lon="11.409931008187217"><ele>256.0</ele><time>2026-04-24T16:53:20.874Z</time></trkpt><trkpt lat="44.39923486375878" lon="11.409844028691857"><ele>256.0</ele><time>2026-04-24T16:53:21.874Z</time></trkpt><trkpt lat="44.399174389843814" lon="11.409747180769214"><ele>256.0</ele><time>2026-04-24T16:53:22.874Z</time></trkpt><trkpt lat="44.39910639666478" lon="11.409660317067509"><ele>253.60000000000002</ele><time>2026-04-24T16:53:23.874Z</time></trkpt><trkpt lat="44.39903761518265" lon="11.409566977751705"><ele>251.20000000000002</ele><time>2026-04-24T16:53:24.874Z</time></trkpt><trkpt lat="44.39897578725744" lon="11.409471081629963"><ele>248.79999999999998</ele><time>2026-04-24T16:53:25.874Z</time></trkpt><trkpt lat="44.39891724772802" lon="11.409369734794893"><ele>246.39999999999998</ele><time>2026-04-24T16:53:26.874Z</time></trkpt><trkpt lat="44.39886353789673" lon="11.409268096185928"><ele>244.0</ele><time>2026-04-24T16:53:27.874Z</time></trkpt><trkpt lat="44.39879691855145" lon="11.409174382820712"><ele>243.99999999999997</ele><time>2026-04-24T16:53:28.874Z</time></trkpt><trkpt lat="44.39876297902036" lon="11.409061646419817"><ele>244.0</ele><time>2026-04-24T16:53:29.874Z</time></trkpt><trkpt lat="44.39872587984668" lon="11.408957849732973"><ele>244.0</ele><time>2026-04-24T16:53:30.874Z</time></trkpt><trkpt lat="44.39869957721881" lon="11.408851240462129"><ele>244.0</ele><time>2026-04-24T16:53:31.874Z</time></trkpt><trkpt lat="44.398677690236596" lon="11.408723482709698"><ele>243.99999999999997</ele><time>2026-04-24T16:53:32.874Z</time></trkpt><trkpt lat="44.398658835156056" lon="11.408599737752528"><ele>244.0</ele><time>2026-04-24T16:53:33.874Z</time></trkpt><trkpt lat="44.39863874869303" lon="11.40846791129677"><ele>242.79999999999998</ele><time>2026-04-24T16:53:34.874Z</time></trkpt><trkpt lat="44.39861761047546" lon="11.40833599839786"><ele>241.59999999999997</ele><time>2026-04-24T16:53:35.874Z</time></trkpt><trkpt lat="44.39859194458694" lon="11.408214826409507"><ele>240.4</ele><time>2026-04-24T16:53:36.874Z</time></trkpt><trkpt lat="44.39857382874188" lon="11.408099019201607"><ele>239.2</ele><time>2026-04-24T16:53:37.874Z</time></trkpt><trkpt lat="44.398559961468784" lon="11.407992257310049"><ele>238.0</ele><time>2026-04-24T16:53:38.874Z</time></trkpt><trkpt lat="44.39853597203208" lon="11.407854440985512"><ele>237.0</ele><time>2026-04-24T16:53:40.874Z</time></trkpt><trkpt lat="44.39850854819044" lon="11.407711432968293"><ele>236.0</ele><time>2026-04-24T16:53:42.874Z</time></trkpt><trkpt lat="44.39846792641338" lon="11.407560622669129"><ele>235.0</ele><time>2026-04-24T16:53:44.874Z</time></trkpt><trkpt lat="44.39843327570833" lon="11.407434917827779"><ele>234.0</ele><time>2026-04-24T16:53:46.874Z</time></trkpt><trkpt lat="44.39838925611834" lon="11.407367336263533"><ele>233.0</ele><time>2026-04-24T16:54:01.874Z</time></trkpt><trkpt lat="44.3983528792135" lon="11.407447198974982"><ele>233.00000000000003</ele><time>2026-04-24T16:54:06.874Z</time></trkpt><trkpt lat="44.39836902506276" lon="11.40753362339857"><ele>233.0</ele><time>2026-04-24T16:54:09.874Z</time></trkpt><trkpt lat="44.398396838558114" lon="11.407638960051772"><ele>233.0</ele><time>2026-04-24T16:54:12.874Z</time></trkpt><trkpt lat="44.398423727772766" lon="11.407751684743578"><ele>233.0</ele><time>2026-04-24T16:54:15.874Z</time></trkpt><trkpt lat="44.39842989771659" lon="11.40785183405474"><ele>233.00000000000003</ele><time>2026-04-24T16:54:18.874Z</time></trkpt><trkpt lat="44.398412407307205" lon="11.407978138771488"><ele>233.0</ele><time>2026-04-24T16:54:22.874Z</time></trkpt><trkpt lat="44.398374508695134" lon="11.40807318965928"><ele>233.71428571428572</ele><time>2026-04-24T16:54:25.874Z</time></trkpt><trkpt lat="44.398328441508085" lon="11.408147918135967"><ele>234.42857142857142</ele><time>2026-04-24T16:54:28.874Z</time></trkpt><trkpt lat="44.39827111579835" lon="11.408199367010372"><ele>235.14285714285714</ele><time>2026-04-24T16:54:31.874Z</time></trkpt><trkpt lat="44.39822158361944" lon="11.408258811314461"><ele>235.85714285714286</ele><time>2026-04-24T16:54:34.874Z</time></trkpt><trkpt lat="44.39823524769466" lon="11.4083684272075"><ele>236.57142857142856</ele><time>2026-04-24T16:54:38.874Z</time></trkpt><trkpt lat="44.39827720656629" lon="11.408457899256941"><ele>237.28571428571428</ele><time>2026-04-24T16:54:41.874Z</time></trkpt><trkpt lat="44.39831323769592" lon="11.408551173881039"><ele>238.0</ele><time>2026-04-24T16:54:44.874Z</time></trkpt><trkpt lat="44.398338256207175" lon="11.408637024067177"><ele>238.0</ele><time>2026-04-24T16:54:47.874Z</time></trkpt><trkpt lat="44.398357672071256" lon="11.408746627151611"><ele>238.0</ele><time>2026-04-24T16:54:51.874Z</time></trkpt><trkpt lat="44.39838674249402" lon="11.408858859419794"><ele>238.0</ele><time>2026-04-24T16:54:55.874Z</time></trkpt><trkpt lat="44.39841281010002" lon="11.408944769452717"><ele>238.0</ele><time>2026-04-24T16:54:58.874Z</time></trkpt><trkpt lat="44.39843308076381" lon="11.409032490232475"><ele>238.0</ele><time>2026-04-24T16:55:01.874Z</time></trkpt><trkpt lat="44.39845523452929" lon="11.409141967668374"><ele>238.0</ele><time>2026-04-24T16:55:05.874Z</time></trkpt><trkpt lat="44.398464630950215" lon="11.409233150467903"><ele>238.0</ele><time>2026-04-24T16:55:08.874Z</time></trkpt><trkpt lat="44.398474854218634" lon="11.409337709997875"><ele>238.85714285714286</ele><time>2026-04-24T16:55:12.874Z</time></trkpt><trkpt lat="44.39849312729073" lon="11.409450310198388"><ele>239.71428571428572</ele><time>2026-04-24T16:55:16.874Z</time></trkpt><trkpt lat="44.39851271296661" lon="11.409537111524218"><ele>240.57142857142856</ele><time>2026-04-24T16:55:19.874Z</time></trkpt><trkpt lat="44.398538755144685" lon="11.409634927403687"><ele>241.42857142857142</ele><time>2026-04-24T16:55:23.874Z</time></trkpt><trkpt lat="44.398564693339836" lon="11.409723276665185"><ele>242.28571428571428</ele><time>2026-04-24T16:55:26.874Z</time></trkpt><trkpt lat="44.3985813514463" lon="11.409819223438507"><ele>243.1428571428571</ele><time>2026-04-24T16:55:30.874Z</time></trkpt><trkpt lat="44.39859661601252" lon="11.409910482360274"><ele>243.99999999999997</ele><time>2026-04-24T16:55:34.874Z</time></trkpt><trkpt lat="44.3986141916077" lon="11.410018747451845"><ele>244.99999999999997</ele><time>2026-04-24T16:55:38.874Z</time></trkpt><trkpt lat="44.39864102885624" lon="11.410121960530589"><ele>246.0</ele><time>2026-04-24T16:55:42.874Z</time></trkpt><trkpt lat="44.398644968280955" lon="11.410221772833367"><ele>246.99999999999997</ele><time>2026-04-24T16:55:45.874Z</time></trkpt><trkpt lat="44.398636570370854" lon="11.410309534713752"><ele>247.99999999999997</ele><time>2026-04-24T16:55:48.874Z</time></trkpt><trkpt lat="44.39863115435735" lon="11.410411508412055"><ele>249.0</ele><time>2026-04-24T16:55:51.874Z</time></trkpt><trkpt lat="44.398623206783604" lon="11.410506315365428"><ele>249.99999999999997</ele><time>2026-04-24T16:55:54.874Z</time></trkpt><trkpt lat="44.39859679142884" lon="11.41058930479662"><ele>250.99999999999997</ele><time>2026-04-24T16:55:57.874Z</time></trkpt><trkpt lat="44.398589573563136" lon="11.410677243559162"><ele>253.16666666666669</ele><time>2026-04-24T16:56:00.874Z</time></trkpt><trkpt lat="44.39859869693804" lon="11.410793556055944"><ele>255.33333333333334</ele><time>2026-04-24T16:56:04.874Z</time></trkpt><trkpt lat="44.39861026851491" lon="11.410903760488958"><ele>257.5</ele><time>2026-04-24T16:56:08.875Z</time></trkpt><trkpt lat="44.39860695467692" lon="11.410996979281313"><ele>259.6666666666667</ele><time>2026-04-24T16:56:12.874Z</time></trkpt><trkpt lat="44.39856273419277" lon="11.411079495763436"><ele>261.8333333333333</ele><time>2026-04-24T16:56:21.874Z</time></trkpt><trkpt lat="44.39852366572502" lon="11.411167098394023"><ele>264.0</ele><time>2026-04-24T16:56:25.874Z</time></trkpt><trkpt lat="44.39846823937129" lon="11.411234860078114"><ele>264.0</ele><time>2026-04-24T16:56:28.874Z</time></trkpt><trkpt lat="44.39839143953984" lon="11.41127450418227"><ele>264.0</ele><time>2026-04-24T16:56:31.874Z</time></trkpt><trkpt lat="44.39831098068415" lon="11.411305677452196"><ele>264.0</ele><time>2026-04-24T16:56:33.874Z</time></trkpt><trkpt lat="44.398234525956575" lon="11.411350432094315"><ele>264.0</ele><time>2026-04-24T16:56:35.874Z</time></trkpt><trkpt lat="44.398155256186456" lon="11.411380662783845"><ele>264.0</ele><time>2026-04-24T16:56:37.874Z</time></trkpt><trkpt lat="44.39807005649719" lon="11.41139325403859"><ele>264.0</ele><time>2026-04-24T16:56:39.874Z</time></trkpt><trkpt lat="44.39795895199238" lon="11.411407342699512"><ele>262.4</ele><time>2026-04-24T16:56:41.874Z</time></trkpt><trkpt lat="44.39785205509819" lon="11.411442186045887"><ele>260.79999999999995</ele><time>2026-04-24T16:56:43.874Z</time></trkpt><trkpt lat="44.397767247249604" lon="11.411482445878931"><ele>259.20000000000005</ele><time>2026-04-24T16:56:45.874Z</time></trkpt><trkpt lat="44.397688988239345" lon="11.411585438713193"><ele>257.6</ele><time>2026-04-24T16:56:47.874Z</time></trkpt><trkpt lat="44.3976024125777" lon="11.411654259093185"><ele>256.0</ele><time>2026-04-24T16:56:49.874Z</time></trkpt><trkpt lat="44.397532274774214" lon="11.411731502045384"><ele>256.0</ele><time>2026-04-24T16:56:51.874Z</time></trkpt><trkpt lat="44.397468922042016" lon="11.41180343286699"><ele>255.99999999999997</ele><time>2026-04-24T16:56:53.874Z</time></trkpt><trkpt lat="44.39740917153505" lon="11.411864227939462"><ele>256.0</ele><time>2026-04-24T16:56:55.874Z</time></trkpt><trkpt lat="44.397349209389745" lon="11.411900805758396"><ele>256.0</ele><time>2026-04-24T16:56:58.874Z</time></trkpt><trkpt lat="44.39728268216437" lon="11.411928066524283"><ele>255.99999999999997</ele><time>2026-04-24T16:57:01.874Z</time></trkpt><trkpt lat="44.39720548272236" lon="11.411959148199763"><ele>256.0</ele><time>2026-04-24T16:57:04.874Z</time></trkpt><trkpt lat="44.39714356789406" lon="11.412008591998893"><ele>256.0</ele><time>2026-04-24T16:57:07.874Z</time></trkpt><trkpt lat="44.397069775116215" lon="11.41204436807238"><ele>256.3333333333333</ele><time>2026-04-24T16:57:11.874Z</time></trkpt><trkpt lat="44.39699920179621" lon="11.412075370724384"><ele>256.66666666666663</ele><time>2026-04-24T16:57:14.874Z</time></trkpt><trkpt lat="44.39693590999656" lon="11.41210441751006"><ele>257.0</ele><time>2026-04-24T16:57:17.874Z</time></trkpt><trkpt lat="44.39686832764925" lon="11.412146087048255"><ele>257.3333333333333</ele><time>2026-04-24T16:57:20.874Z</time></trkpt><trkpt lat="44.3967957505188" lon="11.412184888861312"><ele>257.6666666666667</ele><time>2026-04-24T16:57:23.874Z</time></trkpt><trkpt lat="44.396715496935194" lon="11.412208739059169"><ele>258.0</ele><time>2026-04-24T16:57:26.874Z</time></trkpt><trkpt lat="44.39663926841342" lon="11.412220664648821"><ele>258.0</ele><time>2026-04-24T16:57:29.874Z</time></trkpt><trkpt lat="44.39656318112843" lon="11.412236983796928"><ele>258.0</ele><time>2026-04-24T16:57:32.874Z</time></trkpt><trkpt lat="44.396492697930505" lon="11.412261197518102"><ele>258.0</ele><time>2026-04-24T16:57:35.874Z</time></trkpt><trkpt lat="44.39641405044125" lon="11.412279076352657"><ele>258.0</ele><time>2026-04-24T16:57:38.874Z</time></trkpt><trkpt lat="44.396339952918034" lon="11.412285507230948"><ele>258.0</ele><time>2026-04-24T16:57:41.874Z</time></trkpt><trkpt lat="44.39626718177244" lon="11.412294422422923"><ele>258.0</ele><time>2026-04-24T16:57:44.874Z</time></trkpt><trkpt lat="44.396194121172854" lon="11.412306377163706"><ele>259.8333333333333</ele><time>2026-04-24T16:57:47.874Z</time></trkpt><trkpt lat="44.396118227095045" lon="11.412320322569395"><ele>261.6666666666667</ele><time>2026-04-24T16:57:50.874Z</time></trkpt><trkpt lat="44.39604257189833" lon="11.41232328400961"><ele>263.5</ele><time>2026-04-24T16:57:53.874Z</time></trkpt><trkpt lat="44.395970859560165" lon="11.412336517639124"><ele>265.33333333333337</ele><time>2026-04-24T16:57:56.874Z</time></trkpt><trkpt lat="44.39588841190869" lon="11.41235609297192"><ele>267.1666666666667</ele><time>2026-04-24T16:58:00.874Z</time></trkpt><trkpt lat="44.39580801031385" lon="11.412375781049528"><ele>269.0</ele><time>2026-04-24T16:58:04.874Z</time></trkpt><trkpt lat="44.3957384285578" lon="11.412391626952896"><ele>269.0</ele><time>2026-04-24T16:58:08.874Z</time></trkpt><trkpt lat="44.39566633558372" lon="11.412412683633837"><ele>269.0</ele><time>2026-04-24T16:58:12.875Z</time></trkpt><trkpt lat="44.39560808525431" lon="11.412472070087489"><ele>269.0</ele><time>2026-04-24T16:58:16.874Z</time></trkpt><trkpt lat="44.39553396918553" lon="11.412536967252294"><ele>269.0</ele><time>2026-04-24T16:58:20.874Z</time></trkpt><trkpt lat="44.39549251362156" lon="11.412617693456848"><ele>269.0</ele><time>2026-04-24T16:58:23.874Z</time></trkpt><trkpt lat="44.39544668649401" lon="11.412720690372332"><ele>269.0</ele><time>2026-04-24T16:58:27.874Z</time></trkpt><trkpt lat="44.395411195296" lon="11.412799186063962"><ele>269.7142857142857</ele><time>2026-04-24T16:58:30.874Z</time></trkpt><trkpt lat="44.39536699091566" lon="11.412888841365683"><ele>270.42857142857144</ele><time>2026-04-24T16:58:34.874Z</time></trkpt><trkpt lat="44.39532015413385" lon="11.412974373968217"><ele>271.14285714285717</ele><time>2026-04-24T16:58:38.874Z</time></trkpt><trkpt lat="44.39527720209495" lon="11.413039723809394"><ele>271.8571428571429</ele><time>2026-04-24T16:58:41.874Z</time></trkpt><trkpt lat="44.39521043593561" lon="11.413109230778394"><ele>272.57142857142856</ele><time>2026-04-24T16:58:45.874Z</time></trkpt><trkpt lat="44.39514899024563" lon="11.413160751793491"><ele>273.28571428571433</ele><time>2026-04-24T16:58:49.874Z</time></trkpt><trkpt lat="44.39507522145434" lon="11.413157144478603"><ele>274.0</ele><time>2026-04-24T16:58:54.873Z</time></trkpt><trkpt lat="44.39500022631775" lon="11.413138057444993"><ele>275.16666666666663</ele><time>2026-04-24T16:58:57.873Z</time></trkpt><trkpt lat="44.39492813423744" lon="11.41311052806287"><ele>276.3333333333333</ele><time>2026-04-24T16:58:59.873Z</time></trkpt><trkpt lat="44.39484231719203" lon="11.413087533816755"><ele>277.5</ele><time>2026-04-24T16:59:01.873Z</time></trkpt><trkpt lat="44.39474169514997" lon="11.413067064976882"><ele>278.6666666666667</ele><time>2026-04-24T16:59:03.873Z</time></trkpt><trkpt lat="44.39462675993947" lon="11.41303986980724"><ele>279.83333333333337</ele><time>2026-04-24T16:59:05.873Z</time></trkpt><trkpt lat="44.3945640251931" lon="11.413027574409341"><ele>281.0</ele><time>2026-04-24T16:59:06.873Z</time></trkpt><trkpt lat="44.39444699092041" lon="11.413014760601403"><ele>278.2</ele><time>2026-04-24T16:59:08.873Z</time></trkpt><trkpt lat="44.394342317159094" lon="11.413020068826548"><ele>275.40000000000003</ele><time>2026-04-24T16:59:10.873Z</time></trkpt><trkpt lat="44.39424993883826" lon="11.413015610234359"><ele>272.6</ele><time>2026-04-24T16:59:12.873Z</time></trkpt><trkpt lat="44.394137507707" lon="11.413012806543017"><ele>269.8</ele><time>2026-04-24T16:59:14.873Z</time></trkpt><trkpt lat="44.394045912724174" lon="11.413004767476261"><ele>267.0</ele><time>2026-04-24T16:59:16.873Z</time></trkpt><trkpt lat="44.39393590108185" lon="11.413007275521723"><ele>267.0</ele><time>2026-04-24T16:59:18.873Z</time></trkpt><trkpt lat="44.393869864884486" lon="11.413011777776743"><ele>267.0</ele><time>2026-04-24T16:59:19.873Z</time></trkpt><trkpt lat="44.39379297472599" lon="11.413022467148252"><ele>267.0</ele><time>2026-04-24T16:59:20.873Z</time></trkpt><trkpt lat="44.3937196418827" lon="11.413039841122142"><ele>267.0</ele><time>2026-04-24T16:59:21.873Z</time></trkpt><trkpt lat="44.39365153957903" lon="11.413066700284164"><ele>267.0</ele><time>2026-04-24T16:59:22.873Z</time></trkpt><trkpt lat="44.39357804837352" lon="11.413108815286261"><ele>267.0</ele><time>2026-04-24T16:59:23.873Z</time></trkpt><trkpt lat="44.393499208265" lon="11.413180496859969"><ele>263.8333333333333</ele><time>2026-04-24T16:59:24.873Z</time></trkpt><trkpt lat="44.39341699347163" lon="11.41321372580799"><ele>260.6666666666667</ele><time>2026-04-24T16:59:25.873Z</time></trkpt><trkpt lat="44.393338187014514" lon="11.413259020243801"><ele>257.5</ele><time>2026-04-24T16:59:26.873Z</time></trkpt><trkpt lat="44.39326512884139" lon="11.413308435237727"><ele>254.33333333333334</ele><time>2026-04-24T16:59:27.873Z</time></trkpt><trkpt lat="44.39319295811562" lon="11.413338184940429"><ele>251.16666666666669</ele><time>2026-04-24T16:59:28.873Z</time></trkpt><trkpt lat="44.393090860008684" lon="11.413384653923442"><ele>248.0</ele><time>2026-04-24T16:59:30.873Z</time></trkpt><trkpt lat="44.39300805921383" lon="11.413468389985328"><ele>247.00000000000003</ele><time>2026-04-24T16:59:32.873Z</time></trkpt><trkpt lat="44.39292926973227" lon="11.413523551944914"><ele>246.0</ele><time>2026-04-24T16:59:34.873Z</time></trkpt><trkpt lat="44.392857062131846" lon="11.4135656846417"><ele>245.0</ele><time>2026-04-24T16:59:37.873Z</time></trkpt><trkpt lat="44.39279053883378" lon="11.413594813251839"><ele>244.0</ele><time>2026-04-24T16:59:40.873Z</time></trkpt><trkpt lat="44.39271544801469" lon="11.413632820084453"><ele>243.00000000000003</ele><time>2026-04-24T16:59:43.873Z</time></trkpt><trkpt lat="44.3926449487257" lon="11.413667195007084"><ele>242.0</ele><time>2026-04-24T16:59:46.873Z</time></trkpt><trkpt lat="44.39257080334393" lon="11.413700158850695"><ele>242.00000000000003</ele><time>2026-04-24T16:59:49.873Z</time></trkpt><trkpt lat="44.39249951552638" lon="11.413733494200274"><ele>242.0</ele><time>2026-04-24T16:59:52.873Z</time></trkpt><trkpt lat="44.39242549601221" lon="11.413760908963281"><ele>242.0</ele><time>2026-04-24T16:59:55.873Z</time></trkpt><trkpt lat="44.39233911507147" lon="11.413786424263003"><ele>242.0</ele><time>2026-04-24T16:59:58.873Z</time></trkpt><trkpt lat="44.39227528994001" lon="11.413806025543398"><ele>242.00000000000003</ele><time>2026-04-24T17:00:00.873Z</time></trkpt><trkpt lat="44.39221048034782" lon="11.413827908402666"><ele>242.0</ele><time>2026-04-24T17:00:02.873Z</time></trkpt><trkpt lat="44.39212286731307" lon="11.413853805791641"><ele>242.50000000000003</ele><time>2026-04-24T17:00:47.874Z</time></trkpt><trkpt lat="44.39205149810664" lon="11.413864614227657"><ele>243.0</ele><time>2026-04-24T17:00:50.874Z</time></trkpt><trkpt lat="44.39198726360079" lon="11.413865420916672"><ele>243.5</ele><time>2026-04-24T17:00:52.874Z</time></trkpt><trkpt lat="44.39189717672544" lon="11.41387036145057"><ele>244.0</ele><time>2026-04-24T17:00:55.874Z</time></trkpt><trkpt lat="44.391813713839326" lon="11.413871330330798"><ele>244.50000000000003</ele><time>2026-04-24T17:00:58.874Z</time></trkpt><trkpt lat="44.391728833279174" lon="11.413854999350045"><ele>245.0</ele><time>2026-04-24T17:01:01.874Z</time></trkpt><trkpt lat="44.391645815631534" lon="11.413851820515301"><ele>245.00000000000003</ele><time>2026-04-24T17:01:04.874Z</time></trkpt><trkpt lat="44.39156601502328" lon="11.413866621168122"><ele>245.0</ele><time>2026-04-24T17:01:07.874Z</time></trkpt><trkpt lat="44.391487058081104" lon="11.413889390101136"><ele>245.0</ele><time>2026-04-24T17:01:10.874Z</time></trkpt><trkpt lat="44.39141000772388" lon="11.413924091728687"><ele>245.0</ele><time>2026-04-24T17:01:13.874Z</time></trkpt><trkpt lat="44.39132986460695" lon="11.413951482930349"><ele>245.00000000000003</ele><time>2026-04-24T17:01:16.874Z</time></trkpt><trkpt lat="44.39125909963693" lon="11.413999192290625"><ele>245.0</ele><time>2026-04-24T17:01:19.874Z</time></trkpt><trkpt lat="44.39118442287954" lon="11.414041098479473"><ele>246.83333333333334</ele><time>2026-04-24T17:01:22.874Z</time></trkpt><trkpt lat="44.391111080497154" lon="11.414089751466177"><ele>248.66666666666669</ele><time>2026-04-24T17:01:25.874Z</time></trkpt><trkpt lat="44.39104401496504" lon="11.414130195405217"><ele>250.5</ele><time>2026-04-24T17:01:28.874Z</time></trkpt><trkpt lat="44.390968335435474" lon="11.414153776419516"><ele>252.33333333333331</ele><time>2026-04-24T17:01:31.874Z</time></trkpt><trkpt lat="44.39089414011069" lon="11.414169191339129"><ele>254.16666666666666</ele><time>2026-04-24T17:01:34.874Z</time></trkpt><trkpt lat="44.39082088903012" lon="11.414185137119215"><ele>256.0</ele><time>2026-04-24T17:01:37.874Z</time></trkpt><trkpt lat="44.390741934069645" lon="11.41416197704212"><ele>255.99999999999997</ele><time>2026-04-24T17:01:40.874Z</time></trkpt><trkpt lat="44.39066608130914" lon="11.414143155488267"><ele>256.0</ele><time>2026-04-24T17:01:43.874Z</time></trkpt><trkpt lat="44.39059402241733" lon="11.414103588722398"><ele>256.0</ele><time>2026-04-24T17:01:46.874Z</time></trkpt><trkpt lat="44.39051616420799" lon="11.414066308228698"><ele>256.0</ele><time>2026-04-24T17:01:49.874Z</time></trkpt><trkpt lat="44.390445093801816" lon="11.414018053685654"><ele>255.99999999999997</ele><time>2026-04-24T17:01:52.874Z</time></trkpt><trkpt lat="44.39037574508644" lon="11.413981020470729"><ele>256.0</ele><time>2026-04-24T17:01:55.874Z</time></trkpt><trkpt lat="44.3903093952109" lon="11.413922915010689"><ele>256.16666666666663</ele><time>2026-04-24T17:01:58.874Z</time></trkpt><trkpt lat="44.39024851499139" lon="11.413958528086365"><ele>256.3333333333333</ele><time>2026-04-24T17:02:03.873Z</time></trkpt><trkpt lat="44.390254175191004" lon="11.414068547868702"><ele>256.5</ele><time>2026-04-24T17:02:07.873Z</time></trkpt><trkpt lat="44.39024404694407" lon="11.414200120596423"><ele>256.6666666666667</ele><time>2026-04-24T17:02:10.873Z</time></trkpt><trkpt lat="44.39022892598528" lon="11.414320956241957"><ele>256.83333333333337</ele><time>2026-04-24T17:02:12.873Z</time></trkpt><trkpt lat="44.39021378892026" lon="11.41446691978589"><ele>257.0</ele><time>2026-04-24T17:02:14.873Z</time></trkpt><trkpt lat="44.390180091925174" lon="11.41463302646901"><ele>255.66666666666669</ele><time>2026-04-24T17:02:16.873Z</time></trkpt><trkpt lat="44.39013737403604" lon="11.414754463686096"><ele>254.33333333333334</ele><time>2026-04-24T17:02:18.874Z</time></trkpt><trkpt lat="44.39015928359078" lon="11.414848121369488"><ele>253.0</ele><time>2026-04-24T17:02:20.875Z</time></trkpt><trkpt lat="44.39017827957877" lon="11.41497218939581"><ele>251.66666666666669</ele><time>2026-04-24T17:02:22.874Z</time></trkpt><trkpt lat="44.39016964389733" lon="11.415073142016995"><ele>250.33333333333334</ele><time>2026-04-24T17:02:24.874Z</time></trkpt><trkpt lat="44.39014852709734" lon="11.415169729551796"><ele>249.0</ele><time>2026-04-24T17:02:26.874Z</time></trkpt><trkpt lat="44.390125357272545" lon="11.415253353861738"><ele>249.0</ele><time>2026-04-24T17:02:28.874Z</time></trkpt><trkpt lat="44.390100063000936" lon="11.415339541378021"><ele>249.0</ele><time>2026-04-24T17:02:30.874Z</time></trkpt><trkpt lat="44.39005827234699" lon="11.415455095415918"><ele>249.0</ele><time>2026-04-24T17:02:33.874Z</time></trkpt><trkpt lat="44.39001659714573" lon="11.415558834315606"><ele>249.0</ele><time>2026-04-24T17:02:35.874Z</time></trkpt><trkpt lat="44.389962608698326" lon="11.415662462066235"><ele>249.0</ele><time>2026-04-24T17:02:37.874Z</time></trkpt><trkpt lat="44.38991452247826" lon="11.415754616520038"><ele>249.0</ele><time>2026-04-24T17:02:40.874Z</time></trkpt><trkpt lat="44.389851058966684" lon="11.415837475334179"><ele>247.6</ele><time>2026-04-24T17:02:43.874Z</time></trkpt><trkpt lat="44.38978944596014" lon="11.415904682955766"><ele>246.2</ele><time>2026-04-24T17:03:32.873Z</time></trkpt><trkpt lat="44.389716307486154" lon="11.415993453235556"><ele>244.79999999999998</ele><time>2026-04-24T17:03:34.873Z</time></trkpt><trkpt lat="44.38962709943808" lon="11.416101810100146"><ele>243.39999999999998</ele><time>2026-04-24T17:03:36.873Z</time></trkpt><trkpt lat="44.38957725409164" lon="11.416171877928733"><ele>242.0</ele><time>2026-04-24T17:03:38.873Z</time></trkpt><trkpt lat="44.38951558363753" lon="11.416273698238241"><ele>237.6</ele><time>2026-04-24T17:03:41.873Z</time></trkpt><trkpt lat="44.38949005608036" lon="11.416403417246798"><ele>233.2</ele><time>2026-04-24T17:03:43.873Z</time></trkpt><trkpt lat="44.389452813825926" lon="11.416542349008148"><ele>228.8</ele><time>2026-04-24T17:03:45.873Z</time></trkpt><trkpt lat="44.38941714278824" lon="11.416701812110611"><ele>224.4</ele><time>2026-04-24T17:03:47.873Z</time></trkpt><trkpt lat="44.38939905437296" lon="11.416816011524999"><ele>220.0</ele><time>2026-04-24T17:03:49.873Z</time></trkpt><trkpt lat="44.38937307309753" lon="11.416907404969189"><ele>219.99999999999997</ele><time>2026-04-24T17:03:51.873Z</time></trkpt><trkpt lat="44.38936225664022" lon="11.417005090729958"><ele>220.0</ele><time>2026-04-24T17:03:54.873Z</time></trkpt><trkpt lat="44.38934535394274" lon="11.417117969529945"><ele>220.0</ele><time>2026-04-24T17:03:56.873Z</time></trkpt><trkpt lat="44.38933493485247" lon="11.417247943795571"><ele>220.0</ele><time>2026-04-24T17:03:58.873Z</time></trkpt><trkpt lat="44.38933059960145" lon="11.417367736714917"><ele>219.99999999999997</ele><time>2026-04-24T17:04:00.873Z</time></trkpt><trkpt lat="44.3893213568806" lon="11.417485096991747"><ele>220.0</ele><time>2026-04-24T17:04:03.873Z</time></trkpt><trkpt lat="44.3893090254393" lon="11.417642583417528"><ele>220.49999999999997</ele><time>2026-04-24T17:04:05.873Z</time></trkpt><trkpt lat="44.38931366682483" lon="11.417751265489283"><ele>221.0</ele><time>2026-04-24T17:04:07.873Z</time></trkpt><trkpt lat="44.38939290807202" lon="11.417769155055943"><ele>221.5</ele><time>2026-04-24T17:04:23.873Z</time></trkpt><trkpt lat="44.389467884150505" lon="11.417730226714303"><ele>222.0</ele><time>2026-04-24T17:04:26.874Z</time></trkpt><trkpt lat="44.38955279849151" lon="11.417722840092916"><ele>222.49999999999997</ele><time>2026-04-24T17:04:29.875Z</time></trkpt><trkpt lat="44.389616741258514" lon="11.417729210171794"><ele>223.0</ele><time>2026-04-24T17:04:31.874Z</time></trkpt><trkpt lat="44.389679384166385" lon="11.41773933548091"><ele>223.0</ele><time>2026-04-24T17:04:33.875Z</time></trkpt><trkpt lat="44.38974166156794" lon="11.417764458539448"><ele>223.0</ele><time>2026-04-24T17:04:35.874Z</time></trkpt><trkpt lat="44.389814461704155" lon="11.417789856405454"><ele>223.0</ele><time>2026-04-24T17:04:37.874Z</time></trkpt><trkpt lat="44.38987019191716" lon="11.417852691070546"><ele>223.0</ele><time>2026-04-24T17:04:39.874Z</time></trkpt><trkpt lat="44.38991814318039" lon="11.417918678312395"><ele>223.0</ele><time>2026-04-24T17:04:41.874Z</time></trkpt><trkpt lat="44.38997371470591" lon="11.41796375164624"><ele>223.0</ele><time>2026-04-24T17:04:43.874Z</time></trkpt><trkpt lat="44.390057236514025" lon="11.418030782440226"><ele>223.0</ele><time>2026-04-24T17:04:46.874Z</time></trkpt><trkpt lat="44.39012983815632" lon="11.418017102652817"><ele>222.83333333333331</ele><time>2026-04-24T17:04:48.874Z</time></trkpt><trkpt lat="44.390192776997736" lon="11.417993762647248"><ele>222.66666666666666</ele><time>2026-04-24T17:04:50.874Z</time></trkpt><trkpt lat="44.39026169636964" lon="11.417991494562916"><ele>222.5</ele><time>2026-04-24T17:04:52.873Z</time></trkpt><trkpt lat="44.39034478100574" lon="11.418010174708233"><ele>222.33333333333331</ele><time>2026-04-24T17:04:55.873Z</time></trkpt><trkpt lat="44.39043546154778" lon="11.418000473824177"><ele>222.16666666666666</ele><time>2026-04-24T17:04:58.873Z</time></trkpt><trkpt lat="44.39050522594761" lon="11.417985773349871"><ele>222.0</ele><time>2026-04-24T17:05:00.873Z</time></trkpt><trkpt lat="44.390588421050495" lon="11.417968139721992"><ele>221.5</ele><time>2026-04-24T17:05:02.873Z</time></trkpt><trkpt lat="44.390666454715415" lon="11.417937895268572"><ele>221.0</ele><time>2026-04-24T17:05:04.873Z</time></trkpt><trkpt lat="44.39074695484753" lon="11.417917719142611"><ele>220.5</ele><time>2026-04-24T17:05:06.873Z</time></trkpt><trkpt lat="44.390829838572536" lon="11.417904640392695"><ele>220.0</ele><time>2026-04-24T17:05:08.873Z</time></trkpt><trkpt lat="44.39092585363021" lon="11.417900754105405"><ele>219.5</ele><time>2026-04-24T17:05:10.873Z</time></trkpt><trkpt lat="44.39101870838379" lon="11.417906199460703"><ele>219.0</ele><time>2026-04-24T17:05:12.873Z</time></trkpt><trkpt lat="44.3911097308614" lon="11.417920783688505"><ele>219.0</ele><time>2026-04-24T17:05:14.873Z</time></trkpt><trkpt lat="44.39119238901197" lon="11.417967249428846"><ele>218.99999999999997</ele><time>2026-04-24T17:05:16.873Z</time></trkpt><trkpt lat="44.39126714718804" lon="11.418063316548754"><ele>218.99999999999997</ele><time>2026-04-24T17:05:18.873Z</time></trkpt><trkpt lat="44.39131551626424" lon="11.41824539104761"><ele>219.0</ele><time>2026-04-24T17:05:20.873Z</time></trkpt><trkpt lat="44.391326476186016" lon="11.418340766064981"><ele>219.0</ele><time>2026-04-24T17:05:21.873Z</time></trkpt><trkpt lat="44.39134099646884" lon="11.418441890431911"><ele>213.2</ele><time>2026-04-24T17:05:22.873Z</time></trkpt><trkpt lat="44.39136895551854" lon="11.418598789173988"><ele>207.39999999999998</ele><time>2026-04-24T17:05:24.873Z</time></trkpt><trkpt lat="44.39140802853215" lon="11.41874507307512"><ele>201.6</ele><time>2026-04-24T17:05:26.873Z</time></trkpt><trkpt lat="44.39146183562225" lon="11.418916327482288"><ele>195.8</ele><time>2026-04-24T17:05:28.873Z</time></trkpt><trkpt lat="44.391476010952545" lon="11.419027118520145"><ele>190.0</ele><time>2026-04-24T17:05:29.873Z</time></trkpt><trkpt lat="44.39148704044687" lon="11.419129056051487"><ele>190.0</ele><time>2026-04-24T17:05:30.873Z</time></trkpt><trkpt lat="44.39150950659114" lon="11.419238615203188"><ele>190.0</ele><time>2026-04-24T17:05:31.873Z</time></trkpt><trkpt lat="44.39151311027255" lon="11.419338604288159"><ele>190.0</ele><time>2026-04-24T17:05:32.873Z</time></trkpt><trkpt lat="44.39152317856242" lon="11.419510424112199"><ele>190.0</ele><time>2026-04-24T17:05:34.873Z</time></trkpt><trkpt lat="44.391524575874186" lon="11.41960523432939"><ele>190.0</ele><time>2026-04-24T17:05:35.873Z</time></trkpt><trkpt lat="44.39152902716096" lon="11.41975692052527"><ele>189.0</ele><time>2026-04-24T17:05:37.873Z</time></trkpt><trkpt lat="44.391543149246104" lon="11.419877885775415"><ele>188.0</ele><time>2026-04-24T17:05:39.873Z</time></trkpt><trkpt lat="44.391550246793784" lon="11.42002538515616"><ele>187.0</ele><time>2026-04-24T17:05:41.873Z</time></trkpt><trkpt lat="44.3915807147547" lon="11.420182028953091"><ele>186.0</ele><time>2026-04-24T17:05:43.873Z</time></trkpt><trkpt lat="44.39161381158607" lon="11.42032284846574"><ele>185.0</ele><time>2026-04-24T17:05:45.873Z</time></trkpt><trkpt lat="44.39166422281944" lon="11.420469141490782"><ele>184.6</ele><time>2026-04-24T17:05:47.873Z</time></trkpt><trkpt lat="44.391721230531516" lon="11.420607211970635"><ele>184.2</ele><time>2026-04-24T17:05:49.873Z</time></trkpt><trkpt lat="44.391787430666845" lon="11.420739783644738"><ele>183.8</ele><time>2026-04-24T17:05:51.873Z</time></trkpt><trkpt lat="44.391841829259086" lon="11.420839647342909"><ele>183.4</ele><time>2026-04-24T17:05:53.873Z</time></trkpt><trkpt lat="44.391893127911146" lon="11.420963853714051"><ele>183.0</ele><time>2026-04-24T17:05:55.873Z</time></trkpt><trkpt lat="44.39192783440238" lon="11.421110733042022"><ele>183.0</ele><time>2026-04-24T17:05:57.873Z</time></trkpt><trkpt lat="44.3919468476053" lon="11.42124058066165"><ele>183.0</ele><time>2026-04-24T17:05:59.873Z</time></trkpt><trkpt lat="44.391979558439914" lon="11.421371562561184"><ele>183.0</ele><time>2026-04-24T17:06:01.873Z</time></trkpt><trkpt lat="44.39198145722253" lon="11.421507320099225"><ele>183.0</ele><time>2026-04-24T17:06:03.873Z</time></trkpt><trkpt lat="44.391983434096424" lon="11.421633311430151"><ele>183.0</ele><time>2026-04-24T17:06:06.873Z</time></trkpt><trkpt lat="44.391968532224716" lon="11.4217484490353"><ele>181.8</ele><time>2026-04-24T17:06:08.873Z</time></trkpt><trkpt lat="44.39196373931371" lon="11.421877903188792"><ele>180.60000000000002</ele><time>2026-04-24T17:06:10.873Z</time></trkpt><trkpt lat="44.39195460906613" lon="11.422016601451693"><ele>179.39999999999998</ele><time>2026-04-24T17:06:12.873Z</time></trkpt><trkpt lat="44.391951610676735" lon="11.422141193997753"><ele>178.2</ele><time>2026-04-24T17:06:14.873Z</time></trkpt><trkpt lat="44.391959501644216" lon="11.422262386944062"><ele>177.0</ele><time>2026-04-24T17:06:16.873Z</time></trkpt><trkpt lat="44.39198176886885" lon="11.42239392849281"><ele>173.8</ele><time>2026-04-24T17:06:18.873Z</time></trkpt><trkpt lat="44.39202667945275" lon="11.422550072768864"><ele>170.6</ele><time>2026-04-24T17:06:20.873Z</time></trkpt><trkpt lat="44.39205734063082" lon="11.42263526450458"><ele>167.4</ele><time>2026-04-24T17:06:21.873Z</time></trkpt><trkpt lat="44.39211845022973" lon="11.422784041017328"><ele>164.20000000000002</ele><time>2026-04-24T17:06:23.873Z</time></trkpt><trkpt lat="44.39216686597093" lon="11.422900683953378"><ele>161.0</ele><time>2026-04-24T17:06:25.873Z</time></trkpt><trkpt lat="44.39221098550251" lon="11.422963675483954"><ele>158.4</ele><time>2026-04-24T17:06:26.873Z</time></trkpt><trkpt lat="44.39226190225753" lon="11.423069801850268"><ele>155.8</ele><time>2026-04-24T17:06:28.873Z</time></trkpt><trkpt lat="44.392312490364006" lon="11.423189904477345"><ele>153.20000000000002</ele><time>2026-04-24T17:06:30.874Z</time></trkpt><trkpt lat="44.392381463414715" lon="11.423328663005313"><ele>150.60000000000002</ele><time>2026-04-24T17:06:32.875Z</time></trkpt><trkpt lat="44.392446219021494" lon="11.42344306216884"><ele>148.0</ele><time>2026-04-24T17:06:34.874Z</time></trkpt><trkpt lat="44.39249051666992" lon="11.423551772304805"><ele>148.0</ele><time>2026-04-24T17:06:36.874Z</time></trkpt><trkpt lat="44.39251272931121" lon="11.423638866688894"><ele>148.0</ele><time>2026-04-24T17:06:56.888Z</time></trkpt><trkpt lat="44.39258928219834" lon="11.42367670905957"><ele>148.0</ele><time>2026-04-24T17:06:59.889Z</time></trkpt><trkpt lat="44.39267318159038" lon="11.423639875437965"><ele>148.0</ele><time>2026-04-24T17:07:02.89Z</time></trkpt><trkpt lat="44.39270139961945" lon="11.423548160742067"><ele>148.0</ele><time>2026-04-24T17:07:04.89Z</time></trkpt><trkpt lat="44.39270192096626" lon="11.423456138134098"><ele>148.0</ele><time>2026-04-24T17:07:06.891Z</time></trkpt><trkpt lat="44.39268051169292" lon="11.423338878654999"><ele>148.0</ele><time>2026-04-24T17:07:09.891Z</time></trkpt><trkpt lat="44.392665024255614" lon="11.423224572300144"><ele>148.0</ele><time>2026-04-24T17:07:12.892Z</time></trkpt><trkpt lat="44.39262561898997" lon="11.423120164192431"><ele>148.0</ele><time>2026-04-24T17:07:15.892Z</time></trkpt><trkpt lat="44.392597538679205" lon="11.423004126859656"><ele>148.0</ele><time>2026-04-24T17:07:18.892Z</time></trkpt><trkpt lat="44.39256690892438" lon="11.422906419648934"><ele>148.0</ele><time>2026-04-24T17:07:21.892Z</time></trkpt><trkpt lat="44.39255808309172" lon="11.422783402620844"><ele>148.0</ele><time>2026-04-24T17:07:24.893Z</time></trkpt><trkpt lat="44.39254861117002" lon="11.4226871993121"><ele>148.0</ele><time>2026-04-24T17:07:26.893Z</time></trkpt><trkpt lat="44.39254043766473" lon="11.42259770486058"><ele>148.0</ele><time>2026-04-24T17:07:28.893Z</time></trkpt><trkpt lat="44.39253139989274" lon="11.422507533133547"><ele>148.0</ele><time>2026-04-24T17:07:30.893Z</time></trkpt><trkpt lat="44.39253272710258" lon="11.422383482382255"><ele>148.0</ele><time>2026-04-24T17:07:33.893Z</time></trkpt><trkpt lat="44.392538967970935" lon="11.42229088721298"><ele>148.0</ele><time>2026-04-24T17:07:35.893Z</time></trkpt><trkpt lat="44.39255337364642" lon="11.422176735499857"><ele>148.0</ele><time>2026-04-24T17:07:37.893Z</time></trkpt><trkpt lat="44.392571693005785" lon="11.422058951996199"><ele>147.75</ele><time>2026-04-24T17:07:39.893Z</time></trkpt><trkpt lat="44.39259181419662" lon="11.42192844368181"><ele>147.5</ele><time>2026-04-24T17:07:41.893Z</time></trkpt><trkpt lat="44.39261471857738" lon="11.421776690417245"><ele>147.25</ele><time>2026-04-24T17:07:43.893Z</time></trkpt><trkpt lat="44.39279001489448" lon="11.421592943214664"><ele>147.0</ele><time>2026-04-24T17:07:45.893Z</time></trkpt><trkpt lat="44.392779823125174" lon="11.421431768250539"><ele>147.0</ele><time>2026-04-24T17:07:47.893Z</time></trkpt><trkpt lat="44.39277784531518" lon="11.421341099498987"><ele>147.0</ele><time>2026-04-24T17:07:48.893Z</time></trkpt><trkpt lat="44.39277493025637" lon="11.421250805615529"><ele>147.0</ele><time>2026-04-24T17:07:49.893Z</time></trkpt><trkpt lat="44.39277759784217" lon="11.421070814309685"><ele>147.0</ele><time>2026-04-24T17:07:51.893Z</time></trkpt><trkpt lat="44.39278881242725" lon="11.420977721050699"><ele>147.0</ele><time>2026-04-24T17:07:52.893Z</time></trkpt><trkpt lat="44.39280874314473" lon="11.420891463742654"><ele>147.0</ele><time>2026-04-24T17:07:53.893Z</time></trkpt><trkpt lat="44.39284287223794" lon="11.420798740845262"><ele>146.79999999999998</ele><time>2026-04-24T17:07:54.893Z</time></trkpt><trkpt lat="44.39293399962605" lon="11.420704464446748"><ele>146.6</ele><time>2026-04-24T17:07:56.893Z</time></trkpt><trkpt lat="44.39303919278131" lon="11.420665825377268"><ele>146.39999999999998</ele><time>2026-04-24T17:07:58.893Z</time></trkpt><trkpt lat="44.393125951394815" lon="11.420738190601874"><ele>146.2</ele><time>2026-04-24T17:08:00.893Z</time></trkpt><trkpt lat="44.39314068338514" lon="11.420824003297717"><ele>146.0</ele><time>2026-04-24T17:08:01.893Z</time></trkpt><trkpt lat="44.393183105823304" lon="11.4209338983654"><ele>146.0</ele><time>2026-04-24T17:08:03.893Z</time></trkpt><trkpt lat="44.39322098256863" lon="11.421010784212"><ele>146.0</ele><time>2026-04-24T17:08:04.893Z</time></trkpt><trkpt lat="44.39324105609299" lon="11.421100448020773"><ele>146.0</ele><time>2026-04-24T17:08:05.893Z</time></trkpt><trkpt lat="44.39326512374723" lon="11.421192446613091"><ele>146.0</ele><time>2026-04-24T17:08:06.893Z</time></trkpt><trkpt lat="44.39328693205119" lon="11.421285432489432"><ele>146.0</ele><time>2026-04-24T17:08:07.893Z</time></trkpt><trkpt lat="44.393311096863904" lon="11.421380685809643"><ele>146.0</ele><time>2026-04-24T17:08:08.893Z</time></trkpt><trkpt lat="44.39331838769146" lon="11.421493251095889"><ele>146.0</ele><time>2026-04-24T17:08:09.893Z</time></trkpt><trkpt lat="44.39333924637505" lon="11.421591682438576"><ele>144.66666666666666</ele><time>2026-04-24T17:08:10.893Z</time></trkpt><trkpt lat="44.39337523727277" lon="11.421681654692447"><ele>143.33333333333331</ele><time>2026-04-24T17:08:11.893Z</time></trkpt><trkpt lat="44.39338312953885" lon="11.421798765444272"><ele>142.0</ele><time>2026-04-24T17:08:12.893Z</time></trkpt><trkpt lat="44.39340231375349" lon="11.421889295148155"><ele>140.66666666666666</ele><time>2026-04-24T17:08:13.893Z</time></trkpt><trkpt lat="44.39342388115798" lon="11.421990651826711"><ele>139.33333333333334</ele><time>2026-04-24T17:08:14.893Z</time></trkpt><trkpt lat="44.39344669523394" lon="11.422094667998202"><ele>138.0</ele><time>2026-04-24T17:08:15.893Z</time></trkpt><trkpt lat="44.393470575803775" lon="11.42220354643183"><ele>137.42857142857144</ele><time>2026-04-24T17:08:16.893Z</time></trkpt><trkpt lat="44.39349568407948" lon="11.422310979971964"><ele>136.85714285714286</ele><time>2026-04-24T17:08:17.893Z</time></trkpt><trkpt lat="44.39353397311133" lon="11.422399788080341"><ele>136.28571428571428</ele><time>2026-04-24T17:08:18.893Z</time></trkpt><trkpt lat="44.393557137932916" lon="11.422499113255506"><ele>135.71428571428572</ele><time>2026-04-24T17:08:19.893Z</time></trkpt><trkpt lat="44.39357992976046" lon="11.422591718753749"><ele>135.14285714285714</ele><time>2026-04-24T17:08:20.893Z</time></trkpt><trkpt lat="44.39360242182809" lon="11.422685700467266"><ele>134.57142857142858</ele><time>2026-04-24T17:08:21.893Z</time></trkpt><trkpt lat="44.39362653020642" lon="11.42278582892424"><ele>134.0</ele><time>2026-04-24T17:08:22.893Z</time></trkpt><trkpt lat="44.393650744366916" lon="11.422870716771095"><ele>134.0</ele><time>2026-04-24T17:08:23.893Z</time></trkpt><trkpt lat="44.39366022560288" lon="11.422974151306542"><ele>134.0</ele><time>2026-04-24T17:08:24.893Z</time></trkpt><trkpt lat="44.39371396553925" lon="11.423127516582102"><ele>134.0</ele><time>2026-04-24T17:08:26.893Z</time></trkpt><trkpt lat="44.39373472084099" lon="11.423263082213973"><ele>134.0</ele><time>2026-04-24T17:08:28.893Z</time></trkpt><trkpt lat="44.393774705028655" lon="11.423356090205642"><ele>134.0</ele><time>2026-04-24T17:08:30.893Z</time></trkpt><trkpt lat="44.39379440240864" lon="11.423456169696829"><ele>134.0</ele><time>2026-04-24T17:08:32.893Z</time></trkpt><trkpt lat="44.39382998492682" lon="11.423600325953391"><ele>132.6</ele><time>2026-04-24T17:08:34.893Z</time></trkpt><trkpt lat="44.39386762200514" lon="11.423736992202867"><ele>131.2</ele><time>2026-04-24T17:08:36.894Z</time></trkpt><trkpt lat="44.39389169665003" lon="11.423822392349098"><ele>129.79999999999998</ele><time>2026-04-24T17:08:37.894Z</time></trkpt><trkpt lat="44.39392942411229" lon="11.42396267140879"><ele>128.4</ele><time>2026-04-24T17:08:39.895Z</time></trkpt><trkpt lat="44.39396858803473" lon="11.42408153486379"><ele>127.0</ele><time>2026-04-24T17:08:41.895Z</time></trkpt><trkpt lat="44.39400587771011" lon="11.42422353751088"><ele>126.19999999999999</ele><time>2026-04-24T17:08:43.895Z</time></trkpt><trkpt lat="44.39403771805418" lon="11.424364002483571"><ele>125.39999999999999</ele><time>2026-04-24T17:08:45.894Z</time></trkpt><trkpt lat="44.39407103119649" lon="11.424501207659775"><ele>124.60000000000001</ele><time>2026-04-24T17:08:47.895Z</time></trkpt><trkpt lat="44.39411562935707" lon="11.42464585541902"><ele>123.80000000000001</ele><time>2026-04-24T17:08:49.895Z</time></trkpt><trkpt lat="44.39416886136182" lon="11.424794989034615"><ele>123.0</ele><time>2026-04-24T17:08:51.895Z</time></trkpt><trkpt lat="44.39417881864353" lon="11.42496559326347"><ele>123.0</ele><time>2026-04-24T17:08:53.895Z</time></trkpt><trkpt lat="44.39417847011558" lon="11.4250919552167"><ele>123.00000000000001</ele><time>2026-04-24T17:08:55.895Z</time></trkpt><trkpt lat="44.394201087768465" lon="11.425219131975643"><ele>123.00000000000001</ele><time>2026-04-24T17:08:57.895Z</time></trkpt><trkpt lat="44.394236867149715" lon="11.42534098743501"><ele>123.0</ele><time>2026-04-24T17:08:59.895Z</time></trkpt><trkpt lat="44.39425895652369" lon="11.425465841347732"><ele>123.0</ele><time>2026-04-24T17:09:01.895Z</time></trkpt><trkpt lat="44.394263789021714" lon="11.425577954245114"><ele>122.2</ele><time>2026-04-24T17:09:03.895Z</time></trkpt><trkpt lat="44.394285930322624" lon="11.425713356667138"><ele>121.4</ele><time>2026-04-24T17:09:05.895Z</time></trkpt><trkpt lat="44.39430709701982" lon="11.42584495069389"><ele>120.60000000000001</ele><time>2026-04-24T17:09:07.895Z</time></trkpt><trkpt lat="44.39433747713766" lon="11.425954280734398"><ele>119.80000000000001</ele><time>2026-04-24T17:09:09.895Z</time></trkpt><trkpt lat="44.39440020688528" lon="11.426030133185792"><ele>119.0</ele><time>2026-04-24T17:09:39.894Z</time></trkpt><trkpt lat="44.394399143409565" lon="11.426154535921745"><ele>119.0</ele><time>2026-04-24T17:09:42.894Z</time></trkpt><trkpt lat="44.39442053260711" lon="11.426240942178715"><ele>119.0</ele><time>2026-04-24T17:09:44.894Z</time></trkpt><trkpt lat="44.394429001152695" lon="11.426370029383182"><ele>119.0</ele><time>2026-04-24T17:09:46.894Z</time></trkpt><trkpt lat="44.394442786014935" lon="11.426517712952286"><ele>119.0</ele><time>2026-04-24T17:09:48.894Z</time></trkpt><trkpt lat="44.39446822846147" lon="11.426660803958235"><ele>119.0</ele><time>2026-04-24T17:09:50.894Z</time></trkpt><trkpt lat="44.39449116789344" lon="11.426797389772492"><ele>117.99999999999999</ele><time>2026-04-24T17:09:52.894Z</time></trkpt><trkpt lat="44.39451185322139" lon="11.426912759297117"><ele>117.0</ele><time>2026-04-24T17:09:54.894Z</time></trkpt><trkpt lat="44.39456934040935" lon="11.426982202319644"><ele>116.0</ele><time>2026-04-24T17:09:59.894Z</time></trkpt><trkpt lat="44.39462324034721" lon="11.427040742151144"><ele>115.0</ele><time>2026-04-24T17:10:03.894Z</time></trkpt><trkpt lat="44.39469194164677" lon="11.427030210693518"><ele>113.99999999999999</ele><time>2026-04-24T17:10:06.894Z</time></trkpt><trkpt lat="44.394767545265395" lon="11.427003557765843"><ele>113.0</ele><time>2026-04-24T17:10:09.894Z</time></trkpt><trkpt lat="44.39484931990527" lon="11.426943359945179"><ele>112.60000000000001</ele><time>2026-04-24T17:10:12.894Z</time></trkpt><trkpt lat="44.39474611225368" lon="11.42699943820237"><ele>112.20000000000002</ele><time>2026-04-24T17:10:20.894Z</time></trkpt><trkpt lat="44.394675326699925" lon="11.427020949948895"><ele>111.8</ele><time>2026-04-24T17:10:23.894Z</time></trkpt><trkpt lat="44.39477536222295" lon="11.426995651676974"><ele>111.4</ele><time>2026-04-24T17:18:27.9Z</time></trkpt><trkpt lat="44.39486395008194" lon="11.42695947301885"><ele>111.0</ele><time>2026-04-24T17:18:30.9Z</time></trkpt><trkpt lat="44.39493603303004" lon="11.426940319076962"><ele>111.0</ele><time>2026-04-24T17:18:32.9Z</time></trkpt><trkpt lat="44.39500146965698" lon="11.426937194613073"><ele>111.0</ele><time>2026-04-24T17:18:34.9Z</time></trkpt><trkpt lat="44.395079358818776" lon="11.426918031376271"><ele>111.0</ele><time>2026-04-24T17:18:36.9Z</time></trkpt><trkpt lat="44.39518286082385" lon="11.426890634359728"><ele>111.0</ele><time>2026-04-24T17:18:38.9Z</time></trkpt><trkpt lat="44.39528282630259" lon="11.42687256737161"><ele>111.0</ele><time>2026-04-24T17:18:40.9Z</time></trkpt><trkpt lat="44.39537639494634" lon="11.426846289283283"><ele>111.0</ele><time>2026-04-24T17:18:42.9Z</time></trkpt><trkpt lat="44.39546928591496" lon="11.426829556744183"><ele>111.0</ele><time>2026-04-24T17:18:44.9Z</time></trkpt><trkpt lat="44.39556795673559" lon="11.426804056262993"><ele>111.0</ele><time>2026-04-24T17:18:46.9Z</time></trkpt><trkpt lat="44.39566902375703" lon="11.42678918985852"><ele>111.0</ele><time>2026-04-24T17:18:48.9Z</time></trkpt><trkpt lat="44.395770535838395" lon="11.426763967206652"><ele>111.0</ele><time>2026-04-24T17:18:50.9Z</time></trkpt><trkpt lat="44.39587510459454" lon="11.426744652211466"><ele>111.0</ele><time>2026-04-24T17:18:52.9Z</time></trkpt><trkpt lat="44.39597390994919" lon="11.426719418051976"><ele>111.0</ele><time>2026-04-24T17:18:54.9Z</time></trkpt><trkpt lat="44.396072351843806" lon="11.426692242436019"><ele>111.0</ele><time>2026-04-24T17:18:56.9Z</time></trkpt><trkpt lat="44.396171758744615" lon="11.426678652849185"><ele>111.0</ele><time>2026-04-24T17:18:58.9Z</time></trkpt><trkpt lat="44.396267048782335" lon="11.42665981416741"><ele>111.0</ele><time>2026-04-24T17:19:00.9Z</time></trkpt><trkpt lat="44.39636666456674" lon="11.426637430103167"><ele>111.0</ele><time>2026-04-24T17:19:02.9Z</time></trkpt><trkpt lat="44.396467021650615" lon="11.42662024242584"><ele>110.4</ele><time>2026-04-24T17:19:04.9Z</time></trkpt><trkpt lat="44.39656734199301" lon="11.426598211416849"><ele>109.8</ele><time>2026-04-24T17:19:06.901Z</time></trkpt><trkpt lat="44.396661416464774" lon="11.42657187361256"><ele>109.20000000000002</ele><time>2026-04-24T17:19:08.901Z</time></trkpt><trkpt lat="44.39675149398529" lon="11.426547574558352"><ele>108.60000000000001</ele><time>2026-04-24T17:19:10.901Z</time></trkpt><trkpt lat="44.39684293985482" lon="11.426539356771551"><ele>108.0</ele><time>2026-04-24T17:19:12.901Z</time></trkpt><trkpt lat="44.39693435301464" lon="11.426511257161843"><ele>108.0</ele><time>2026-04-24T17:19:14.901Z</time></trkpt><trkpt lat="44.3970306875324" lon="11.426485548747458"><ele>108.00000000000001</ele><time>2026-04-24T17:19:16.901Z</time></trkpt><trkpt lat="44.39713083055498" lon="11.426446986422253"><ele>108.00000000000001</ele><time>2026-04-24T17:19:18.901Z</time></trkpt><trkpt lat="44.39723248425763" lon="11.426398137900005"><ele>108.0</ele><time>2026-04-24T17:19:20.901Z</time></trkpt><trkpt lat="44.39733284585519" lon="11.426347828359777"><ele>108.0</ele><time>2026-04-24T17:19:22.901Z</time></trkpt><trkpt lat="44.39744402305334" lon="11.426309472566764"><ele>108.4</ele><time>2026-04-24T17:19:24.901Z</time></trkpt><trkpt lat="44.39754445292853" lon="11.426245006989122"><ele>108.80000000000001</ele><time>2026-04-24T17:19:26.901Z</time></trkpt><trkpt lat="44.397646674365326" lon="11.426191901107535"><ele>109.2</ele><time>2026-04-24T17:19:28.901Z</time></trkpt><trkpt lat="44.397748441796544" lon="11.426129154299371"><ele>109.6</ele><time>2026-04-24T17:19:30.901Z</time></trkpt><trkpt lat="44.39784974537998" lon="11.42607006191582"><ele>110.0</ele><time>2026-04-24T17:19:32.901Z</time></trkpt><trkpt lat="44.397959503729986" lon="11.4260099904186"><ele>110.0</ele><time>2026-04-24T17:19:34.901Z</time></trkpt><trkpt lat="44.3980675769296" lon="11.4259511409424"><ele>110.0</ele><time>2026-04-24T17:19:36.901Z</time></trkpt><trkpt lat="44.39817154234977" lon="11.425891644738927"><ele>110.0</ele><time>2026-04-24T17:19:38.901Z</time></trkpt><trkpt lat="44.3982846814032" lon="11.425829192503047"><ele>110.0</ele><time>2026-04-24T17:19:40.901Z</time></trkpt><trkpt lat="44.39839995715098" lon="11.42575679513842"><ele>110.0</ele><time>2026-04-24T17:19:42.901Z</time></trkpt><trkpt lat="44.398511258820776" lon="11.425686013250061"><ele>110.0</ele><time>2026-04-24T17:19:44.901Z</time></trkpt><trkpt lat="44.39862017562099" lon="11.425627343783646"><ele>110.0</ele><time>2026-04-24T17:19:46.901Z</time></trkpt><trkpt lat="44.3987339412705" lon="11.425563118848379"><ele>110.0</ele><time>2026-04-24T17:19:48.901Z</time></trkpt><trkpt lat="44.398841450770185" lon="11.425493551550328"><ele>109.75</ele><time>2026-04-24T17:19:50.901Z</time></trkpt><trkpt lat="44.398954043061345" lon="11.425434752636999"><ele>109.5</ele><time>2026-04-24T17:19:52.901Z</time></trkpt><trkpt lat="44.39906741482661" lon="11.425374482882237"><ele>109.25</ele><time>2026-04-24T17:19:54.901Z</time></trkpt><trkpt lat="44.399177150203464" lon="11.425316426654723"><ele>109.0</ele><time>2026-04-24T17:19:56.901Z</time></trkpt><trkpt lat="44.39928489910015" lon="11.42525727326178"><ele>109.0</ele><time>2026-04-24T17:19:58.901Z</time></trkpt><trkpt lat="44.39939154304901" lon="11.425199629969716"><ele>109.0</ele><time>2026-04-24T17:20:00.901Z</time></trkpt><trkpt lat="44.39949154920223" lon="11.425130979489438"><ele>109.0</ele><time>2026-04-24T17:20:02.901Z</time></trkpt><trkpt lat="44.39959598232518" lon="11.425068066473242"><ele>109.0</ele><time>2026-04-24T17:20:04.901Z</time></trkpt><trkpt lat="44.399705668117825" lon="11.425005871144464"><ele>108.25</ele><time>2026-04-24T17:20:06.901Z</time></trkpt><trkpt lat="44.399814571982766" lon="11.424943125660171"><ele>107.5</ele><time>2026-04-24T17:20:08.901Z</time></trkpt><trkpt lat="44.39992211484241" lon="11.424885573291723"><ele>106.75</ele><time>2026-04-24T17:20:10.901Z</time></trkpt><trkpt lat="44.400030848204274" lon="11.424823849062882"><ele>106.0</ele><time>2026-04-24T17:20:12.901Z</time></trkpt><trkpt lat="44.40014328960666" lon="11.42476072348964"><ele>106.0</ele><time>2026-04-24T17:20:14.901Z</time></trkpt><trkpt lat="44.40025540936235" lon="11.424696146484283"><ele>106.0</ele><time>2026-04-24T17:20:16.901Z</time></trkpt><trkpt lat="44.400363406699284" lon="11.424629344670068"><ele>106.0</ele><time>2026-04-24T17:20:18.901Z</time></trkpt><trkpt lat="44.400473874302584" lon="11.424563380360933"><ele>106.0</ele><time>2026-04-24T17:20:20.901Z</time></trkpt><trkpt lat="44.40057826621413" lon="11.424491564766585"><ele>105.83333333333334</ele><time>2026-04-24T17:20:22.901Z</time></trkpt><trkpt lat="44.400636585213896" lon="11.424457565073407"><ele>105.66666666666667</ele><time>2026-04-24T17:20:23.901Z</time></trkpt><trkpt lat="44.40069590666449" lon="11.424425421017762"><ele>105.5</ele><time>2026-04-24T17:20:24.901Z</time></trkpt><trkpt lat="44.400754550838116" lon="11.424390275647971"><ele>105.33333333333334</ele><time>2026-04-24T17:20:25.901Z</time></trkpt><trkpt lat="44.40087562744975" lon="11.42433157021756"><ele>105.16666666666667</ele><time>2026-04-24T17:20:27.901Z</time></trkpt><trkpt lat="44.40099395955882" lon="11.424257635081474"><ele>105.0</ele><time>2026-04-24T17:20:29.901Z</time></trkpt><trkpt lat="44.40110626227203" lon="11.42418864351045"><ele>105.0</ele><time>2026-04-24T17:20:31.901Z</time></trkpt><trkpt lat="44.40116514616527" lon="11.424157113358646"><ele>105.0</ele><time>2026-04-24T17:20:32.901Z</time></trkpt><trkpt lat="44.401268446897674" lon="11.424091299556878"><ele>105.0</ele><time>2026-04-24T17:20:34.901Z</time></trkpt><trkpt lat="44.401377960500106" lon="11.424033974728829"><ele>105.0</ele><time>2026-04-24T17:20:36.901Z</time></trkpt><trkpt lat="44.40148932646574" lon="11.42396837420895"><ele>105.0</ele><time>2026-04-24T17:20:38.9Z</time></trkpt><trkpt lat="44.40159797658342" lon="11.423902556447263"><ele>104.25</ele><time>2026-04-24T17:20:40.9Z</time></trkpt><trkpt lat="44.401710313324365" lon="11.423841704566899"><ele>103.5</ele><time>2026-04-24T17:20:42.9Z</time></trkpt><trkpt lat="44.40181410089082" lon="11.423777306905391"><ele>102.75</ele><time>2026-04-24T17:20:44.9Z</time></trkpt><trkpt lat="44.40191990544269" lon="11.423714062194769"><ele>102.0</ele><time>2026-04-24T17:20:46.9Z</time></trkpt><trkpt lat="44.40202523154459" lon="11.423653349620514"><ele>102.19999999999999</ele><time>2026-04-24T17:20:48.9Z</time></trkpt><trkpt lat="44.402135710622346" lon="11.423584556749578"><ele>102.4</ele><time>2026-04-24T17:20:50.9Z</time></trkpt><trkpt lat="44.402200248164434" lon="11.423570221672223"><ele>102.6</ele><time>2026-04-24T17:20:51.9Z</time></trkpt><trkpt lat="44.40225728342935" lon="11.42353025976643"><ele>102.80000000000001</ele><time>2026-04-24T17:20:52.9Z</time></trkpt><trkpt lat="44.40236767979585" lon="11.423465261876192"><ele>103.0</ele><time>2026-04-24T17:20:54.9Z</time></trkpt><trkpt lat="44.402471608842475" lon="11.423400472362419"><ele>103.0</ele><time>2026-04-24T17:20:56.9Z</time></trkpt><trkpt lat="44.40258200163979" lon="11.423340129341822"><ele>103.0</ele><time>2026-04-24T17:20:58.9Z</time></trkpt><trkpt lat="44.40268780307528" lon="11.423279821020534"><ele>103.0</ele><time>2026-04-24T17:21:00.9Z</time></trkpt><trkpt lat="44.40278062869348" lon="11.423226219225693"><ele>103.0</ele><time>2026-04-24T17:21:02.9Z</time></trkpt><trkpt lat="44.40286904590043" lon="11.42317406835622"><ele>103.0</ele><time>2026-04-24T17:21:04.9Z</time></trkpt><trkpt lat="44.40294895296362" lon="11.423121429140469"><ele>103.00000000000001</ele><time>2026-04-24T17:21:06.9Z</time></trkpt><trkpt lat="44.40303794992456" lon="11.423083484074194"><ele>103.0</ele><time>2026-04-24T17:21:08.9Z</time></trkpt><trkpt lat="44.40312191596251" lon="11.423027965522346"><ele>103.0</ele><time>2026-04-24T17:21:10.9Z</time></trkpt><trkpt lat="44.40319339035041" lon="11.422982514790439"><ele>103.0</ele><time>2026-04-24T17:21:12.902Z</time></trkpt><trkpt lat="44.40326479029178" lon="11.422939189821662"><ele>103.00000000000001</ele><time>2026-04-24T17:21:14.902Z</time></trkpt><trkpt lat="44.40332264310714" lon="11.422894504164779"><ele>103.0</ele><time>2026-04-24T17:21:16.901Z</time></trkpt><trkpt lat="44.40338227687559" lon="11.422853300334921"><ele>106.4</ele><time>2026-04-24T17:21:18.902Z</time></trkpt><trkpt lat="44.40346448769811" lon="11.422820906419838"><ele>109.80000000000001</ele><time>2026-04-24T17:21:20.902Z</time></trkpt><trkpt lat="44.4035491075382" lon="11.422785042703156"><ele>113.2</ele><time>2026-04-24T17:21:22.902Z</time></trkpt><trkpt lat="44.40364529020419" lon="11.422764701572826"><ele>116.6</ele><time>2026-04-24T17:21:24.902Z</time></trkpt><trkpt lat="44.40375209225761" lon="11.422752144590302"><ele>120.0</ele><time>2026-04-24T17:21:26.902Z</time></trkpt><trkpt lat="44.40385424758874" lon="11.422727594551395"><ele>120.0</ele><time>2026-04-24T17:21:28.902Z</time></trkpt><trkpt lat="44.40406662521573" lon="11.422731927485883"><ele>120.0</ele><time>2026-04-24T17:21:32.902Z</time></trkpt><trkpt lat="44.40413116629997" lon="11.42274703120417"><ele>120.0</ele><time>2026-04-24T17:21:33.902Z</time></trkpt><trkpt lat="44.40436321136761" lon="11.422777321795593"><ele>120.0</ele><time>2026-04-24T17:21:37.902Z</time></trkpt><trkpt lat="44.4044577225333" lon="11.42280909394699"><ele>120.0</ele><time>2026-04-24T17:21:39.902Z</time></trkpt><trkpt lat="44.40454383846023" lon="11.422825431661103"><ele>120.0</ele><time>2026-04-24T17:21:41.902Z</time></trkpt><trkpt lat="44.40463452740431" lon="11.422852649049705"><ele>120.0</ele><time>2026-04-24T17:21:43.902Z</time></trkpt><trkpt lat="44.40471417625141" lon="11.422900637740977"><ele>120.0</ele><time>2026-04-24T17:21:45.902Z</time></trkpt><trkpt lat="44.40478196433914" lon="11.422959272178005"><ele>120.0</ele><time>2026-04-24T17:21:47.902Z</time></trkpt><trkpt lat="44.40489088973549" lon="11.423018525835646"><ele>118.33333333333333</ele><time>2026-04-24T17:21:49.902Z</time></trkpt><trkpt lat="44.40495107657772" lon="11.423052511175866"><ele>116.66666666666666</ele><time>2026-04-24T17:21:50.902Z</time></trkpt><trkpt lat="44.40501239375611" lon="11.42309900753132"><ele>115.0</ele><time>2026-04-24T17:21:51.902Z</time></trkpt><trkpt lat="44.405062597633865" lon="11.42315915138859"><ele>113.33333333333333</ele><time>2026-04-24T17:21:52.902Z</time></trkpt><trkpt lat="44.40511436072427" lon="11.42321197721111"><ele>111.66666666666666</ele><time>2026-04-24T17:21:53.902Z</time></trkpt><trkpt lat="44.405166367972576" lon="11.423277485866127"><ele>110.0</ele><time>2026-04-24T17:21:54.902Z</time></trkpt><trkpt lat="44.40525741817852" lon="11.423386031518662"><ele>109.99999999999999</ele><time>2026-04-24T17:21:56.902Z</time></trkpt><trkpt lat="44.405294061332114" lon="11.42345876959836"><ele>110.0</ele><time>2026-04-24T17:21:57.902Z</time></trkpt><trkpt lat="44.40533793760229" lon="11.423522316834614"><ele>110.0</ele><time>2026-04-24T17:21:58.902Z</time></trkpt><trkpt lat="44.405383284594386" lon="11.423587994226109"><ele>110.0</ele><time>2026-04-24T17:21:59.902Z</time></trkpt><trkpt lat="44.40543323142373" lon="11.423657132087516"><ele>110.0</ele><time>2026-04-24T17:22:00.902Z</time></trkpt><trkpt lat="44.405484536396926" lon="11.4237262919155"><ele>109.99999999999999</ele><time>2026-04-24T17:22:01.902Z</time></trkpt><trkpt lat="44.40553653721286" lon="11.423796389664346"><ele>110.0</ele><time>2026-04-24T17:22:02.902Z</time></trkpt><trkpt lat="44.405590649651" lon="11.423869333947035"><ele>108.49999999999999</ele><time>2026-04-24T17:22:03.902Z</time></trkpt><trkpt lat="44.40564904327156" lon="11.423946193459788"><ele>107.0</ele><time>2026-04-24T17:22:04.902Z</time></trkpt><trkpt lat="44.40571717528894" lon="11.424021621289299"><ele>105.5</ele><time>2026-04-24T17:22:05.902Z</time></trkpt><trkpt lat="44.405774737774806" lon="11.42409662207707"><ele>104.0</ele><time>2026-04-24T17:22:06.902Z</time></trkpt><trkpt lat="44.40584127183244" lon="11.42416576844037"><ele>102.49999999999999</ele><time>2026-04-24T17:22:07.902Z</time></trkpt><trkpt lat="44.405911785090076" lon="11.424229734666502"><ele>101.0</ele><time>2026-04-24T17:22:08.902Z</time></trkpt><trkpt lat="44.40597798516101" lon="11.424301433205818"><ele>100.99999999999999</ele><time>2026-04-24T17:22:09.902Z</time></trkpt><trkpt lat="44.406046409339346" lon="11.42437013579226"><ele>101.0</ele><time>2026-04-24T17:22:10.902Z</time></trkpt><trkpt lat="44.40611567888871" lon="11.424429884999656"><ele>101.0</ele><time>2026-04-24T17:22:11.902Z</time></trkpt><trkpt lat="44.406183431173304" lon="11.424480042361019"><ele>101.0</ele><time>2026-04-24T17:22:12.902Z</time></trkpt><trkpt lat="44.406252310398735" lon="11.424527139750486"><ele>100.99999999999999</ele><time>2026-04-24T17:22:13.902Z</time></trkpt><trkpt lat="44.40632501870628" lon="11.424570723267214"><ele>101.0</ele><time>2026-04-24T17:22:14.902Z</time></trkpt><trkpt lat="44.406400053306896" lon="11.424598918349158"><ele>100.49999999999999</ele><time>2026-04-24T17:22:15.902Z</time></trkpt><trkpt lat="44.40647771064508" lon="11.424625313642846"><ele>100.0</ele><time>2026-04-24T17:22:16.902Z</time></trkpt><trkpt lat="44.406557184823605" lon="11.424643458021034"><ele>99.5</ele><time>2026-04-24T17:22:17.902Z</time></trkpt><trkpt lat="44.406629760840076" lon="11.424662344954802"><ele>99.0</ele><time>2026-04-24T17:22:18.902Z</time></trkpt><trkpt lat="44.40673316407089" lon="11.424678178620628"><ele>98.49999999999999</ele><time>2026-04-24T17:22:20.902Z</time></trkpt><trkpt lat="44.406839406870276" lon="11.42469560340449"><ele>98.0</ele><time>2026-04-24T17:22:22.902Z</time></trkpt><trkpt lat="44.40695686569183" lon="11.424706632065249"><ele>97.80000000000001</ele><time>2026-04-24T17:22:24.902Z</time></trkpt><trkpt lat="44.40702229677427" lon="11.424711033087819"><ele>97.6</ele><time>2026-04-24T17:22:25.902Z</time></trkpt><trkpt lat="44.40708818024447" lon="11.424716886697267"><ele>97.4</ele><time>2026-04-24T17:22:26.902Z</time></trkpt><trkpt lat="44.40721314939972" lon="11.424725660033188"><ele>97.19999999999999</ele><time>2026-04-24T17:22:28.902Z</time></trkpt><trkpt lat="44.40733303125502" lon="11.4247376234317"><ele>97.0</ele><time>2026-04-24T17:22:30.902Z</time></trkpt><trkpt lat="44.40745312556698" lon="11.424754959216353"><ele>96.5</ele><time>2026-04-24T17:22:32.902Z</time></trkpt><trkpt lat="44.407578103322344" lon="11.424755914395295"><ele>96.0</ele><time>2026-04-24T17:22:34.902Z</time></trkpt><trkpt lat="44.407699730455036" lon="11.42477320017189"><ele>95.5</ele><time>2026-04-24T17:22:36.902Z</time></trkpt><trkpt lat="44.40781892790219" lon="11.424778859619881"><ele>95.0</ele><time>2026-04-24T17:22:38.901Z</time></trkpt><trkpt lat="44.40793894303048" lon="11.42479440947779"><ele>95.0</ele><time>2026-04-24T17:22:40.901Z</time></trkpt><trkpt lat="44.408059145879" lon="11.424799724685482"><ele>95.0</ele><time>2026-04-24T17:22:42.901Z</time></trkpt><trkpt lat="44.408177565975606" lon="11.424807661007696"><ele>95.0</ele><time>2026-04-24T17:22:44.9Z</time></trkpt><trkpt lat="44.408292034859336" lon="11.424810181965897"><ele>95.0</ele><time>2026-04-24T17:22:46.9Z</time></trkpt><trkpt lat="44.40840536703713" lon="11.424831738632664"><ele>95.0</ele><time>2026-04-24T17:22:48.9Z</time></trkpt><trkpt lat="44.40847017522981" lon="11.424828413525464"><ele>95.0</ele><time>2026-04-24T17:22:49.9Z</time></trkpt><trkpt lat="44.408586369950235" lon="11.424841023444971"><ele>95.0</ele><time>2026-04-24T17:22:51.899Z</time></trkpt><trkpt lat="44.4087016000965" lon="11.424851194532646"><ele>95.0</ele><time>2026-04-24T17:22:53.899Z</time></trkpt><trkpt lat="44.40881871118896" lon="11.424864528710513"><ele>95.0</ele><time>2026-04-24T17:22:55.899Z</time></trkpt><trkpt lat="44.40892787119886" lon="11.424868976925328"><ele>95.5</ele><time>2026-04-24T17:22:57.899Z</time></trkpt><trkpt lat="44.40904081199448" lon="11.424892095242262"><ele>96.0</ele><time>2026-04-24T17:22:59.899Z</time></trkpt><trkpt lat="44.409148151793545" lon="11.424903858752787"><ele>96.5</ele><time>2026-04-24T17:23:01.899Z</time></trkpt><trkpt lat="44.40925890814061" lon="11.424910588366007"><ele>97.0</ele><time>2026-04-24T17:23:03.899Z</time></trkpt><trkpt lat="44.40937842783177" lon="11.424923856756067"><ele>97.0</ele><time>2026-04-24T17:23:05.898Z</time></trkpt><trkpt lat="44.409493669413635" lon="11.424930565682738"><ele>97.0</ele><time>2026-04-24T17:23:07.898Z</time></trkpt><trkpt lat="44.40960121877363" lon="11.424938000399406"><ele>97.0</ele><time>2026-04-24T17:23:09.898Z</time></trkpt><trkpt lat="44.40971756494353" lon="11.424942620692638"><ele>97.0</ele><time>2026-04-24T17:23:11.898Z</time></trkpt><trkpt lat="44.4098187291621" lon="11.424967746414477"><ele>97.0</ele><time>2026-04-24T17:23:13.898Z</time></trkpt><trkpt lat="44.409934778746695" lon="11.42497186990888"><ele>96.8</ele><time>2026-04-24T17:23:15.898Z</time></trkpt><trkpt lat="44.41003566112331" lon="11.424967406557641"><ele>96.6</ele><time>2026-04-24T17:23:17.898Z</time></trkpt><trkpt lat="44.41014582621089" lon="11.425000824342362"><ele>96.39999999999999</ele><time>2026-04-24T17:23:19.899Z</time></trkpt><trkpt lat="44.41026396408462" lon="11.42501715822662"><ele>96.19999999999999</ele><time>2026-04-24T17:23:21.899Z</time></trkpt><trkpt lat="44.410380149760186" lon="11.425023393828225"><ele>96.0</ele><time>2026-04-24T17:23:23.899Z</time></trkpt><trkpt lat="44.41049637236344" lon="11.425003506344883"><ele>95.8</ele><time>2026-04-24T17:23:25.899Z</time></trkpt><trkpt lat="44.410618055077386" lon="11.425004969868523"><ele>95.6</ele><time>2026-04-24T17:23:27.899Z</time></trkpt><trkpt lat="44.41072831775067" lon="11.424991483969267"><ele>95.4</ele><time>2026-04-24T17:23:29.899Z</time></trkpt><trkpt lat="44.410842941450106" lon="11.42496466172926"><ele>95.2</ele><time>2026-04-24T17:23:31.899Z</time></trkpt><trkpt lat="44.41090597961489" lon="11.424948219421923"><ele>95.0</ele><time>2026-04-24T17:23:32.899Z</time></trkpt><trkpt lat="44.41096756563087" lon="11.424929503592514"><ele>95.0</ele><time>2026-04-24T17:23:33.899Z</time></trkpt><trkpt lat="44.41108805090709" lon="11.4248925122383"><ele>95.0</ele><time>2026-04-24T17:23:35.899Z</time></trkpt><trkpt lat="44.41120297506997" lon="11.424855639759127"><ele>95.0</ele><time>2026-04-24T17:23:37.899Z</time></trkpt><trkpt lat="44.41126572111832" lon="11.424835508210066"><ele>95.0</ele><time>2026-04-24T17:23:38.899Z</time></trkpt><trkpt lat="44.41138090097068" lon="11.424798555551176"><ele>95.0</ele><time>2026-04-24T17:23:40.899Z</time></trkpt><trkpt lat="44.411485492935235" lon="11.424753951593063"><ele>94.75</ele><time>2026-04-24T17:23:42.899Z</time></trkpt><trkpt lat="44.41159611579421" lon="11.424716991603663"><ele>94.5</ele><time>2026-04-24T17:23:44.899Z</time></trkpt><trkpt lat="44.41171031501068" lon="11.424690813928422"><ele>94.25</ele><time>2026-04-24T17:23:46.899Z</time></trkpt><trkpt lat="44.41182670026911" lon="11.424643056995837"><ele>94.0</ele><time>2026-04-24T17:23:48.899Z</time></trkpt><trkpt lat="44.41193684833889" lon="11.424612122591878"><ele>94.0</ele><time>2026-04-24T17:23:50.899Z</time></trkpt><trkpt lat="44.412049432697536" lon="11.424584916990655"><ele>94.0</ele><time>2026-04-24T17:23:52.899Z</time></trkpt><trkpt lat="44.412152135296076" lon="11.424549599908094"><ele>94.0</ele><time>2026-04-24T17:23:54.899Z</time></trkpt><trkpt lat="44.41226303757599" lon="11.424539483785251"><ele>94.0</ele><time>2026-04-24T17:23:56.899Z</time></trkpt><trkpt lat="44.4123681480571" lon="11.424512659932962"><ele>94.0</ele><time>2026-04-24T17:23:58.899Z</time></trkpt><trkpt lat="44.41247798044319" lon="11.424485520754601"><ele>94.0</ele><time>2026-04-24T17:24:00.899Z</time></trkpt><trkpt lat="44.41258652505154" lon="11.424459386557617"><ele>94.0</ele><time>2026-04-24T17:24:02.899Z</time></trkpt><trkpt lat="44.41268667306847" lon="11.424435274005836"><ele>94.0</ele><time>2026-04-24T17:24:04.899Z</time></trkpt><trkpt lat="44.412796258068134" lon="11.424408889312444"><ele>94.0</ele><time>2026-04-24T17:24:06.899Z</time></trkpt><trkpt lat="44.412908751035175" lon="11.424379391472241"><ele>94.0</ele><time>2026-04-24T17:24:08.899Z</time></trkpt><trkpt lat="44.412971620872014" lon="11.424362772644029"><ele>94.2</ele><time>2026-04-24T17:24:09.899Z</time></trkpt><trkpt lat="44.41306576509213" lon="11.424337887077971"><ele>94.4</ele><time>2026-04-24T17:24:11.899Z</time></trkpt><trkpt lat="44.41318293503333" lon="11.424304251306157"><ele>94.6</ele><time>2026-04-24T17:24:13.899Z</time></trkpt><trkpt lat="44.41329769561994" lon="11.424271845181114"><ele>94.8</ele><time>2026-04-24T17:24:15.899Z</time></trkpt><trkpt lat="44.41339021513319" lon="11.424222338469358"><ele>95.0</ele><time>2026-04-24T17:24:17.899Z</time></trkpt><trkpt lat="44.41350235045979" lon="11.424211688364156"><ele>95.0</ele><time>2026-04-24T17:24:19.899Z</time></trkpt><trkpt lat="44.41360680211117" lon="11.424180985580648"><ele>95.0</ele><time>2026-04-24T17:24:21.899Z</time></trkpt><trkpt lat="44.413705988756114" lon="11.424151830681188"><ele>95.0</ele><time>2026-04-24T17:24:23.899Z</time></trkpt><trkpt lat="44.413811459664004" lon="11.42412119930249"><ele>95.0</ele><time>2026-04-24T17:24:25.899Z</time></trkpt><trkpt lat="44.41391136755879" lon="11.424092079347167"><ele>95.0</ele><time>2026-04-24T17:24:27.899Z</time></trkpt><trkpt lat="44.414015150437116" lon="11.424039997514479"><ele>94.75</ele><time>2026-04-24T17:24:29.899Z</time></trkpt><trkpt lat="44.41412446525487" lon="11.424030895125536"><ele>94.5</ele><time>2026-04-24T17:24:31.899Z</time></trkpt><trkpt lat="44.414232762021875" lon="11.424000501146033"><ele>94.25</ele><time>2026-04-24T17:24:33.899Z</time></trkpt><trkpt lat="44.414346324203244" lon="11.423968629384515"><ele>94.0</ele><time>2026-04-24T17:24:35.899Z</time></trkpt><trkpt lat="44.4144579676225" lon="11.423937481998935"><ele>94.0</ele><time>2026-04-24T17:24:37.899Z</time></trkpt><trkpt lat="44.414558099485916" lon="11.423909778852607"><ele>94.0</ele><time>2026-04-24T17:24:39.899Z</time></trkpt><trkpt lat="44.414668471566145" lon="11.423879242554055"><ele>94.0</ele><time>2026-04-24T17:24:41.899Z</time></trkpt><trkpt lat="44.41477744259392" lon="11.42384909391951"><ele>94.0</ele><time>2026-04-24T17:24:43.899Z</time></trkpt><trkpt lat="44.414892325665065" lon="11.423817309633327"><ele>94.0</ele><time>2026-04-24T17:24:45.899Z</time></trkpt><trkpt lat="44.41501585705554" lon="11.42378313336855"><ele>93.80000000000001</ele><time>2026-04-24T17:24:47.899Z</time></trkpt><trkpt lat="44.41512315645408" lon="11.42375475094281"><ele>93.60000000000001</ele><time>2026-04-24T17:24:49.899Z</time></trkpt><trkpt lat="44.41518662569402" lon="11.42373754822264"><ele>93.4</ele><time>2026-04-24T17:24:50.899Z</time></trkpt><trkpt lat="44.415311029489516" lon="11.423703829802296"><ele>93.2</ele><time>2026-04-24T17:24:52.899Z</time></trkpt><trkpt lat="44.415428503526" lon="11.423671989621958"><ele>93.0</ele><time>2026-04-24T17:24:54.899Z</time></trkpt><trkpt lat="44.41555265745885" lon="11.42363833889711"><ele>92.71428571428572</ele><time>2026-04-24T17:24:56.899Z</time></trkpt><trkpt lat="44.41561844559917" lon="11.423620507673737"><ele>92.42857142857143</ele><time>2026-04-24T17:24:57.899Z</time></trkpt><trkpt lat="44.41568724465502" lon="11.423601860363087"><ele>92.14285714285714</ele><time>2026-04-24T17:24:58.899Z</time></trkpt><trkpt lat="44.415753323190245" lon="11.423583732521251"><ele>91.85714285714286</ele><time>2026-04-24T17:24:59.899Z</time></trkpt><trkpt lat="44.415819431849066" lon="11.423564912458128"><ele>91.57142857142857</ele><time>2026-04-24T17:25:00.899Z</time></trkpt><trkpt lat="44.415888484628354" lon="11.4235452542266"><ele>91.28571428571429</ele><time>2026-04-24T17:25:01.899Z</time></trkpt><trkpt lat="44.415961633267436" lon="11.423514155932418"><ele>91.0</ele><time>2026-04-24T17:25:02.899Z</time></trkpt><trkpt lat="44.4160300419043" lon="11.423492808369577"><ele>91.0</ele><time>2026-04-24T17:25:03.899Z</time></trkpt><trkpt lat="44.41609930554571" lon="11.423471260256003"><ele>91.0</ele><time>2026-04-24T17:25:04.899Z</time></trkpt><trkpt lat="44.41616509377809" lon="11.423450320582651"><ele>91.0</ele><time>2026-04-24T17:25:05.899Z</time></trkpt><trkpt lat="44.41628611378247" lon="11.423415525625813"><ele>91.0</ele><time>2026-04-24T17:25:07.899Z</time></trkpt><trkpt lat="44.416354319421714" lon="11.42339718520078"><ele>91.0</ele><time>2026-04-24T17:25:08.899Z</time></trkpt><trkpt lat="44.41642234595776" lon="11.423380316161804"><ele>91.0</ele><time>2026-04-24T17:25:09.899Z</time></trkpt><trkpt lat="44.41654219628861" lon="11.423347465162145"><ele>91.16666666666666</ele><time>2026-04-24T17:25:11.899Z</time></trkpt><trkpt lat="44.416606244508166" lon="11.42332755521421"><ele>91.33333333333333</ele><time>2026-04-24T17:25:12.899Z</time></trkpt><trkpt lat="44.41667356582761" lon="11.42330816671567"><ele>91.5</ele><time>2026-04-24T17:25:13.899Z</time></trkpt><trkpt lat="44.416799675610925" lon="11.423268039174236"><ele>91.66666666666667</ele><time>2026-04-24T17:25:15.899Z</time></trkpt><trkpt lat="44.41687049303984" lon="11.423253573035469"><ele>91.83333333333334</ele><time>2026-04-24T17:25:16.899Z</time></trkpt><trkpt lat="44.41694164543979" lon="11.423244690947337"><ele>92.0</ele><time>2026-04-24T17:25:17.899Z</time></trkpt><trkpt lat="44.41701404172378" lon="11.423233234239866"><ele>92.0</ele><time>2026-04-24T17:25:18.899Z</time></trkpt><trkpt lat="44.417077935964926" lon="11.423216547363504"><ele>92.0</ele><time>2026-04-24T17:25:19.899Z</time></trkpt><trkpt lat="44.4171418623407" lon="11.423199589619408"><ele>92.0</ele><time>2026-04-24T17:25:20.899Z</time></trkpt><trkpt lat="44.41725867058811" lon="11.42317242703561"><ele>92.0</ele><time>2026-04-24T17:25:22.899Z</time></trkpt><trkpt lat="44.417372275394875" lon="11.423171083648237"><ele>92.0</ele><time>2026-04-24T17:25:24.9Z</time></trkpt><trkpt lat="44.417479772946066" lon="11.423149799259456"><ele>92.19999999999999</ele><time>2026-04-24T17:25:26.9Z</time></trkpt><trkpt lat="44.41759545207503" lon="11.423123715638578"><ele>92.4</ele><time>2026-04-24T17:25:28.899Z</time></trkpt><trkpt lat="44.41770120385219" lon="11.423115038061647"><ele>92.6</ele><time>2026-04-24T17:25:30.899Z</time></trkpt><trkpt lat="44.41780635998121" lon="11.423093839930772"><ele>92.80000000000001</ele><time>2026-04-24T17:25:32.9Z</time></trkpt><trkpt lat="44.41788844649434" lon="11.423096935644073"><ele>93.0</ele><time>2026-04-24T17:25:34.9Z</time></trkpt><trkpt lat="44.41798468107858" lon="11.423083191403965"><ele>92.4</ele><time>2026-04-24T17:25:36.9Z</time></trkpt><trkpt lat="44.418098700641934" lon="11.42306752605464"><ele>91.80000000000001</ele><time>2026-04-24T17:25:38.9Z</time></trkpt><trkpt lat="44.41821930777484" lon="11.423061056146427"><ele>91.2</ele><time>2026-04-24T17:25:40.9Z</time></trkpt><trkpt lat="44.4183329748982" lon="11.42305324390835"><ele>90.6</ele><time>2026-04-24T17:25:42.9Z</time></trkpt><trkpt lat="44.418397947572714" lon="11.423050942833003"><ele>90.0</ele><time>2026-04-24T17:25:43.9Z</time></trkpt><trkpt lat="44.418510565980824" lon="11.423065641516384"><ele>90.0</ele><time>2026-04-24T17:25:45.9Z</time></trkpt><trkpt lat="44.41861239686865" lon="11.423070009004551"><ele>90.0</ele><time>2026-04-24T17:25:47.9Z</time></trkpt><trkpt lat="44.41871353313395" lon="11.42307619734128"><ele>90.0</ele><time>2026-04-24T17:25:49.9Z</time></trkpt><trkpt lat="44.41881328566883" lon="11.423087697523478"><ele>90.0</ele><time>2026-04-24T17:25:51.9Z</time></trkpt><trkpt lat="44.41891027857115" lon="11.4231036618728"><ele>90.0</ele><time>2026-04-24T17:25:53.9Z</time></trkpt><trkpt lat="44.418989249950776" lon="11.423133436716903"><ele>90.2</ele><time>2026-04-24T17:25:55.9Z</time></trkpt><trkpt lat="44.41908296856515" lon="11.423164637988718"><ele>90.4</ele><time>2026-04-24T17:25:57.9Z</time></trkpt><trkpt lat="44.41922407715444" lon="11.423170769927424"><ele>90.6</ele><time>2026-04-24T17:26:00.9Z</time></trkpt><trkpt lat="44.41931857949688" lon="11.423176694781004"><ele>90.8</ele><time>2026-04-24T17:26:02.9Z</time></trkpt><trkpt lat="44.41941644106898" lon="11.423191325241957"><ele>91.0</ele><time>2026-04-24T17:26:04.9Z</time></trkpt><trkpt lat="44.41951745462358" lon="11.42322477022407"><ele>91.0</ele><time>2026-04-24T17:26:06.9Z</time></trkpt><trkpt lat="44.41958802973134" lon="11.423244701404707"><ele>91.0</ele><time>2026-04-24T17:26:07.9Z</time></trkpt><trkpt lat="44.41970136589544" lon="11.42331815169113"><ele>91.0</ele><time>2026-04-24T17:26:09.9Z</time></trkpt><trkpt lat="44.41977579151244" lon="11.423346329445444"><ele>91.0</ele><time>2026-04-24T17:26:10.9Z</time></trkpt><trkpt lat="44.419844555772166" lon="11.423361826236903"><ele>91.0</ele><time>2026-04-24T17:26:11.9Z</time></trkpt><trkpt lat="44.41996594178966" lon="11.423403736019873"><ele>91.66666666666666</ele><time>2026-04-24T17:26:13.9Z</time></trkpt><trkpt lat="44.42003341202074" lon="11.423420298998607"><ele>92.33333333333333</ele><time>2026-04-24T17:26:14.9Z</time></trkpt><trkpt lat="44.420099840974736" lon="11.423427204982625"><ele>93.0</ele><time>2026-04-24T17:26:15.9Z</time></trkpt><trkpt lat="44.42016209317456" lon="11.423444724929897"><ele>93.66666666666667</ele><time>2026-04-24T17:26:16.9Z</time></trkpt><trkpt lat="44.42027941182377" lon="11.423501782216018"><ele>94.33333333333334</ele><time>2026-04-24T17:26:18.9Z</time></trkpt><trkpt lat="44.420401399876404" lon="11.4235414524195"><ele>95.0</ele><time>2026-04-24T17:26:20.9Z</time></trkpt><trkpt lat="44.420510202774324" lon="11.42358496681483"><ele>95.4</ele><time>2026-04-24T17:26:22.9Z</time></trkpt><trkpt lat="44.4206209528416" lon="11.423634897363028"><ele>95.8</ele><time>2026-04-24T17:26:24.9Z</time></trkpt><trkpt lat="44.42068393101948" lon="11.423654838336667"><ele>96.19999999999999</ele><time>2026-04-24T17:26:25.9Z</time></trkpt><trkpt lat="44.420786642461756" lon="11.423718567549763"><ele>96.6</ele><time>2026-04-24T17:26:27.9Z</time></trkpt><trkpt lat="44.420849959691566" lon="11.423745976107528"><ele>97.0</ele><time>2026-04-24T17:26:28.9Z</time></trkpt><trkpt lat="44.42096444816851" lon="11.423795535553344"><ele>95.0</ele><time>2026-04-24T17:26:30.9Z</time></trkpt><trkpt lat="44.42105952966418" lon="11.423840423958925"><ele>93.0</ele><time>2026-04-24T17:26:32.9Z</time></trkpt><trkpt lat="44.421122785174646" lon="11.42387363984282"><ele>91.0</ele><time>2026-04-24T17:26:33.9Z</time></trkpt><trkpt lat="44.42123180293357" lon="11.42392379168043"><ele>89.0</ele><time>2026-04-24T17:26:35.9Z</time></trkpt><trkpt lat="44.42134428264287" lon="11.423999016844512"><ele>87.0</ele><time>2026-04-24T17:26:37.9Z</time></trkpt><trkpt lat="44.4214474266336" lon="11.424056726973484"><ele>86.66666666666667</ele><time>2026-04-24T17:26:39.9Z</time></trkpt><trkpt lat="44.42154587988141" lon="11.424113930403136"><ele>86.33333333333333</ele><time>2026-04-24T17:26:41.9Z</time></trkpt><trkpt lat="44.4216403771539" lon="11.424171484461672"><ele>86.0</ele><time>2026-04-24T17:26:43.9Z</time></trkpt><trkpt lat="44.42171154337052" lon="11.424210603417016"><ele>85.66666666666666</ele><time>2026-04-24T17:26:45.9Z</time></trkpt><trkpt lat="44.42176879327318" lon="11.42426200255331"><ele>85.33333333333333</ele><time>2026-04-24T17:26:47.9Z</time></trkpt><trkpt lat="44.42173792334284" lon="11.424376099845055"><ele>85.0</ele><time>2026-04-24T17:26:51.9Z</time></trkpt><trkpt lat="44.42174771016187" lon="11.424468623599248"><ele>85.0</ele><time>2026-04-24T17:27:15.9Z</time></trkpt><trkpt lat="44.42172115990867" lon="11.424553515099577"><ele>85.0</ele><time>2026-04-24T17:27:20.9Z</time></trkpt><trkpt lat="44.42169846866634" lon="11.424652507442698"><ele>85.0</ele><time>2026-04-24T17:27:23.9Z</time></trkpt><trkpt lat="44.42166308619031" lon="11.424763064881528"><ele>85.0</ele><time>2026-04-24T17:27:26.9Z</time></trkpt><trkpt lat="44.421643859088064" lon="11.424853830102608"><ele>85.0</ele><time>2026-04-24T17:27:29.9Z</time></trkpt><trkpt lat="44.421620341645436" lon="11.424938863565725"><ele>85.0</ele><time>2026-04-24T17:27:32.901Z</time></trkpt><trkpt lat="44.421595862108695" lon="11.425037203641978"><ele>85.0</ele><time>2026-04-24T17:27:35.901Z</time></trkpt><trkpt lat="44.42168763844601" lon="11.425062897195037"><ele>84.66666666666666</ele><time>2026-04-24T17:27:38.9Z</time></trkpt><trkpt lat="44.421767724624324" lon="11.425091627560066"><ele>84.33333333333333</ele><time>2026-04-24T17:27:40.9Z</time></trkpt><trkpt lat="44.42183708520227" lon="11.425136120202678"><ele>84.0</ele><time>2026-04-24T17:27:42.9Z</time></trkpt><trkpt lat="44.42191097910195" lon="11.42518498213041"><ele>83.66666666666667</ele><time>2026-04-24T17:27:44.9Z</time></trkpt><trkpt lat="44.4219704676295" lon="11.425221083869314"><ele>83.33333333333334</ele><time>2026-04-24T17:27:46.9Z</time></trkpt><trkpt lat="44.42203324478514" lon="11.425257737578521"><ele>83.0</ele><time>2026-04-24T17:27:48.9Z</time></trkpt><trkpt lat="44.42210436722069" lon="11.42531424173979"><ele>83.0</ele><time>2026-04-24T17:27:50.9Z</time></trkpt><trkpt lat="44.42218080854722" lon="11.425355394309781"><ele>83.0</ele><time>2026-04-24T17:27:52.9Z</time></trkpt><trkpt lat="44.42227402866085" lon="11.425349004381157"><ele>83.0</ele><time>2026-04-24T17:27:54.9Z</time></trkpt><trkpt lat="44.42236114020866" lon="11.425369666669212"><ele>83.0</ele><time>2026-04-24T17:27:56.9Z</time></trkpt><trkpt lat="44.422454174261475" lon="11.425407623916598"><ele>83.0</ele><time>2026-04-24T17:27:58.9Z</time></trkpt><trkpt lat="44.42254731806669" lon="11.425444651653473"><ele>83.2</ele><time>2026-04-24T17:28:00.9Z</time></trkpt><trkpt lat="44.42263744538108" lon="11.425500029310209"><ele>83.4</ele><time>2026-04-24T17:28:02.9Z</time></trkpt><trkpt lat="44.42273635159469" lon="11.425552897357129"><ele>83.60000000000001</ele><time>2026-04-24T17:28:04.9Z</time></trkpt><trkpt lat="44.422837445835576" lon="11.425610235634416"><ele>83.80000000000001</ele><time>2026-04-24T17:28:06.9Z</time></trkpt><trkpt lat="44.42294145786089" lon="11.425679215415693"><ele>84.0</ele><time>2026-04-24T17:28:08.9Z</time></trkpt><trkpt lat="44.42304556363904" lon="11.425711255330524"><ele>84.0</ele><time>2026-04-24T17:28:10.9Z</time></trkpt><trkpt lat="44.423136595188645" lon="11.425745335065963"><ele>84.0</ele><time>2026-04-24T17:28:12.9Z</time></trkpt><trkpt lat="44.423220087370105" lon="11.425791791568164"><ele>84.0</ele><time>2026-04-24T17:28:14.9Z</time></trkpt><trkpt lat="44.42330087245149" lon="11.425845280103347"><ele>84.0</ele><time>2026-04-24T17:28:16.9Z</time></trkpt><trkpt lat="44.42339214342964" lon="11.425898650419231"><ele>84.0</ele><time>2026-04-24T17:28:18.9Z</time></trkpt><trkpt lat="44.42349034973888" lon="11.425965708427077"><ele>84.0</ele><time>2026-04-24T17:28:20.9Z</time></trkpt><trkpt lat="44.423596184549474" lon="11.426032874681102"><ele>84.0</ele><time>2026-04-24T17:28:22.9Z</time></trkpt><trkpt lat="44.42370656673476" lon="11.426100577263474"><ele>84.0</ele><time>2026-04-24T17:28:24.9Z</time></trkpt><trkpt lat="44.42380719623348" lon="11.426153134234942"><ele>84.0</ele><time>2026-04-24T17:28:26.9Z</time></trkpt><trkpt lat="44.4239136154962" lon="11.426218741508444"><ele>83.75</ele><time>2026-04-24T17:28:28.9Z</time></trkpt><trkpt lat="44.424022610576095" lon="11.426277993364506"><ele>83.5</ele><time>2026-04-24T17:28:30.9Z</time></trkpt><trkpt lat="44.424126907882076" lon="11.426351208680567"><ele>83.25</ele><time>2026-04-24T17:28:32.9Z</time></trkpt><trkpt lat="44.424231938096945" lon="11.426415281622427"><ele>83.0</ele><time>2026-04-24T17:28:34.9Z</time></trkpt><trkpt lat="44.42434048448371" lon="11.426472743194868"><ele>83.0</ele><time>2026-04-24T17:28:36.9Z</time></trkpt><trkpt lat="44.42445977055732" lon="11.426531885275354"><ele>83.0</ele><time>2026-04-24T17:28:38.9Z</time></trkpt><trkpt lat="44.4245609100271" lon="11.426610536674241"><ele>83.0</ele><time>2026-04-24T17:28:40.9Z</time></trkpt><trkpt lat="44.42466746062362" lon="11.42668030422791"><ele>83.0</ele><time>2026-04-24T17:28:42.9Z</time></trkpt><trkpt lat="44.424777841660735" lon="11.426750263571108"><ele>82.75</ele><time>2026-04-24T17:28:44.9Z</time></trkpt><trkpt lat="44.42488644268811" lon="11.426811483615156"><ele>82.5</ele><time>2026-04-24T17:28:46.9Z</time></trkpt><trkpt lat="44.42499191930943" lon="11.426878942932944"><ele>82.25</ele><time>2026-04-24T17:28:48.9Z</time></trkpt><trkpt lat="44.42509583418025" lon="11.426964666089935"><ele>82.0</ele><time>2026-04-24T17:28:50.9Z</time></trkpt><trkpt lat="44.42519711277332" lon="11.427046442244254"><ele>82.0</ele><time>2026-04-24T17:28:52.9Z</time></trkpt><trkpt lat="44.42530283963672" lon="11.427098228631928"><ele>82.0</ele><time>2026-04-24T17:28:54.9Z</time></trkpt><trkpt lat="44.42541337580586" lon="11.427155458847876"><ele>82.0</ele><time>2026-04-24T17:28:56.9Z</time></trkpt><trkpt lat="44.42552651341927" lon="11.427227773176845"><ele>82.0</ele><time>2026-04-24T17:28:58.9Z</time></trkpt><trkpt lat="44.425632653312974" lon="11.427279823834143"><ele>81.6</ele><time>2026-04-24T17:29:00.9Z</time></trkpt><trkpt lat="44.42573584412174" lon="11.427347559332421"><ele>81.19999999999999</ele><time>2026-04-24T17:29:02.9Z</time></trkpt><trkpt lat="44.42583927909629" lon="11.427408738968664"><ele>80.8</ele><time>2026-04-24T17:29:04.9Z</time></trkpt><trkpt lat="44.42593660149115" lon="11.42747708886213"><ele>80.4</ele><time>2026-04-24T17:29:06.9Z</time></trkpt><trkpt lat="44.42603509356292" lon="11.427553174266071"><ele>80.0</ele><time>2026-04-24T17:29:08.9Z</time></trkpt><trkpt lat="44.426128289275006" lon="11.427612351612941"><ele>80.0</ele><time>2026-04-24T17:29:10.9Z</time></trkpt><trkpt lat="44.426239331130546" lon="11.427674855653164"><ele>80.0</ele><time>2026-04-24T17:29:12.9Z</time></trkpt><trkpt lat="44.426344570035994" lon="11.427743794051839"><ele>80.0</ele><time>2026-04-24T17:29:14.9Z</time></trkpt><trkpt lat="44.426455982937995" lon="11.427819425420882"><ele>80.0</ele><time>2026-04-24T17:29:16.9Z</time></trkpt><trkpt lat="44.42656437279114" lon="11.42788919905463"><ele>80.5</ele><time>2026-04-24T17:29:18.9Z</time></trkpt><trkpt lat="44.42668043402968" lon="11.427940940851776"><ele>81.0</ele><time>2026-04-24T17:29:20.9Z</time></trkpt><trkpt lat="44.42679384266616" lon="11.428015163027014"><ele>81.5</ele><time>2026-04-24T17:29:22.9Z</time></trkpt><trkpt lat="44.42689489889701" lon="11.428086345273352"><ele>82.0</ele><time>2026-04-24T17:29:24.9Z</time></trkpt><trkpt lat="44.42699297900319" lon="11.42815273640083"><ele>82.0</ele><time>2026-04-24T17:29:26.9Z</time></trkpt><trkpt lat="44.42707056137307" lon="11.428223963663111"><ele>82.0</ele><time>2026-04-24T17:29:28.9Z</time></trkpt><trkpt lat="44.4271760475726" lon="11.42827644729411"><ele>82.0</ele><time>2026-04-24T17:29:30.9Z</time></trkpt><trkpt lat="44.427262956509644" lon="11.428330160883805"><ele>82.0</ele><time>2026-04-24T17:29:32.9Z</time></trkpt><trkpt lat="44.42734182451799" lon="11.428365366374692"><ele>82.0</ele><time>2026-04-24T17:29:34.9Z</time></trkpt><trkpt lat="44.42741764408079" lon="11.428345016375374"><ele>82.0</ele><time>2026-04-24T17:29:36.901Z</time></trkpt><trkpt lat="44.427502177885486" lon="11.428333691342077"><ele>82.0</ele><time>2026-04-24T17:29:38.901Z</time></trkpt><trkpt lat="44.42757888857472" lon="11.428380523506064"><ele>82.0</ele><time>2026-04-24T17:29:40.901Z</time></trkpt><trkpt lat="44.42765713620195" lon="11.428438294264847"><ele>82.0</ele><time>2026-04-24T17:29:42.901Z</time></trkpt><trkpt lat="44.427723335504645" lon="11.428526640037576"><ele>82.0</ele><time>2026-04-24T17:29:44.901Z</time></trkpt><trkpt lat="44.4278073667495" lon="11.428600950539156"><ele>82.0</ele><time>2026-04-24T17:29:46.901Z</time></trkpt><trkpt lat="44.427882053821556" lon="11.428636740705645"><ele>82.0</ele><time>2026-04-24T17:29:48.901Z</time></trkpt><trkpt lat="44.427950682935744" lon="11.42870403379916"><ele>82.0</ele><time>2026-04-24T17:29:50.901Z</time></trkpt><trkpt lat="44.428019273384834" lon="11.42875243207247"><ele>82.0</ele><time>2026-04-24T17:29:52.901Z</time></trkpt><trkpt lat="44.42808987970335" lon="11.428812060435154"><ele>82.0</ele><time>2026-04-24T17:29:55.901Z</time></trkpt><trkpt lat="44.42816168538651" lon="11.428869562958536"><ele>82.0</ele><time>2026-04-24T17:30:06.901Z</time></trkpt><trkpt lat="44.42821658894475" lon="11.428916437238163"><ele>82.0</ele><time>2026-04-24T17:30:08.901Z</time></trkpt><trkpt lat="44.42826300797545" lon="11.429008781988328"><ele>81.19999999999999</ele><time>2026-04-24T17:30:10.901Z</time></trkpt><trkpt lat="44.428319810392416" lon="11.429139680226445"><ele>80.39999999999999</ele><time>2026-04-24T17:30:12.901Z</time></trkpt><trkpt lat="44.42837716282015" lon="11.429260416636485"><ele>79.6</ele><time>2026-04-24T17:30:14.901Z</time></trkpt><trkpt lat="44.42842642288839" lon="11.429370940727493"><ele>78.8</ele><time>2026-04-24T17:30:16.901Z</time></trkpt><trkpt lat="44.42849441746293" lon="11.429486312524336"><ele>78.0</ele><time>2026-04-24T17:30:18.901Z</time></trkpt><trkpt lat="44.42856131890266" lon="11.429576021318855"><ele>78.2</ele><time>2026-04-24T17:30:20.901Z</time></trkpt><trkpt lat="44.428641561249336" lon="11.42968485628927"><ele>78.4</ele><time>2026-04-24T17:30:22.901Z</time></trkpt><trkpt lat="44.42869883853038" lon="11.429805136484788"><ele>78.60000000000001</ele><time>2026-04-24T17:30:24.901Z</time></trkpt><trkpt lat="44.42875948775565" lon="11.429920195375598"><ele>78.8</ele><time>2026-04-24T17:30:26.901Z</time></trkpt><trkpt lat="44.42881867336552" lon="11.430029745713997"><ele>79.0</ele><time>2026-04-24T17:30:28.901Z</time></trkpt><trkpt lat="44.42887554484365" lon="11.4301557378962"><ele>79.0</ele><time>2026-04-24T17:30:30.901Z</time></trkpt><trkpt lat="44.4289398816439" lon="11.430292832501111"><ele>79.0</ele><time>2026-04-24T17:30:32.901Z</time></trkpt><trkpt lat="44.42900035375912" lon="11.430426331705121"><ele>79.0</ele><time>2026-04-24T17:30:34.901Z</time></trkpt><trkpt lat="44.42905781496075" lon="11.430560372608051"><ele>79.0</ele><time>2026-04-24T17:30:36.901Z</time></trkpt><trkpt lat="44.429111307029" lon="11.430684361763173"><ele>79.0</ele><time>2026-04-24T17:30:38.901Z</time></trkpt><trkpt lat="44.4291659594797" lon="11.430792998854102"><ele>78.83333333333333</ele><time>2026-04-24T17:30:40.901Z</time></trkpt><trkpt lat="44.4292109901553" lon="11.430921728669254"><ele>78.66666666666666</ele><time>2026-04-24T17:30:42.901Z</time></trkpt><trkpt lat="44.429237964443125" lon="11.431074432555443"><ele>78.5</ele><time>2026-04-24T17:30:44.901Z</time></trkpt><trkpt lat="44.42928289879016" lon="11.431173319461056"><ele>78.33333333333333</ele><time>2026-04-24T17:30:46.901Z</time></trkpt><trkpt lat="44.429319042844874" lon="11.431253731496124"><ele>78.16666666666667</ele><time>2026-04-24T17:30:50.901Z</time></trkpt><trkpt lat="44.42924997885437" lon="11.431286857183125"><ele>78.0</ele><time>2026-04-24T17:30:55.901Z</time></trkpt><trkpt lat="44.42920326104503" lon="11.431346412326546"><ele>78.0</ele><time>2026-04-24T17:30:59.901Z</time></trkpt><trkpt lat="44.429233064654866" lon="11.431442543932054"><ele>78.0</ele><time>2026-04-24T17:31:04.901Z</time></trkpt><trkpt lat="44.429250972693666" lon="11.43155171691827"><ele>78.0</ele><time>2026-04-24T17:31:08.901Z</time></trkpt><trkpt lat="44.42928556908306" lon="11.431637935854388"><ele>78.0</ele><time>2026-04-24T17:31:11.901Z</time></trkpt><trkpt lat="44.429319258949995" lon="11.431716178612422"><ele>78.0</ele><time>2026-04-24T17:31:13.901Z</time></trkpt><trkpt lat="44.429350973791266" lon="11.431796899019389"><ele>78.0</ele><time>2026-04-24T17:31:15.901Z</time></trkpt><trkpt lat="44.42935152815707" lon="11.431899723508268"><ele>78.0</ele><time>2026-04-24T17:31:18.901Z</time></trkpt><trkpt lat="44.42937365866302" lon="11.431994392851653"><ele>78.0</ele><time>2026-04-24T17:31:21.901Z</time></trkpt><trkpt lat="44.42942876769955" lon="11.432061098818416"><ele>78.0</ele><time>2026-04-24T17:31:23.901Z</time></trkpt><trkpt lat="44.429474266015525" lon="11.432154572212353"><ele>78.0</ele><time>2026-04-24T17:31:27.901Z</time></trkpt><trkpt lat="44.42950792085404" lon="11.432256573783448"><ele>78.0</ele><time>2026-04-24T17:31:30.901Z</time></trkpt><trkpt lat="44.42954968824416" lon="11.432352883348214"><ele>78.0</ele><time>2026-04-24T17:31:34.901Z</time></trkpt><trkpt lat="44.429504011878045" lon="11.43244907391652"><ele>78.0</ele><time>2026-04-24T17:31:37.901Z</time></trkpt><trkpt lat="44.42950544202648" lon="11.432539246760669"><ele>77.83333333333333</ele><time>2026-04-24T17:31:40.901Z</time></trkpt><trkpt lat="44.42953795931943" lon="11.432638158532585"><ele>77.66666666666667</ele><time>2026-04-24T17:31:43.902Z</time></trkpt><trkpt lat="44.429554565162526" lon="11.432760323442404"><ele>77.5</ele><time>2026-04-24T17:31:47.902Z</time></trkpt><trkpt lat="44.42961050440923" lon="11.432868947224877"><ele>77.33333333333334</ele><time>2026-04-24T17:31:50.902Z</time></trkpt><trkpt lat="44.42969027000024" lon="11.432889589106422"><ele>77.16666666666667</ele><time>2026-04-24T17:31:53.902Z</time></trkpt><trkpt lat="44.42973478444246" lon="11.432983555216182"><ele>77.0</ele><time>2026-04-24T17:31:56.903Z</time></trkpt><trkpt lat="44.429752367943316" lon="11.433074363887114"><ele>76.83333333333334</ele><time>2026-04-24T17:31:58.903Z</time></trkpt><trkpt lat="44.42979327714376" lon="11.433154079748885"><ele>76.66666666666667</ele><time>2026-04-24T17:32:00.903Z</time></trkpt><trkpt lat="44.429824594935724" lon="11.433242449974294"><ele>76.5</ele><time>2026-04-24T17:32:02.903Z</time></trkpt><trkpt lat="44.429865200993596" lon="11.43332825831248"><ele>76.33333333333333</ele><time>2026-04-24T17:32:04.903Z</time></trkpt><trkpt lat="44.42989018522459" lon="11.433429744250992"><ele>76.16666666666666</ele><time>2026-04-24T17:32:06.903Z</time></trkpt><trkpt lat="44.429946275529" lon="11.433520052444846"><ele>76.0</ele><time>2026-04-24T17:32:08.903Z</time></trkpt><trkpt lat="44.42998964737299" lon="11.433612252613692"><ele>76.0</ele><time>2026-04-24T17:32:10.903Z</time></trkpt><trkpt lat="44.430052106011665" lon="11.433693791423739"><ele>76.0</ele><time>2026-04-24T17:32:12.903Z</time></trkpt><trkpt lat="44.430064803803056" lon="11.433808695938211"><ele>76.0</ele><time>2026-04-24T17:32:14.903Z</time></trkpt><trkpt lat="44.43005917629408" lon="11.433915426696414"><ele>76.0</ele><time>2026-04-24T17:32:17.903Z</time></trkpt><trkpt lat="44.43007906738639" lon="11.434006034400268"><ele>76.0</ele><time>2026-04-24T17:32:20.903Z</time></trkpt><trkpt lat="44.43012896395299" lon="11.434075273541527"><ele>76.0</ele><time>2026-04-24T17:32:22.903Z</time></trkpt><trkpt lat="44.4301650603375" lon="11.434163016896388"><ele>75.83333333333333</ele><time>2026-04-24T17:32:24.903Z</time></trkpt><trkpt lat="44.430212152877544" lon="11.434272415868346"><ele>75.66666666666666</ele><time>2026-04-24T17:32:26.903Z</time></trkpt><trkpt lat="44.43026799446413" lon="11.43436601165641"><ele>75.5</ele><time>2026-04-24T17:32:28.903Z</time></trkpt><trkpt lat="44.43034391227538" lon="11.434418519477605"><ele>75.33333333333333</ele><time>2026-04-24T17:32:30.902Z</time></trkpt><trkpt lat="44.43042424686619" lon="11.434484725345575"><ele>75.16666666666667</ele><time>2026-04-24T17:32:33.902Z</time></trkpt><trkpt lat="44.430429538368045" lon="11.434611055730826"><ele>75.0</ele><time>2026-04-24T17:32:35.902Z</time></trkpt><trkpt lat="44.43047027483582" lon="11.434707152617873"><ele>75.2</ele><time>2026-04-24T17:32:37.902Z</time></trkpt><trkpt lat="44.43055042992053" lon="11.434755184379991"><ele>75.4</ele><time>2026-04-24T17:32:39.902Z</time></trkpt><trkpt lat="44.43062907459711" lon="11.434775006516622"><ele>75.6</ele><time>2026-04-24T17:32:41.902Z</time></trkpt><trkpt lat="44.43071347541721" lon="11.434769778308437"><ele>75.8</ele><time>2026-04-24T17:32:43.902Z</time></trkpt><trkpt lat="44.43081622730678" lon="11.43480716080656"><ele>76.0</ele><time>2026-04-24T17:32:45.902Z</time></trkpt><trkpt lat="44.430915898292774" lon="11.43478169904214"><ele>76.0</ele><time>2026-04-24T17:32:47.902Z</time></trkpt><trkpt lat="44.4309987000157" lon="11.434814474499202"><ele>76.0</ele><time>2026-04-24T17:32:49.902Z</time></trkpt><trkpt lat="44.431053452083866" lon="11.434860422935946"><ele>76.0</ele><time>2026-04-24T17:32:51.902Z</time></trkpt><trkpt lat="44.43111619653157" lon="11.434921803116637"><ele>76.0</ele><time>2026-04-24T17:32:53.902Z</time></trkpt><trkpt lat="44.431191137519264" lon="11.43501131601643"><ele>76.0</ele><time>2026-04-24T17:32:56.902Z</time></trkpt><trkpt lat="44.431260599024014" lon="11.435055015483735"><ele>76.0</ele><time>2026-04-24T17:32:58.902Z</time></trkpt><trkpt lat="44.431322176062466" lon="11.435082253097582"><ele>75.39999999999999</ele><time>2026-04-24T17:33:00.902Z</time></trkpt><trkpt lat="44.43138622998988" lon="11.435140677828104"><ele>74.8</ele><time>2026-04-24T17:33:02.902Z</time></trkpt><trkpt lat="44.431448624497065" lon="11.435180177911379"><ele>74.19999999999999</ele><time>2026-04-24T17:33:04.902Z</time></trkpt><trkpt lat="44.43152395889155" lon="11.43520882037088"><ele>73.6</ele><time>2026-04-24T17:33:06.902Z</time></trkpt><trkpt lat="44.43172816616243" lon="11.435230530833843"><ele>73.0</ele><time>2026-04-24T17:33:12.902Z</time></trkpt><trkpt lat="44.43181821058482" lon="11.435283615415752"><ele>73.0</ele><time>2026-04-24T17:33:14.902Z</time></trkpt><trkpt lat="44.43201004394795" lon="11.435289430639685"><ele>73.0</ele><time>2026-04-24T17:33:20.902Z</time></trkpt><trkpt lat="44.432120082660575" lon="11.43531820581232"><ele>73.0</ele><time>2026-04-24T17:33:23.902Z</time></trkpt><trkpt lat="44.43218116002256" lon="11.435379630769768"><ele>73.0</ele><time>2026-04-24T17:33:25.902Z</time></trkpt><trkpt lat="44.43224934398034" lon="11.435461788051343"><ele>73.14285714285714</ele><time>2026-04-24T17:33:27.902Z</time></trkpt><trkpt lat="44.43231051763421" lon="11.435490230471471"><ele>73.28571428571429</ele><time>2026-04-24T17:33:29.902Z</time></trkpt><trkpt lat="44.4323554082584" lon="11.435596906954641"><ele>73.42857142857143</ele><time>2026-04-24T17:33:31.902Z</time></trkpt><trkpt lat="44.432431633302635" lon="11.435637976319706"><ele>73.57142857142857</ele><time>2026-04-24T17:33:33.902Z</time></trkpt><trkpt lat="44.43247213591208" lon="11.435719137258047"><ele>73.71428571428571</ele><time>2026-04-24T17:33:35.902Z</time></trkpt><trkpt lat="44.43250617111866" lon="11.435800302532142"><ele>73.85714285714286</ele><time>2026-04-24T17:33:37.902Z</time></trkpt><trkpt lat="44.43255500420933" lon="11.435882462958197"><ele>74.0</ele><time>2026-04-24T17:33:39.902Z</time></trkpt><trkpt lat="44.43258705896244" lon="11.435962907063477"><ele>74.0</ele><time>2026-04-24T17:33:41.902Z</time></trkpt><trkpt lat="44.4326306770982" lon="11.436051442180608"><ele>74.0</ele><time>2026-04-24T17:33:43.902Z</time></trkpt><trkpt lat="44.432688525932704" lon="11.436101634904123"><ele>74.0</ele><time>2026-04-24T17:33:45.902Z</time></trkpt><trkpt lat="44.432764938728745" lon="11.436118493368486"><ele>74.0</ele><time>2026-04-24T17:33:48.903Z</time></trkpt><trkpt lat="44.43282968076056" lon="11.436096640533366"><ele>74.0</ele><time>2026-04-24T17:33:50.902Z</time></trkpt><trkpt lat="44.43290800337501" lon="11.436092576878812"><ele>74.0</ele><time>2026-04-24T17:33:52.903Z</time></trkpt><trkpt lat="44.432979703145534" lon="11.436104599170132"><ele>74.0</ele><time>2026-04-24T17:33:54.904Z</time></trkpt><trkpt lat="44.43305609533696" lon="11.436094893450608"><ele>73.66666666666667</ele><time>2026-04-24T17:33:56.903Z</time></trkpt><trkpt lat="44.43313499034226" lon="11.436071650729202"><ele>73.33333333333334</ele><time>2026-04-24T17:33:58.903Z</time></trkpt><trkpt lat="44.43321633093655" lon="11.436090608844724"><ele>73.0</ele><time>2026-04-24T17:34:01.903Z</time></trkpt><trkpt lat="44.43327999485651" lon="11.436105699697277"><ele>72.66666666666667</ele><time>2026-04-24T17:34:05.903Z</time></trkpt><trkpt lat="44.43334483264543" lon="11.436106616846445"><ele>72.33333333333333</ele><time>2026-04-24T17:34:09.903Z</time></trkpt><trkpt lat="44.43344593825414" lon="11.436114561847573"><ele>72.0</ele><time>2026-04-24T17:34:12.903Z</time></trkpt><trkpt lat="44.433515640280795" lon="11.436111063307482"><ele>72.0</ele><time>2026-04-24T17:34:14.903Z</time></trkpt><trkpt lat="44.433584071798705" lon="11.436123340473245"><ele>72.0</ele><time>2026-04-24T17:34:16.903Z</time></trkpt><trkpt lat="44.43365274249677" lon="11.436135222417864"><ele>72.0</ele><time>2026-04-24T17:34:18.903Z</time></trkpt><trkpt lat="44.433809234545855" lon="11.436147910366808"><ele>72.0</ele><time>2026-04-24T17:34:22.903Z</time></trkpt><trkpt lat="44.43390448301544" lon="11.436171675354135"><ele>72.0</ele><time>2026-04-24T17:34:24.903Z</time></trkpt><trkpt lat="44.43398546067707" lon="11.436170495291874"><ele>72.0</ele><time>2026-04-24T17:34:26.903Z</time></trkpt><trkpt lat="44.434076300023314" lon="11.436160665139422"><ele>72.0</ele><time>2026-04-24T17:34:28.903Z</time></trkpt><trkpt lat="44.43415179286846" lon="11.43615875391634"><ele>72.0</ele><time>2026-04-24T17:34:30.903Z</time></trkpt><trkpt lat="44.434229405880906" lon="11.436129600433746"><ele>72.0</ele><time>2026-04-24T17:34:32.903Z</time></trkpt><trkpt lat="44.43430180439482" lon="11.436115477275843"><ele>72.0</ele><time>2026-04-24T17:34:34.903Z</time></trkpt><trkpt lat="44.43436559128963" lon="11.436102632453535"><ele>72.0</ele><time>2026-04-24T17:34:36.903Z</time></trkpt><trkpt lat="44.43457418296345" lon="11.436092941023302"><ele>72.6</ele><time>2026-04-24T17:34:42.903Z</time></trkpt><trkpt lat="44.43464477959857" lon="11.436102825724682"><ele>73.2</ele><time>2026-04-24T17:34:44.903Z</time></trkpt><trkpt lat="44.43471951583025" lon="11.436061709516453"><ele>73.8</ele><time>2026-04-24T17:34:47.903Z</time></trkpt><trkpt lat="44.434829440600794" lon="11.436055602346416"><ele>74.4</ele><time>2026-04-24T17:34:51.903Z</time></trkpt><trkpt lat="44.43498109728461" lon="11.436036980213926"><ele>75.0</ele><time>2026-04-24T17:34:56.903Z</time></trkpt><trkpt lat="44.435070589397796" lon="11.435992615158348"><ele>75.0</ele><time>2026-04-24T17:34:59.903Z</time></trkpt><trkpt lat="44.43513482948626" lon="11.43597270913163"><ele>75.0</ele><time>2026-04-24T17:35:01.903Z</time></trkpt><trkpt lat="44.43520057182926" lon="11.435951186457041"><ele>75.0</ele><time>2026-04-24T17:35:04.903Z</time></trkpt><trkpt lat="44.43527720240378" lon="11.435950139193396"><ele>75.0</ele><time>2026-04-24T17:35:06.903Z</time></trkpt><trkpt lat="44.43536638092048" lon="11.436024133459377"><ele>75.0</ele><time>2026-04-24T17:35:09.903Z</time></trkpt><trkpt lat="44.43542018142811" lon="11.43608828713745"><ele>75.0</ele><time>2026-04-24T17:35:11.903Z</time></trkpt><trkpt lat="44.43549180153969" lon="11.43612686663254"><ele>74.2</ele><time>2026-04-24T17:35:13.903Z</time></trkpt><trkpt lat="44.43558080412862" lon="11.436136973635351"><ele>73.4</ele><time>2026-04-24T17:35:15.903Z</time></trkpt><trkpt lat="44.43565744251041" lon="11.436131827171724"><ele>72.6</ele><time>2026-04-24T17:35:17.903Z</time></trkpt><trkpt lat="44.43574046648447" lon="11.436163054912267"><ele>71.8</ele><time>2026-04-24T17:35:19.903Z</time></trkpt><trkpt lat="44.435819461967654" lon="11.43619801588305"><ele>71.0</ele><time>2026-04-24T17:35:21.903Z</time></trkpt><trkpt lat="44.43596626917641" lon="11.436224593917618"><ele>71.0</ele><time>2026-04-24T17:35:25.903Z</time></trkpt><trkpt lat="44.4360490515981" lon="11.436314148585268"><ele>71.0</ele><time>2026-04-24T17:35:27.903Z</time></trkpt><trkpt lat="44.43612946661945" lon="11.436399376350746"><ele>71.0</ele><time>2026-04-24T17:35:29.903Z</time></trkpt><trkpt lat="44.43617249289651" lon="11.43647370019632"><ele>71.0</ele><time>2026-04-24T17:35:31.903Z</time></trkpt><trkpt lat="44.43623091184602" lon="11.436520870245854"><ele>71.0</ele><time>2026-04-24T17:35:33.903Z</time></trkpt><trkpt lat="44.436279327788334" lon="11.43659897366147"><ele>71.0</ele><time>2026-04-24T17:35:35.903Z</time></trkpt><trkpt lat="44.43633571498229" lon="11.436658700434446"><ele>71.0</ele><time>2026-04-24T17:35:37.903Z</time></trkpt><trkpt lat="44.436410892448514" lon="11.436718078683281"><ele>71.0</ele><time>2026-04-24T17:35:39.903Z</time></trkpt><trkpt lat="44.43648423302177" lon="11.436793852970013"><ele>71.0</ele><time>2026-04-24T17:35:41.903Z</time></trkpt><trkpt lat="44.436559095982886" lon="11.436863614036998"><ele>71.0</ele><time>2026-04-24T17:35:43.903Z</time></trkpt><trkpt lat="44.436642905538584" lon="11.436938959309801"><ele>71.0</ele><time>2026-04-24T17:35:45.903Z</time></trkpt><trkpt lat="44.43672596550244" lon="11.437000005063691"><ele>71.0</ele><time>2026-04-24T17:35:47.903Z</time></trkpt><trkpt lat="44.43680966418022" lon="11.437061669546177"><ele>71.0</ele><time>2026-04-24T17:35:49.903Z</time></trkpt><trkpt lat="44.43686080824647" lon="11.437157571081432"><ele>71.0</ele><time>2026-04-24T17:35:51.903Z</time></trkpt><trkpt lat="44.43690072266418" lon="11.43723856155697"><ele>71.0</ele><time>2026-04-24T17:35:53.903Z</time></trkpt><trkpt lat="44.43690331583396" lon="11.437337157093856"><ele>71.0</ele><time>2026-04-24T17:35:55.904Z</time></trkpt><trkpt lat="44.436836280433376" lon="11.43744640155199"><ele>71.0</ele><time>2026-04-24T17:35:57.904Z</time></trkpt><trkpt lat="44.436768708719526" lon="11.43754249820413"><ele>71.0</ele><time>2026-04-24T17:35:59.904Z</time></trkpt><trkpt lat="44.436704703677975" lon="11.437639153223703"><ele>71.0</ele><time>2026-04-24T17:36:01.904Z</time></trkpt><trkpt lat="44.43664158992636" lon="11.437703136694674"><ele>71.0</ele><time>2026-04-24T17:36:03.905Z</time></trkpt><trkpt lat="44.436628862187675" lon="11.437815963710776"><ele>71.0</ele><time>2026-04-24T17:36:05.904Z</time></trkpt><trkpt lat="44.43669344087033" lon="11.437829929216184"><ele>71.0</ele><time>2026-04-24T17:36:07.904Z</time></trkpt><trkpt lat="44.43676347030252" lon="11.437821335975878"><ele>71.0</ele><time>2026-04-24T17:36:09.904Z</time></trkpt><trkpt lat="44.436838148040266" lon="11.43789160006645"><ele>71.0</ele><time>2026-04-24T17:36:11.904Z</time></trkpt><trkpt lat="44.436912402462895" lon="11.437941568038564"><ele>71.0</ele><time>2026-04-24T17:36:13.904Z</time></trkpt><trkpt lat="44.436989313560346" lon="11.437991469106052"><ele>71.0</ele><time>2026-04-24T17:36:15.904Z</time></trkpt><trkpt lat="44.4370673626663" lon="11.438051013609133"><ele>71.0</ele><time>2026-04-24T17:36:17.904Z</time></trkpt><trkpt lat="44.43714276345342" lon="11.438090400477744"><ele>71.0</ele><time>2026-04-24T17:36:19.904Z</time></trkpt><trkpt lat="44.43721617418973" lon="11.438133805177602"><ele>71.0</ele><time>2026-04-24T17:36:21.904Z</time></trkpt><trkpt lat="44.43728543320565" lon="11.438173887973932"><ele>71.6</ele><time>2026-04-24T17:36:23.904Z</time></trkpt><trkpt lat="44.43734408321723" lon="11.438235427246164"><ele>72.19999999999999</ele><time>2026-04-24T17:36:25.904Z</time></trkpt><trkpt lat="44.43741965887439" lon="11.438311045982493"><ele>72.80000000000001</ele><time>2026-04-24T17:36:27.904Z</time></trkpt><trkpt lat="44.4374732385092" lon="11.438421730357637"><ele>73.4</ele><time>2026-04-24T17:36:29.904Z</time></trkpt><trkpt lat="44.43750200137602" lon="11.438554055205495"><ele>74.0</ele><time>2026-04-24T17:36:31.904Z</time></trkpt><trkpt lat="44.437512693405196" lon="11.43867974032227"><ele>74.33333333333334</ele><time>2026-04-24T17:36:33.904Z</time></trkpt><trkpt lat="44.43750317275999" lon="11.438806484587136"><ele>74.66666666666667</ele><time>2026-04-24T17:36:35.904Z</time></trkpt><trkpt lat="44.43751056036675" lon="11.438920594157885"><ele>75.0</ele><time>2026-04-24T17:36:37.904Z</time></trkpt><trkpt lat="44.437528013451335" lon="11.43902369272295"><ele>75.33333333333333</ele><time>2026-04-24T17:36:40.904Z</time></trkpt><trkpt lat="44.43749358772429" lon="11.439145274069986"><ele>75.66666666666666</ele><time>2026-04-24T17:36:43.904Z</time></trkpt><trkpt lat="44.43747329921727" lon="11.439243326718923"><ele>76.0</ele><time>2026-04-24T17:36:45.904Z</time></trkpt><trkpt lat="44.43747979555812" lon="11.439346831972411"><ele>76.0</ele><time>2026-04-24T17:36:47.904Z</time></trkpt><trkpt lat="44.4375527589002" lon="11.439429334318705"><ele>76.0</ele><time>2026-04-24T17:36:49.904Z</time></trkpt><trkpt lat="44.43762875236142" lon="11.43949031523289"><ele>76.0</ele><time>2026-04-24T17:36:51.904Z</time></trkpt><trkpt lat="44.43768731999592" lon="11.439587388813388"><ele>76.0</ele><time>2026-04-24T17:36:53.904Z</time></trkpt><trkpt lat="44.43774357853395" lon="11.439707197764278"><ele>76.0</ele><time>2026-04-24T17:36:55.904Z</time></trkpt><trkpt lat="44.43778496596379" lon="11.439830620530458"><ele>75.2</ele><time>2026-04-24T17:36:57.904Z</time></trkpt><trkpt lat="44.437817345787025" lon="11.439945843131776"><ele>74.39999999999999</ele><time>2026-04-24T17:36:59.904Z</time></trkpt><trkpt lat="44.437842340480124" lon="11.440085400609325"><ele>73.6</ele><time>2026-04-24T17:37:01.904Z</time></trkpt><trkpt lat="44.43782430813636" lon="11.440233873023661"><ele>72.8</ele><time>2026-04-24T17:37:03.904Z</time></trkpt><trkpt lat="44.43782932253864" lon="11.440359491929936"><ele>72.0</ele><time>2026-04-24T17:37:05.904Z</time></trkpt><trkpt lat="44.437837694071675" lon="11.44048213012542"><ele>72.0</ele><time>2026-04-24T17:37:07.904Z</time></trkpt><trkpt lat="44.43784063974416" lon="11.440605045275769"><ele>72.0</ele><time>2026-04-24T17:37:09.904Z</time></trkpt><trkpt lat="44.43785652415766" lon="11.440736792531354"><ele>72.0</ele><time>2026-04-24T17:37:11.904Z</time></trkpt><trkpt lat="44.43787627502846" lon="11.440853194217167"><ele>72.0</ele><time>2026-04-24T17:37:13.904Z</time></trkpt><trkpt lat="44.437889996973745" lon="11.44096831983703"><ele>72.0</ele><time>2026-04-24T17:37:15.904Z</time></trkpt><trkpt lat="44.437913551381584" lon="11.441089159225966"><ele>72.0</ele><time>2026-04-24T17:37:17.904Z</time></trkpt><trkpt lat="44.43794061875879" lon="11.441209020024147"><ele>71.66666666666667</ele><time>2026-04-24T17:37:19.904Z</time></trkpt><trkpt lat="44.43797467670951" lon="11.441326361681602"><ele>71.33333333333333</ele><time>2026-04-24T17:37:21.904Z</time></trkpt><trkpt lat="44.43800409903666" lon="11.441442239644536"><ele>71.0</ele><time>2026-04-24T17:37:23.904Z</time></trkpt><trkpt lat="44.43803182956496" lon="11.44155820781468"><ele>70.66666666666666</ele><time>2026-04-24T17:37:25.904Z</time></trkpt><trkpt lat="44.43807937587539" lon="11.441654855097896"><ele>70.33333333333333</ele><time>2026-04-24T17:37:27.904Z</time></trkpt><trkpt lat="44.43813378873719" lon="11.441745157416312"><ele>70.0</ele><time>2026-04-24T17:37:29.903Z</time></trkpt><trkpt lat="44.43820417214732" lon="11.441812232981805"><ele>70.0</ele><time>2026-04-24T17:37:31.903Z</time></trkpt><trkpt lat="44.43828728139771" lon="11.44185336339421"><ele>70.0</ele><time>2026-04-24T17:37:33.903Z</time></trkpt><trkpt lat="44.43837324476064" lon="11.441861869786575"><ele>70.0</ele><time>2026-04-24T17:37:35.903Z</time></trkpt><trkpt lat="44.438459820557995" lon="11.441828391630809"><ele>70.0</ele><time>2026-04-24T17:37:37.903Z</time></trkpt><trkpt lat="44.43854463740787" lon="11.441800315540723"><ele>70.0</ele><time>2026-04-24T17:37:39.903Z</time></trkpt><trkpt lat="44.43860438340087" lon="11.44175680505761"><ele>70.0</ele><time>2026-04-24T17:37:43.903Z</time></trkpt><trkpt lat="44.438650458030104" lon="11.441839741260157"><ele>70.0</ele><time>2026-04-24T17:37:46.903Z</time></trkpt><trkpt lat="44.438655287765386" lon="11.441955902901599"><ele>70.0</ele><time>2026-04-24T17:37:59.903Z</time></trkpt><trkpt lat="44.43865985184231" lon="11.442064010122362"><ele>70.0</ele><time>2026-04-24T17:38:05.905Z</time></trkpt><trkpt lat="44.43867637881835" lon="11.442186429948686"><ele>70.0</ele><time>2026-04-24T17:38:09.905Z</time></trkpt><trkpt lat="44.438746925397254" lon="11.442178940538454"><ele>70.0</ele><time>2026-04-24T17:38:12.905Z</time></trkpt><trkpt lat="44.438817890128206" lon="11.442172525126095"><ele>70.0</ele><time>2026-04-24T17:38:16.906Z</time></trkpt><trkpt lat="44.438885514766476" lon="11.442155260940709"><ele>69.83333333333333</ele><time>2026-04-24T17:38:19.906Z</time></trkpt><trkpt lat="44.4389686660219" lon="11.442212620537168"><ele>69.66666666666666</ele><time>2026-04-24T17:38:22.906Z</time></trkpt><trkpt lat="44.4390475315162" lon="11.442272456651718"><ele>69.5</ele><time>2026-04-24T17:38:25.906Z</time></trkpt><trkpt lat="44.4391075402175" lon="11.442300747314434"><ele>69.33333333333333</ele><time>2026-04-24T17:38:27.906Z</time></trkpt><trkpt lat="44.43916304285196" lon="11.44236430951003"><ele>69.16666666666667</ele><time>2026-04-24T17:38:29.906Z</time></trkpt><trkpt lat="44.43924947429618" lon="11.442402819632543"><ele>69.0</ele><time>2026-04-24T17:38:32.906Z</time></trkpt><trkpt lat="44.439314642418026" lon="11.442434663277773"><ele>69.0</ele><time>2026-04-24T17:38:34.906Z</time></trkpt><trkpt lat="44.43938773183871" lon="11.442476029841707"><ele>69.0</ele><time>2026-04-24T17:38:36.906Z</time></trkpt><trkpt lat="44.43946422831163" lon="11.442468417782791"><ele>69.0</ele><time>2026-04-24T17:38:38.908Z</time></trkpt><trkpt lat="44.43952278728098" lon="11.442433202085187"><ele>69.0</ele><time>2026-04-24T17:38:40.91Z</time></trkpt><trkpt lat="44.43960793999121" lon="11.442413605970557"><ele>69.0</ele><time>2026-04-24T17:38:43.912Z</time></trkpt><trkpt lat="44.439667051328456" lon="11.442356306490678"><ele>69.0</ele><time>2026-04-24T17:38:45.914Z</time></trkpt><trkpt lat="44.43968265720513" lon="11.442268848829602"><ele>69.0</ele><time>2026-04-24T17:38:47.915Z</time></trkpt><trkpt lat="44.439710238477446" lon="11.442151437806062"><ele>69.16666666666667</ele><time>2026-04-24T17:38:50.916Z</time></trkpt><trkpt lat="44.4397846168948" lon="11.44205196104367"><ele>69.33333333333333</ele><time>2026-04-24T17:38:52.917Z</time></trkpt><trkpt lat="44.43985883311162" lon="11.44194336432618"><ele>69.5</ele><time>2026-04-24T17:38:54.918Z</time></trkpt><trkpt lat="44.43990358971406" lon="11.441873661001216"><ele>69.66666666666666</ele><time>2026-04-24T17:38:55.918Z</time></trkpt><trkpt lat="44.43996100960916" lon="11.441822558396632"><ele>69.83333333333333</ele><time>2026-04-24T17:38:56.919Z</time></trkpt><trkpt lat="44.44003219570905" lon="11.44179236563922"><ele>70.0</ele><time>2026-04-24T17:38:57.919Z</time></trkpt><trkpt lat="44.44010466943332" lon="11.441806557419559"><ele>70.0</ele><time>2026-04-24T17:38:58.919Z</time></trkpt><trkpt lat="44.44017828891137" lon="11.441822925958302"><ele>70.0</ele><time>2026-04-24T17:38:59.92Z</time></trkpt><trkpt lat="44.44026366289372" lon="11.441825742949026"><ele>70.0</ele><time>2026-04-24T17:39:00.92Z</time></trkpt><trkpt lat="44.440351399294265" lon="11.441809082469467"><ele>70.0</ele><time>2026-04-24T17:39:01.92Z</time></trkpt><trkpt lat="44.44043980406131" lon="11.441791038255875"><ele>70.0</ele><time>2026-04-24T17:39:02.92Z</time></trkpt><trkpt lat="44.44051476772254" lon="11.441794168788501"><ele>70.0</ele><time>2026-04-24T17:39:03.921Z</time></trkpt><trkpt lat="44.44058235857938" lon="11.441794332712936"><ele>69.4</ele><time>2026-04-24T17:39:04.921Z</time></trkpt><trkpt lat="44.440655461686326" lon="11.4417929965041"><ele>68.8</ele><time>2026-04-24T17:39:05.921Z</time></trkpt><trkpt lat="44.44072861612861" lon="11.441794708958525"><ele>68.2</ele><time>2026-04-24T17:39:06.921Z</time></trkpt><trkpt lat="44.44083348308791" lon="11.441867096364179"><ele>67.6</ele><time>2026-04-24T17:39:08.921Z</time></trkpt><trkpt lat="44.44090167810984" lon="11.441887958747012"><ele>67.0</ele><time>2026-04-24T17:39:09.921Z</time></trkpt><trkpt lat="44.44101995086474" lon="11.441915567263495"><ele>67.0</ele><time>2026-04-24T17:39:11.922Z</time></trkpt><trkpt lat="44.441084193278584" lon="11.441904016899143"><ele>67.0</ele><time>2026-04-24T17:39:13.922Z</time></trkpt><trkpt lat="44.441091086216964" lon="11.442000068354835"><ele>67.0</ele><time>2026-04-24T17:39:15.922Z</time></trkpt><trkpt lat="44.4410598502966" lon="11.442086919041426"><ele>67.0</ele><time>2026-04-24T17:39:18.922Z</time></trkpt><trkpt lat="44.441057912588256" lon="11.442183205556944"><ele>67.0</ele><time>2026-04-24T17:39:21.923Z</time></trkpt><trkpt lat="44.44107051594301" lon="11.442285734186296"><ele>67.0</ele><time>2026-04-24T17:39:24.923Z</time></trkpt><trkpt lat="44.44109046245527" lon="11.442409722095885"><ele>67.0</ele><time>2026-04-24T17:39:27.923Z</time></trkpt><trkpt lat="44.4411136586499" lon="11.442496433763711"><ele>66.83333333333333</ele><time>2026-04-24T17:39:29.923Z</time></trkpt><trkpt lat="44.44114026679777" lon="11.442611338444756"><ele>66.66666666666666</ele><time>2026-04-24T17:39:31.923Z</time></trkpt><trkpt lat="44.4411699677066" lon="11.442727307458881"><ele>66.5</ele><time>2026-04-24T17:39:33.923Z</time></trkpt><trkpt lat="44.44119701634407" lon="11.442831498375691"><ele>66.33333333333333</ele><time>2026-04-24T17:39:35.923Z</time></trkpt><trkpt lat="44.4412085521603" lon="11.4429343618396"><ele>66.16666666666667</ele><time>2026-04-24T17:39:37.923Z</time></trkpt><trkpt lat="44.44122803102584" lon="11.443059051678565"><ele>66.0</ele><time>2026-04-24T17:39:40.923Z</time></trkpt><trkpt lat="44.441235299507994" lon="11.443163011329284"><ele>66.0</ele><time>2026-04-24T17:39:43.923Z</time></trkpt><trkpt lat="44.44124307892835" lon="11.443256768212471"><ele>66.0</ele><time>2026-04-24T17:39:46.923Z</time></trkpt><trkpt lat="44.44122743043427" lon="11.443361631327022"><ele>66.0</ele><time>2026-04-24T17:39:49.923Z</time></trkpt><trkpt lat="44.44122444748784" lon="11.443462153147397"><ele>66.0</ele><time>2026-04-24T17:39:51.923Z</time></trkpt><trkpt lat="44.441221206583826" lon="11.443558085822612"><ele>66.0</ele><time>2026-04-24T17:39:53.923Z</time></trkpt><trkpt lat="44.44122935984094" lon="11.443674425656805"><ele>66.0</ele><time>2026-04-24T17:39:56.923Z</time></trkpt><trkpt lat="44.44126881396408" lon="11.44374841178631"><ele>66.0</ele><time>2026-04-24T17:39:59.923Z</time></trkpt><trkpt lat="44.44132338046737" lon="11.443795496205981"><ele>67.5</ele><time>2026-04-24T17:40:02.924Z</time></trkpt><trkpt lat="44.441378440809856" lon="11.443873443950764"><ele>69.0</ele><time>2026-04-24T17:40:05.924Z</time></trkpt><trkpt lat="44.4414411724845" lon="11.443925749198485"><ele>70.5</ele><time>2026-04-24T17:40:08.924Z</time></trkpt><trkpt lat="44.441502517811124" lon="11.444008094836766"><ele>72.0</ele><time>2026-04-24T17:40:11.925Z</time></trkpt><trkpt lat="44.441559201915624" lon="11.44408122400435"><ele>73.5</ele><time>2026-04-24T17:40:14.925Z</time></trkpt><trkpt lat="44.441619729666044" lon="11.444136037422505"><ele>75.0</ele><time>2026-04-24T17:40:17.925Z</time></trkpt><trkpt lat="44.44168600855219" lon="11.444181652772114"><ele>74.99999999999999</ele><time>2026-04-24T17:40:20.925Z</time></trkpt><trkpt lat="44.441735673555456" lon="11.444248791618"><ele>75.0</ele><time>2026-04-24T17:40:23.925Z</time></trkpt><trkpt lat="44.4417974715246" lon="11.444300856475543"><ele>75.0</ele><time>2026-04-24T17:40:26.925Z</time></trkpt><trkpt lat="44.441861054572456" lon="11.444355475763038"><ele>75.0</ele><time>2026-04-24T17:40:29.925Z</time></trkpt><trkpt lat="44.44192076155997" lon="11.444415398384656"><ele>75.0</ele><time>2026-04-24T17:40:32.925Z</time></trkpt><trkpt lat="44.44198360861566" lon="11.444468512149589"><ele>74.99999999999999</ele><time>2026-04-24T17:40:35.925Z</time></trkpt><trkpt lat="44.44204604016486" lon="11.444527163598897"><ele>75.0</ele><time>2026-04-24T17:40:38.925Z</time></trkpt><trkpt lat="44.44211074120551" lon="11.4445982539405"><ele>75.5</ele><time>2026-04-24T17:40:41.925Z</time></trkpt><trkpt lat="44.44217173164399" lon="11.444662637229023"><ele>76.0</ele><time>2026-04-24T17:40:44.925Z</time></trkpt><trkpt lat="44.44223976324175" lon="11.444735340195438"><ele>76.5</ele><time>2026-04-24T17:40:47.925Z</time></trkpt><trkpt lat="44.44230770385416" lon="11.444792824891932"><ele>77.0</ele><time>2026-04-24T17:40:50.925Z</time></trkpt><trkpt lat="44.442372838967124" lon="11.444847186049385"><ele>77.5</ele><time>2026-04-24T17:40:53.925Z</time></trkpt><trkpt lat="44.44243520214702" lon="11.444901036380745"><ele>78.0</ele><time>2026-04-24T17:40:56.925Z</time></trkpt><trkpt lat="44.442506195130996" lon="11.444973672917884"><ele>78.0</ele><time>2026-04-24T17:40:59.925Z</time></trkpt><trkpt lat="44.44257813412577" lon="11.445026617729"><ele>78.0</ele><time>2026-04-24T17:41:02.925Z</time></trkpt><trkpt lat="44.442635816409144" lon="11.44509797130633"><ele>78.0</ele><time>2026-04-24T17:41:05.925Z</time></trkpt><trkpt lat="44.44269109106388" lon="11.445142965057476"><ele>78.0</ele><time>2026-04-24T17:41:07.925Z</time></trkpt><trkpt lat="44.44276190297223" lon="11.445210548972385"><ele>78.0</ele><time>2026-04-24T17:41:10.925Z</time></trkpt><trkpt lat="44.44283753712145" lon="11.445281077409591"><ele>78.0</ele><time>2026-04-24T17:41:13.925Z</time></trkpt><trkpt lat="44.442904825876305" lon="11.445361163314125"><ele>77.33333333333333</ele><time>2026-04-24T17:41:16.925Z</time></trkpt><trkpt lat="44.44296820277329" lon="11.445421326178053"><ele>76.66666666666667</ele><time>2026-04-24T17:41:19.925Z</time></trkpt><trkpt lat="44.44301782625005" lon="11.445475948395332"><ele>76.0</ele><time>2026-04-24T17:41:21.925Z</time></trkpt><trkpt lat="44.443075254663135" lon="11.44552963712199"><ele>75.33333333333334</ele><time>2026-04-24T17:41:23.925Z</time></trkpt><trkpt lat="44.443142489090796" lon="11.445586375322126"><ele>74.66666666666667</ele><time>2026-04-24T17:41:26.925Z</time></trkpt><trkpt lat="44.4432214625736" lon="11.445650320713707"><ele>74.0</ele><time>2026-04-24T17:41:29.925Z</time></trkpt><trkpt lat="44.44329827351085" lon="11.44572396383371"><ele>74.0</ele><time>2026-04-24T17:41:32.925Z</time></trkpt><trkpt lat="44.44337464225012" lon="11.445798375109828"><ele>74.0</ele><time>2026-04-24T17:41:35.925Z</time></trkpt><trkpt lat="44.44342544036975" lon="11.445853473200431"><ele>74.0</ele><time>2026-04-24T17:41:37.925Z</time></trkpt><trkpt lat="44.443478421042094" lon="11.445910023586878"><ele>74.0</ele><time>2026-04-24T17:41:39.925Z</time></trkpt><trkpt lat="44.44353025792565" lon="11.445963645341225"><ele>74.0</ele><time>2026-04-24T17:41:41.925Z</time></trkpt><trkpt lat="44.4436103629599" lon="11.446028991790774"><ele>74.0</ele><time>2026-04-24T17:41:44.925Z</time></trkpt><trkpt lat="44.44366737041177" lon="11.446073013367174"><ele>74.0</ele><time>2026-04-24T17:41:46.925Z</time></trkpt><trkpt lat="44.44374200462058" lon="11.446120341961468"><ele>74.0</ele><time>2026-04-24T17:41:49.925Z</time></trkpt><trkpt lat="44.44378902738483" lon="11.446212208102025"><ele>74.0</ele><time>2026-04-24T17:41:53.925Z</time></trkpt><trkpt lat="44.443814161689644" lon="11.446321025666062"><ele>74.0</ele><time>2026-04-24T17:41:56.925Z</time></trkpt><trkpt lat="44.44382894942215" lon="11.446432038373754"><ele>74.0</ele><time>2026-04-24T17:41:59.925Z</time></trkpt><trkpt lat="44.44380487487532" lon="11.446514006401532"><ele>74.0</ele><time>2026-04-24T17:42:01.925Z</time></trkpt><trkpt lat="44.44376800303731" lon="11.446627911352385"><ele>74.0</ele><time>2026-04-24T17:42:04.925Z</time></trkpt><trkpt lat="44.44376696951318" lon="11.446751621121589"><ele>74.0</ele><time>2026-04-24T17:42:07.925Z</time></trkpt><trkpt lat="44.44384146780058" lon="11.446764330356126"><ele>74.0</ele><time>2026-04-24T17:42:10.925Z</time></trkpt><trkpt lat="44.44387292451929" lon="11.446851226658874"><ele>74.0</ele><time>2026-04-24T17:42:14.926Z</time></trkpt><trkpt lat="44.4438985490954" lon="11.446953647519013"><ele>74.0</ele><time>2026-04-24T17:42:18.926Z</time></trkpt><trkpt lat="44.4439075910398" lon="11.44705400795514"><ele>74.0</ele><time>2026-04-24T17:42:21.926Z</time></trkpt><trkpt lat="44.44390541866773" lon="11.447160984909093"><ele>74.0</ele><time>2026-04-24T17:42:25.926Z</time></trkpt><trkpt lat="44.44392626928183" lon="11.447246868549676"><ele>74.0</ele><time>2026-04-24T17:42:27.926Z</time></trkpt><trkpt lat="44.44392089368533" lon="11.44734319461098"><ele>74.16666666666667</ele><time>2026-04-24T17:42:29.926Z</time></trkpt><trkpt lat="44.44392036906027" lon="11.44743663700059"><ele>74.33333333333334</ele><time>2026-04-24T17:42:31.926Z</time></trkpt><trkpt lat="44.443919863784224" lon="11.447537114677392"><ele>74.5</ele><time>2026-04-24T17:42:33.926Z</time></trkpt><trkpt lat="44.44393776969262" lon="11.447648060503656"><ele>74.66666666666667</ele><time>2026-04-24T17:42:35.926Z</time></trkpt><trkpt lat="44.44396966540242" lon="11.447776719802356"><ele>74.83333333333333</ele><time>2026-04-24T17:42:37.926Z</time></trkpt><trkpt lat="44.444007478622105" lon="11.44790346541363"><ele>75.0</ele><time>2026-04-24T17:42:39.926Z</time></trkpt><trkpt lat="44.44403643404114" lon="11.44802410923668"><ele>75.0</ele><time>2026-04-24T17:42:41.926Z</time></trkpt><trkpt lat="44.444076303430066" lon="11.44815929823095"><ele>75.0</ele><time>2026-04-24T17:42:43.926Z</time></trkpt><trkpt lat="44.44411014567655" lon="11.448288052712158"><ele>75.0</ele><time>2026-04-24T17:42:45.926Z</time></trkpt><trkpt lat="44.444140384894524" lon="11.448412681516976"><ele>75.0</ele><time>2026-04-24T17:42:47.926Z</time></trkpt><trkpt lat="44.444174422509384" lon="11.448536838094459"><ele>75.0</ele><time>2026-04-24T17:42:49.926Z</time></trkpt><trkpt lat="44.44421057142797" lon="11.448675951042613"><ele>74.4</ele><time>2026-04-24T17:42:51.926Z</time></trkpt><trkpt lat="44.44423555866899" lon="11.44881665242753"><ele>73.8</ele><time>2026-04-24T17:42:53.926Z</time></trkpt><trkpt lat="44.44422197865067" lon="11.448959440680285"><ele>73.2</ele><time>2026-04-24T17:42:55.926Z</time></trkpt><trkpt lat="44.444188116224225" lon="11.44909814349419"><ele>72.6</ele><time>2026-04-24T17:42:57.926Z</time></trkpt><trkpt lat="44.44413732569936" lon="11.449232856431658"><ele>72.0</ele><time>2026-04-24T17:42:59.926Z</time></trkpt><trkpt lat="44.44408628925182" lon="11.449367433250632"><ele>72.0</ele><time>2026-04-24T17:43:01.926Z</time></trkpt><trkpt lat="44.4440396835253" lon="11.449494913320866"><ele>72.0</ele><time>2026-04-24T17:43:03.926Z</time></trkpt><trkpt lat="44.44399429074004" lon="11.44961995369071"><ele>72.0</ele><time>2026-04-24T17:43:05.926Z</time></trkpt><trkpt lat="44.443952362380145" lon="11.449735450845758"><ele>72.0</ele><time>2026-04-24T17:43:07.926Z</time></trkpt><trkpt lat="44.44390759443636" lon="11.449858770004521"><ele>72.0</ele><time>2026-04-24T17:43:09.926Z</time></trkpt><trkpt lat="44.44386415692772" lon="11.449978424304334"><ele>72.0</ele><time>2026-04-24T17:43:11.926Z</time></trkpt><trkpt lat="44.44382094515524" lon="11.450097456791319"><ele>72.0</ele><time>2026-04-24T17:43:13.926Z</time></trkpt><trkpt lat="44.443776719552325" lon="11.450219282005826"><ele>72.0</ele><time>2026-04-24T17:43:15.926Z</time></trkpt><trkpt lat="44.44373411931704" lon="11.450336629926674"><ele>72.0</ele><time>2026-04-24T17:43:17.926Z</time></trkpt><trkpt lat="44.44369254726621" lon="11.450451145582345"><ele>72.0</ele><time>2026-04-24T17:43:19.926Z</time></trkpt><trkpt lat="44.44362014562483" lon="11.450545269233015"><ele>72.4</ele><time>2026-04-24T17:43:21.926Z</time></trkpt><trkpt lat="44.44357257265561" lon="11.450659353923442"><ele>72.80000000000001</ele><time>2026-04-24T17:43:23.926Z</time></trkpt><trkpt lat="44.4435308435943" lon="11.450780889953318"><ele>73.2</ele><time>2026-04-24T17:43:25.926Z</time></trkpt><trkpt lat="44.443486365425386" lon="11.450897744190518"><ele>73.60000000000001</ele><time>2026-04-24T17:43:27.926Z</time></trkpt><trkpt lat="44.4434434424803" lon="11.451013033903799"><ele>74.0</ele><time>2026-04-24T17:43:29.926Z</time></trkpt><trkpt lat="44.44340474008259" lon="11.451128184471045"><ele>74.0</ele><time>2026-04-24T17:43:31.926Z</time></trkpt><trkpt lat="44.443361020355475" lon="11.451240163667839"><ele>74.0</ele><time>2026-04-24T17:43:33.926Z</time></trkpt><trkpt lat="44.44331652610457" lon="11.451364689968552"><ele>74.0</ele><time>2026-04-24T17:43:35.926Z</time></trkpt><trkpt lat="44.44327581957513" lon="11.4514776620588"><ele>74.0</ele><time>2026-04-24T17:43:37.926Z</time></trkpt><trkpt lat="44.443234174677336" lon="11.45158427981238"><ele>74.0</ele><time>2026-04-24T17:43:39.926Z</time></trkpt><trkpt lat="44.44319986315831" lon="11.451691477092798"><ele>74.33333333333334</ele><time>2026-04-24T17:43:41.926Z</time></trkpt><trkpt lat="44.44316218555084" lon="11.451792520206174"><ele>74.66666666666667</ele><time>2026-04-24T17:43:43.926Z</time></trkpt><trkpt lat="44.44312403870747" lon="11.45189727763203"><ele>75.0</ele><time>2026-04-24T17:43:45.926Z</time></trkpt><trkpt lat="44.443085025841434" lon="11.45200400543455"><ele>75.33333333333333</ele><time>2026-04-24T17:43:47.926Z</time></trkpt><trkpt lat="44.44304605409035" lon="11.452110398630497"><ele>75.66666666666666</ele><time>2026-04-24T17:43:49.926Z</time></trkpt><trkpt lat="44.44300872305739" lon="11.452217216291348"><ele>76.0</ele><time>2026-04-24T17:43:51.926Z</time></trkpt><trkpt lat="44.442968423965986" lon="11.452320422411224"><ele>76.0</ele><time>2026-04-24T17:43:53.926Z</time></trkpt><trkpt lat="44.44292784102484" lon="11.452422096341788"><ele>76.0</ele><time>2026-04-24T17:43:55.926Z</time></trkpt><trkpt lat="44.442899448226036" lon="11.452525796190935"><ele>76.0</ele><time>2026-04-24T17:43:57.926Z</time></trkpt><trkpt lat="44.44286422519277" lon="11.452625795127569"><ele>76.0</ele><time>2026-04-24T17:43:59.926Z</time></trkpt><trkpt lat="44.4427833957415" lon="11.452661299355356"><ele>76.0</ele><time>2026-04-24T17:44:01.926Z</time></trkpt><trkpt lat="44.4427056560653" lon="11.4525861629657"><ele>76.0</ele><time>2026-04-24T17:44:03.926Z</time></trkpt><trkpt lat="44.44263567662438" lon="11.452511765657366"><ele>76.0</ele><time>2026-04-24T17:44:05.926Z</time></trkpt><trkpt lat="44.442559797081366" lon="11.45244853268521"><ele>76.0</ele><time>2026-04-24T17:44:07.926Z</time></trkpt><trkpt lat="44.44248879912028" lon="11.452379067996798"><ele>76.0</ele><time>2026-04-24T17:44:09.926Z</time></trkpt><trkpt lat="44.442411919547894" lon="11.45231733126906"><ele>76.0</ele><time>2026-04-24T17:44:11.926Z</time></trkpt><trkpt lat="44.44234500081693" lon="11.452253720664551"><ele>76.0</ele><time>2026-04-24T17:44:13.926Z</time></trkpt><trkpt lat="44.44226896211603" lon="11.45219390265682"><ele>76.0</ele><time>2026-04-24T17:44:15.926Z</time></trkpt><trkpt lat="44.442188652882535" lon="11.452131115642338"><ele>76.39999999999999</ele><time>2026-04-24T17:44:17.926Z</time></trkpt><trkpt lat="44.44210515061903" lon="11.45206134093651"><ele>76.8</ele><time>2026-04-24T17:44:19.927Z</time></trkpt><trkpt lat="44.44202782651961" lon="11.451985628018706"><ele>77.19999999999999</ele><time>2026-04-24T17:44:21.928Z</time></trkpt><trkpt lat="44.441954433760706" lon="11.451916589537184"><ele>77.6</ele><time>2026-04-24T17:44:23.927Z</time></trkpt><trkpt lat="44.44188134579207" lon="11.451849649917449"><ele>78.0</ele><time>2026-04-24T17:44:25.927Z</time></trkpt><trkpt lat="44.441810562247184" lon="11.451785725200782"><ele>78.0</ele><time>2026-04-24T17:44:27.927Z</time></trkpt><trkpt lat="44.44173717014198" lon="11.45171847116229"><ele>78.0</ele><time>2026-04-24T17:44:29.927Z</time></trkpt><trkpt lat="44.441668847111515" lon="11.451660561830757"><ele>78.0</ele><time>2026-04-24T17:44:31.928Z</time></trkpt><trkpt lat="44.44159310028061" lon="11.45159626232039"><ele>78.0</ele><time>2026-04-24T17:44:33.928Z</time></trkpt><trkpt lat="44.44152171425771" lon="11.451536983990923"><ele>78.0</ele><time>2026-04-24T17:44:35.928Z</time></trkpt><trkpt lat="44.44144574567035" lon="11.451484343339231"><ele>78.0</ele><time>2026-04-24T17:44:37.928Z</time></trkpt><trkpt lat="44.44136182701379" lon="11.451441326341063"><ele>77.83333333333333</ele><time>2026-04-24T17:44:39.928Z</time></trkpt><trkpt lat="44.441282093571125" lon="11.45143515469178"><ele>77.66666666666667</ele><time>2026-04-24T17:44:41.928Z</time></trkpt><trkpt lat="44.44120488767763" lon="11.451469676300318"><ele>77.5</ele><time>2026-04-24T17:44:43.928Z</time></trkpt><trkpt lat="44.44113295996842" lon="11.451540715549214"><ele>77.33333333333334</ele><time>2026-04-24T17:44:45.928Z</time></trkpt><trkpt lat="44.441079601096064" lon="11.45164513359295"><ele>77.16666666666667</ele><time>2026-04-24T17:44:47.928Z</time></trkpt><trkpt lat="44.44104230774334" lon="11.451750002669385"><ele>77.0</ele><time>2026-04-24T17:44:49.928Z</time></trkpt><trkpt lat="44.4410114548297" lon="11.451853345826327"><ele>77.0</ele><time>2026-04-24T17:44:51.928Z</time></trkpt><trkpt lat="44.4409774319873" lon="11.451957498590494"><ele>77.0</ele><time>2026-04-24T17:44:53.928Z</time></trkpt><trkpt lat="44.44094268607608" lon="11.452063019143717"><ele>77.0</ele><time>2026-04-24T17:44:55.928Z</time></trkpt><trkpt lat="44.44091067692315" lon="11.45216101218352"><ele>77.0</ele><time>2026-04-24T17:44:57.928Z</time></trkpt><trkpt lat="44.440874786031" lon="11.45225799995149"><ele>77.0</ele><time>2026-04-24T17:44:59.928Z</time></trkpt><trkpt lat="44.44084353380854" lon="11.452363739482333"><ele>77.0</ele><time>2026-04-24T17:45:01.928Z</time></trkpt><trkpt lat="44.44081338457587" lon="11.452461171676008"><ele>77.0</ele><time>2026-04-24T17:45:03.928Z</time></trkpt><trkpt lat="44.440778959045716" lon="11.45256091662967"><ele>77.0</ele><time>2026-04-24T17:45:05.928Z</time></trkpt><trkpt lat="44.44074547809335" lon="11.452663536413477"><ele>77.0</ele><time>2026-04-24T17:45:07.928Z</time></trkpt><trkpt lat="44.44071673295329" lon="11.45275700961487"><ele>77.0</ele><time>2026-04-24T17:45:09.928Z</time></trkpt><trkpt lat="44.44068371656669" lon="11.452860743654808"><ele>77.0</ele><time>2026-04-24T17:45:11.928Z</time></trkpt><trkpt lat="44.44065014800079" lon="11.452963734026744"><ele>77.0</ele><time>2026-04-24T17:45:13.928Z</time></trkpt><trkpt lat="44.44061107991251" lon="11.453057773218314"><ele>77.33333333333334</ele><time>2026-04-24T17:45:15.928Z</time></trkpt><trkpt lat="44.440584532131886" lon="11.45315952879139"><ele>77.66666666666667</ele><time>2026-04-24T17:45:17.928Z</time></trkpt><trkpt lat="44.44054994443505" lon="11.453254654969728"><ele>78.0</ele><time>2026-04-24T17:45:19.928Z</time></trkpt><trkpt lat="44.44051884177407" lon="11.453358737239698"><ele>78.33333333333333</ele><time>2026-04-24T17:45:21.928Z</time></trkpt><trkpt lat="44.44048605218282" lon="11.453465946941929"><ele>78.66666666666666</ele><time>2026-04-24T17:45:23.928Z</time></trkpt><trkpt lat="44.4404540535935" lon="11.453562042780405"><ele>79.0</ele><time>2026-04-24T17:45:25.928Z</time></trkpt><trkpt lat="44.44041942527544" lon="11.453662548835002"><ele>79.16666666666666</ele><time>2026-04-24T17:45:27.928Z</time></trkpt><trkpt lat="44.44039032684068" lon="11.453762837479383"><ele>79.33333333333333</ele><time>2026-04-24T17:45:29.928Z</time></trkpt><trkpt lat="44.440357156045685" lon="11.453863816756847"><ele>79.5</ele><time>2026-04-24T17:45:31.928Z</time></trkpt><trkpt lat="44.44032265599222" lon="11.45397549806997"><ele>79.66666666666667</ele><time>2026-04-24T17:45:33.928Z</time></trkpt><trkpt lat="44.440280085918076" lon="11.454098676756127"><ele>79.83333333333334</ele><time>2026-04-24T17:45:35.928Z</time></trkpt><trkpt lat="44.44025054923039" lon="11.454226732766905"><ele>80.0</ele><time>2026-04-24T17:45:37.928Z</time></trkpt><trkpt lat="44.44022082454179" lon="11.454346955026526"><ele>80.0</ele><time>2026-04-24T17:45:39.928Z</time></trkpt><trkpt lat="44.440189685172584" lon="11.454468016882066"><ele>80.0</ele><time>2026-04-24T17:45:41.928Z</time></trkpt><trkpt lat="44.44015929056547" lon="11.454598209407177"><ele>80.0</ele><time>2026-04-24T17:45:43.928Z</time></trkpt><trkpt lat="44.44012797599162" lon="11.454730336953745"><ele>80.0</ele><time>2026-04-24T17:45:45.928Z</time></trkpt><trkpt lat="44.44009193588446" lon="11.454874310793409"><ele>80.0</ele><time>2026-04-24T17:45:47.928Z</time></trkpt><trkpt lat="44.440062811094194" lon="11.455016354493806"><ele>80.0</ele><time>2026-04-24T17:45:49.928Z</time></trkpt><trkpt lat="44.440061103121664" lon="11.455170140380353"><ele>80.0</ele><time>2026-04-24T17:45:51.928Z</time></trkpt><trkpt lat="44.44002722030791" lon="11.455316355119834"><ele>80.0</ele><time>2026-04-24T17:45:53.928Z</time></trkpt><trkpt lat="44.43999573353792" lon="11.455449310925287"><ele>80.0</ele><time>2026-04-24T17:45:55.928Z</time></trkpt><trkpt lat="44.439965682537185" lon="11.455574739202802"><ele>80.0</ele><time>2026-04-24T17:45:57.928Z</time></trkpt><trkpt lat="44.43993588715358" lon="11.455699100584765"><ele>80.16666666666667</ele><time>2026-04-24T17:45:59.928Z</time></trkpt><trkpt lat="44.439908729804635" lon="11.455812451213447"><ele>80.33333333333334</ele><time>2026-04-24T17:46:01.928Z</time></trkpt><trkpt lat="44.439882002299456" lon="11.455924007740133"><ele>80.5</ele><time>2026-04-24T17:46:03.928Z</time></trkpt><trkpt lat="44.43985554185979" lon="11.456034449576157"><ele>80.66666666666667</ele><time>2026-04-24T17:46:05.928Z</time></trkpt><trkpt lat="44.439828776273195" lon="11.456146165041961"><ele>80.83333333333333</ele><time>2026-04-24T17:46:07.928Z</time></trkpt><trkpt lat="44.439803613304655" lon="11.456251581750076"><ele>81.0</ele><time>2026-04-24T17:46:09.928Z</time></trkpt><trkpt lat="44.439768508917965" lon="11.456357264947677"><ele>81.16666666666667</ele><time>2026-04-24T17:46:11.928Z</time></trkpt><trkpt lat="44.43975122870944" lon="11.456473370635251"><ele>81.33333333333333</ele><time>2026-04-24T17:46:13.928Z</time></trkpt><trkpt lat="44.439724879456534" lon="11.45658581579882"><ele>81.5</ele><time>2026-04-24T17:46:15.928Z</time></trkpt><trkpt lat="44.43968098147899" lon="11.456687397618445"><ele>81.66666666666666</ele><time>2026-04-24T17:46:17.928Z</time></trkpt><trkpt lat="44.43964925113265" lon="11.456795718571735"><ele>81.83333333333333</ele><time>2026-04-24T17:46:19.928Z</time></trkpt><trkpt lat="44.43962054296951" lon="11.456902354273462"><ele>82.0</ele><time>2026-04-24T17:46:21.928Z</time></trkpt><trkpt lat="44.4395912087419" lon="11.457011348108539"><ele>82.16666666666666</ele><time>2026-04-24T17:46:23.928Z</time></trkpt><trkpt lat="44.43956665347787" lon="11.457120700734231"><ele>82.33333333333333</ele><time>2026-04-24T17:46:25.929Z</time></trkpt><trkpt lat="44.439536849456296" lon="11.457227285050937"><ele>82.5</ele><time>2026-04-24T17:46:27.929Z</time></trkpt><trkpt lat="44.43951416193275" lon="11.457330258361223"><ele>82.66666666666667</ele><time>2026-04-24T17:46:29.929Z</time></trkpt><trkpt lat="44.439488323079786" lon="11.45743132532243"><ele>82.83333333333334</ele><time>2026-04-24T17:46:31.929Z</time></trkpt><trkpt lat="44.43946286290703" lon="11.457536218639955"><ele>83.0</ele><time>2026-04-24T17:46:33.929Z</time></trkpt><trkpt lat="44.439445529797304" lon="11.457642828343277"><ele>83.0</ele><time>2026-04-24T17:46:35.929Z</time></trkpt><trkpt lat="44.439414696239886" lon="11.45774875894738"><ele>83.0</ele><time>2026-04-24T17:46:37.929Z</time></trkpt><trkpt lat="44.43938863767929" lon="11.457847380736139"><ele>83.0</ele><time>2026-04-24T17:46:39.929Z</time></trkpt><trkpt lat="44.439363266743115" lon="11.457948415425621"><ele>83.0</ele><time>2026-04-24T17:46:41.929Z</time></trkpt><trkpt lat="44.43938174653223" lon="11.458053168191192"><ele>83.0</ele><time>2026-04-24T17:46:44.929Z</time></trkpt><trkpt lat="44.43937647206431" lon="11.458166139176269"><ele>83.0</ele><time>2026-04-24T17:46:47.929Z</time></trkpt><trkpt lat="44.43935362872288" lon="11.458266909973473"><ele>83.5</ele><time>2026-04-24T17:46:49.929Z</time></trkpt><trkpt lat="44.43932464931351" lon="11.458369660909614"><ele>84.0</ele><time>2026-04-24T17:46:51.929Z</time></trkpt><trkpt lat="44.4392978563365" lon="11.45846823911106"><ele>84.5</ele><time>2026-04-24T17:46:53.929Z</time></trkpt><trkpt lat="44.43927199358961" lon="11.458580499525937"><ele>85.0</ele><time>2026-04-24T17:46:55.929Z</time></trkpt><trkpt lat="44.439244191019384" lon="11.458682954682692"><ele>85.5</ele><time>2026-04-24T17:46:57.929Z</time></trkpt><trkpt lat="44.43922163574044" lon="11.458794671142062"><ele>86.0</ele><time>2026-04-24T17:46:59.929Z</time></trkpt><trkpt lat="44.43919984511431" lon="11.458910140195286"><ele>86.0</ele><time>2026-04-24T17:47:01.929Z</time></trkpt><trkpt lat="44.43919437279966" lon="11.459033555049482"><ele>86.0</ele><time>2026-04-24T17:47:03.929Z</time></trkpt><trkpt lat="44.4391539873632" lon="11.459157725716876"><ele>86.0</ele><time>2026-04-24T17:47:05.929Z</time></trkpt><trkpt lat="44.439118213850016" lon="11.459289100498433"><ele>86.0</ele><time>2026-04-24T17:47:07.929Z</time></trkpt><trkpt lat="44.439092615887475" lon="11.459419413585607"><ele>86.0</ele><time>2026-04-24T17:47:09.929Z</time></trkpt><trkpt lat="44.43912666158359" lon="11.459545752812273"><ele>85.19999999999999</ele><time>2026-04-24T17:47:11.929Z</time></trkpt><trkpt lat="44.43921012630371" lon="11.459635536599517"><ele>84.39999999999999</ele><time>2026-04-24T17:47:13.929Z</time></trkpt><trkpt lat="44.43931513041157" lon="11.459696702422418"><ele>83.6</ele><time>2026-04-24T17:47:15.929Z</time></trkpt><trkpt lat="44.43940850511103" lon="11.459769810802268"><ele>82.8</ele><time>2026-04-24T17:47:17.929Z</time></trkpt><trkpt lat="44.43950326898894" lon="11.459862141388653"><ele>82.0</ele><time>2026-04-24T17:47:19.929Z</time></trkpt><trkpt lat="44.439601306661835" lon="11.45994490176936"><ele>81.75</ele><time>2026-04-24T17:47:21.929Z</time></trkpt><trkpt lat="44.439694116569534" lon="11.460033581239916"><ele>81.5</ele><time>2026-04-24T17:47:23.929Z</time></trkpt><trkpt lat="44.43978623225155" lon="11.46012196117724"><ele>81.25</ele><time>2026-04-24T17:47:25.929Z</time></trkpt><trkpt lat="44.439877444068664" lon="11.460223679262155"><ele>81.0</ele><time>2026-04-24T17:47:27.929Z</time></trkpt><trkpt lat="44.43996634473955" lon="11.46032141344804"><ele>81.0</ele><time>2026-04-24T17:47:29.929Z</time></trkpt><trkpt lat="44.440064192373164" lon="11.460415167909526"><ele>81.0</ele><time>2026-04-24T17:47:31.929Z</time></trkpt><trkpt lat="44.44016404866028" lon="11.4605034219606"><ele>81.0</ele><time>2026-04-24T17:47:33.929Z</time></trkpt><trkpt lat="44.4402609143816" lon="11.460585964275262"><ele>81.0</ele><time>2026-04-24T17:47:35.929Z</time></trkpt><trkpt lat="44.440363396844035" lon="11.460663554948047"><ele>79.6</ele><time>2026-04-24T17:47:37.929Z</time></trkpt><trkpt lat="44.44047378113946" lon="11.460737312774459"><ele>78.19999999999999</ele><time>2026-04-24T17:47:39.929Z</time></trkpt><trkpt lat="44.44058613503231" lon="11.460802590142386"><ele>76.80000000000001</ele><time>2026-04-24T17:47:41.929Z</time></trkpt><trkpt lat="44.44064593554125" lon="11.460832113277737"><ele>75.4</ele><time>2026-04-24T17:47:42.929Z</time></trkpt><trkpt lat="44.44076172157158" lon="11.460892596382426"><ele>74.0</ele><time>2026-04-24T17:47:44.929Z</time></trkpt><trkpt lat="44.440868370281336" lon="11.46096530755106"><ele>74.0</ele><time>2026-04-24T17:47:46.929Z</time></trkpt><trkpt lat="44.44097335261332" lon="11.46103641007171"><ele>74.0</ele><time>2026-04-24T17:47:48.929Z</time></trkpt><trkpt lat="44.44102725978867" lon="11.461082962095455"><ele>74.0</ele><time>2026-04-24T17:47:49.929Z</time></trkpt><trkpt lat="44.441125446278775" lon="11.461171896895788"><ele>74.0</ele><time>2026-04-24T17:47:51.929Z</time></trkpt><trkpt lat="44.44122577102905" lon="11.461266544625317"><ele>74.0</ele><time>2026-04-24T17:47:53.929Z</time></trkpt><trkpt lat="44.44127755388018" lon="11.461321542935467"><ele>72.75</ele><time>2026-04-24T17:47:54.929Z</time></trkpt><trkpt lat="44.44137312112563" lon="11.4614230580426"><ele>71.5</ele><time>2026-04-24T17:47:56.929Z</time></trkpt><trkpt lat="44.44147410218349" lon="11.461521498369663"><ele>70.25</ele><time>2026-04-24T17:47:58.929Z</time></trkpt><trkpt lat="44.44157543634238" lon="11.461615842761482"><ele>69.0</ele><time>2026-04-24T17:48:00.929Z</time></trkpt><trkpt lat="44.441674383486905" lon="11.46171179507243"><ele>69.0</ele><time>2026-04-24T17:48:02.929Z</time></trkpt><trkpt lat="44.44177066562668" lon="11.461811561941762"><ele>69.0</ele><time>2026-04-24T17:48:04.929Z</time></trkpt><trkpt lat="44.44186088388089" lon="11.461902558397458"><ele>69.0</ele><time>2026-04-24T17:48:06.929Z</time></trkpt><trkpt lat="44.44195615218887" lon="11.461993699165347"><ele>69.0</ele><time>2026-04-24T17:48:08.929Z</time></trkpt><trkpt lat="44.44204769067606" lon="11.462075039989738"><ele>69.60000000000001</ele><time>2026-04-24T17:48:10.929Z</time></trkpt><trkpt lat="44.442136369430365" lon="11.462164488287932"><ele>70.2</ele><time>2026-04-24T17:48:12.929Z</time></trkpt><trkpt lat="44.44222029351021" lon="11.462257233298436"><ele>70.80000000000001</ele><time>2026-04-24T17:48:14.929Z</time></trkpt><trkpt lat="44.442305537140186" lon="11.462346623259613"><ele>71.4</ele><time>2026-04-24T17:48:16.929Z</time></trkpt><trkpt lat="44.44239589308665" lon="11.462428815485373"><ele>72.0</ele><time>2026-04-24T17:48:18.929Z</time></trkpt><trkpt lat="44.44248447865896" lon="11.462514445297533"><ele>72.0</ele><time>2026-04-24T17:48:20.929Z</time></trkpt><trkpt lat="44.442572552807604" lon="11.462604045159527"><ele>72.0</ele><time>2026-04-24T17:48:22.929Z</time></trkpt><trkpt lat="44.44267127774796" lon="11.462705935756112"><ele>72.0</ele><time>2026-04-24T17:48:24.929Z</time></trkpt><trkpt lat="44.44276622886732" lon="11.462803919247445"><ele>72.0</ele><time>2026-04-24T17:48:26.929Z</time></trkpt><trkpt lat="44.44286648960082" lon="11.46290337943342"><ele>71.5</ele><time>2026-04-24T17:48:28.929Z</time></trkpt><trkpt lat="44.44296250529755" lon="11.46300699788112"><ele>71.0</ele><time>2026-04-24T17:48:30.93Z</time></trkpt><trkpt lat="44.443051564017225" lon="11.46311812670987"><ele>70.5</ele><time>2026-04-24T17:48:32.93Z</time></trkpt><trkpt lat="44.44314053215216" lon="11.463232464172176"><ele>70.0</ele><time>2026-04-24T17:48:34.931Z</time></trkpt><trkpt lat="44.44323248158231" lon="11.463347802329945"><ele>69.83333333333333</ele><time>2026-04-24T17:48:36.931Z</time></trkpt><trkpt lat="44.44332259125104" lon="11.463473090828106"><ele>69.66666666666666</ele><time>2026-04-24T17:48:38.93Z</time></trkpt><trkpt lat="44.44336882051929" lon="11.463539729566484"><ele>69.5</ele><time>2026-04-24T17:48:39.93Z</time></trkpt><trkpt lat="44.44341646612218" lon="11.463608336843661"><ele>69.33333333333333</ele><time>2026-04-24T17:48:40.931Z</time></trkpt><trkpt lat="44.44346175496568" lon="11.463674874894267"><ele>69.16666666666667</ele><time>2026-04-24T17:48:41.931Z</time></trkpt><trkpt lat="44.44350922890483" lon="11.46374851290289"><ele>69.0</ele><time>2026-04-24T17:48:42.93Z</time></trkpt><trkpt lat="44.4435546877859" lon="11.463815770318064"><ele>68.71428571428572</ele><time>2026-04-24T17:48:43.931Z</time></trkpt><trkpt lat="44.44359725006403" lon="11.46388948077052"><ele>68.42857142857143</ele><time>2026-04-24T17:48:44.931Z</time></trkpt><trkpt lat="44.44364113726108" lon="11.463958399952901"><ele>68.14285714285714</ele><time>2026-04-24T17:48:45.931Z</time></trkpt><trkpt lat="44.44368441565548" lon="11.464031854221133"><ele>67.85714285714286</ele><time>2026-04-24T17:48:46.931Z</time></trkpt><trkpt lat="44.44372616252331" lon="11.464101133902355"><ele>67.57142857142857</ele><time>2026-04-24T17:48:47.931Z</time></trkpt><trkpt lat="44.44377215689556" lon="11.464162788159474"><ele>67.28571428571429</ele><time>2026-04-24T17:48:48.931Z</time></trkpt><trkpt lat="44.44381868564001" lon="11.464233858985986"><ele>67.0</ele><time>2026-04-24T17:48:49.931Z</time></trkpt><trkpt lat="44.44386513751385" lon="11.464303790639368"><ele>66.57142857142857</ele><time>2026-04-24T17:48:50.931Z</time></trkpt><trkpt lat="44.44390721188098" lon="11.4643759903085"><ele>66.14285714285714</ele><time>2026-04-24T17:48:51.931Z</time></trkpt><trkpt lat="44.44395745774003" lon="11.464463418474763"><ele>65.71428571428571</ele><time>2026-04-24T17:48:52.931Z</time></trkpt><trkpt lat="44.44400495231478" lon="11.464539422709901"><ele>65.28571428571428</ele><time>2026-04-24T17:48:53.931Z</time></trkpt><trkpt lat="44.44404694397683" lon="11.464618708278127"><ele>64.85714285714285</ele><time>2026-04-24T17:48:54.931Z</time></trkpt><trkpt lat="44.44409368777028" lon="11.46469540671991"><ele>64.42857142857143</ele><time>2026-04-24T17:48:55.931Z</time></trkpt><trkpt lat="44.44413957442692" lon="11.464766200164535"><ele>64.0</ele><time>2026-04-24T17:48:56.931Z</time></trkpt><trkpt lat="44.44418914697049" lon="11.464838894351137"><ele>63.857142857142854</ele><time>2026-04-24T17:48:57.931Z</time></trkpt><trkpt lat="44.44423757462818" lon="11.464905583162494"><ele>63.71428571428571</ele><time>2026-04-24T17:48:58.931Z</time></trkpt><trkpt lat="44.444286663710166" lon="11.464976625138641"><ele>63.57142857142857</ele><time>2026-04-24T17:48:59.931Z</time></trkpt><trkpt lat="44.44433313042673" lon="11.465040024110653"><ele>63.42857142857143</ele><time>2026-04-24T17:49:00.931Z</time></trkpt><trkpt lat="44.44438097768524" lon="11.46510614537537"><ele>63.285714285714285</ele><time>2026-04-24T17:49:01.931Z</time></trkpt><trkpt lat="44.44443023321976" lon="11.46516161291881"><ele>63.14285714285714</ele><time>2026-04-24T17:49:02.931Z</time></trkpt><trkpt lat="44.444476874305124" lon="11.465221716746392"><ele>63.0</ele><time>2026-04-24T17:49:03.931Z</time></trkpt><trkpt lat="44.44457908686844" lon="11.465317614570928"><ele>62.8</ele><time>2026-04-24T17:49:05.931Z</time></trkpt><trkpt lat="44.44467163732137" lon="11.465420612962077"><ele>62.599999999999994</ele><time>2026-04-24T17:49:07.931Z</time></trkpt><trkpt lat="44.44475949762894" lon="11.465523448274128"><ele>62.400000000000006</ele><time>2026-04-24T17:49:09.931Z</time></trkpt><trkpt lat="44.444858854320735" lon="11.465605865348415"><ele>62.2</ele><time>2026-04-24T17:49:11.931Z</time></trkpt><trkpt lat="44.44492999348034" lon="11.465703276056624"><ele>62.0</ele><time>2026-04-24T17:49:13.931Z</time></trkpt><trkpt lat="44.44485656659298" lon="11.465883230587163"><ele>62.00000000000001</ele><time>2026-04-24T17:49:15.931Z</time></trkpt><trkpt lat="44.444792267032575" lon="11.466002082699948"><ele>62.0</ele><time>2026-04-24T17:49:17.931Z</time></trkpt><trkpt lat="44.444743417866846" lon="11.466102347308835"><ele>62.0</ele><time>2026-04-24T17:49:19.931Z</time></trkpt><trkpt lat="44.4446953093669" lon="11.46620192081716"><ele>62.0</ele><time>2026-04-24T17:49:21.931Z</time></trkpt><trkpt lat="44.444662733132866" lon="11.46630555591118"><ele>62.00000000000001</ele><time>2026-04-24T17:49:23.931Z</time></trkpt><trkpt lat="44.4446278163206" lon="11.466397100089402"><ele>62.0</ele><time>2026-04-24T17:49:25.931Z</time></trkpt><trkpt lat="44.44458932414593" lon="11.466497024008401"><ele>62.0</ele><time>2026-04-24T17:49:27.931Z</time></trkpt><trkpt lat="44.444546504563746" lon="11.466608181674427"><ele>62.0</ele><time>2026-04-24T17:49:29.931Z</time></trkpt><trkpt lat="44.44449100601175" lon="11.466752253372123"><ele>62.0</ele><time>2026-04-24T17:49:31.931Z</time></trkpt><trkpt lat="44.444438756260546" lon="11.466887695324566"><ele>62.0</ele><time>2026-04-24T17:49:33.931Z</time></trkpt><trkpt lat="44.44438712079453" lon="11.46702234254662"><ele>62.0</ele><time>2026-04-24T17:49:35.931Z</time></trkpt><trkpt lat="44.44433371714673" lon="11.467163539658939"><ele>62.0</ele><time>2026-04-24T17:49:37.931Z</time></trkpt><trkpt lat="44.444280048422726" lon="11.467305437620293"><ele>62.0</ele><time>2026-04-24T17:49:39.931Z</time></trkpt><trkpt lat="44.444232220290445" lon="11.467431893295778"><ele>62.0</ele><time>2026-04-24T17:49:41.931Z</time></trkpt><trkpt lat="44.44418559231297" lon="11.467555175804835"><ele>62.0</ele><time>2026-04-24T17:49:43.931Z</time></trkpt><trkpt lat="44.44413706513324" lon="11.467684277723361"><ele>62.0</ele><time>2026-04-24T17:49:45.931Z</time></trkpt><trkpt lat="44.444091255887926" lon="11.467806156019675"><ele>62.0</ele><time>2026-04-24T17:49:47.931Z</time></trkpt><trkpt lat="44.44404293433309" lon="11.467934718480269"><ele>62.0</ele><time>2026-04-24T17:49:49.931Z</time></trkpt><trkpt lat="44.44398857645016" lon="11.468052376228705"><ele>62.0</ele><time>2026-04-24T17:49:51.931Z</time></trkpt><trkpt lat="44.44392963565365" lon="11.468187995640697"><ele>62.0</ele><time>2026-04-24T17:49:53.931Z</time></trkpt><trkpt lat="44.44387544099798" lon="11.468316274256848"><ele>62.0</ele><time>2026-04-24T17:49:55.931Z</time></trkpt><trkpt lat="44.4438466992817" lon="11.46845680111305"><ele>62.0</ele><time>2026-04-24T17:49:57.931Z</time></trkpt><trkpt lat="44.44377752214239" lon="11.468564580734913"><ele>62.0</ele><time>2026-04-24T17:49:59.931Z</time></trkpt><trkpt lat="44.443728549790485" lon="11.468681022366649"><ele>62.0</ele><time>2026-04-24T17:50:01.931Z</time></trkpt><trkpt lat="44.44367897090376" lon="11.468802631066499"><ele>62.0</ele><time>2026-04-24T17:50:03.931Z</time></trkpt><trkpt lat="44.44362273278412" lon="11.468924803562972"><ele>62.0</ele><time>2026-04-24T17:50:05.931Z</time></trkpt><trkpt lat="44.44363285552304" lon="11.4690180751619"><ele>62.0</ele><time>2026-04-24T17:50:06.931Z</time></trkpt><trkpt lat="44.443587753853414" lon="11.469136624884781"><ele>62.0</ele><time>2026-04-24T17:50:08.931Z</time></trkpt><trkpt lat="44.44354150598001" lon="11.469258187405334"><ele>62.0</ele><time>2026-04-24T17:50:10.931Z</time></trkpt><trkpt lat="44.443505908873895" lon="11.469351754383327"><ele>62.0</ele><time>2026-04-24T17:50:12.931Z</time></trkpt><trkpt lat="44.443439883936605" lon="11.469449635266075"><ele>62.0</ele><time>2026-04-24T17:50:14.931Z</time></trkpt><trkpt lat="44.44340522760555" lon="11.469560796828947"><ele>62.400000000000006</ele><time>2026-04-24T17:50:16.931Z</time></trkpt><trkpt lat="44.443376552308685" lon="11.46968525134358"><ele>62.800000000000004</ele><time>2026-04-24T17:50:18.931Z</time></trkpt><trkpt lat="44.4433509589457" lon="11.469801293010146"><ele>63.2</ele><time>2026-04-24T17:50:20.931Z</time></trkpt><trkpt lat="44.443288416019875" lon="11.469936074545048"><ele>63.6</ele><time>2026-04-24T17:50:22.931Z</time></trkpt><trkpt lat="44.44324505589322" lon="11.47003355108037"><ele>64.0</ele><time>2026-04-24T17:50:25.931Z</time></trkpt><trkpt lat="44.4432098883429" lon="11.470141119163229"><ele>63.99999999999999</ele><time>2026-04-24T17:50:28.931Z</time></trkpt><trkpt lat="44.443165713090316" lon="11.470216010111237"><ele>64.0</ele><time>2026-04-24T17:50:31.931Z</time></trkpt><trkpt lat="44.443129928992605" lon="11.470292031518229"><ele>64.0</ele><time>2026-04-24T17:50:33.931Z</time></trkpt><trkpt lat="44.443095532916125" lon="11.470414526688888"><ele>64.0</ele><time>2026-04-24T17:50:36.932Z</time></trkpt><trkpt lat="44.443068110049936" lon="11.470516406973369"><ele>63.99999999999999</ele><time>2026-04-24T17:50:38.931Z</time></trkpt><trkpt lat="44.443046057367944" lon="11.470612664022612"><ele>64.0</ele><time>2026-04-24T17:50:40.932Z</time></trkpt><trkpt lat="44.44302488855241" lon="11.470728562588691"><ele>63.99999999999999</ele><time>2026-04-24T17:50:43.931Z</time></trkpt><trkpt lat="44.44294345274674" lon="11.47081303773956"><ele>64.0</ele><time>2026-04-24T17:50:46.931Z</time></trkpt><trkpt lat="44.44288437827399" lon="11.470885141708655"><ele>64.0</ele><time>2026-04-24T17:50:48.932Z</time></trkpt><trkpt lat="44.44287025938117" lon="11.47099931298005"><ele>64.0</ele><time>2026-04-24T17:50:51.932Z</time></trkpt><trkpt lat="44.442860650710344" lon="11.47109445870129"><ele>63.99999999999999</ele><time>2026-04-24T17:50:55.932Z</time></trkpt><trkpt lat="44.44283484683206" lon="11.471181753318772"><ele>64.0</ele><time>2026-04-24T17:50:59.932Z</time></trkpt><trkpt lat="44.44279391185599" lon="11.471253465074167"><ele>64.0</ele><time>2026-04-24T17:51:03.932Z</time></trkpt><trkpt lat="44.442826067746395" lon="11.471177108270597"><ele>64.0</ele><time>2026-04-24T17:51:21.932Z</time></trkpt><trkpt lat="44.442779368118174" lon="11.471114535269269"><ele>64.0</ele><time>2026-04-24T17:51:27.932Z</time></trkpt></trkseg></trk></gpx>